<?xml version="1.0" encoding="UTF-8" standalone="no" ?>
<gpx xmlns="http://www.topografix.com/GPX/1/1" xmlns:xsi="http://www.w3.org/2001/XMLSchema-instance" xsi:schemaLocation="http://www.topografix.com/GPX/1/1 http://www.topografix.com/GPX/1/1/gpx.xsd" version="1.1" creator="VisuGPX - https://www.visugpx.com">
  <metadata>
    <name>Hardangervidda 2019</name>
  </metadata>
  <trk>
    <name><![CDATA[CCCCC04-04 17:18:01]]></name>
    <trkseg>
      <trkpt lat="60.36789" lon="7.50461">
        <ele>1238.32</ele>
        <time>2019-04-04T10:55:16Z</time>
      </trkpt>
      <trkpt lat="60.36789" lon="7.50462">
        <ele>1238.32</ele>
        <time>2019-04-04T10:55:18Z</time>
      </trkpt>
      <trkpt lat="60.36788" lon="7.50462">
        <ele>1234.95</ele>
        <time>2019-04-04T10:55:30Z</time>
      </trkpt>
      <trkpt lat="60.36787" lon="7.50463">
        <ele>1236.87</ele>
        <time>2019-04-04T10:55:33Z</time>
      </trkpt>
      <trkpt lat="60.36777" lon="7.50488">
        <ele>1234.95</ele>
        <time>2019-04-04T10:55:47Z</time>
      </trkpt>
      <trkpt lat="60.36773" lon="7.50509">
        <ele>1234.47</ele>
        <time>2019-04-04T10:55:58Z</time>
      </trkpt>
      <trkpt lat="60.36772" lon="7.50509">
        <ele>1226.78</ele>
        <time>2019-04-04T10:56:01Z</time>
      </trkpt>
      <trkpt lat="60.36772" lon="7.5051">
        <ele>1238.32</ele>
        <time>2019-04-04T10:56:02Z</time>
      </trkpt>
      <trkpt lat="60.36772" lon="7.5051">
        <ele>1236.39</ele>
        <time>2019-04-04T10:56:03Z</time>
      </trkpt>
      <trkpt lat="60.36772" lon="7.5051">
        <ele>1233.51</ele>
        <time>2019-04-04T10:56:05Z</time>
      </trkpt>
      <trkpt lat="60.36772" lon="7.50511">
        <ele>1230.14</ele>
        <time>2019-04-04T10:56:15Z</time>
      </trkpt>
      <trkpt lat="60.36772" lon="7.50511">
        <ele>1237.35</ele>
        <time>2019-04-04T10:56:16Z</time>
      </trkpt>
      <trkpt lat="60.36772" lon="7.5051">
        <ele>1229.18</ele>
        <time>2019-04-04T10:56:17Z</time>
      </trkpt>
      <trkpt lat="60.36772" lon="7.50511">
        <ele>1233.51</ele>
        <time>2019-04-04T10:56:18Z</time>
      </trkpt>
      <trkpt lat="60.36772" lon="7.50511">
        <ele>1233.99</ele>
        <time>2019-04-04T10:56:22Z</time>
      </trkpt>
      <trkpt lat="60.36772" lon="7.5051">
        <ele>1229.66</ele>
        <time>2019-04-04T10:56:25Z</time>
      </trkpt>
      <trkpt lat="60.36772" lon="7.5051">
        <ele>1232.07</ele>
        <time>2019-04-04T10:56:26Z</time>
      </trkpt>
      <trkpt lat="60.36772" lon="7.50509">
        <ele>1236.39</ele>
        <time>2019-04-04T10:56:28Z</time>
      </trkpt>
      <trkpt lat="60.36772" lon="7.50509">
        <ele>1232.55</ele>
        <time>2019-04-04T10:56:29Z</time>
      </trkpt>
      <trkpt lat="60.36772" lon="7.50509">
        <ele>1233.99</ele>
        <time>2019-04-04T10:56:34Z</time>
      </trkpt>
      <trkpt lat="60.36772" lon="7.50509">
        <ele>1232.07</ele>
        <time>2019-04-04T10:56:42Z</time>
      </trkpt>
      <trkpt lat="60.36772" lon="7.50509">
        <ele>1234.47</ele>
        <time>2019-04-04T10:56:50Z</time>
      </trkpt>
      <trkpt lat="60.36771" lon="7.50509">
        <ele>1233.03</ele>
        <time>2019-04-04T10:56:54Z</time>
      </trkpt>
      <trkpt lat="60.36771" lon="7.5051">
        <ele>1234.47</ele>
        <time>2019-04-04T10:56:56Z</time>
      </trkpt>
      <trkpt lat="60.3677" lon="7.5051">
        <ele>1227.74</ele>
        <time>2019-04-04T10:57:17Z</time>
      </trkpt>
      <trkpt lat="60.3677" lon="7.5051">
        <ele>1232.55</ele>
        <time>2019-04-04T10:57:18Z</time>
      </trkpt>
      <trkpt lat="60.3677" lon="7.5051">
        <ele>1233.99</ele>
        <time>2019-04-04T10:57:21Z</time>
      </trkpt>
      <trkpt lat="60.3677" lon="7.5051">
        <ele>1235.43</ele>
        <time>2019-04-04T10:57:24Z</time>
      </trkpt>
      <trkpt lat="60.36771" lon="7.5051">
        <ele>1232.55</ele>
        <time>2019-04-04T10:57:29Z</time>
      </trkpt>
      <trkpt lat="60.36771" lon="7.50511">
        <ele>1233.51</ele>
        <time>2019-04-04T10:57:41Z</time>
      </trkpt>
      <trkpt lat="60.36771" lon="7.50511">
        <ele>1233.51</ele>
        <time>2019-04-04T10:57:42Z</time>
      </trkpt>
      <trkpt lat="60.36771" lon="7.50511">
        <ele>1233.51</ele>
        <time>2019-04-04T10:58:01Z</time>
      </trkpt>
      <trkpt lat="60.36771" lon="7.50511">
        <ele>1234.47</ele>
        <time>2019-04-04T10:58:03Z</time>
      </trkpt>
      <trkpt lat="60.36771" lon="7.50512">
        <ele>1232.55</ele>
        <time>2019-04-04T10:58:09Z</time>
      </trkpt>
      <trkpt lat="60.36771" lon="7.50512">
        <ele>1236.87</ele>
        <time>2019-04-04T10:58:10Z</time>
      </trkpt>
      <trkpt lat="60.36771" lon="7.50512">
        <ele>1233.99</ele>
        <time>2019-04-04T10:58:11Z</time>
      </trkpt>
      <trkpt lat="60.36771" lon="7.50511">
        <ele>1235.43</ele>
        <time>2019-04-04T10:58:14Z</time>
      </trkpt>
      <trkpt lat="60.36772" lon="7.50511">
        <ele>1233.99</ele>
        <time>2019-04-04T10:58:25Z</time>
      </trkpt>
      <trkpt lat="60.36772" lon="7.50513">
        <ele>1235.91</ele>
        <time>2019-04-04T10:58:36Z</time>
      </trkpt>
      <trkpt lat="60.36771" lon="7.50512">
        <ele>1234.47</ele>
        <time>2019-04-04T10:58:43Z</time>
      </trkpt>
      <trkpt lat="60.36771" lon="7.50512">
        <ele>1234.47</ele>
        <time>2019-04-04T10:58:59Z</time>
      </trkpt>
      <trkpt lat="60.36771" lon="7.5051">
        <ele>1234.47</ele>
        <time>2019-04-04T10:59:19Z</time>
      </trkpt>
      <trkpt lat="60.36771" lon="7.5051">
        <ele>1234.47</ele>
        <time>2019-04-04T10:59:32Z</time>
      </trkpt>
      <trkpt lat="60.36771" lon="7.50511">
        <ele>1233.99</ele>
        <time>2019-04-04T10:59:48Z</time>
      </trkpt>
      <trkpt lat="60.36772" lon="7.50511">
        <ele>1232.07</ele>
        <time>2019-04-04T10:59:50Z</time>
      </trkpt>
      <trkpt lat="60.36772" lon="7.50509">
        <ele>1232.07</ele>
        <time>2019-04-04T11:00:10Z</time>
      </trkpt>
      <trkpt lat="60.36771" lon="7.50508">
        <ele>1232.07</ele>
        <time>2019-04-04T11:00:26Z</time>
      </trkpt>
      <trkpt lat="60.36772" lon="7.50508">
        <ele>1232.07</ele>
        <time>2019-04-04T11:00:43Z</time>
      </trkpt>
      <trkpt lat="60.36772" lon="7.50509">
        <ele>1232.07</ele>
        <time>2019-04-04T11:01:02Z</time>
      </trkpt>
      <trkpt lat="60.36771" lon="7.50511">
        <ele>1232.07</ele>
        <time>2019-04-04T11:01:26Z</time>
      </trkpt>
      <trkpt lat="60.36772" lon="7.5051">
        <ele>1231.59</ele>
        <time>2019-04-04T11:01:45Z</time>
      </trkpt>
      <trkpt lat="60.36772" lon="7.50511">
        <ele>1231.59</ele>
        <time>2019-04-04T11:02:09Z</time>
      </trkpt>
      <trkpt lat="60.36772" lon="7.5051">
        <ele>1231.59</ele>
        <time>2019-04-04T11:02:37Z</time>
      </trkpt>
      <trkpt lat="60.36772" lon="7.5051">
        <ele>1231.59</ele>
        <time>2019-04-04T11:02:58Z</time>
      </trkpt>
      <trkpt lat="60.36772" lon="7.5051">
        <ele>1231.59</ele>
        <time>2019-04-04T11:03:20Z</time>
      </trkpt>
      <trkpt lat="60.36771" lon="7.5051">
        <ele>1231.59</ele>
        <time>2019-04-04T11:03:39Z</time>
      </trkpt>
      <trkpt lat="60.36772" lon="7.50509">
        <ele>1231.59</ele>
        <time>2019-04-04T11:04:02Z</time>
      </trkpt>
      <trkpt lat="60.36772" lon="7.50508">
        <ele>1232.07</ele>
        <time>2019-04-04T11:04:19Z</time>
      </trkpt>
      <trkpt lat="60.36772" lon="7.50509">
        <ele>1231.59</ele>
        <time>2019-04-04T11:04:42Z</time>
      </trkpt>
      <trkpt lat="60.36773" lon="7.50509">
        <ele>1231.59</ele>
        <time>2019-04-04T11:05:02Z</time>
      </trkpt>
      <trkpt lat="60.36771" lon="7.50512">
        <ele>1232.07</ele>
        <time>2019-04-04T11:05:25Z</time>
      </trkpt>
      <trkpt lat="60.3677" lon="7.50513">
        <ele>1232.07</ele>
        <time>2019-04-04T11:05:54Z</time>
      </trkpt>
      <trkpt lat="60.36771" lon="7.50513">
        <ele>1232.07</ele>
        <time>2019-04-04T11:06:29Z</time>
      </trkpt>
      <trkpt lat="60.36771" lon="7.50513">
        <ele>1232.07</ele>
        <time>2019-04-04T11:06:54Z</time>
      </trkpt>
      <trkpt lat="60.36771" lon="7.50514">
        <ele>1232.07</ele>
        <time>2019-04-04T11:07:22Z</time>
      </trkpt>
      <trkpt lat="60.36771" lon="7.50513">
        <ele>1232.07</ele>
        <time>2019-04-04T11:07:38Z</time>
      </trkpt>
      <trkpt lat="60.3677" lon="7.50515">
        <ele>1232.55</ele>
        <time>2019-04-04T11:07:45Z</time>
      </trkpt>
      <trkpt lat="60.36769" lon="7.50512">
        <ele>1232.55</ele>
        <time>2019-04-04T11:08:03Z</time>
      </trkpt>
      <trkpt lat="60.3677" lon="7.50512">
        <ele>1232.55</ele>
        <time>2019-04-04T11:08:26Z</time>
      </trkpt>
      <trkpt lat="60.3677" lon="7.50512">
        <ele>1232.55</ele>
        <time>2019-04-04T11:08:52Z</time>
      </trkpt>
      <trkpt lat="60.3677" lon="7.50511">
        <ele>1232.55</ele>
        <time>2019-04-04T11:09:14Z</time>
      </trkpt>
      <trkpt lat="60.3677" lon="7.50511">
        <ele>1232.55</ele>
        <time>2019-04-04T11:09:17Z</time>
      </trkpt>
      <trkpt lat="60.3677" lon="7.5051">
        <ele>1231.59</ele>
        <time>2019-04-04T11:09:21Z</time>
      </trkpt>
      <trkpt lat="60.36769" lon="7.5051">
        <ele>1234.47</ele>
        <time>2019-04-04T11:09:23Z</time>
      </trkpt>
      <trkpt lat="60.36771" lon="7.50509">
        <ele>1233.03</ele>
        <time>2019-04-04T11:09:26Z</time>
      </trkpt>
      <trkpt lat="60.36771" lon="7.5051">
        <ele>1232.55</ele>
        <time>2019-04-04T11:09:34Z</time>
      </trkpt>
      <trkpt lat="60.36771" lon="7.5051">
        <ele>1234.95</ele>
        <time>2019-04-04T11:09:37Z</time>
      </trkpt>
      <trkpt lat="60.3677" lon="7.50514">
        <ele>1233.51</ele>
        <time>2019-04-04T11:09:54Z</time>
      </trkpt>
      <trkpt lat="60.3677" lon="7.50514">
        <ele>1233.51</ele>
        <time>2019-04-04T11:09:55Z</time>
      </trkpt>
      <trkpt lat="60.36771" lon="7.50515">
        <ele>1233.51</ele>
        <time>2019-04-04T11:10:09Z</time>
      </trkpt>
      <trkpt lat="60.36771" lon="7.50514">
        <ele>1233.51</ele>
        <time>2019-04-04T11:10:19Z</time>
      </trkpt>
      <trkpt lat="60.36771" lon="7.50513">
        <ele>1234.47</ele>
        <time>2019-04-04T11:10:30Z</time>
      </trkpt>
      <trkpt lat="60.36767" lon="7.50519">
        <ele>1233.51</ele>
        <time>2019-04-04T11:10:37Z</time>
      </trkpt>
      <trkpt lat="60.36765" lon="7.50526">
        <ele>1233.51</ele>
        <time>2019-04-04T11:10:47Z</time>
      </trkpt>
      <trkpt lat="60.3676" lon="7.50531">
        <ele>1233.03</ele>
        <time>2019-04-04T11:10:58Z</time>
      </trkpt>
      <trkpt lat="60.3676" lon="7.50534">
        <ele>1234.47</ele>
        <time>2019-04-04T11:11:08Z</time>
      </trkpt>
      <trkpt lat="60.36758" lon="7.5054">
        <ele>1233.03</ele>
        <time>2019-04-04T11:11:21Z</time>
      </trkpt>
      <trkpt lat="60.36758" lon="7.50541">
        <ele>1227.26</ele>
        <time>2019-04-04T11:11:24Z</time>
      </trkpt>
      <trkpt lat="60.36758" lon="7.5054">
        <ele>1236.39</ele>
        <time>2019-04-04T11:11:25Z</time>
      </trkpt>
      <trkpt lat="60.36758" lon="7.5054">
        <ele>1232.55</ele>
        <time>2019-04-04T11:11:26Z</time>
      </trkpt>
      <trkpt lat="60.36757" lon="7.5054">
        <ele>1228.22</ele>
        <time>2019-04-04T11:11:39Z</time>
      </trkpt>
      <trkpt lat="60.36757" lon="7.5054">
        <ele>1233.99</ele>
        <time>2019-04-04T11:11:40Z</time>
      </trkpt>
      <trkpt lat="60.36757" lon="7.50539">
        <ele>1232.07</ele>
        <time>2019-04-04T11:11:45Z</time>
      </trkpt>
      <trkpt lat="60.36758" lon="7.50541">
        <ele>1233.51</ele>
        <time>2019-04-04T11:12:06Z</time>
      </trkpt>
      <trkpt lat="60.36758" lon="7.50542">
        <ele>1232.07</ele>
        <time>2019-04-04T11:12:08Z</time>
      </trkpt>
      <trkpt lat="60.36758" lon="7.50541">
        <ele>1232.55</ele>
        <time>2019-04-04T11:12:18Z</time>
      </trkpt>
      <trkpt lat="60.36755" lon="7.50546">
        <ele>1231.59</ele>
        <time>2019-04-04T11:12:31Z</time>
      </trkpt>
      <trkpt lat="60.36755" lon="7.50547">
        <ele>1233.03</ele>
        <time>2019-04-04T11:12:33Z</time>
      </trkpt>
      <trkpt lat="60.36754" lon="7.50549">
        <ele>1231.11</ele>
        <time>2019-04-04T11:12:39Z</time>
      </trkpt>
      <trkpt lat="60.36754" lon="7.5055">
        <ele>1231.11</ele>
        <time>2019-04-04T11:12:45Z</time>
      </trkpt>
      <trkpt lat="60.3676" lon="7.5053">
        <ele>1231.11</ele>
        <time>2019-04-04T11:12:55Z</time>
      </trkpt>
      <trkpt lat="60.3676" lon="7.50521">
        <ele>1231.11</ele>
        <time>2019-04-04T11:13:02Z</time>
      </trkpt>
      <trkpt lat="60.36759" lon="7.50516">
        <ele>1230.14</ele>
        <time>2019-04-04T11:13:08Z</time>
      </trkpt>
      <trkpt lat="60.36752" lon="7.50522">
        <ele>1228.22</ele>
        <time>2019-04-04T11:13:12Z</time>
      </trkpt>
      <trkpt lat="60.36743" lon="7.50533">
        <ele>1227.26</ele>
        <time>2019-04-04T11:13:14Z</time>
      </trkpt>
      <trkpt lat="60.3673" lon="7.5055">
        <ele>1228.7</ele>
        <time>2019-04-04T11:13:17Z</time>
      </trkpt>
      <trkpt lat="60.36726" lon="7.50557">
        <ele>1227.26</ele>
        <time>2019-04-04T11:13:19Z</time>
      </trkpt>
      <trkpt lat="60.36721" lon="7.50557">
        <ele>1228.7</ele>
        <time>2019-04-04T11:13:22Z</time>
      </trkpt>
      <trkpt lat="60.36727" lon="7.5055">
        <ele>1229.18</ele>
        <time>2019-04-04T11:13:27Z</time>
      </trkpt>
      <trkpt lat="60.3674" lon="7.50541">
        <ele>1231.11</ele>
        <time>2019-04-04T11:13:30Z</time>
      </trkpt>
      <trkpt lat="60.36767" lon="7.50504">
        <ele>1233.03</ele>
        <time>2019-04-04T11:13:34Z</time>
      </trkpt>
      <trkpt lat="60.36787" lon="7.50477">
        <ele>1234.95</ele>
        <time>2019-04-04T11:13:39Z</time>
      </trkpt>
      <trkpt lat="60.36793" lon="7.50463">
        <ele>1234.95</ele>
        <time>2019-04-04T11:13:43Z</time>
      </trkpt>
      <trkpt lat="60.36789" lon="7.50467">
        <ele>1232.07</ele>
        <time>2019-04-04T11:13:50Z</time>
      </trkpt>
      <trkpt lat="60.36789" lon="7.50467">
        <ele>1232.07</ele>
        <time>2019-04-04T11:13:51Z</time>
      </trkpt>
      <trkpt lat="60.36789" lon="7.50467">
        <ele>1233.99</ele>
        <time>2019-04-04T11:13:53Z</time>
      </trkpt>
      <trkpt lat="60.36787" lon="7.50466">
        <ele>1234.95</ele>
        <time>2019-04-04T11:14:04Z</time>
      </trkpt>
      <trkpt lat="60.36788" lon="7.50467">
        <ele>1234.47</ele>
        <time>2019-04-04T11:14:16Z</time>
      </trkpt>
      <trkpt lat="60.36788" lon="7.50467">
        <ele>1235.43</ele>
        <time>2019-04-04T11:14:29Z</time>
      </trkpt>
      <trkpt lat="60.36788" lon="7.50467">
        <ele>1235.43</ele>
        <time>2019-04-04T11:14:48Z</time>
      </trkpt>
      <trkpt lat="60.36788" lon="7.50467">
        <ele>1234.47</ele>
        <time>2019-04-04T11:15:08Z</time>
      </trkpt>
      <trkpt lat="60.36787" lon="7.50462">
        <ele>1235.91</ele>
        <time>2019-04-04T11:15:18Z</time>
      </trkpt>
      <trkpt lat="60.36787" lon="7.50461">
        <ele>1236.39</ele>
        <time>2019-04-04T11:15:20Z</time>
      </trkpt>
      <trkpt lat="60.36787" lon="7.50458">
        <ele>1236.39</ele>
        <time>2019-04-04T11:15:21Z</time>
      </trkpt>
      <trkpt lat="60.36788" lon="7.50456">
        <ele>1236.39</ele>
        <time>2019-04-04T11:15:22Z</time>
      </trkpt>
      <trkpt lat="60.3679" lon="7.50455">
        <ele>1236.39</ele>
        <time>2019-04-04T11:15:30Z</time>
      </trkpt>
      <trkpt lat="60.36789" lon="7.50455">
        <ele>1236.39</ele>
        <time>2019-04-04T11:15:36Z</time>
      </trkpt>
      <trkpt lat="60.36787" lon="7.50453">
        <ele>1234.95</ele>
        <time>2019-04-04T11:15:38Z</time>
      </trkpt>
      <trkpt lat="60.36785" lon="7.50451">
        <ele>1234.47</ele>
        <time>2019-04-04T11:15:46Z</time>
      </trkpt>
      <trkpt lat="60.36781" lon="7.50453">
        <ele>1235.43</ele>
        <time>2019-04-04T11:15:57Z</time>
      </trkpt>
      <trkpt lat="60.3678" lon="7.50454">
        <ele>1235.43</ele>
        <time>2019-04-04T11:16:08Z</time>
      </trkpt>
      <trkpt lat="60.36769" lon="7.50476">
        <ele>1230.14</ele>
        <time>2019-04-04T11:16:14Z</time>
      </trkpt>
      <trkpt lat="60.36767" lon="7.50482">
        <ele>1230.14</ele>
        <time>2019-04-04T11:16:15Z</time>
      </trkpt>
      <trkpt lat="60.3676" lon="7.50511">
        <ele>1229.18</ele>
        <time>2019-04-04T11:16:20Z</time>
      </trkpt>
      <trkpt lat="60.36754" lon="7.50515">
        <ele>1230.14</ele>
        <time>2019-04-04T11:16:24Z</time>
      </trkpt>
      <trkpt lat="60.36753" lon="7.50513">
        <ele>1230.62</ele>
        <time>2019-04-04T11:16:28Z</time>
      </trkpt>
      <trkpt lat="60.36749" lon="7.50514">
        <ele>1225.34</ele>
        <time>2019-04-04T11:16:34Z</time>
      </trkpt>
      <trkpt lat="60.36749" lon="7.50514">
        <ele>1231.59</ele>
        <time>2019-04-04T11:16:35Z</time>
      </trkpt>
      <trkpt lat="60.36749" lon="7.50515">
        <ele>1230.14</ele>
        <time>2019-04-04T11:16:40Z</time>
      </trkpt>
      <trkpt lat="60.36742" lon="7.5052">
        <ele>1221.97</ele>
        <time>2019-04-04T11:16:48Z</time>
      </trkpt>
      <trkpt lat="60.36742" lon="7.5052">
        <ele>1229.66</ele>
        <time>2019-04-04T11:16:49Z</time>
      </trkpt>
      <trkpt lat="60.36742" lon="7.50519">
        <ele>1230.62</ele>
        <time>2019-04-04T11:16:51Z</time>
      </trkpt>
      <trkpt lat="60.36725" lon="7.50541">
        <ele>1224.86</ele>
        <time>2019-04-04T11:16:57Z</time>
      </trkpt>
      <trkpt lat="60.36709" lon="7.50563">
        <ele>1221.01</ele>
        <time>2019-04-04T11:17:00Z</time>
      </trkpt>
      <trkpt lat="60.36678" lon="7.5061">
        <ele>1220.53</ele>
        <time>2019-04-04T11:17:07Z</time>
      </trkpt>
      <trkpt lat="60.36676" lon="7.5061">
        <ele>1223.9</ele>
        <time>2019-04-04T11:17:09Z</time>
      </trkpt>
      <trkpt lat="60.36675" lon="7.50607">
        <ele>1224.38</ele>
        <time>2019-04-04T11:17:11Z</time>
      </trkpt>
      <trkpt lat="60.36675" lon="7.50606">
        <ele>1221.01</ele>
        <time>2019-04-04T11:17:12Z</time>
      </trkpt>
      <trkpt lat="60.36675" lon="7.50605">
        <ele>1224.86</ele>
        <time>2019-04-04T11:17:13Z</time>
      </trkpt>
      <trkpt lat="60.36673" lon="7.50603">
        <ele>1215.72</ele>
        <time>2019-04-04T11:17:16Z</time>
      </trkpt>
      <trkpt lat="60.36674" lon="7.50603">
        <ele>1226.3</ele>
        <time>2019-04-04T11:17:17Z</time>
      </trkpt>
      <trkpt lat="60.36674" lon="7.50603">
        <ele>1226.3</ele>
        <time>2019-04-04T11:17:18Z</time>
      </trkpt>
      <trkpt lat="60.36673" lon="7.50603">
        <ele>1224.38</ele>
        <time>2019-04-04T11:17:21Z</time>
      </trkpt>
      <trkpt lat="60.36671" lon="7.50602">
        <ele>1223.42</ele>
        <time>2019-04-04T11:17:23Z</time>
      </trkpt>
      <trkpt lat="60.3667" lon="7.506">
        <ele>1225.34</ele>
        <time>2019-04-04T11:17:27Z</time>
      </trkpt>
      <trkpt lat="60.3667" lon="7.506">
        <ele>1223.9</ele>
        <time>2019-04-04T11:17:31Z</time>
      </trkpt>
      <trkpt lat="60.36667" lon="7.50598">
        <ele>1217.17</ele>
        <time>2019-04-04T11:17:34Z</time>
      </trkpt>
      <trkpt lat="60.36666" lon="7.50597">
        <ele>1225.34</ele>
        <time>2019-04-04T11:17:35Z</time>
      </trkpt>
      <trkpt lat="60.36665" lon="7.50595">
        <ele>1223.9</ele>
        <time>2019-04-04T11:17:44Z</time>
      </trkpt>
      <trkpt lat="60.36656" lon="7.50606">
        <ele>1220.53</ele>
        <time>2019-04-04T11:17:49Z</time>
      </trkpt>
      <trkpt lat="60.36648" lon="7.5062">
        <ele>1219.57</ele>
        <time>2019-04-04T11:17:51Z</time>
      </trkpt>
      <trkpt lat="60.36644" lon="7.50627">
        <ele>1219.57</ele>
        <time>2019-04-04T11:17:52Z</time>
      </trkpt>
      <trkpt lat="60.3662" lon="7.5067">
        <ele>1218.13</ele>
        <time>2019-04-04T11:17:58Z</time>
      </trkpt>
      <trkpt lat="60.36607" lon="7.5071">
        <ele>1219.09</ele>
        <time>2019-04-04T11:18:05Z</time>
      </trkpt>
      <trkpt lat="60.36604" lon="7.50715">
        <ele>1222.45</ele>
        <time>2019-04-04T11:18:09Z</time>
      </trkpt>
      <trkpt lat="60.36604" lon="7.50715">
        <ele>1222.45</ele>
        <time>2019-04-04T11:18:10Z</time>
      </trkpt>
      <trkpt lat="60.36603" lon="7.50713">
        <ele>1221.97</ele>
        <time>2019-04-04T11:18:16Z</time>
      </trkpt>
      <trkpt lat="60.36599" lon="7.50716">
        <ele>1220.05</ele>
        <time>2019-04-04T11:18:19Z</time>
      </trkpt>
      <trkpt lat="60.36591" lon="7.5073">
        <ele>1219.09</ele>
        <time>2019-04-04T11:18:23Z</time>
      </trkpt>
      <trkpt lat="60.36586" lon="7.50741">
        <ele>1217.65</ele>
        <time>2019-04-04T11:18:25Z</time>
      </trkpt>
      <trkpt lat="60.36572" lon="7.50771">
        <ele>1216.69</ele>
        <time>2019-04-04T11:18:30Z</time>
      </trkpt>
      <trkpt lat="60.36564" lon="7.50791">
        <ele>1215.72</ele>
        <time>2019-04-04T11:18:33Z</time>
      </trkpt>
      <trkpt lat="60.36545" lon="7.50838">
        <ele>1216.21</ele>
        <time>2019-04-04T11:18:42Z</time>
      </trkpt>
      <trkpt lat="60.36542" lon="7.50839">
        <ele>1217.65</ele>
        <time>2019-04-04T11:18:45Z</time>
      </trkpt>
      <trkpt lat="60.3654" lon="7.50836">
        <ele>1216.69</ele>
        <time>2019-04-04T11:18:56Z</time>
      </trkpt>
      <trkpt lat="60.3654" lon="7.50836">
        <ele>1217.65</ele>
        <time>2019-04-04T11:19:06Z</time>
      </trkpt>
      <trkpt lat="60.36531" lon="7.50848">
        <ele>1213.8</ele>
        <time>2019-04-04T11:19:10Z</time>
      </trkpt>
      <trkpt lat="60.36524" lon="7.50864">
        <ele>1211.4</ele>
        <time>2019-04-04T11:19:12Z</time>
      </trkpt>
      <trkpt lat="60.36511" lon="7.50898">
        <ele>1210.44</ele>
        <time>2019-04-04T11:19:16Z</time>
      </trkpt>
      <trkpt lat="60.36501" lon="7.50913">
        <ele>1210.44</ele>
        <time>2019-04-04T11:19:18Z</time>
      </trkpt>
      <trkpt lat="60.36493" lon="7.50929">
        <ele>1211.88</ele>
        <time>2019-04-04T11:19:20Z</time>
      </trkpt>
      <trkpt lat="60.36486" lon="7.50944">
        <ele>1211.88</ele>
        <time>2019-04-04T11:19:22Z</time>
      </trkpt>
      <trkpt lat="60.36477" lon="7.50966">
        <ele>1209.96</ele>
        <time>2019-04-04T11:19:25Z</time>
      </trkpt>
      <trkpt lat="60.36473" lon="7.50972">
        <ele>1211.88</ele>
        <time>2019-04-04T11:19:26Z</time>
      </trkpt>
      <trkpt lat="60.36453" lon="7.51007">
        <ele>1215.24</ele>
        <time>2019-04-04T11:19:35Z</time>
      </trkpt>
      <trkpt lat="60.36453" lon="7.51006">
        <ele>1215.24</ele>
        <time>2019-04-04T11:19:36Z</time>
      </trkpt>
      <trkpt lat="60.36452" lon="7.51004">
        <ele>1215.72</ele>
        <time>2019-04-04T11:19:51Z</time>
      </trkpt>
      <trkpt lat="60.36448" lon="7.51">
        <ele>1215.72</ele>
        <time>2019-04-04T11:20:04Z</time>
      </trkpt>
      <trkpt lat="60.36448" lon="7.50999">
        <ele>1215.72</ele>
        <time>2019-04-04T11:20:21Z</time>
      </trkpt>
      <trkpt lat="60.36442" lon="7.51004">
        <ele>1211.4</ele>
        <time>2019-04-04T11:20:24Z</time>
      </trkpt>
      <trkpt lat="60.36438" lon="7.51009">
        <ele>1212.84</ele>
        <time>2019-04-04T11:20:25Z</time>
      </trkpt>
      <trkpt lat="60.36433" lon="7.51015">
        <ele>1212.84</ele>
        <time>2019-04-04T11:20:26Z</time>
      </trkpt>
      <trkpt lat="60.36415" lon="7.51029">
        <ele>1210.92</ele>
        <time>2019-04-04T11:20:29Z</time>
      </trkpt>
      <trkpt lat="60.364" lon="7.51032">
        <ele>1210.92</ele>
        <time>2019-04-04T11:20:31Z</time>
      </trkpt>
      <trkpt lat="60.36386" lon="7.5104">
        <ele>1212.36</ele>
        <time>2019-04-04T11:20:33Z</time>
      </trkpt>
      <trkpt lat="60.36336" lon="7.51101">
        <ele>1209.48</ele>
        <time>2019-04-04T11:20:42Z</time>
      </trkpt>
      <trkpt lat="60.36301" lon="7.51148">
        <ele>1211.88</ele>
        <time>2019-04-04T11:20:49Z</time>
      </trkpt>
      <trkpt lat="60.36259" lon="7.51208">
        <ele>1212.84</ele>
        <time>2019-04-04T11:20:58Z</time>
      </trkpt>
      <trkpt lat="60.36254" lon="7.51213">
        <ele>1212.84</ele>
        <time>2019-04-04T11:20:59Z</time>
      </trkpt>
      <trkpt lat="60.3624" lon="7.5123">
        <ele>1210.92</ele>
        <time>2019-04-04T11:21:02Z</time>
      </trkpt>
      <trkpt lat="60.36218" lon="7.51255">
        <ele>1214.28</ele>
        <time>2019-04-04T11:21:07Z</time>
      </trkpt>
      <trkpt lat="60.36205" lon="7.5127">
        <ele>1214.76</ele>
        <time>2019-04-04T11:21:10Z</time>
      </trkpt>
      <trkpt lat="60.36198" lon="7.51281">
        <ele>1216.69</ele>
        <time>2019-04-04T11:21:12Z</time>
      </trkpt>
      <trkpt lat="60.36168" lon="7.51321">
        <ele>1213.8</ele>
        <time>2019-04-04T11:21:20Z</time>
      </trkpt>
      <trkpt lat="60.36163" lon="7.51326">
        <ele>1213.8</ele>
        <time>2019-04-04T11:21:21Z</time>
      </trkpt>
      <trkpt lat="60.3615" lon="7.51345">
        <ele>1215.24</ele>
        <time>2019-04-04T11:21:24Z</time>
      </trkpt>
      <trkpt lat="60.36146" lon="7.51351">
        <ele>1215.24</ele>
        <time>2019-04-04T11:21:25Z</time>
      </trkpt>
      <trkpt lat="60.36107" lon="7.51407">
        <ele>1218.61</ele>
        <time>2019-04-04T11:21:34Z</time>
      </trkpt>
      <trkpt lat="60.36099" lon="7.51418">
        <ele>1215.72</ele>
        <time>2019-04-04T11:21:36Z</time>
      </trkpt>
      <trkpt lat="60.36089" lon="7.5143">
        <ele>1214.76</ele>
        <time>2019-04-04T11:21:38Z</time>
      </trkpt>
      <trkpt lat="60.36079" lon="7.51442">
        <ele>1216.21</ele>
        <time>2019-04-04T11:21:40Z</time>
      </trkpt>
      <trkpt lat="60.36069" lon="7.51454">
        <ele>1214.76</ele>
        <time>2019-04-04T11:21:42Z</time>
      </trkpt>
      <trkpt lat="60.3606" lon="7.51468">
        <ele>1216.21</ele>
        <time>2019-04-04T11:21:44Z</time>
      </trkpt>
      <trkpt lat="60.36036" lon="7.515">
        <ele>1214.28</ele>
        <time>2019-04-04T11:21:49Z</time>
      </trkpt>
      <trkpt lat="60.3602" lon="7.51527">
        <ele>1216.21</ele>
        <time>2019-04-04T11:21:53Z</time>
      </trkpt>
      <trkpt lat="60.36004" lon="7.5155">
        <ele>1214.76</ele>
        <time>2019-04-04T11:21:57Z</time>
      </trkpt>
      <trkpt lat="60.35994" lon="7.51572">
        <ele>1213.8</ele>
        <time>2019-04-04T11:22:00Z</time>
      </trkpt>
      <trkpt lat="60.35975" lon="7.51618">
        <ele>1213.32</ele>
        <time>2019-04-04T11:22:06Z</time>
      </trkpt>
      <trkpt lat="60.35947" lon="7.51655">
        <ele>1210.92</ele>
        <time>2019-04-04T11:22:12Z</time>
      </trkpt>
      <trkpt lat="60.35935" lon="7.51667">
        <ele>1209.96</ele>
        <time>2019-04-04T11:22:14Z</time>
      </trkpt>
      <trkpt lat="60.35916" lon="7.51682">
        <ele>1207.07</ele>
        <time>2019-04-04T11:22:17Z</time>
      </trkpt>
      <trkpt lat="60.35889" lon="7.51715">
        <ele>1205.63</ele>
        <time>2019-04-04T11:22:22Z</time>
      </trkpt>
      <trkpt lat="60.35877" lon="7.51723">
        <ele>1204.67</ele>
        <time>2019-04-04T11:22:24Z</time>
      </trkpt>
      <trkpt lat="60.35865" lon="7.5173">
        <ele>1204.19</ele>
        <time>2019-04-04T11:22:26Z</time>
      </trkpt>
      <trkpt lat="60.3584" lon="7.5174">
        <ele>1204.19</ele>
        <time>2019-04-04T11:22:30Z</time>
      </trkpt>
      <trkpt lat="60.35822" lon="7.51772">
        <ele>1203.71</ele>
        <time>2019-04-04T11:22:35Z</time>
      </trkpt>
      <trkpt lat="60.35808" lon="7.51799">
        <ele>1201.79</ele>
        <time>2019-04-04T11:22:39Z</time>
      </trkpt>
      <trkpt lat="60.3579" lon="7.5184">
        <ele>1200.34</ele>
        <time>2019-04-04T11:22:44Z</time>
      </trkpt>
      <trkpt lat="60.35781" lon="7.51855">
        <ele>1198.9</ele>
        <time>2019-04-04T11:22:46Z</time>
      </trkpt>
      <trkpt lat="60.35771" lon="7.51872">
        <ele>1196.5</ele>
        <time>2019-04-04T11:22:48Z</time>
      </trkpt>
      <trkpt lat="60.35762" lon="7.51891">
        <ele>1193.13</ele>
        <time>2019-04-04T11:22:50Z</time>
      </trkpt>
      <trkpt lat="60.35738" lon="7.51934">
        <ele>1191.21</ele>
        <time>2019-04-04T11:22:55Z</time>
      </trkpt>
      <trkpt lat="60.35728" lon="7.51951">
        <ele>1189.29</ele>
        <time>2019-04-04T11:22:57Z</time>
      </trkpt>
      <trkpt lat="60.35719" lon="7.51967">
        <ele>1188.33</ele>
        <time>2019-04-04T11:22:59Z</time>
      </trkpt>
      <trkpt lat="60.35704" lon="7.51988">
        <ele>1187.37</ele>
        <time>2019-04-04T11:23:02Z</time>
      </trkpt>
      <trkpt lat="60.35678" lon="7.52022">
        <ele>1187.85</ele>
        <time>2019-04-04T11:23:07Z</time>
      </trkpt>
      <trkpt lat="60.35666" lon="7.52036">
        <ele>1185.92</ele>
        <time>2019-04-04T11:23:09Z</time>
      </trkpt>
      <trkpt lat="60.35653" lon="7.5205">
        <ele>1184</ele>
        <time>2019-04-04T11:23:11Z</time>
      </trkpt>
      <trkpt lat="60.35647" lon="7.52057">
        <ele>1183.04</ele>
        <time>2019-04-04T11:23:12Z</time>
      </trkpt>
      <trkpt lat="60.35631" lon="7.5208">
        <ele>1181.6</ele>
        <time>2019-04-04T11:23:15Z</time>
      </trkpt>
      <trkpt lat="60.35626" lon="7.52087">
        <ele>1181.6</ele>
        <time>2019-04-04T11:23:16Z</time>
      </trkpt>
      <trkpt lat="60.35618" lon="7.52101">
        <ele>1181.12</ele>
        <time>2019-04-04T11:23:19Z</time>
      </trkpt>
      <trkpt lat="60.35615" lon="7.52098">
        <ele>1184.96</ele>
        <time>2019-04-04T11:23:26Z</time>
      </trkpt>
      <trkpt lat="60.35614" lon="7.52097">
        <ele>1185.44</ele>
        <time>2019-04-04T11:23:28Z</time>
      </trkpt>
      <trkpt lat="60.35601" lon="7.52093">
        <ele>1183.52</ele>
        <time>2019-04-04T11:23:34Z</time>
      </trkpt>
      <trkpt lat="60.35585" lon="7.52107">
        <ele>1178.71</ele>
        <time>2019-04-04T11:23:37Z</time>
      </trkpt>
      <trkpt lat="60.35574" lon="7.52122">
        <ele>1178.71</ele>
        <time>2019-04-04T11:23:39Z</time>
      </trkpt>
      <trkpt lat="60.35553" lon="7.5215">
        <ele>1178.23</ele>
        <time>2019-04-04T11:23:43Z</time>
      </trkpt>
      <trkpt lat="60.35532" lon="7.52169">
        <ele>1177.27</ele>
        <time>2019-04-04T11:23:47Z</time>
      </trkpt>
      <trkpt lat="60.35523" lon="7.52182">
        <ele>1177.27</ele>
        <time>2019-04-04T11:23:49Z</time>
      </trkpt>
      <trkpt lat="60.35506" lon="7.52211">
        <ele>1176.31</ele>
        <time>2019-04-04T11:23:53Z</time>
      </trkpt>
      <trkpt lat="60.35501" lon="7.52217">
        <ele>1175.35</ele>
        <time>2019-04-04T11:23:54Z</time>
      </trkpt>
      <trkpt lat="60.35492" lon="7.52227">
        <ele>1174.87</ele>
        <time>2019-04-04T11:23:56Z</time>
      </trkpt>
      <trkpt lat="60.35466" lon="7.52258">
        <ele>1171.02</ele>
        <time>2019-04-04T11:24:01Z</time>
      </trkpt>
      <trkpt lat="60.35436" lon="7.5229">
        <ele>1167.66</ele>
        <time>2019-04-04T11:24:06Z</time>
      </trkpt>
      <trkpt lat="60.35415" lon="7.52309">
        <ele>1165.26</ele>
        <time>2019-04-04T11:24:09Z</time>
      </trkpt>
      <trkpt lat="60.35359" lon="7.52351">
        <ele>1164.29</ele>
        <time>2019-04-04T11:24:18Z</time>
      </trkpt>
      <trkpt lat="60.35323" lon="7.52367">
        <ele>1161.41</ele>
        <time>2019-04-04T11:24:23Z</time>
      </trkpt>
      <trkpt lat="60.35316" lon="7.52371">
        <ele>1160.45</ele>
        <time>2019-04-04T11:24:24Z</time>
      </trkpt>
      <trkpt lat="60.35302" lon="7.52382">
        <ele>1159.97</ele>
        <time>2019-04-04T11:24:26Z</time>
      </trkpt>
      <trkpt lat="60.35265" lon="7.52409">
        <ele>1158.53</ele>
        <time>2019-04-04T11:24:31Z</time>
      </trkpt>
      <trkpt lat="60.35255" lon="7.52418">
        <ele>1163.33</ele>
        <time>2019-04-04T11:24:33Z</time>
      </trkpt>
      <trkpt lat="60.35235" lon="7.52434">
        <ele>1167.66</ele>
        <time>2019-04-04T11:24:39Z</time>
      </trkpt>
      <trkpt lat="60.35232" lon="7.52435">
        <ele>1167.66</ele>
        <time>2019-04-04T11:24:40Z</time>
      </trkpt>
      <trkpt lat="60.35198" lon="7.52449">
        <ele>1163.81</ele>
        <time>2019-04-04T11:24:46Z</time>
      </trkpt>
      <trkpt lat="60.35147" lon="7.52468">
        <ele>1166.7</ele>
        <time>2019-04-04T11:24:53Z</time>
      </trkpt>
      <trkpt lat="60.35132" lon="7.52476">
        <ele>1170.54</ele>
        <time>2019-04-04T11:24:58Z</time>
      </trkpt>
      <trkpt lat="60.35122" lon="7.52463">
        <ele>1171.98</ele>
        <time>2019-04-04T11:25:07Z</time>
      </trkpt>
      <trkpt lat="60.35122" lon="7.52464">
        <ele>1171.98</ele>
        <time>2019-04-04T11:25:34Z</time>
      </trkpt>
      <trkpt lat="60.3512" lon="7.52464">
        <ele>1170.06</ele>
        <time>2019-04-04T11:25:48Z</time>
      </trkpt>
      <trkpt lat="60.35118" lon="7.52465">
        <ele>1171.5</ele>
        <time>2019-04-04T11:25:52Z</time>
      </trkpt>
      <trkpt lat="60.35118" lon="7.52465">
        <ele>1170.54</ele>
        <time>2019-04-04T11:25:55Z</time>
      </trkpt>
      <trkpt lat="60.35095" lon="7.52477">
        <ele>1167.66</ele>
        <time>2019-04-04T11:26:00Z</time>
      </trkpt>
      <trkpt lat="60.35087" lon="7.52482">
        <ele>1164.77</ele>
        <time>2019-04-04T11:26:01Z</time>
      </trkpt>
      <trkpt lat="60.35068" lon="7.52486">
        <ele>1161.41</ele>
        <time>2019-04-04T11:26:03Z</time>
      </trkpt>
      <trkpt lat="60.35059" lon="7.52487">
        <ele>1160.45</ele>
        <time>2019-04-04T11:26:04Z</time>
      </trkpt>
      <trkpt lat="60.35041" lon="7.52487">
        <ele>1159.49</ele>
        <time>2019-04-04T11:26:06Z</time>
      </trkpt>
      <trkpt lat="60.35019" lon="7.5249">
        <ele>1162.85</ele>
        <time>2019-04-04T11:26:09Z</time>
      </trkpt>
      <trkpt lat="60.3501" lon="7.52494">
        <ele>1166.22</ele>
        <time>2019-04-04T11:26:11Z</time>
      </trkpt>
      <trkpt lat="60.35002" lon="7.52498">
        <ele>1168.14</ele>
        <time>2019-04-04T11:26:14Z</time>
      </trkpt>
      <trkpt lat="60.35" lon="7.52498">
        <ele>1169.1</ele>
        <time>2019-04-04T11:26:15Z</time>
      </trkpt>
      <trkpt lat="60.34997" lon="7.52494">
        <ele>1170.54</ele>
        <time>2019-04-04T11:26:19Z</time>
      </trkpt>
      <trkpt lat="60.34997" lon="7.52495">
        <ele>1170.54</ele>
        <time>2019-04-04T11:26:21Z</time>
      </trkpt>
      <trkpt lat="60.34984" lon="7.52499">
        <ele>1167.66</ele>
        <time>2019-04-04T11:26:25Z</time>
      </trkpt>
      <trkpt lat="60.34915" lon="7.52529">
        <ele>1162.37</ele>
        <time>2019-04-04T11:26:35Z</time>
      </trkpt>
      <trkpt lat="60.34898" lon="7.52533">
        <ele>1161.41</ele>
        <time>2019-04-04T11:26:37Z</time>
      </trkpt>
      <trkpt lat="60.34867" lon="7.52544">
        <ele>1161.41</ele>
        <time>2019-04-04T11:26:41Z</time>
      </trkpt>
      <trkpt lat="60.34835" lon="7.52562">
        <ele>1162.85</ele>
        <time>2019-04-04T11:26:46Z</time>
      </trkpt>
      <trkpt lat="60.34817" lon="7.52566">
        <ele>1167.66</ele>
        <time>2019-04-04T11:26:49Z</time>
      </trkpt>
      <trkpt lat="60.34802" lon="7.5257">
        <ele>1169.1</ele>
        <time>2019-04-04T11:26:52Z</time>
      </trkpt>
      <trkpt lat="60.34756" lon="7.52587">
        <ele>1169.1</ele>
        <time>2019-04-04T11:27:00Z</time>
      </trkpt>
      <trkpt lat="60.34745" lon="7.52592">
        <ele>1170.54</ele>
        <time>2019-04-04T11:27:03Z</time>
      </trkpt>
      <trkpt lat="60.3473" lon="7.5259">
        <ele>1171.5</ele>
        <time>2019-04-04T11:27:07Z</time>
      </trkpt>
      <trkpt lat="60.34717" lon="7.52584">
        <ele>1171.98</ele>
        <time>2019-04-04T11:27:10Z</time>
      </trkpt>
      <trkpt lat="60.34703" lon="7.52584">
        <ele>1172.47</ele>
        <time>2019-04-04T11:27:13Z</time>
      </trkpt>
      <trkpt lat="60.34696" lon="7.52582">
        <ele>1173.43</ele>
        <time>2019-04-04T11:27:15Z</time>
      </trkpt>
      <trkpt lat="60.34677" lon="7.52574">
        <ele>1174.39</ele>
        <time>2019-04-04T11:27:20Z</time>
      </trkpt>
      <trkpt lat="60.34647" lon="7.52566">
        <ele>1174.87</ele>
        <time>2019-04-04T11:27:26Z</time>
      </trkpt>
      <trkpt lat="60.34622" lon="7.5257">
        <ele>1174.39</ele>
        <time>2019-04-04T11:27:31Z</time>
      </trkpt>
      <trkpt lat="60.34617" lon="7.5257">
        <ele>1174.39</ele>
        <time>2019-04-04T11:27:32Z</time>
      </trkpt>
      <trkpt lat="60.34575" lon="7.52574">
        <ele>1174.39</ele>
        <time>2019-04-04T11:27:40Z</time>
      </trkpt>
      <trkpt lat="60.34566" lon="7.52578">
        <ele>1174.39</ele>
        <time>2019-04-04T11:27:42Z</time>
      </trkpt>
      <trkpt lat="60.34557" lon="7.52585">
        <ele>1174.39</ele>
        <time>2019-04-04T11:27:44Z</time>
      </trkpt>
      <trkpt lat="60.34546" lon="7.52595">
        <ele>1175.83</ele>
        <time>2019-04-04T11:27:47Z</time>
      </trkpt>
      <trkpt lat="60.34525" lon="7.52608">
        <ele>1175.83</ele>
        <time>2019-04-04T11:27:53Z</time>
      </trkpt>
      <trkpt lat="60.34516" lon="7.52614">
        <ele>1174.39</ele>
        <time>2019-04-04T11:27:56Z</time>
      </trkpt>
      <trkpt lat="60.34509" lon="7.5262">
        <ele>1174.39</ele>
        <time>2019-04-04T11:27:58Z</time>
      </trkpt>
      <trkpt lat="60.34504" lon="7.52626">
        <ele>1173.91</ele>
        <time>2019-04-04T11:28:00Z</time>
      </trkpt>
      <trkpt lat="60.34497" lon="7.52629">
        <ele>1176.31</ele>
        <time>2019-04-04T11:28:03Z</time>
      </trkpt>
      <trkpt lat="60.34485" lon="7.52636">
        <ele>1174.39</ele>
        <time>2019-04-04T11:28:07Z</time>
      </trkpt>
      <trkpt lat="60.3446" lon="7.52656">
        <ele>1171.5</ele>
        <time>2019-04-04T11:28:12Z</time>
      </trkpt>
      <trkpt lat="60.3442" lon="7.52686">
        <ele>1168.14</ele>
        <time>2019-04-04T11:28:19Z</time>
      </trkpt>
      <trkpt lat="60.34386" lon="7.52701">
        <ele>1167.18</ele>
        <time>2019-04-04T11:28:24Z</time>
      </trkpt>
      <trkpt lat="60.34372" lon="7.52707">
        <ele>1165.74</ele>
        <time>2019-04-04T11:28:26Z</time>
      </trkpt>
      <trkpt lat="60.34359" lon="7.52717">
        <ele>1164.77</ele>
        <time>2019-04-04T11:28:28Z</time>
      </trkpt>
      <trkpt lat="60.34354" lon="7.52722">
        <ele>1163.81</ele>
        <time>2019-04-04T11:28:29Z</time>
      </trkpt>
      <trkpt lat="60.34329" lon="7.52738">
        <ele>1162.37</ele>
        <time>2019-04-04T11:28:33Z</time>
      </trkpt>
      <trkpt lat="60.34304" lon="7.52758">
        <ele>1162.85</ele>
        <time>2019-04-04T11:28:38Z</time>
      </trkpt>
      <trkpt lat="60.34296" lon="7.52764">
        <ele>1159.01</ele>
        <time>2019-04-04T11:28:40Z</time>
      </trkpt>
      <trkpt lat="60.34293" lon="7.52768">
        <ele>1159.01</ele>
        <time>2019-04-04T11:28:41Z</time>
      </trkpt>
      <trkpt lat="60.34282" lon="7.52781">
        <ele>1157.56</ele>
        <time>2019-04-04T11:28:44Z</time>
      </trkpt>
      <trkpt lat="60.34269" lon="7.52798">
        <ele>1155.64</ele>
        <time>2019-04-04T11:28:47Z</time>
      </trkpt>
      <trkpt lat="60.34261" lon="7.52809">
        <ele>1154.68</ele>
        <time>2019-04-04T11:28:49Z</time>
      </trkpt>
      <trkpt lat="60.34238" lon="7.52835">
        <ele>1151.32</ele>
        <time>2019-04-04T11:28:54Z</time>
      </trkpt>
      <trkpt lat="60.34233" lon="7.5284">
        <ele>1151.32</ele>
        <time>2019-04-04T11:28:55Z</time>
      </trkpt>
      <trkpt lat="60.34184" lon="7.52906">
        <ele>1148.43</ele>
        <time>2019-04-04T11:29:06Z</time>
      </trkpt>
      <trkpt lat="60.34148" lon="7.52956">
        <ele>1145.07</ele>
        <time>2019-04-04T11:29:14Z</time>
      </trkpt>
      <trkpt lat="60.34144" lon="7.52962">
        <ele>1145.07</ele>
        <time>2019-04-04T11:29:15Z</time>
      </trkpt>
      <trkpt lat="60.34118" lon="7.52994">
        <ele>1146.99</ele>
        <time>2019-04-04T11:29:20Z</time>
      </trkpt>
      <trkpt lat="60.34104" lon="7.53011">
        <ele>1145.55</ele>
        <time>2019-04-04T11:29:23Z</time>
      </trkpt>
      <trkpt lat="60.34095" lon="7.53026">
        <ele>1147.95</ele>
        <time>2019-04-04T11:29:26Z</time>
      </trkpt>
      <trkpt lat="60.34092" lon="7.53028">
        <ele>1147.95</ele>
        <time>2019-04-04T11:29:27Z</time>
      </trkpt>
      <trkpt lat="60.34076" lon="7.53045">
        <ele>1143.14</ele>
        <time>2019-04-04T11:29:31Z</time>
      </trkpt>
      <trkpt lat="60.3407" lon="7.53058">
        <ele>1142.18</ele>
        <time>2019-04-04T11:29:33Z</time>
      </trkpt>
      <trkpt lat="60.34067" lon="7.53066">
        <ele>1142.18</ele>
        <time>2019-04-04T11:29:34Z</time>
      </trkpt>
      <trkpt lat="60.3406" lon="7.53076">
        <ele>1144.11</ele>
        <time>2019-04-04T11:29:36Z</time>
      </trkpt>
      <trkpt lat="60.34039" lon="7.53106">
        <ele>1142.18</ele>
        <time>2019-04-04T11:29:42Z</time>
      </trkpt>
      <trkpt lat="60.34032" lon="7.53117">
        <ele>1143.14</ele>
        <time>2019-04-04T11:29:44Z</time>
      </trkpt>
      <trkpt lat="60.34019" lon="7.53145">
        <ele>1141.22</ele>
        <time>2019-04-04T11:29:48Z</time>
      </trkpt>
      <trkpt lat="60.34008" lon="7.53176">
        <ele>1140.26</ele>
        <time>2019-04-04T11:29:52Z</time>
      </trkpt>
      <trkpt lat="60.34002" lon="7.53191">
        <ele>1142.18</ele>
        <time>2019-04-04T11:29:54Z</time>
      </trkpt>
      <trkpt lat="60.33995" lon="7.53205">
        <ele>1141.22</ele>
        <time>2019-04-04T11:29:56Z</time>
      </trkpt>
      <trkpt lat="60.33989" lon="7.53221">
        <ele>1139.78</ele>
        <time>2019-04-04T11:29:58Z</time>
      </trkpt>
      <trkpt lat="60.33979" lon="7.53244">
        <ele>1137.38</ele>
        <time>2019-04-04T11:30:01Z</time>
      </trkpt>
      <trkpt lat="60.33974" lon="7.53259">
        <ele>1138.82</ele>
        <time>2019-04-04T11:30:03Z</time>
      </trkpt>
      <trkpt lat="60.33961" lon="7.5329">
        <ele>1138.82</ele>
        <time>2019-04-04T11:30:07Z</time>
      </trkpt>
      <trkpt lat="60.33942" lon="7.53335">
        <ele>1136.42</ele>
        <time>2019-04-04T11:30:13Z</time>
      </trkpt>
      <trkpt lat="60.33935" lon="7.53351">
        <ele>1135.45</ele>
        <time>2019-04-04T11:30:15Z</time>
      </trkpt>
      <trkpt lat="60.33927" lon="7.53373">
        <ele>1137.86</ele>
        <time>2019-04-04T11:30:18Z</time>
      </trkpt>
      <trkpt lat="60.33918" lon="7.53393">
        <ele>1135.45</ele>
        <time>2019-04-04T11:30:21Z</time>
      </trkpt>
      <trkpt lat="60.33908" lon="7.53415">
        <ele>1137.38</ele>
        <time>2019-04-04T11:30:24Z</time>
      </trkpt>
      <trkpt lat="60.33897" lon="7.53444">
        <ele>1135.94</ele>
        <time>2019-04-04T11:30:28Z</time>
      </trkpt>
      <trkpt lat="60.33883" lon="7.53485">
        <ele>1135.45</ele>
        <time>2019-04-04T11:30:34Z</time>
      </trkpt>
      <trkpt lat="60.33874" lon="7.53512">
        <ele>1135.45</ele>
        <time>2019-04-04T11:30:38Z</time>
      </trkpt>
      <trkpt lat="60.33865" lon="7.53528">
        <ele>1133.05</ele>
        <time>2019-04-04T11:30:41Z</time>
      </trkpt>
      <trkpt lat="60.33848" lon="7.5355">
        <ele>1132.09</ele>
        <time>2019-04-04T11:30:45Z</time>
      </trkpt>
      <trkpt lat="60.33838" lon="7.53563">
        <ele>1129.69</ele>
        <time>2019-04-04T11:30:47Z</time>
      </trkpt>
      <trkpt lat="60.33828" lon="7.53578">
        <ele>1128.24</ele>
        <time>2019-04-04T11:30:49Z</time>
      </trkpt>
      <trkpt lat="60.33815" lon="7.5359">
        <ele>1127.28</ele>
        <time>2019-04-04T11:30:51Z</time>
      </trkpt>
      <trkpt lat="60.33804" lon="7.53599">
        <ele>1126.32</ele>
        <time>2019-04-04T11:30:53Z</time>
      </trkpt>
      <trkpt lat="60.33796" lon="7.53608">
        <ele>1126.32</ele>
        <time>2019-04-04T11:30:55Z</time>
      </trkpt>
      <trkpt lat="60.33787" lon="7.53614">
        <ele>1124.4</ele>
        <time>2019-04-04T11:30:57Z</time>
      </trkpt>
      <trkpt lat="60.33776" lon="7.53619">
        <ele>1123.92</ele>
        <time>2019-04-04T11:30:59Z</time>
      </trkpt>
      <trkpt lat="60.33766" lon="7.53627">
        <ele>1125.84</ele>
        <time>2019-04-04T11:31:01Z</time>
      </trkpt>
      <trkpt lat="60.33748" lon="7.53632">
        <ele>1121.52</ele>
        <time>2019-04-04T11:31:04Z</time>
      </trkpt>
      <trkpt lat="60.33739" lon="7.53631">
        <ele>1122.96</ele>
        <time>2019-04-04T11:31:06Z</time>
      </trkpt>
      <trkpt lat="60.3373" lon="7.53633">
        <ele>1121.52</ele>
        <time>2019-04-04T11:31:08Z</time>
      </trkpt>
      <trkpt lat="60.33722" lon="7.53641">
        <ele>1120.55</ele>
        <time>2019-04-04T11:31:10Z</time>
      </trkpt>
      <trkpt lat="60.33714" lon="7.53651">
        <ele>1119.11</ele>
        <time>2019-04-04T11:31:12Z</time>
      </trkpt>
      <trkpt lat="60.33705" lon="7.53661">
        <ele>1121.52</ele>
        <time>2019-04-04T11:31:14Z</time>
      </trkpt>
      <trkpt lat="60.33686" lon="7.53671">
        <ele>1120.55</ele>
        <time>2019-04-04T11:31:17Z</time>
      </trkpt>
      <trkpt lat="60.33674" lon="7.53676">
        <ele>1119.59</ele>
        <time>2019-04-04T11:31:19Z</time>
      </trkpt>
      <trkpt lat="60.33664" lon="7.53678">
        <ele>1120.07</ele>
        <time>2019-04-04T11:31:21Z</time>
      </trkpt>
      <trkpt lat="60.33649" lon="7.5368">
        <ele>1126.8</ele>
        <time>2019-04-04T11:31:24Z</time>
      </trkpt>
      <trkpt lat="60.33644" lon="7.53681">
        <ele>1126.8</ele>
        <time>2019-04-04T11:31:25Z</time>
      </trkpt>
      <trkpt lat="60.33628" lon="7.5368">
        <ele>1128.73</ele>
        <time>2019-04-04T11:31:29Z</time>
      </trkpt>
      <trkpt lat="60.33616" lon="7.53679">
        <ele>1127.28</ele>
        <time>2019-04-04T11:31:32Z</time>
      </trkpt>
      <trkpt lat="60.33585" lon="7.537">
        <ele>1129.21</ele>
        <time>2019-04-04T11:31:41Z</time>
      </trkpt>
      <trkpt lat="60.33582" lon="7.53704">
        <ele>1127.76</ele>
        <time>2019-04-04T11:31:42Z</time>
      </trkpt>
      <trkpt lat="60.33567" lon="7.53723">
        <ele>1126.32</ele>
        <time>2019-04-04T11:31:46Z</time>
      </trkpt>
      <trkpt lat="60.33553" lon="7.53745">
        <ele>1126.32</ele>
        <time>2019-04-04T11:31:50Z</time>
      </trkpt>
      <trkpt lat="60.33535" lon="7.53772">
        <ele>1124.88</ele>
        <time>2019-04-04T11:31:55Z</time>
      </trkpt>
      <trkpt lat="60.33528" lon="7.53782">
        <ele>1126.32</ele>
        <time>2019-04-04T11:31:57Z</time>
      </trkpt>
      <trkpt lat="60.33516" lon="7.538">
        <ele>1125.84</ele>
        <time>2019-04-04T11:32:01Z</time>
      </trkpt>
      <trkpt lat="60.33511" lon="7.53808">
        <ele>1124.88</ele>
        <time>2019-04-04T11:32:03Z</time>
      </trkpt>
      <trkpt lat="60.33503" lon="7.53815">
        <ele>1122.96</ele>
        <time>2019-04-04T11:32:05Z</time>
      </trkpt>
      <trkpt lat="60.33494" lon="7.53825">
        <ele>1122</ele>
        <time>2019-04-04T11:32:07Z</time>
      </trkpt>
      <trkpt lat="60.3348" lon="7.53841">
        <ele>1121.03</ele>
        <time>2019-04-04T11:32:10Z</time>
      </trkpt>
      <trkpt lat="60.33467" lon="7.53847">
        <ele>1120.07</ele>
        <time>2019-04-04T11:32:12Z</time>
      </trkpt>
      <trkpt lat="60.33435" lon="7.53859">
        <ele>1119.11</ele>
        <time>2019-04-04T11:32:18Z</time>
      </trkpt>
      <trkpt lat="60.33416" lon="7.53864">
        <ele>1119.11</ele>
        <time>2019-04-04T11:32:22Z</time>
      </trkpt>
      <trkpt lat="60.33395" lon="7.53875">
        <ele>1117.19</ele>
        <time>2019-04-04T11:32:26Z</time>
      </trkpt>
      <trkpt lat="60.33378" lon="7.53884">
        <ele>1118.15</ele>
        <time>2019-04-04T11:32:30Z</time>
      </trkpt>
      <trkpt lat="60.33375" lon="7.53888">
        <ele>1120.07</ele>
        <time>2019-04-04T11:32:32Z</time>
      </trkpt>
      <trkpt lat="60.33371" lon="7.53877">
        <ele>1121.52</ele>
        <time>2019-04-04T11:32:38Z</time>
      </trkpt>
      <trkpt lat="60.33374" lon="7.53874">
        <ele>1121.52</ele>
        <time>2019-04-04T11:32:49Z</time>
      </trkpt>
      <trkpt lat="60.33377" lon="7.53874">
        <ele>1122</ele>
        <time>2019-04-04T11:32:59Z</time>
      </trkpt>
      <trkpt lat="60.33378" lon="7.5387">
        <ele>1122</ele>
        <time>2019-04-04T11:33:09Z</time>
      </trkpt>
      <trkpt lat="60.33372" lon="7.53864">
        <ele>1118.15</ele>
        <time>2019-04-04T11:33:13Z</time>
      </trkpt>
      <trkpt lat="60.33369" lon="7.53866">
        <ele>1118.15</ele>
        <time>2019-04-04T11:33:14Z</time>
      </trkpt>
      <trkpt lat="60.33363" lon="7.53874">
        <ele>1118.15</ele>
        <time>2019-04-04T11:33:17Z</time>
      </trkpt>
      <trkpt lat="60.33358" lon="7.53879">
        <ele>1120.07</ele>
        <time>2019-04-04T11:33:20Z</time>
      </trkpt>
      <trkpt lat="60.33354" lon="7.53881">
        <ele>1121.03</ele>
        <time>2019-04-04T11:33:23Z</time>
      </trkpt>
      <trkpt lat="60.3335" lon="7.53885">
        <ele>1119.59</ele>
        <time>2019-04-04T11:33:25Z</time>
      </trkpt>
      <trkpt lat="60.33346" lon="7.53888">
        <ele>1121.52</ele>
        <time>2019-04-04T11:33:27Z</time>
      </trkpt>
      <trkpt lat="60.3334" lon="7.53891">
        <ele>1121.52</ele>
        <time>2019-04-04T11:33:29Z</time>
      </trkpt>
      <trkpt lat="60.33325" lon="7.53902">
        <ele>1121.52</ele>
        <time>2019-04-04T11:33:34Z</time>
      </trkpt>
      <trkpt lat="60.33304" lon="7.53913">
        <ele>1119.59</ele>
        <time>2019-04-04T11:33:38Z</time>
      </trkpt>
      <trkpt lat="60.33293" lon="7.53919">
        <ele>1119.11</ele>
        <time>2019-04-04T11:33:40Z</time>
      </trkpt>
      <trkpt lat="60.33284" lon="7.53923">
        <ele>1120.55</ele>
        <time>2019-04-04T11:33:42Z</time>
      </trkpt>
      <trkpt lat="60.33268" lon="7.53931">
        <ele>1120.55</ele>
        <time>2019-04-04T11:33:46Z</time>
      </trkpt>
      <trkpt lat="60.33258" lon="7.53946">
        <ele>1117.19</ele>
        <time>2019-04-04T11:33:49Z</time>
      </trkpt>
      <trkpt lat="60.33226" lon="7.53989">
        <ele>1118.15</ele>
        <time>2019-04-04T11:33:56Z</time>
      </trkpt>
      <trkpt lat="60.33213" lon="7.54012">
        <ele>1118.63</ele>
        <time>2019-04-04T11:33:59Z</time>
      </trkpt>
      <trkpt lat="60.33201" lon="7.54028">
        <ele>1115.75</ele>
        <time>2019-04-04T11:34:02Z</time>
      </trkpt>
      <trkpt lat="60.33193" lon="7.54038">
        <ele>1117.19</ele>
        <time>2019-04-04T11:34:04Z</time>
      </trkpt>
      <trkpt lat="60.33168" lon="7.54064">
        <ele>1115.75</ele>
        <time>2019-04-04T11:34:09Z</time>
      </trkpt>
      <trkpt lat="60.33146" lon="7.54085">
        <ele>1114.79</ele>
        <time>2019-04-04T11:34:13Z</time>
      </trkpt>
      <trkpt lat="60.33127" lon="7.54111">
        <ele>1116.71</ele>
        <time>2019-04-04T11:34:17Z</time>
      </trkpt>
      <trkpt lat="60.33077" lon="7.54174">
        <ele>1117.19</ele>
        <time>2019-04-04T11:34:28Z</time>
      </trkpt>
      <trkpt lat="60.33064" lon="7.54191">
        <ele>1117.19</ele>
        <time>2019-04-04T11:34:31Z</time>
      </trkpt>
      <trkpt lat="60.33036" lon="7.54225">
        <ele>1117.67</ele>
        <time>2019-04-04T11:34:41Z</time>
      </trkpt>
      <trkpt lat="60.33021" lon="7.54241">
        <ele>1117.67</ele>
        <time>2019-04-04T11:34:46Z</time>
      </trkpt>
      <trkpt lat="60.33005" lon="7.54264">
        <ele>1119.11</ele>
        <time>2019-04-04T11:34:51Z</time>
      </trkpt>
      <trkpt lat="60.32992" lon="7.54272">
        <ele>1118.15</ele>
        <time>2019-04-04T11:34:55Z</time>
      </trkpt>
      <trkpt lat="60.32985" lon="7.54274">
        <ele>1119.59</ele>
        <time>2019-04-04T11:34:58Z</time>
      </trkpt>
      <trkpt lat="60.32976" lon="7.54271">
        <ele>1122</ele>
        <time>2019-04-04T11:35:06Z</time>
      </trkpt>
      <trkpt lat="60.32976" lon="7.54268">
        <ele>1122</ele>
        <time>2019-04-04T11:35:10Z</time>
      </trkpt>
      <trkpt lat="60.32983" lon="7.54256">
        <ele>1118.63</ele>
        <time>2019-04-04T11:35:17Z</time>
      </trkpt>
      <trkpt lat="60.32983" lon="7.54256">
        <ele>1123.44</ele>
        <time>2019-04-04T11:35:19Z</time>
      </trkpt>
      <trkpt lat="60.32983" lon="7.54256">
        <ele>1118.15</ele>
        <time>2019-04-04T11:35:20Z</time>
      </trkpt>
      <trkpt lat="60.32983" lon="7.54255">
        <ele>1118.15</ele>
        <time>2019-04-04T11:35:21Z</time>
      </trkpt>
      <trkpt lat="60.32983" lon="7.54255">
        <ele>1121.52</ele>
        <time>2019-04-04T11:35:22Z</time>
      </trkpt>
      <trkpt lat="60.32983" lon="7.54254">
        <ele>1124.4</ele>
        <time>2019-04-04T11:35:24Z</time>
      </trkpt>
      <trkpt lat="60.32983" lon="7.54254">
        <ele>1123.44</ele>
        <time>2019-04-04T11:35:25Z</time>
      </trkpt>
      <trkpt lat="60.32984" lon="7.54253">
        <ele>1121.52</ele>
        <time>2019-04-04T11:35:27Z</time>
      </trkpt>
      <trkpt lat="60.32984" lon="7.54253">
        <ele>1117.19</ele>
        <time>2019-04-04T11:35:28Z</time>
      </trkpt>
      <trkpt lat="60.32984" lon="7.54253">
        <ele>1122.48</ele>
        <time>2019-04-04T11:35:29Z</time>
      </trkpt>
      <trkpt lat="60.32984" lon="7.54253">
        <ele>1122</ele>
        <time>2019-04-04T11:35:33Z</time>
      </trkpt>
      <trkpt lat="60.32984" lon="7.54253">
        <ele>1121.52</ele>
        <time>2019-04-04T11:35:49Z</time>
      </trkpt>
      <trkpt lat="60.32984" lon="7.54253">
        <ele>1117.19</ele>
        <time>2019-04-04T11:35:57Z</time>
      </trkpt>
      <trkpt lat="60.32984" lon="7.54252">
        <ele>1117.19</ele>
        <time>2019-04-04T11:35:58Z</time>
      </trkpt>
      <trkpt lat="60.32984" lon="7.54253">
        <ele>1121.03</ele>
        <time>2019-04-04T11:35:59Z</time>
      </trkpt>
      <trkpt lat="60.32984" lon="7.54253">
        <ele>1125.84</ele>
        <time>2019-04-04T11:36:01Z</time>
      </trkpt>
      <trkpt lat="60.32984" lon="7.54253">
        <ele>1122.96</ele>
        <time>2019-04-04T11:36:02Z</time>
      </trkpt>
      <trkpt lat="60.32984" lon="7.54253">
        <ele>1115.75</ele>
        <time>2019-04-04T11:36:04Z</time>
      </trkpt>
      <trkpt lat="60.32983" lon="7.54253">
        <ele>1117.19</ele>
        <time>2019-04-04T11:36:05Z</time>
      </trkpt>
      <trkpt lat="60.32983" lon="7.54252">
        <ele>1121.03</ele>
        <time>2019-04-04T11:36:06Z</time>
      </trkpt>
      <trkpt lat="60.32983" lon="7.54251">
        <ele>1118.63</ele>
        <time>2019-04-04T11:36:12Z</time>
      </trkpt>
      <trkpt lat="60.32983" lon="7.54251">
        <ele>1122.48</ele>
        <time>2019-04-04T11:36:13Z</time>
      </trkpt>
      <trkpt lat="60.32983" lon="7.54251">
        <ele>1121.03</ele>
        <time>2019-04-04T11:36:16Z</time>
      </trkpt>
      <trkpt lat="60.32983" lon="7.54252">
        <ele>1124.4</ele>
        <time>2019-04-04T11:36:23Z</time>
      </trkpt>
      <trkpt lat="60.32983" lon="7.54253">
        <ele>1121.03</ele>
        <time>2019-04-04T11:36:35Z</time>
      </trkpt>
      <trkpt lat="60.32983" lon="7.54254">
        <ele>1117.67</ele>
        <time>2019-04-04T11:36:40Z</time>
      </trkpt>
      <trkpt lat="60.32983" lon="7.54254">
        <ele>1121.52</ele>
        <time>2019-04-04T11:36:41Z</time>
      </trkpt>
      <trkpt lat="60.32983" lon="7.54254">
        <ele>1121.52</ele>
        <time>2019-04-04T11:36:42Z</time>
      </trkpt>
      <trkpt lat="60.32983" lon="7.54254">
        <ele>1120.07</ele>
        <time>2019-04-04T11:36:44Z</time>
      </trkpt>
      <trkpt lat="60.32982" lon="7.54254">
        <ele>1114.79</ele>
        <time>2019-04-04T11:36:46Z</time>
      </trkpt>
      <trkpt lat="60.32982" lon="7.54254">
        <ele>1128.73</ele>
        <time>2019-04-04T11:36:47Z</time>
      </trkpt>
      <trkpt lat="60.32982" lon="7.54254">
        <ele>1120.07</ele>
        <time>2019-04-04T11:36:48Z</time>
      </trkpt>
      <trkpt lat="60.32982" lon="7.54254">
        <ele>1115.27</ele>
        <time>2019-04-04T11:37:08Z</time>
      </trkpt>
      <trkpt lat="60.32982" lon="7.54254">
        <ele>1117.19</ele>
        <time>2019-04-04T11:37:09Z</time>
      </trkpt>
      <trkpt lat="60.32982" lon="7.54254">
        <ele>1122.96</ele>
        <time>2019-04-04T11:37:10Z</time>
      </trkpt>
      <trkpt lat="60.32982" lon="7.54254">
        <ele>1121.03</ele>
        <time>2019-04-04T11:37:11Z</time>
      </trkpt>
      <trkpt lat="60.32982" lon="7.54253">
        <ele>1125.84</ele>
        <time>2019-04-04T11:37:16Z</time>
      </trkpt>
      <trkpt lat="60.32982" lon="7.54253">
        <ele>1118.63</ele>
        <time>2019-04-04T11:37:17Z</time>
      </trkpt>
      <trkpt lat="60.32982" lon="7.54253">
        <ele>1125.36</ele>
        <time>2019-04-04T11:37:23Z</time>
      </trkpt>
      <trkpt lat="60.32982" lon="7.54253">
        <ele>1109.5</ele>
        <time>2019-04-04T11:37:24Z</time>
      </trkpt>
      <trkpt lat="60.32982" lon="7.54253">
        <ele>1133.53</ele>
        <time>2019-04-04T11:37:25Z</time>
      </trkpt>
      <trkpt lat="60.32981" lon="7.54252">
        <ele>1119.11</ele>
        <time>2019-04-04T11:37:26Z</time>
      </trkpt>
      <trkpt lat="60.32981" lon="7.54252">
        <ele>1125.84</ele>
        <time>2019-04-04T11:37:28Z</time>
      </trkpt>
      <trkpt lat="60.32981" lon="7.54247">
        <ele>1120.07</ele>
        <time>2019-04-04T11:37:37Z</time>
      </trkpt>
      <trkpt lat="60.3298" lon="7.54241">
        <ele>1122</ele>
        <time>2019-04-04T11:37:40Z</time>
      </trkpt>
      <trkpt lat="60.3298" lon="7.54237">
        <ele>1116.71</ele>
        <time>2019-04-04T11:37:42Z</time>
      </trkpt>
      <trkpt lat="60.32979" lon="7.54235">
        <ele>1117.67</ele>
        <time>2019-04-04T11:37:43Z</time>
      </trkpt>
      <trkpt lat="60.32979" lon="7.54234">
        <ele>1122</ele>
        <time>2019-04-04T11:37:44Z</time>
      </trkpt>
      <trkpt lat="60.32979" lon="7.54232">
        <ele>1122.48</ele>
        <time>2019-04-04T11:37:45Z</time>
      </trkpt>
      <trkpt lat="60.32978" lon="7.54228">
        <ele>1118.63</ele>
        <time>2019-04-04T11:37:47Z</time>
      </trkpt>
      <trkpt lat="60.32977" lon="7.54225">
        <ele>1122.96</ele>
        <time>2019-04-04T11:37:49Z</time>
      </trkpt>
      <trkpt lat="60.32976" lon="7.54222">
        <ele>1115.27</ele>
        <time>2019-04-04T11:37:51Z</time>
      </trkpt>
      <trkpt lat="60.32976" lon="7.54221">
        <ele>1116.71</ele>
        <time>2019-04-04T11:37:52Z</time>
      </trkpt>
      <trkpt lat="60.32976" lon="7.5422">
        <ele>1123.92</ele>
        <time>2019-04-04T11:37:53Z</time>
      </trkpt>
      <trkpt lat="60.32976" lon="7.54219">
        <ele>1118.15</ele>
        <time>2019-04-04T11:37:54Z</time>
      </trkpt>
      <trkpt lat="60.32976" lon="7.54217">
        <ele>1122.48</ele>
        <time>2019-04-04T11:37:55Z</time>
      </trkpt>
      <trkpt lat="60.32975" lon="7.54215">
        <ele>1119.59</ele>
        <time>2019-04-04T11:37:56Z</time>
      </trkpt>
      <trkpt lat="60.32975" lon="7.54214">
        <ele>1121.52</ele>
        <time>2019-04-04T11:38:05Z</time>
      </trkpt>
      <trkpt lat="60.32975" lon="7.54214">
        <ele>1120.55</ele>
        <time>2019-04-04T11:38:09Z</time>
      </trkpt>
      <trkpt lat="60.32974" lon="7.5422">
        <ele>1122</ele>
        <time>2019-04-04T11:38:16Z</time>
      </trkpt>
      <trkpt lat="60.32975" lon="7.54224">
        <ele>1120.55</ele>
        <time>2019-04-04T11:38:19Z</time>
      </trkpt>
      <trkpt lat="60.32975" lon="7.54225">
        <ele>1117.67</ele>
        <time>2019-04-04T11:38:23Z</time>
      </trkpt>
      <trkpt lat="60.32975" lon="7.54224">
        <ele>1122</ele>
        <time>2019-04-04T11:38:24Z</time>
      </trkpt>
      <trkpt lat="60.32975" lon="7.54224">
        <ele>1118.63</ele>
        <time>2019-04-04T11:38:29Z</time>
      </trkpt>
      <trkpt lat="60.32976" lon="7.54225">
        <ele>1120.55</ele>
        <time>2019-04-04T11:38:33Z</time>
      </trkpt>
      <trkpt lat="60.32976" lon="7.54224">
        <ele>1119.11</ele>
        <time>2019-04-04T11:38:46Z</time>
      </trkpt>
      <trkpt lat="60.32977" lon="7.54224">
        <ele>1119.11</ele>
        <time>2019-04-04T11:39:03Z</time>
      </trkpt>
      <trkpt lat="60.32977" lon="7.54224">
        <ele>1118.63</ele>
        <time>2019-04-04T11:39:33Z</time>
      </trkpt>
      <trkpt lat="60.32977" lon="7.54224">
        <ele>1118.63</ele>
        <time>2019-04-04T11:39:58Z</time>
      </trkpt>
      <trkpt lat="60.32977" lon="7.54224">
        <ele>1118.63</ele>
        <time>2019-04-04T11:40:30Z</time>
      </trkpt>
      <trkpt lat="60.32977" lon="7.54224">
        <ele>1118.15</ele>
        <time>2019-04-04T11:40:58Z</time>
      </trkpt>
      <trkpt lat="60.32977" lon="7.54224">
        <ele>1118.15</ele>
        <time>2019-04-04T11:41:19Z</time>
      </trkpt>
      <trkpt lat="60.32977" lon="7.54224">
        <ele>1117.67</ele>
        <time>2019-04-04T11:41:38Z</time>
      </trkpt>
      <trkpt lat="60.32977" lon="7.54223">
        <ele>1117.67</ele>
        <time>2019-04-04T11:42:04Z</time>
      </trkpt>
      <trkpt lat="60.32977" lon="7.54224">
        <ele>1117.67</ele>
        <time>2019-04-04T11:42:24Z</time>
      </trkpt>
      <trkpt lat="60.32977" lon="7.54229">
        <ele>1117.67</ele>
        <time>2019-04-04T11:42:48Z</time>
      </trkpt>
      <trkpt lat="60.32978" lon="7.54231">
        <ele>1115.27</ele>
        <time>2019-04-04T11:43:09Z</time>
      </trkpt>
      <trkpt lat="60.32978" lon="7.5423">
        <ele>1118.63</ele>
        <time>2019-04-04T11:43:10Z</time>
      </trkpt>
      <trkpt lat="60.32977" lon="7.54229">
        <ele>1118.63</ele>
        <time>2019-04-04T11:43:11Z</time>
      </trkpt>
      <trkpt lat="60.32976" lon="7.54227">
        <ele>1118.63</ele>
        <time>2019-04-04T11:43:34Z</time>
      </trkpt>
      <trkpt lat="60.32976" lon="7.54226">
        <ele>1119.11</ele>
        <time>2019-04-04T11:44:01Z</time>
      </trkpt>
      <trkpt lat="60.32978" lon="7.54234">
        <ele>1121.03</ele>
        <time>2019-04-04T11:44:14Z</time>
      </trkpt>
      <trkpt lat="60.32979" lon="7.54238">
        <ele>1119.59</ele>
        <time>2019-04-04T11:44:16Z</time>
      </trkpt>
      <trkpt lat="60.32981" lon="7.54247">
        <ele>1120.07</ele>
        <time>2019-04-04T11:44:21Z</time>
      </trkpt>
      <trkpt lat="60.32982" lon="7.54251">
        <ele>1121.03</ele>
        <time>2019-04-04T11:44:24Z</time>
      </trkpt>
      <trkpt lat="60.32984" lon="7.54256">
        <ele>1120.55</ele>
        <time>2019-04-04T11:44:34Z</time>
      </trkpt>
      <trkpt lat="60.32984" lon="7.54258">
        <ele>1119.11</ele>
        <time>2019-04-04T11:44:40Z</time>
      </trkpt>
      <trkpt lat="60.32984" lon="7.54258">
        <ele>1116.23</ele>
        <time>2019-04-04T11:44:41Z</time>
      </trkpt>
      <trkpt lat="60.32984" lon="7.54259">
        <ele>1121.52</ele>
        <time>2019-04-04T11:44:42Z</time>
      </trkpt>
      <trkpt lat="60.32984" lon="7.54262">
        <ele>1120.55</ele>
        <time>2019-04-04T11:44:55Z</time>
      </trkpt>
      <trkpt lat="60.32982" lon="7.54268">
        <ele>1117.19</ele>
        <time>2019-04-04T11:44:59Z</time>
      </trkpt>
      <trkpt lat="60.3298" lon="7.54259">
        <ele>1120.07</ele>
        <time>2019-04-04T11:45:05Z</time>
      </trkpt>
      <trkpt lat="60.32984" lon="7.54251">
        <ele>1116.23</ele>
        <time>2019-04-04T11:45:13Z</time>
      </trkpt>
      <trkpt lat="60.32984" lon="7.54251">
        <ele>1116.23</ele>
        <time>2019-04-04T11:45:14Z</time>
      </trkpt>
      <trkpt lat="60.32984" lon="7.54252">
        <ele>1119.59</ele>
        <time>2019-04-04T11:45:17Z</time>
      </trkpt>
      <trkpt lat="60.32984" lon="7.54252">
        <ele>1119.59</ele>
        <time>2019-04-04T11:45:18Z</time>
      </trkpt>
      <trkpt lat="60.32984" lon="7.54254">
        <ele>1123.44</ele>
        <time>2019-04-04T11:45:39Z</time>
      </trkpt>
      <trkpt lat="60.32984" lon="7.54253">
        <ele>1121.52</ele>
        <time>2019-04-04T11:45:40Z</time>
      </trkpt>
      <trkpt lat="60.32984" lon="7.54252">
        <ele>1120.55</ele>
        <time>2019-04-04T11:45:51Z</time>
      </trkpt>
      <trkpt lat="60.32983" lon="7.54252">
        <ele>1118.63</ele>
        <time>2019-04-04T11:46:00Z</time>
      </trkpt>
      <trkpt lat="60.32984" lon="7.54254">
        <ele>1118.15</ele>
        <time>2019-04-04T11:46:17Z</time>
      </trkpt>
      <trkpt lat="60.32984" lon="7.54255">
        <ele>1117.67</ele>
        <time>2019-04-04T11:46:41Z</time>
      </trkpt>
      <trkpt lat="60.32983" lon="7.54254">
        <ele>1117.67</ele>
        <time>2019-04-04T11:47:02Z</time>
      </trkpt>
      <trkpt lat="60.32984" lon="7.54254">
        <ele>1117.67</ele>
        <time>2019-04-04T11:47:26Z</time>
      </trkpt>
      <trkpt lat="60.32984" lon="7.54254">
        <ele>1118.63</ele>
        <time>2019-04-04T11:47:40Z</time>
      </trkpt>
      <trkpt lat="60.32983" lon="7.54254">
        <ele>1116.71</ele>
        <time>2019-04-04T11:47:45Z</time>
      </trkpt>
      <trkpt lat="60.32983" lon="7.54254">
        <ele>1118.15</ele>
        <time>2019-04-04T11:47:54Z</time>
      </trkpt>
      <trkpt lat="60.32984" lon="7.54255">
        <ele>1116.71</ele>
        <time>2019-04-04T11:47:56Z</time>
      </trkpt>
      <trkpt lat="60.32982" lon="7.54256">
        <ele>1120.55</ele>
        <time>2019-04-04T11:48:06Z</time>
      </trkpt>
      <trkpt lat="60.32982" lon="7.54257">
        <ele>1120.55</ele>
        <time>2019-04-04T11:48:07Z</time>
      </trkpt>
      <trkpt lat="60.32983" lon="7.54256">
        <ele>1119.11</ele>
        <time>2019-04-04T11:48:10Z</time>
      </trkpt>
      <trkpt lat="60.32983" lon="7.54255">
        <ele>1120.07</ele>
        <time>2019-04-04T11:48:16Z</time>
      </trkpt>
      <trkpt lat="60.32984" lon="7.54254">
        <ele>1116.71</ele>
        <time>2019-04-04T11:48:25Z</time>
      </trkpt>
      <trkpt lat="60.32984" lon="7.54253">
        <ele>1121.52</ele>
        <time>2019-04-04T11:48:26Z</time>
      </trkpt>
      <trkpt lat="60.32985" lon="7.54255">
        <ele>1117.67</ele>
        <time>2019-04-04T11:48:46Z</time>
      </trkpt>
      <trkpt lat="60.32985" lon="7.54255">
        <ele>1121.52</ele>
        <time>2019-04-04T11:48:47Z</time>
      </trkpt>
      <trkpt lat="60.3299" lon="7.54258">
        <ele>1118.63</ele>
        <time>2019-04-04T11:48:56Z</time>
      </trkpt>
      <trkpt lat="60.32993" lon="7.54259">
        <ele>1118.15</ele>
        <time>2019-04-04T11:49:03Z</time>
      </trkpt>
      <trkpt lat="60.32993" lon="7.54252">
        <ele>1118.15</ele>
        <time>2019-04-04T11:49:13Z</time>
      </trkpt>
      <trkpt lat="60.32998" lon="7.54234">
        <ele>1118.63</ele>
        <time>2019-04-04T11:49:23Z</time>
      </trkpt>
      <trkpt lat="60.33006" lon="7.54226">
        <ele>1118.63</ele>
        <time>2019-04-04T11:49:31Z</time>
      </trkpt>
      <trkpt lat="60.33005" lon="7.54225">
        <ele>1117.19</ele>
        <time>2019-04-04T11:49:36Z</time>
      </trkpt>
      <trkpt lat="60.33005" lon="7.54209">
        <ele>1117.19</ele>
        <time>2019-04-04T11:49:42Z</time>
      </trkpt>
      <trkpt lat="60.33004" lon="7.54205">
        <ele>1116.71</ele>
        <time>2019-04-04T11:49:54Z</time>
      </trkpt>
      <trkpt lat="60.33004" lon="7.54203">
        <ele>1116.23</ele>
        <time>2019-04-04T11:50:09Z</time>
      </trkpt>
      <trkpt lat="60.33004" lon="7.54202">
        <ele>1117.19</ele>
        <time>2019-04-04T11:50:15Z</time>
      </trkpt>
      <trkpt lat="60.33009" lon="7.54197">
        <ele>1119.11</ele>
        <time>2019-04-04T11:50:18Z</time>
      </trkpt>
      <trkpt lat="60.33013" lon="7.54198">
        <ele>1119.11</ele>
        <time>2019-04-04T11:50:19Z</time>
      </trkpt>
      <trkpt lat="60.33016" lon="7.54199">
        <ele>1119.11</ele>
        <time>2019-04-04T11:50:20Z</time>
      </trkpt>
      <trkpt lat="60.3302" lon="7.54199">
        <ele>1119.11</ele>
        <time>2019-04-04T11:50:21Z</time>
      </trkpt>
      <trkpt lat="60.33024" lon="7.54198">
        <ele>1119.11</ele>
        <time>2019-04-04T11:50:22Z</time>
      </trkpt>
      <trkpt lat="60.33028" lon="7.54197">
        <ele>1119.11</ele>
        <time>2019-04-04T11:50:23Z</time>
      </trkpt>
      <trkpt lat="60.33033" lon="7.54196">
        <ele>1119.11</ele>
        <time>2019-04-04T11:50:24Z</time>
      </trkpt>
      <trkpt lat="60.33037" lon="7.54198">
        <ele>1119.11</ele>
        <time>2019-04-04T11:50:25Z</time>
      </trkpt>
      <trkpt lat="60.33044" lon="7.54201">
        <ele>1119.11</ele>
        <time>2019-04-04T11:50:27Z</time>
      </trkpt>
      <trkpt lat="60.33046" lon="7.54203">
        <ele>1119.59</ele>
        <time>2019-04-04T11:50:28Z</time>
      </trkpt>
      <trkpt lat="60.33048" lon="7.54205">
        <ele>1119.59</ele>
        <time>2019-04-04T11:50:29Z</time>
      </trkpt>
      <trkpt lat="60.3305" lon="7.54205">
        <ele>1119.59</ele>
        <time>2019-04-04T11:50:30Z</time>
      </trkpt>
      <trkpt lat="60.33051" lon="7.54205">
        <ele>1119.59</ele>
        <time>2019-04-04T11:50:31Z</time>
      </trkpt>
      <trkpt lat="60.33052" lon="7.54204">
        <ele>1118.15</ele>
        <time>2019-04-04T11:50:37Z</time>
      </trkpt>
      <trkpt lat="60.33054" lon="7.54203">
        <ele>1118.15</ele>
        <time>2019-04-04T11:50:40Z</time>
      </trkpt>
      <trkpt lat="60.3307" lon="7.54213">
        <ele>1119.59</ele>
        <time>2019-04-04T11:50:44Z</time>
      </trkpt>
      <trkpt lat="60.33083" lon="7.54228">
        <ele>1120.07</ele>
        <time>2019-04-04T11:50:47Z</time>
      </trkpt>
      <trkpt lat="60.33088" lon="7.54232">
        <ele>1120.07</ele>
        <time>2019-04-04T11:50:48Z</time>
      </trkpt>
      <trkpt lat="60.33093" lon="7.54234">
        <ele>1120.07</ele>
        <time>2019-04-04T11:50:49Z</time>
      </trkpt>
      <trkpt lat="60.33098" lon="7.54236">
        <ele>1120.07</ele>
        <time>2019-04-04T11:50:50Z</time>
      </trkpt>
      <trkpt lat="60.33102" lon="7.54238">
        <ele>1120.07</ele>
        <time>2019-04-04T11:50:51Z</time>
      </trkpt>
      <trkpt lat="60.33106" lon="7.54239">
        <ele>1118.63</ele>
        <time>2019-04-04T11:50:52Z</time>
      </trkpt>
      <trkpt lat="60.33108" lon="7.54239">
        <ele>1118.63</ele>
        <time>2019-04-04T11:50:53Z</time>
      </trkpt>
      <trkpt lat="60.3311" lon="7.54237">
        <ele>1117.67</ele>
        <time>2019-04-04T11:50:54Z</time>
      </trkpt>
      <trkpt lat="60.33108" lon="7.54234">
        <ele>1116.23</ele>
        <time>2019-04-04T11:50:58Z</time>
      </trkpt>
      <trkpt lat="60.33106" lon="7.54235">
        <ele>1115.75</ele>
        <time>2019-04-04T11:51:00Z</time>
      </trkpt>
      <trkpt lat="60.3309" lon="7.54239">
        <ele>1118.63</ele>
        <time>2019-04-04T11:51:05Z</time>
      </trkpt>
      <trkpt lat="60.33065" lon="7.54246">
        <ele>1117.67</ele>
        <time>2019-04-04T11:51:10Z</time>
      </trkpt>
      <trkpt lat="60.3306" lon="7.54249">
        <ele>1120.07</ele>
        <time>2019-04-04T11:51:11Z</time>
      </trkpt>
      <trkpt lat="60.33054" lon="7.54253">
        <ele>1117.19</ele>
        <time>2019-04-04T11:51:12Z</time>
      </trkpt>
      <trkpt lat="60.3305" lon="7.54259">
        <ele>1119.11</ele>
        <time>2019-04-04T11:51:13Z</time>
      </trkpt>
      <trkpt lat="60.33047" lon="7.54264">
        <ele>1118.15</ele>
        <time>2019-04-04T11:51:14Z</time>
      </trkpt>
      <trkpt lat="60.33043" lon="7.54268">
        <ele>1118.15</ele>
        <time>2019-04-04T11:51:15Z</time>
      </trkpt>
      <trkpt lat="60.33032" lon="7.54284">
        <ele>1118.15</ele>
        <time>2019-04-04T11:51:21Z</time>
      </trkpt>
      <trkpt lat="60.33022" lon="7.54297">
        <ele>1117.67</ele>
        <time>2019-04-04T11:51:26Z</time>
      </trkpt>
      <trkpt lat="60.33021" lon="7.54299">
        <ele>1116.23</ele>
        <time>2019-04-04T11:51:39Z</time>
      </trkpt>
      <trkpt lat="60.33019" lon="7.54297">
        <ele>1116.23</ele>
        <time>2019-04-04T11:52:00Z</time>
      </trkpt>
      <trkpt lat="60.33017" lon="7.54268">
        <ele>1117.67</ele>
        <time>2019-04-04T11:52:11Z</time>
      </trkpt>
      <trkpt lat="60.33017" lon="7.54267">
        <ele>1116.23</ele>
        <time>2019-04-04T11:52:25Z</time>
      </trkpt>
      <trkpt lat="60.33017" lon="7.54266">
        <ele>1116.23</ele>
        <time>2019-04-04T11:52:26Z</time>
      </trkpt>
      <trkpt lat="60.33" lon="7.54279">
        <ele>1117.67</ele>
        <time>2019-04-04T11:52:33Z</time>
      </trkpt>
      <trkpt lat="60.32992" lon="7.54286">
        <ele>1117.19</ele>
        <time>2019-04-04T11:52:35Z</time>
      </trkpt>
      <trkpt lat="60.3296" lon="7.5432">
        <ele>1117.67</ele>
        <time>2019-04-04T11:52:42Z</time>
      </trkpt>
      <trkpt lat="60.32934" lon="7.5435">
        <ele>1118.63</ele>
        <time>2019-04-04T11:52:47Z</time>
      </trkpt>
      <trkpt lat="60.32914" lon="7.5438">
        <ele>1120.55</ele>
        <time>2019-04-04T11:52:52Z</time>
      </trkpt>
      <trkpt lat="60.32893" lon="7.54407">
        <ele>1120.55</ele>
        <time>2019-04-04T11:52:57Z</time>
      </trkpt>
      <trkpt lat="60.32873" lon="7.54426">
        <ele>1121.52</ele>
        <time>2019-04-04T11:53:01Z</time>
      </trkpt>
      <trkpt lat="60.32863" lon="7.54438">
        <ele>1122.48</ele>
        <time>2019-04-04T11:53:03Z</time>
      </trkpt>
      <trkpt lat="60.32852" lon="7.54448">
        <ele>1122.48</ele>
        <time>2019-04-04T11:53:05Z</time>
      </trkpt>
      <trkpt lat="60.32826" lon="7.54475">
        <ele>1123.92</ele>
        <time>2019-04-04T11:53:10Z</time>
      </trkpt>
      <trkpt lat="60.3281" lon="7.54473">
        <ele>1125.36</ele>
        <time>2019-04-04T11:53:15Z</time>
      </trkpt>
      <trkpt lat="60.32821" lon="7.54453">
        <ele>1126.32</ele>
        <time>2019-04-04T11:53:18Z</time>
      </trkpt>
      <trkpt lat="60.32845" lon="7.54446">
        <ele>1126.32</ele>
        <time>2019-04-04T11:53:22Z</time>
      </trkpt>
      <trkpt lat="60.32878" lon="7.54425">
        <ele>1126.8</ele>
        <time>2019-04-04T11:53:26Z</time>
      </trkpt>
      <trkpt lat="60.32917" lon="7.54378">
        <ele>1122.96</ele>
        <time>2019-04-04T11:53:31Z</time>
      </trkpt>
      <trkpt lat="60.32942" lon="7.5435">
        <ele>1122.48</ele>
        <time>2019-04-04T11:53:34Z</time>
      </trkpt>
      <trkpt lat="60.33028" lon="7.54281">
        <ele>1120.07</ele>
        <time>2019-04-04T11:53:44Z</time>
      </trkpt>
      <trkpt lat="60.33036" lon="7.54274">
        <ele>1120.07</ele>
        <time>2019-04-04T11:53:45Z</time>
      </trkpt>
      <trkpt lat="60.33061" lon="7.54252">
        <ele>1120.07</ele>
        <time>2019-04-04T11:53:48Z</time>
      </trkpt>
      <trkpt lat="60.33067" lon="7.54247">
        <ele>1120.07</ele>
        <time>2019-04-04T11:53:49Z</time>
      </trkpt>
      <trkpt lat="60.33084" lon="7.54235">
        <ele>1120.07</ele>
        <time>2019-04-04T11:53:51Z</time>
      </trkpt>
      <trkpt lat="60.33099" lon="7.54224">
        <ele>1120.07</ele>
        <time>2019-04-04T11:53:53Z</time>
      </trkpt>
      <trkpt lat="60.33105" lon="7.54215">
        <ele>1119.11</ele>
        <time>2019-04-04T11:53:54Z</time>
      </trkpt>
      <trkpt lat="60.33112" lon="7.54207">
        <ele>1118.63</ele>
        <time>2019-04-04T11:53:55Z</time>
      </trkpt>
      <trkpt lat="60.33133" lon="7.54183">
        <ele>1118.15</ele>
        <time>2019-04-04T11:53:58Z</time>
      </trkpt>
      <trkpt lat="60.33157" lon="7.54166">
        <ele>1118.15</ele>
        <time>2019-04-04T11:54:01Z</time>
      </trkpt>
      <trkpt lat="60.33177" lon="7.54151">
        <ele>1118.15</ele>
        <time>2019-04-04T11:54:04Z</time>
      </trkpt>
      <trkpt lat="60.33192" lon="7.54144">
        <ele>1120.07</ele>
        <time>2019-04-04T11:54:07Z</time>
      </trkpt>
      <trkpt lat="60.332" lon="7.54138">
        <ele>1122</ele>
        <time>2019-04-04T11:54:13Z</time>
      </trkpt>
      <trkpt lat="60.33199" lon="7.54137">
        <ele>1122</ele>
        <time>2019-04-04T11:54:14Z</time>
      </trkpt>
      <trkpt lat="60.33198" lon="7.54132">
        <ele>1122</ele>
        <time>2019-04-04T11:54:16Z</time>
      </trkpt>
      <trkpt lat="60.33195" lon="7.54129">
        <ele>1120.07</ele>
        <time>2019-04-04T11:54:17Z</time>
      </trkpt>
      <trkpt lat="60.33192" lon="7.5413">
        <ele>1120.07</ele>
        <time>2019-04-04T11:54:18Z</time>
      </trkpt>
      <trkpt lat="60.33166" lon="7.54165">
        <ele>1117.67</ele>
        <time>2019-04-04T11:54:27Z</time>
      </trkpt>
      <trkpt lat="60.33162" lon="7.54167">
        <ele>1117.67</ele>
        <time>2019-04-04T11:54:28Z</time>
      </trkpt>
      <trkpt lat="60.33147" lon="7.54181">
        <ele>1115.75</ele>
        <time>2019-04-04T11:54:32Z</time>
      </trkpt>
      <trkpt lat="60.33134" lon="7.5419">
        <ele>1115.75</ele>
        <time>2019-04-04T11:54:35Z</time>
      </trkpt>
      <trkpt lat="60.33092" lon="7.54213">
        <ele>1116.23</ele>
        <time>2019-04-04T11:54:44Z</time>
      </trkpt>
      <trkpt lat="60.33083" lon="7.54221">
        <ele>1116.23</ele>
        <time>2019-04-04T11:54:46Z</time>
      </trkpt>
      <trkpt lat="60.33073" lon="7.54222">
        <ele>1118.15</ele>
        <time>2019-04-04T11:54:48Z</time>
      </trkpt>
      <trkpt lat="60.33077" lon="7.54205">
        <ele>1118.15</ele>
        <time>2019-04-04T11:54:51Z</time>
      </trkpt>
      <trkpt lat="60.33086" lon="7.54202">
        <ele>1118.15</ele>
        <time>2019-04-04T11:54:53Z</time>
      </trkpt>
      <trkpt lat="60.33095" lon="7.54197">
        <ele>1118.15</ele>
        <time>2019-04-04T11:54:55Z</time>
      </trkpt>
      <trkpt lat="60.33106" lon="7.54189">
        <ele>1118.15</ele>
        <time>2019-04-04T11:54:57Z</time>
      </trkpt>
      <trkpt lat="60.33123" lon="7.54182">
        <ele>1118.15</ele>
        <time>2019-04-04T11:55:00Z</time>
      </trkpt>
      <trkpt lat="60.33134" lon="7.5418">
        <ele>1118.15</ele>
        <time>2019-04-04T11:55:02Z</time>
      </trkpt>
      <trkpt lat="60.33157" lon="7.54174">
        <ele>1118.15</ele>
        <time>2019-04-04T11:55:10Z</time>
      </trkpt>
      <trkpt lat="60.33158" lon="7.54173">
        <ele>1118.15</ele>
        <time>2019-04-04T11:55:15Z</time>
      </trkpt>
      <trkpt lat="60.33162" lon="7.54169">
        <ele>1118.15</ele>
        <time>2019-04-04T11:55:22Z</time>
      </trkpt>
      <trkpt lat="60.33152" lon="7.54138">
        <ele>1116.71</ele>
        <time>2019-04-04T11:55:27Z</time>
      </trkpt>
      <trkpt lat="60.33133" lon="7.54149">
        <ele>1115.27</ele>
        <time>2019-04-04T11:55:32Z</time>
      </trkpt>
      <trkpt lat="60.33129" lon="7.54153">
        <ele>1115.27</ele>
        <time>2019-04-04T11:55:33Z</time>
      </trkpt>
      <trkpt lat="60.33122" lon="7.54162">
        <ele>1115.75</ele>
        <time>2019-04-04T11:55:35Z</time>
      </trkpt>
      <trkpt lat="60.331" lon="7.54191">
        <ele>1115.75</ele>
        <time>2019-04-04T11:55:41Z</time>
      </trkpt>
      <trkpt lat="60.33084" lon="7.54216">
        <ele>1115.75</ele>
        <time>2019-04-04T11:55:45Z</time>
      </trkpt>
      <trkpt lat="60.33065" lon="7.54248">
        <ele>1118.15</ele>
        <time>2019-04-04T11:55:50Z</time>
      </trkpt>
      <trkpt lat="60.33062" lon="7.54253">
        <ele>1117.19</ele>
        <time>2019-04-04T11:55:51Z</time>
      </trkpt>
      <trkpt lat="60.33056" lon="7.54267">
        <ele>1117.19</ele>
        <time>2019-04-04T11:55:53Z</time>
      </trkpt>
      <trkpt lat="60.33053" lon="7.54274">
        <ele>1117.19</ele>
        <time>2019-04-04T11:55:54Z</time>
      </trkpt>
      <trkpt lat="60.33049" lon="7.5428">
        <ele>1116.71</ele>
        <time>2019-04-04T11:55:55Z</time>
      </trkpt>
      <trkpt lat="60.33029" lon="7.54312">
        <ele>1116.71</ele>
        <time>2019-04-04T11:56:00Z</time>
      </trkpt>
      <trkpt lat="60.33014" lon="7.54337">
        <ele>1116.71</ele>
        <time>2019-04-04T11:56:04Z</time>
      </trkpt>
      <trkpt lat="60.33" lon="7.54355">
        <ele>1116.71</ele>
        <time>2019-04-04T11:56:07Z</time>
      </trkpt>
      <trkpt lat="60.32982" lon="7.5438">
        <ele>1116.71</ele>
        <time>2019-04-04T11:56:11Z</time>
      </trkpt>
      <trkpt lat="60.32969" lon="7.54398">
        <ele>1119.11</ele>
        <time>2019-04-04T11:56:14Z</time>
      </trkpt>
      <trkpt lat="60.32961" lon="7.5441">
        <ele>1119.11</ele>
        <time>2019-04-04T11:56:16Z</time>
      </trkpt>
      <trkpt lat="60.3294" lon="7.54435">
        <ele>1118.15</ele>
        <time>2019-04-04T11:56:20Z</time>
      </trkpt>
      <trkpt lat="60.32918" lon="7.54472">
        <ele>1119.11</ele>
        <time>2019-04-04T11:56:25Z</time>
      </trkpt>
      <trkpt lat="60.32897" lon="7.54503">
        <ele>1120.55</ele>
        <time>2019-04-04T11:56:30Z</time>
      </trkpt>
      <trkpt lat="60.32882" lon="7.5453">
        <ele>1122.48</ele>
        <time>2019-04-04T11:56:34Z</time>
      </trkpt>
      <trkpt lat="60.32875" lon="7.54543">
        <ele>1122.48</ele>
        <time>2019-04-04T11:56:36Z</time>
      </trkpt>
      <trkpt lat="60.32844" lon="7.54577">
        <ele>1124.4</ele>
        <time>2019-04-04T11:56:43Z</time>
      </trkpt>
      <trkpt lat="60.32839" lon="7.54582">
        <ele>1124.4</ele>
        <time>2019-04-04T11:56:44Z</time>
      </trkpt>
      <trkpt lat="60.32826" lon="7.54586">
        <ele>1125.36</ele>
        <time>2019-04-04T11:56:49Z</time>
      </trkpt>
      <trkpt lat="60.32839" lon="7.54553">
        <ele>1125.84</ele>
        <time>2019-04-04T11:56:55Z</time>
      </trkpt>
      <trkpt lat="60.32855" lon="7.5451">
        <ele>1124.88</ele>
        <time>2019-04-04T11:57:00Z</time>
      </trkpt>
      <trkpt lat="60.32875" lon="7.54458">
        <ele>1124.88</ele>
        <time>2019-04-04T11:57:04Z</time>
      </trkpt>
      <trkpt lat="60.32922" lon="7.54369">
        <ele>1122</ele>
        <time>2019-04-04T11:57:11Z</time>
      </trkpt>
      <trkpt lat="60.32943" lon="7.54333">
        <ele>1122</ele>
        <time>2019-04-04T11:57:14Z</time>
      </trkpt>
      <trkpt lat="60.32976" lon="7.5429">
        <ele>1121.03</ele>
        <time>2019-04-04T11:57:18Z</time>
      </trkpt>
      <trkpt lat="60.33048" lon="7.54257">
        <ele>1119.59</ele>
        <time>2019-04-04T11:57:26Z</time>
      </trkpt>
      <trkpt lat="60.33086" lon="7.54239">
        <ele>1119.11</ele>
        <time>2019-04-04T11:57:31Z</time>
      </trkpt>
      <trkpt lat="60.33092" lon="7.54238">
        <ele>1119.11</ele>
        <time>2019-04-04T11:57:32Z</time>
      </trkpt>
      <trkpt lat="60.33096" lon="7.54234">
        <ele>1118.63</ele>
        <time>2019-04-04T11:57:33Z</time>
      </trkpt>
      <trkpt lat="60.33097" lon="7.54223">
        <ele>1117.67</ele>
        <time>2019-04-04T11:57:35Z</time>
      </trkpt>
      <trkpt lat="60.3309" lon="7.54222">
        <ele>1116.71</ele>
        <time>2019-04-04T11:57:37Z</time>
      </trkpt>
      <trkpt lat="60.33086" lon="7.54225">
        <ele>1117.19</ele>
        <time>2019-04-04T11:57:38Z</time>
      </trkpt>
      <trkpt lat="60.33083" lon="7.54228">
        <ele>1116.71</ele>
        <time>2019-04-04T11:57:39Z</time>
      </trkpt>
      <trkpt lat="60.33075" lon="7.5424">
        <ele>1118.63</ele>
        <time>2019-04-04T11:57:42Z</time>
      </trkpt>
      <trkpt lat="60.33069" lon="7.54247">
        <ele>1117.19</ele>
        <time>2019-04-04T11:57:44Z</time>
      </trkpt>
      <trkpt lat="60.33058" lon="7.54265">
        <ele>1118.63</ele>
        <time>2019-04-04T11:57:48Z</time>
      </trkpt>
      <trkpt lat="60.33034" lon="7.54298">
        <ele>1118.15</ele>
        <time>2019-04-04T11:57:57Z</time>
      </trkpt>
      <trkpt lat="60.33014" lon="7.54326">
        <ele>1117.19</ele>
        <time>2019-04-04T11:58:04Z</time>
      </trkpt>
      <trkpt lat="60.32991" lon="7.54362">
        <ele>1117.19</ele>
        <time>2019-04-04T11:58:13Z</time>
      </trkpt>
      <trkpt lat="60.32987" lon="7.54369">
        <ele>1118.63</ele>
        <time>2019-04-04T11:58:15Z</time>
      </trkpt>
      <trkpt lat="60.32975" lon="7.54386">
        <ele>1119.11</ele>
        <time>2019-04-04T11:58:24Z</time>
      </trkpt>
      <trkpt lat="60.32956" lon="7.54396">
        <ele>1118.63</ele>
        <time>2019-04-04T11:58:33Z</time>
      </trkpt>
      <trkpt lat="60.32928" lon="7.54431">
        <ele>1118.63</ele>
        <time>2019-04-04T11:58:43Z</time>
      </trkpt>
      <trkpt lat="60.32906" lon="7.54447">
        <ele>1120.07</ele>
        <time>2019-04-04T11:58:50Z</time>
      </trkpt>
      <trkpt lat="60.32886" lon="7.54467">
        <ele>1122.48</ele>
        <time>2019-04-04T11:58:58Z</time>
      </trkpt>
      <trkpt lat="60.32861" lon="7.54482">
        <ele>1122.48</ele>
        <time>2019-04-04T11:59:06Z</time>
      </trkpt>
      <trkpt lat="60.32832" lon="7.5452">
        <ele>1124.4</ele>
        <time>2019-04-04T11:59:15Z</time>
      </trkpt>
      <trkpt lat="60.32818" lon="7.54535">
        <ele>1124.88</ele>
        <time>2019-04-04T11:59:19Z</time>
      </trkpt>
      <trkpt lat="60.32769" lon="7.5457">
        <ele>1126.32</ele>
        <time>2019-04-04T11:59:31Z</time>
      </trkpt>
      <trkpt lat="60.32754" lon="7.54579">
        <ele>1126.32</ele>
        <time>2019-04-04T11:59:34Z</time>
      </trkpt>
      <trkpt lat="60.32732" lon="7.54593">
        <ele>1127.28</ele>
        <time>2019-04-04T11:59:39Z</time>
      </trkpt>
      <trkpt lat="60.3271" lon="7.54617">
        <ele>1127.76</ele>
        <time>2019-04-04T11:59:45Z</time>
      </trkpt>
      <trkpt lat="60.32697" lon="7.5463">
        <ele>1127.76</ele>
        <time>2019-04-04T11:59:48Z</time>
      </trkpt>
      <trkpt lat="60.32678" lon="7.54647">
        <ele>1128.73</ele>
        <time>2019-04-04T11:59:53Z</time>
      </trkpt>
      <trkpt lat="60.32673" lon="7.54628">
        <ele>1128.73</ele>
        <time>2019-04-04T11:59:58Z</time>
      </trkpt>
      <trkpt lat="60.32691" lon="7.54621">
        <ele>1129.69</ele>
        <time>2019-04-04T12:00:02Z</time>
      </trkpt>
      <trkpt lat="60.32702" lon="7.54624">
        <ele>1130.17</ele>
        <time>2019-04-04T12:00:04Z</time>
      </trkpt>
      <trkpt lat="60.32739" lon="7.54631">
        <ele>1130.17</ele>
        <time>2019-04-04T12:00:10Z</time>
      </trkpt>
      <trkpt lat="60.32778" lon="7.54637">
        <ele>1128.73</ele>
        <time>2019-04-04T12:00:16Z</time>
      </trkpt>
      <trkpt lat="60.32797" lon="7.54644">
        <ele>1128.73</ele>
        <time>2019-04-04T12:00:19Z</time>
      </trkpt>
      <trkpt lat="60.3282" lon="7.54651">
        <ele>1128.73</ele>
        <time>2019-04-04T12:00:25Z</time>
      </trkpt>
      <trkpt lat="60.32828" lon="7.54655">
        <ele>1128.73</ele>
        <time>2019-04-04T12:00:27Z</time>
      </trkpt>
      <trkpt lat="60.3285" lon="7.54665">
        <ele>1128.24</ele>
        <time>2019-04-04T12:00:31Z</time>
      </trkpt>
      <trkpt lat="60.32878" lon="7.54665">
        <ele>1126.8</ele>
        <time>2019-04-04T12:00:35Z</time>
      </trkpt>
      <trkpt lat="60.32938" lon="7.54663">
        <ele>1127.76</ele>
        <time>2019-04-04T12:00:44Z</time>
      </trkpt>
      <trkpt lat="60.32959" lon="7.54669">
        <ele>1131.13</ele>
        <time>2019-04-04T12:00:51Z</time>
      </trkpt>
      <trkpt lat="60.32961" lon="7.5467">
        <ele>1132.09</ele>
        <time>2019-04-04T12:00:53Z</time>
      </trkpt>
      <trkpt lat="60.32962" lon="7.54669">
        <ele>1132.09</ele>
        <time>2019-04-04T12:00:54Z</time>
      </trkpt>
      <trkpt lat="60.32973" lon="7.5467">
        <ele>1133.05</ele>
        <time>2019-04-04T12:01:03Z</time>
      </trkpt>
      <trkpt lat="60.32978" lon="7.54673">
        <ele>1134.01</ele>
        <time>2019-04-04T12:01:05Z</time>
      </trkpt>
      <trkpt lat="60.32997" lon="7.54679">
        <ele>1134.01</ele>
        <time>2019-04-04T12:01:11Z</time>
      </trkpt>
      <trkpt lat="60.33014" lon="7.54694">
        <ele>1130.17</ele>
        <time>2019-04-04T12:01:15Z</time>
      </trkpt>
      <trkpt lat="60.33026" lon="7.54703">
        <ele>1127.76</ele>
        <time>2019-04-04T12:01:17Z</time>
      </trkpt>
      <trkpt lat="60.33045" lon="7.54711">
        <ele>1125.84</ele>
        <time>2019-04-04T12:01:20Z</time>
      </trkpt>
      <trkpt lat="60.33073" lon="7.54716">
        <ele>1125.36</ele>
        <time>2019-04-04T12:01:26Z</time>
      </trkpt>
      <trkpt lat="60.33099" lon="7.54715">
        <ele>1128.73</ele>
        <time>2019-04-04T12:01:32Z</time>
      </trkpt>
      <trkpt lat="60.33113" lon="7.54715">
        <ele>1130.65</ele>
        <time>2019-04-04T12:01:35Z</time>
      </trkpt>
      <trkpt lat="60.33117" lon="7.54715">
        <ele>1131.61</ele>
        <time>2019-04-04T12:01:36Z</time>
      </trkpt>
      <trkpt lat="60.33138" lon="7.54712">
        <ele>1133.53</ele>
        <time>2019-04-04T12:01:44Z</time>
      </trkpt>
      <trkpt lat="60.33138" lon="7.54709">
        <ele>1132.09</ele>
        <time>2019-04-04T12:01:59Z</time>
      </trkpt>
      <trkpt lat="60.33137" lon="7.54708">
        <ele>1132.09</ele>
        <time>2019-04-04T12:02:12Z</time>
      </trkpt>
      <trkpt lat="60.33136" lon="7.54708">
        <ele>1132.09</ele>
        <time>2019-04-04T12:02:32Z</time>
      </trkpt>
      <trkpt lat="60.33136" lon="7.54708">
        <ele>1132.09</ele>
        <time>2019-04-04T12:02:50Z</time>
      </trkpt>
      <trkpt lat="60.33136" lon="7.54708">
        <ele>1131.61</ele>
        <time>2019-04-04T12:03:06Z</time>
      </trkpt>
      <trkpt lat="60.33129" lon="7.54711">
        <ele>1131.61</ele>
        <time>2019-04-04T12:03:10Z</time>
      </trkpt>
      <trkpt lat="60.33117" lon="7.54724">
        <ele>1130.65</ele>
        <time>2019-04-04T12:03:13Z</time>
      </trkpt>
      <trkpt lat="60.33088" lon="7.54749">
        <ele>1126.32</ele>
        <time>2019-04-04T12:03:18Z</time>
      </trkpt>
      <trkpt lat="60.33053" lon="7.54774">
        <ele>1123.92</ele>
        <time>2019-04-04T12:03:23Z</time>
      </trkpt>
      <trkpt lat="60.33022" lon="7.54791">
        <ele>1123.92</ele>
        <time>2019-04-04T12:03:28Z</time>
      </trkpt>
      <trkpt lat="60.3301" lon="7.54794">
        <ele>1125.36</ele>
        <time>2019-04-04T12:03:30Z</time>
      </trkpt>
      <trkpt lat="60.33004" lon="7.54795">
        <ele>1126.32</ele>
        <time>2019-04-04T12:03:31Z</time>
      </trkpt>
      <trkpt lat="60.32993" lon="7.54799">
        <ele>1127.28</ele>
        <time>2019-04-04T12:03:33Z</time>
      </trkpt>
      <trkpt lat="60.32978" lon="7.54802">
        <ele>1129.69</ele>
        <time>2019-04-04T12:03:37Z</time>
      </trkpt>
      <trkpt lat="60.32964" lon="7.54814">
        <ele>1132.09</ele>
        <time>2019-04-04T12:03:41Z</time>
      </trkpt>
      <trkpt lat="60.32936" lon="7.54827">
        <ele>1132.57</ele>
        <time>2019-04-04T12:03:46Z</time>
      </trkpt>
      <trkpt lat="60.32925" lon="7.5484">
        <ele>1131.13</ele>
        <time>2019-04-04T12:03:48Z</time>
      </trkpt>
      <trkpt lat="60.32903" lon="7.54856">
        <ele>1130.65</ele>
        <time>2019-04-04T12:03:52Z</time>
      </trkpt>
      <trkpt lat="60.32847" lon="7.5487">
        <ele>1128.73</ele>
        <time>2019-04-04T12:03:59Z</time>
      </trkpt>
      <trkpt lat="60.32815" lon="7.5488">
        <ele>1128.73</ele>
        <time>2019-04-04T12:04:03Z</time>
      </trkpt>
      <trkpt lat="60.32793" lon="7.54884">
        <ele>1128.73</ele>
        <time>2019-04-04T12:04:06Z</time>
      </trkpt>
      <trkpt lat="60.32763" lon="7.54891">
        <ele>1128.73</ele>
        <time>2019-04-04T12:04:10Z</time>
      </trkpt>
      <trkpt lat="60.32727" lon="7.5491">
        <ele>1130.17</ele>
        <time>2019-04-04T12:04:16Z</time>
      </trkpt>
      <trkpt lat="60.32705" lon="7.54925">
        <ele>1131.13</ele>
        <time>2019-04-04T12:04:20Z</time>
      </trkpt>
      <trkpt lat="60.32685" lon="7.54932">
        <ele>1132.57</ele>
        <time>2019-04-04T12:04:24Z</time>
      </trkpt>
      <trkpt lat="60.32669" lon="7.54923">
        <ele>1137.38</ele>
        <time>2019-04-04T12:04:29Z</time>
      </trkpt>
      <trkpt lat="60.32667" lon="7.5492">
        <ele>1137.38</ele>
        <time>2019-04-04T12:04:30Z</time>
      </trkpt>
      <trkpt lat="60.32654" lon="7.54911">
        <ele>1140.74</ele>
        <time>2019-04-04T12:04:37Z</time>
      </trkpt>
      <trkpt lat="60.32636" lon="7.54902">
        <ele>1142.18</ele>
        <time>2019-04-04T12:04:48Z</time>
      </trkpt>
      <trkpt lat="60.32627" lon="7.549">
        <ele>1142.18</ele>
        <time>2019-04-04T12:04:54Z</time>
      </trkpt>
      <trkpt lat="60.32621" lon="7.54903">
        <ele>1143.14</ele>
        <time>2019-04-04T12:04:58Z</time>
      </trkpt>
      <trkpt lat="60.32608" lon="7.54902">
        <ele>1143.14</ele>
        <time>2019-04-04T12:05:08Z</time>
      </trkpt>
      <trkpt lat="60.32586" lon="7.54904">
        <ele>1143.63</ele>
        <time>2019-04-04T12:05:17Z</time>
      </trkpt>
      <trkpt lat="60.32577" lon="7.5491">
        <ele>1144.11</ele>
        <time>2019-04-04T12:05:20Z</time>
      </trkpt>
      <trkpt lat="60.32578" lon="7.54893">
        <ele>1144.11</ele>
        <time>2019-04-04T12:05:25Z</time>
      </trkpt>
      <trkpt lat="60.32594" lon="7.54897">
        <ele>1144.11</ele>
        <time>2019-04-04T12:05:29Z</time>
      </trkpt>
      <trkpt lat="60.32602" lon="7.54902">
        <ele>1145.07</ele>
        <time>2019-04-04T12:05:31Z</time>
      </trkpt>
      <trkpt lat="60.32626" lon="7.54919">
        <ele>1145.55</ele>
        <time>2019-04-04T12:05:38Z</time>
      </trkpt>
      <trkpt lat="60.32628" lon="7.54918">
        <ele>1144.11</ele>
        <time>2019-04-04T12:05:40Z</time>
      </trkpt>
      <trkpt lat="60.32616" lon="7.54904">
        <ele>1143.14</ele>
        <time>2019-04-04T12:05:46Z</time>
      </trkpt>
      <trkpt lat="60.32606" lon="7.54905">
        <ele>1142.18</ele>
        <time>2019-04-04T12:05:54Z</time>
      </trkpt>
      <trkpt lat="60.32606" lon="7.54905">
        <ele>1143.63</ele>
        <time>2019-04-04T12:06:12Z</time>
      </trkpt>
      <trkpt lat="60.32605" lon="7.54903">
        <ele>1143.63</ele>
        <time>2019-04-04T12:06:27Z</time>
      </trkpt>
      <trkpt lat="60.32605" lon="7.54902">
        <ele>1143.63</ele>
        <time>2019-04-04T12:06:48Z</time>
      </trkpt>
      <trkpt lat="60.32604" lon="7.549">
        <ele>1143.63</ele>
        <time>2019-04-04T12:07:04Z</time>
      </trkpt>
      <trkpt lat="60.32592" lon="7.549">
        <ele>1143.63</ele>
        <time>2019-04-04T12:07:13Z</time>
      </trkpt>
      <trkpt lat="60.32574" lon="7.54897">
        <ele>1143.63</ele>
        <time>2019-04-04T12:07:20Z</time>
      </trkpt>
      <trkpt lat="60.32539" lon="7.5492">
        <ele>1140.26</ele>
        <time>2019-04-04T12:07:27Z</time>
      </trkpt>
      <trkpt lat="60.32512" lon="7.54926">
        <ele>1136.9</ele>
        <time>2019-04-04T12:07:31Z</time>
      </trkpt>
      <trkpt lat="60.32505" lon="7.54927">
        <ele>1136.9</ele>
        <time>2019-04-04T12:07:32Z</time>
      </trkpt>
      <trkpt lat="60.32493" lon="7.5493">
        <ele>1136.9</ele>
        <time>2019-04-04T12:07:34Z</time>
      </trkpt>
      <trkpt lat="60.3248" lon="7.54927">
        <ele>1138.34</ele>
        <time>2019-04-04T12:07:37Z</time>
      </trkpt>
      <trkpt lat="60.3247" lon="7.54923">
        <ele>1141.22</ele>
        <time>2019-04-04T12:07:41Z</time>
      </trkpt>
      <trkpt lat="60.32466" lon="7.54916">
        <ele>1141.7</ele>
        <time>2019-04-04T12:07:44Z</time>
      </trkpt>
      <trkpt lat="60.32451" lon="7.54908">
        <ele>1142.66</ele>
        <time>2019-04-04T12:07:48Z</time>
      </trkpt>
      <trkpt lat="60.32432" lon="7.54914">
        <ele>1144.59</ele>
        <time>2019-04-04T12:07:52Z</time>
      </trkpt>
      <trkpt lat="60.32413" lon="7.54916">
        <ele>1146.51</ele>
        <time>2019-04-04T12:07:59Z</time>
      </trkpt>
      <trkpt lat="60.3241" lon="7.54915">
        <ele>1146.99</ele>
        <time>2019-04-04T12:08:01Z</time>
      </trkpt>
      <trkpt lat="60.32408" lon="7.54911">
        <ele>1146.99</ele>
        <time>2019-04-04T12:08:04Z</time>
      </trkpt>
      <trkpt lat="60.32403" lon="7.54908">
        <ele>1147.95</ele>
        <time>2019-04-04T12:08:08Z</time>
      </trkpt>
      <trkpt lat="60.32398" lon="7.54906">
        <ele>1146.51</ele>
        <time>2019-04-04T12:08:14Z</time>
      </trkpt>
      <trkpt lat="60.3239" lon="7.54898">
        <ele>1148.43</ele>
        <time>2019-04-04T12:08:20Z</time>
      </trkpt>
      <trkpt lat="60.32381" lon="7.54894">
        <ele>1147.47</ele>
        <time>2019-04-04T12:08:30Z</time>
      </trkpt>
      <trkpt lat="60.3238" lon="7.54893">
        <ele>1147.47</ele>
        <time>2019-04-04T12:08:31Z</time>
      </trkpt>
      <trkpt lat="60.32369" lon="7.54883">
        <ele>1144.59</ele>
        <time>2019-04-04T12:08:35Z</time>
      </trkpt>
      <trkpt lat="60.32345" lon="7.54875">
        <ele>1144.11</ele>
        <time>2019-04-04T12:08:40Z</time>
      </trkpt>
      <trkpt lat="60.32314" lon="7.54863">
        <ele>1145.55</ele>
        <time>2019-04-04T12:08:47Z</time>
      </trkpt>
      <trkpt lat="60.32287" lon="7.54844">
        <ele>1145.55</ele>
        <time>2019-04-04T12:08:52Z</time>
      </trkpt>
      <trkpt lat="60.32275" lon="7.54843">
        <ele>1147.95</ele>
        <time>2019-04-04T12:08:54Z</time>
      </trkpt>
      <trkpt lat="60.32227" lon="7.54859">
        <ele>1151.32</ele>
        <time>2019-04-04T12:09:05Z</time>
      </trkpt>
      <trkpt lat="60.32224" lon="7.5486">
        <ele>1151.32</ele>
        <time>2019-04-04T12:09:06Z</time>
      </trkpt>
      <trkpt lat="60.32208" lon="7.5486">
        <ele>1151.32</ele>
        <time>2019-04-04T12:09:11Z</time>
      </trkpt>
      <trkpt lat="60.32162" lon="7.54854">
        <ele>1152.76</ele>
        <time>2019-04-04T12:09:21Z</time>
      </trkpt>
      <trkpt lat="60.32147" lon="7.54855">
        <ele>1153.72</ele>
        <time>2019-04-04T12:09:24Z</time>
      </trkpt>
      <trkpt lat="60.32119" lon="7.54852">
        <ele>1152.76</ele>
        <time>2019-04-04T12:09:29Z</time>
      </trkpt>
      <trkpt lat="60.32094" lon="7.54841">
        <ele>1154.2</ele>
        <time>2019-04-04T12:09:33Z</time>
      </trkpt>
      <trkpt lat="60.32079" lon="7.54832">
        <ele>1157.56</ele>
        <time>2019-04-04T12:09:36Z</time>
      </trkpt>
      <trkpt lat="60.3207" lon="7.5483">
        <ele>1158.05</ele>
        <time>2019-04-04T12:09:38Z</time>
      </trkpt>
      <trkpt lat="60.32059" lon="7.54826">
        <ele>1159.49</ele>
        <time>2019-04-04T12:09:40Z</time>
      </trkpt>
      <trkpt lat="60.32027" lon="7.5482">
        <ele>1163.33</ele>
        <time>2019-04-04T12:09:45Z</time>
      </trkpt>
      <trkpt lat="60.32021" lon="7.54819">
        <ele>1163.33</ele>
        <time>2019-04-04T12:09:46Z</time>
      </trkpt>
      <trkpt lat="60.32" lon="7.54825">
        <ele>1165.26</ele>
        <time>2019-04-04T12:09:49Z</time>
      </trkpt>
      <trkpt lat="60.31947" lon="7.54856">
        <ele>1167.66</ele>
        <time>2019-04-04T12:09:58Z</time>
      </trkpt>
      <trkpt lat="60.31922" lon="7.54857">
        <ele>1169.1</ele>
        <time>2019-04-04T12:10:02Z</time>
      </trkpt>
      <trkpt lat="60.31886" lon="7.54856">
        <ele>1169.1</ele>
        <time>2019-04-04T12:10:07Z</time>
      </trkpt>
      <trkpt lat="60.31873" lon="7.5486">
        <ele>1170.54</ele>
        <time>2019-04-04T12:10:09Z</time>
      </trkpt>
      <trkpt lat="60.31853" lon="7.54869">
        <ele>1169.1</ele>
        <time>2019-04-04T12:10:12Z</time>
      </trkpt>
      <trkpt lat="60.31799" lon="7.54897">
        <ele>1169.1</ele>
        <time>2019-04-04T12:10:21Z</time>
      </trkpt>
      <trkpt lat="60.31748" lon="7.54919">
        <ele>1169.1</ele>
        <time>2019-04-04T12:10:29Z</time>
      </trkpt>
      <trkpt lat="60.31731" lon="7.54928">
        <ele>1171.5</ele>
        <time>2019-04-04T12:10:32Z</time>
      </trkpt>
      <trkpt lat="60.31704" lon="7.54928">
        <ele>1174.87</ele>
        <time>2019-04-04T12:10:41Z</time>
      </trkpt>
      <trkpt lat="60.31691" lon="7.54927">
        <ele>1175.83</ele>
        <time>2019-04-04T12:10:50Z</time>
      </trkpt>
      <trkpt lat="60.31678" lon="7.5491">
        <ele>1176.79</ele>
        <time>2019-04-04T12:10:56Z</time>
      </trkpt>
      <trkpt lat="60.31656" lon="7.54894">
        <ele>1177.75</ele>
        <time>2019-04-04T12:11:00Z</time>
      </trkpt>
      <trkpt lat="60.31644" lon="7.54893">
        <ele>1179.67</ele>
        <time>2019-04-04T12:11:02Z</time>
      </trkpt>
      <trkpt lat="60.31632" lon="7.54894">
        <ele>1180.64</ele>
        <time>2019-04-04T12:11:04Z</time>
      </trkpt>
      <trkpt lat="60.31573" lon="7.54916">
        <ele>1184</ele>
        <time>2019-04-04T12:11:14Z</time>
      </trkpt>
      <trkpt lat="60.31556" lon="7.54925">
        <ele>1185.92</ele>
        <time>2019-04-04T12:11:17Z</time>
      </trkpt>
      <trkpt lat="60.31545" lon="7.54931">
        <ele>1184.48</ele>
        <time>2019-04-04T12:11:19Z</time>
      </trkpt>
      <trkpt lat="60.31512" lon="7.54952">
        <ele>1185.44</ele>
        <time>2019-04-04T12:11:25Z</time>
      </trkpt>
      <trkpt lat="60.31472" lon="7.54978">
        <ele>1188.81</ele>
        <time>2019-04-04T12:11:32Z</time>
      </trkpt>
      <trkpt lat="60.31454" lon="7.54989">
        <ele>1187.37</ele>
        <time>2019-04-04T12:11:36Z</time>
      </trkpt>
      <trkpt lat="60.31438" lon="7.5499">
        <ele>1187.37</ele>
        <time>2019-04-04T12:11:39Z</time>
      </trkpt>
      <trkpt lat="60.31412" lon="7.54991">
        <ele>1189.77</ele>
        <time>2019-04-04T12:11:46Z</time>
      </trkpt>
      <trkpt lat="60.31389" lon="7.54979">
        <ele>1191.21</ele>
        <time>2019-04-04T12:11:51Z</time>
      </trkpt>
      <trkpt lat="60.31367" lon="7.54978">
        <ele>1193.61</ele>
        <time>2019-04-04T12:11:56Z</time>
      </trkpt>
      <trkpt lat="60.31354" lon="7.54974">
        <ele>1195.06</ele>
        <time>2019-04-04T12:11:59Z</time>
      </trkpt>
      <trkpt lat="60.3134" lon="7.54972">
        <ele>1196.02</ele>
        <time>2019-04-04T12:12:02Z</time>
      </trkpt>
      <trkpt lat="60.3133" lon="7.54973">
        <ele>1196.5</ele>
        <time>2019-04-04T12:12:04Z</time>
      </trkpt>
      <trkpt lat="60.31305" lon="7.54974">
        <ele>1198.9</ele>
        <time>2019-04-04T12:12:09Z</time>
      </trkpt>
      <trkpt lat="60.31295" lon="7.54975">
        <ele>1199.38</ele>
        <time>2019-04-04T12:12:11Z</time>
      </trkpt>
      <trkpt lat="60.31241" lon="7.54973">
        <ele>1201.79</ele>
        <time>2019-04-04T12:12:22Z</time>
      </trkpt>
      <trkpt lat="60.31232" lon="7.54975">
        <ele>1202.75</ele>
        <time>2019-04-04T12:12:24Z</time>
      </trkpt>
      <trkpt lat="60.31188" lon="7.54962">
        <ele>1206.11</ele>
        <time>2019-04-04T12:12:32Z</time>
      </trkpt>
      <trkpt lat="60.31154" lon="7.54958">
        <ele>1206.59</ele>
        <time>2019-04-04T12:12:38Z</time>
      </trkpt>
      <trkpt lat="60.31146" lon="7.54959">
        <ele>1208.03</ele>
        <time>2019-04-04T12:12:40Z</time>
      </trkpt>
      <trkpt lat="60.31135" lon="7.5496">
        <ele>1209</ele>
        <time>2019-04-04T12:12:44Z</time>
      </trkpt>
      <trkpt lat="60.31133" lon="7.54951">
        <ele>1209.96</ele>
        <time>2019-04-04T12:12:56Z</time>
      </trkpt>
      <trkpt lat="60.31147" lon="7.54963">
        <ele>1209.96</ele>
        <time>2019-04-04T12:13:02Z</time>
      </trkpt>
      <trkpt lat="60.31151" lon="7.54972">
        <ele>1209.96</ele>
        <time>2019-04-04T12:13:04Z</time>
      </trkpt>
      <trkpt lat="60.31163" lon="7.54992">
        <ele>1208.51</ele>
        <time>2019-04-04T12:13:09Z</time>
      </trkpt>
      <trkpt lat="60.31167" lon="7.54996">
        <ele>1207.55</ele>
        <time>2019-04-04T12:13:17Z</time>
      </trkpt>
      <trkpt lat="60.31168" lon="7.54997">
        <ele>1207.55</ele>
        <time>2019-04-04T12:13:21Z</time>
      </trkpt>
      <trkpt lat="60.31174" lon="7.55003">
        <ele>1207.55</ele>
        <time>2019-04-04T12:13:30Z</time>
      </trkpt>
      <trkpt lat="60.3118" lon="7.55013">
        <ele>1207.55</ele>
        <time>2019-04-04T12:13:42Z</time>
      </trkpt>
      <trkpt lat="60.31182" lon="7.55017">
        <ele>1207.55</ele>
        <time>2019-04-04T12:13:43Z</time>
      </trkpt>
      <trkpt lat="60.31202" lon="7.55007">
        <ele>1206.59</ele>
        <time>2019-04-04T12:13:48Z</time>
      </trkpt>
      <trkpt lat="60.31227" lon="7.55016">
        <ele>1206.59</ele>
        <time>2019-04-04T12:13:52Z</time>
      </trkpt>
      <trkpt lat="60.31247" lon="7.55044">
        <ele>1206.59</ele>
        <time>2019-04-04T12:13:56Z</time>
      </trkpt>
      <trkpt lat="60.31261" lon="7.55064">
        <ele>1206.59</ele>
        <time>2019-04-04T12:13:59Z</time>
      </trkpt>
      <trkpt lat="60.31298" lon="7.55118">
        <ele>1205.63</ele>
        <time>2019-04-04T12:14:07Z</time>
      </trkpt>
      <trkpt lat="60.31313" lon="7.55141">
        <ele>1205.15</ele>
        <time>2019-04-04T12:14:10Z</time>
      </trkpt>
      <trkpt lat="60.31328" lon="7.55172">
        <ele>1204.67</ele>
        <time>2019-04-04T12:14:14Z</time>
      </trkpt>
      <trkpt lat="60.3135" lon="7.5521">
        <ele>1204.19</ele>
        <time>2019-04-04T12:14:22Z</time>
      </trkpt>
      <trkpt lat="60.31352" lon="7.55207">
        <ele>1203.23</ele>
        <time>2019-04-04T12:14:29Z</time>
      </trkpt>
      <trkpt lat="60.31339" lon="7.55192">
        <ele>1202.75</ele>
        <time>2019-04-04T12:14:38Z</time>
      </trkpt>
      <trkpt lat="60.31292" lon="7.5519">
        <ele>1204.19</ele>
        <time>2019-04-04T12:14:48Z</time>
      </trkpt>
      <trkpt lat="60.31275" lon="7.55189">
        <ele>1206.11</ele>
        <time>2019-04-04T12:14:52Z</time>
      </trkpt>
      <trkpt lat="60.31247" lon="7.55181">
        <ele>1207.07</ele>
        <time>2019-04-04T12:14:59Z</time>
      </trkpt>
      <trkpt lat="60.3122" lon="7.55181">
        <ele>1207.55</ele>
        <time>2019-04-04T12:15:05Z</time>
      </trkpt>
      <trkpt lat="60.31189" lon="7.55195">
        <ele>1209</ele>
        <time>2019-04-04T12:15:12Z</time>
      </trkpt>
      <trkpt lat="60.31184" lon="7.55195">
        <ele>1209.48</ele>
        <time>2019-04-04T12:15:13Z</time>
      </trkpt>
      <trkpt lat="60.31168" lon="7.55196">
        <ele>1209.48</ele>
        <time>2019-04-04T12:15:16Z</time>
      </trkpt>
      <trkpt lat="60.31146" lon="7.55195">
        <ele>1210.92</ele>
        <time>2019-04-04T12:15:20Z</time>
      </trkpt>
      <trkpt lat="60.31134" lon="7.55199">
        <ele>1213.32</ele>
        <time>2019-04-04T12:15:23Z</time>
      </trkpt>
      <trkpt lat="60.3113" lon="7.55196">
        <ele>1213.32</ele>
        <time>2019-04-04T12:15:24Z</time>
      </trkpt>
      <trkpt lat="60.31121" lon="7.55183">
        <ele>1213.8</ele>
        <time>2019-04-04T12:15:27Z</time>
      </trkpt>
      <trkpt lat="60.31102" lon="7.55174">
        <ele>1216.21</ele>
        <time>2019-04-04T12:15:31Z</time>
      </trkpt>
      <trkpt lat="60.31093" lon="7.55168">
        <ele>1216.21</ele>
        <time>2019-04-04T12:15:33Z</time>
      </trkpt>
      <trkpt lat="60.31073" lon="7.55161">
        <ele>1218.61</ele>
        <time>2019-04-04T12:15:37Z</time>
      </trkpt>
      <trkpt lat="60.31059" lon="7.55157">
        <ele>1220.05</ele>
        <time>2019-04-04T12:15:40Z</time>
      </trkpt>
      <trkpt lat="60.3105" lon="7.55157">
        <ele>1221.01</ele>
        <time>2019-04-04T12:15:42Z</time>
      </trkpt>
      <trkpt lat="60.31021" lon="7.55143">
        <ele>1223.9</ele>
        <time>2019-04-04T12:15:48Z</time>
      </trkpt>
      <trkpt lat="60.30967" lon="7.55118">
        <ele>1226.78</ele>
        <time>2019-04-04T12:15:59Z</time>
      </trkpt>
      <trkpt lat="60.30941" lon="7.55106">
        <ele>1227.26</ele>
        <time>2019-04-04T12:16:04Z</time>
      </trkpt>
      <trkpt lat="60.30918" lon="7.55105">
        <ele>1227.74</ele>
        <time>2019-04-04T12:16:08Z</time>
      </trkpt>
      <trkpt lat="60.30873" lon="7.55113">
        <ele>1230.14</ele>
        <time>2019-04-04T12:16:16Z</time>
      </trkpt>
      <trkpt lat="60.30862" lon="7.55117">
        <ele>1231.59</ele>
        <time>2019-04-04T12:16:18Z</time>
      </trkpt>
      <trkpt lat="60.3083" lon="7.55129">
        <ele>1231.59</ele>
        <time>2019-04-04T12:16:24Z</time>
      </trkpt>
      <trkpt lat="60.30814" lon="7.5513">
        <ele>1231.59</ele>
        <time>2019-04-04T12:16:27Z</time>
      </trkpt>
      <trkpt lat="60.30752" lon="7.55149">
        <ele>1228.7</ele>
        <time>2019-04-04T12:16:37Z</time>
      </trkpt>
      <trkpt lat="60.30723" lon="7.55153">
        <ele>1229.18</ele>
        <time>2019-04-04T12:16:42Z</time>
      </trkpt>
      <trkpt lat="60.30711" lon="7.55156">
        <ele>1230.14</ele>
        <time>2019-04-04T12:16:44Z</time>
      </trkpt>
      <trkpt lat="60.3068" lon="7.55159">
        <ele>1227.26</ele>
        <time>2019-04-04T12:16:49Z</time>
      </trkpt>
      <trkpt lat="60.30668" lon="7.55158">
        <ele>1226.3</ele>
        <time>2019-04-04T12:16:51Z</time>
      </trkpt>
      <trkpt lat="60.30648" lon="7.55154">
        <ele>1226.3</ele>
        <time>2019-04-04T12:16:54Z</time>
      </trkpt>
      <trkpt lat="60.30607" lon="7.55155">
        <ele>1227.74</ele>
        <time>2019-04-04T12:17:00Z</time>
      </trkpt>
      <trkpt lat="60.30592" lon="7.5516">
        <ele>1225.82</ele>
        <time>2019-04-04T12:17:03Z</time>
      </trkpt>
      <trkpt lat="60.30576" lon="7.55161">
        <ele>1225.82</ele>
        <time>2019-04-04T12:17:06Z</time>
      </trkpt>
      <trkpt lat="60.30562" lon="7.55165">
        <ele>1226.78</ele>
        <time>2019-04-04T12:17:09Z</time>
      </trkpt>
      <trkpt lat="60.30544" lon="7.55173">
        <ele>1229.66</ele>
        <time>2019-04-04T12:17:14Z</time>
      </trkpt>
      <trkpt lat="60.30526" lon="7.55167">
        <ele>1229.66</ele>
        <time>2019-04-04T12:17:19Z</time>
      </trkpt>
      <trkpt lat="60.30517" lon="7.55168">
        <ele>1230.62</ele>
        <time>2019-04-04T12:17:21Z</time>
      </trkpt>
      <trkpt lat="60.30502" lon="7.55167">
        <ele>1230.62</ele>
        <time>2019-04-04T12:17:24Z</time>
      </trkpt>
      <trkpt lat="60.30478" lon="7.55168">
        <ele>1233.51</ele>
        <time>2019-04-04T12:17:30Z</time>
      </trkpt>
      <trkpt lat="60.30447" lon="7.55168">
        <ele>1235.91</ele>
        <time>2019-04-04T12:17:40Z</time>
      </trkpt>
      <trkpt lat="60.30433" lon="7.55167">
        <ele>1236.39</ele>
        <time>2019-04-04T12:17:44Z</time>
      </trkpt>
      <trkpt lat="60.30424" lon="7.55169">
        <ele>1236.39</ele>
        <time>2019-04-04T12:17:46Z</time>
      </trkpt>
      <trkpt lat="60.30389" lon="7.55169">
        <ele>1238.8</ele>
        <time>2019-04-04T12:17:52Z</time>
      </trkpt>
      <trkpt lat="60.30382" lon="7.55171">
        <ele>1239.28</ele>
        <time>2019-04-04T12:17:53Z</time>
      </trkpt>
      <trkpt lat="60.30362" lon="7.55172">
        <ele>1239.28</ele>
        <time>2019-04-04T12:17:56Z</time>
      </trkpt>
      <trkpt lat="60.30319" lon="7.55171">
        <ele>1240.72</ele>
        <time>2019-04-04T12:18:03Z</time>
      </trkpt>
      <trkpt lat="60.30249" lon="7.55167">
        <ele>1243.6</ele>
        <time>2019-04-04T12:18:15Z</time>
      </trkpt>
      <trkpt lat="60.30237" lon="7.55169">
        <ele>1243.6</ele>
        <time>2019-04-04T12:18:17Z</time>
      </trkpt>
      <trkpt lat="60.30213" lon="7.55166">
        <ele>1245.04</ele>
        <time>2019-04-04T12:18:21Z</time>
      </trkpt>
      <trkpt lat="60.30185" lon="7.55166">
        <ele>1245.53</ele>
        <time>2019-04-04T12:18:26Z</time>
      </trkpt>
      <trkpt lat="60.30164" lon="7.55162">
        <ele>1247.45</ele>
        <time>2019-04-04T12:18:30Z</time>
      </trkpt>
      <trkpt lat="60.30117" lon="7.55151">
        <ele>1250.81</ele>
        <time>2019-04-04T12:18:39Z</time>
      </trkpt>
      <trkpt lat="60.30094" lon="7.55155">
        <ele>1252.74</ele>
        <time>2019-04-04T12:18:44Z</time>
      </trkpt>
      <trkpt lat="60.30086" lon="7.55156">
        <ele>1253.22</ele>
        <time>2019-04-04T12:18:46Z</time>
      </trkpt>
      <trkpt lat="60.3006" lon="7.55175">
        <ele>1254.18</ele>
        <time>2019-04-04T12:18:55Z</time>
      </trkpt>
      <trkpt lat="60.30049" lon="7.55178">
        <ele>1254.66</ele>
        <time>2019-04-04T12:19:03Z</time>
      </trkpt>
      <trkpt lat="60.30026" lon="7.55179">
        <ele>1254.66</ele>
        <time>2019-04-04T12:19:12Z</time>
      </trkpt>
      <trkpt lat="60.30014" lon="7.55181">
        <ele>1254.66</ele>
        <time>2019-04-04T12:19:15Z</time>
      </trkpt>
      <trkpt lat="60.30006" lon="7.55184">
        <ele>1253.7</ele>
        <time>2019-04-04T12:19:17Z</time>
      </trkpt>
      <trkpt lat="60.29969" lon="7.55207">
        <ele>1253.7</ele>
        <time>2019-04-04T12:19:27Z</time>
      </trkpt>
      <trkpt lat="60.29938" lon="7.55232">
        <ele>1254.18</ele>
        <time>2019-04-04T12:19:37Z</time>
      </trkpt>
      <trkpt lat="60.29914" lon="7.55237">
        <ele>1255.14</ele>
        <time>2019-04-04T12:19:49Z</time>
      </trkpt>
      <trkpt lat="60.29909" lon="7.55234">
        <ele>1255.14</ele>
        <time>2019-04-04T12:19:55Z</time>
      </trkpt>
      <trkpt lat="60.29906" lon="7.55234">
        <ele>1255.62</ele>
        <time>2019-04-04T12:19:58Z</time>
      </trkpt>
      <trkpt lat="60.29901" lon="7.55233">
        <ele>1256.1</ele>
        <time>2019-04-04T12:20:07Z</time>
      </trkpt>
      <trkpt lat="60.29901" lon="7.55232">
        <ele>1256.1</ele>
        <time>2019-04-04T12:20:31Z</time>
      </trkpt>
      <trkpt lat="60.29899" lon="7.5523">
        <ele>1256.1</ele>
        <time>2019-04-04T12:20:46Z</time>
      </trkpt>
      <trkpt lat="60.29897" lon="7.55228">
        <ele>1256.1</ele>
        <time>2019-04-04T12:21:01Z</time>
      </trkpt>
      <trkpt lat="60.29896" lon="7.55228">
        <ele>1256.1</ele>
        <time>2019-04-04T12:21:23Z</time>
      </trkpt>
      <trkpt lat="60.29893" lon="7.55224">
        <ele>1256.1</ele>
        <time>2019-04-04T12:21:37Z</time>
      </trkpt>
      <trkpt lat="60.29892" lon="7.55225">
        <ele>1256.1</ele>
        <time>2019-04-04T12:21:55Z</time>
      </trkpt>
      <trkpt lat="60.29892" lon="7.55223">
        <ele>1256.1</ele>
        <time>2019-04-04T12:22:10Z</time>
      </trkpt>
      <trkpt lat="60.29892" lon="7.55221">
        <ele>1256.58</ele>
        <time>2019-04-04T12:22:32Z</time>
      </trkpt>
      <trkpt lat="60.2989" lon="7.55219">
        <ele>1255.14</ele>
        <time>2019-04-04T12:22:51Z</time>
      </trkpt>
      <trkpt lat="60.29889" lon="7.55214">
        <ele>1254.18</ele>
        <time>2019-04-04T12:23:06Z</time>
      </trkpt>
      <trkpt lat="60.29889" lon="7.55214">
        <ele>1255.62</ele>
        <time>2019-04-04T12:23:09Z</time>
      </trkpt>
      <trkpt lat="60.29888" lon="7.55212">
        <ele>1255.62</ele>
        <time>2019-04-04T12:23:14Z</time>
      </trkpt>
      <trkpt lat="60.29879" lon="7.55185">
        <ele>1255.62</ele>
        <time>2019-04-04T12:23:18Z</time>
      </trkpt>
      <trkpt lat="60.29866" lon="7.55164">
        <ele>1255.62</ele>
        <time>2019-04-04T12:23:21Z</time>
      </trkpt>
      <trkpt lat="60.29826" lon="7.55114">
        <ele>1254.18</ele>
        <time>2019-04-04T12:23:29Z</time>
      </trkpt>
      <trkpt lat="60.29814" lon="7.55106">
        <ele>1254.18</ele>
        <time>2019-04-04T12:23:31Z</time>
      </trkpt>
      <trkpt lat="60.29782" lon="7.55094">
        <ele>1255.62</ele>
        <time>2019-04-04T12:23:36Z</time>
      </trkpt>
      <trkpt lat="60.29745" lon="7.55078">
        <ele>1257.06</ele>
        <time>2019-04-04T12:23:42Z</time>
      </trkpt>
      <trkpt lat="60.29718" lon="7.55075">
        <ele>1258.02</ele>
        <time>2019-04-04T12:23:46Z</time>
      </trkpt>
      <trkpt lat="60.29705" lon="7.55075">
        <ele>1256.58</ele>
        <time>2019-04-04T12:23:48Z</time>
      </trkpt>
      <trkpt lat="60.29673" lon="7.55082">
        <ele>1256.58</ele>
        <time>2019-04-04T12:23:53Z</time>
      </trkpt>
      <trkpt lat="60.29661" lon="7.55088">
        <ele>1257.06</ele>
        <time>2019-04-04T12:23:55Z</time>
      </trkpt>
      <trkpt lat="60.29647" lon="7.551">
        <ele>1258.5</ele>
        <time>2019-04-04T12:23:58Z</time>
      </trkpt>
      <trkpt lat="60.29608" lon="7.55144">
        <ele>1260.43</ele>
        <time>2019-04-04T12:24:06Z</time>
      </trkpt>
      <trkpt lat="60.29587" lon="7.55169">
        <ele>1258.5</ele>
        <time>2019-04-04T12:24:10Z</time>
      </trkpt>
      <trkpt lat="60.29562" lon="7.55204">
        <ele>1258.98</ele>
        <time>2019-04-04T12:24:15Z</time>
      </trkpt>
      <trkpt lat="60.29552" lon="7.55215">
        <ele>1257.54</ele>
        <time>2019-04-04T12:24:17Z</time>
      </trkpt>
      <trkpt lat="60.29542" lon="7.55227">
        <ele>1256.1</ele>
        <time>2019-04-04T12:24:19Z</time>
      </trkpt>
      <trkpt lat="60.29533" lon="7.55239">
        <ele>1258.5</ele>
        <time>2019-04-04T12:24:21Z</time>
      </trkpt>
      <trkpt lat="60.29508" lon="7.5527">
        <ele>1255.14</ele>
        <time>2019-04-04T12:24:26Z</time>
      </trkpt>
      <trkpt lat="60.29503" lon="7.55276">
        <ele>1255.62</ele>
        <time>2019-04-04T12:24:27Z</time>
      </trkpt>
      <trkpt lat="60.29493" lon="7.55289">
        <ele>1257.06</ele>
        <time>2019-04-04T12:24:29Z</time>
      </trkpt>
      <trkpt lat="60.29483" lon="7.55301">
        <ele>1257.06</ele>
        <time>2019-04-04T12:24:31Z</time>
      </trkpt>
      <trkpt lat="60.29467" lon="7.55318">
        <ele>1256.58</ele>
        <time>2019-04-04T12:24:34Z</time>
      </trkpt>
      <trkpt lat="60.29456" lon="7.55328">
        <ele>1255.62</ele>
        <time>2019-04-04T12:24:36Z</time>
      </trkpt>
      <trkpt lat="60.29424" lon="7.55362">
        <ele>1253.7</ele>
        <time>2019-04-04T12:24:42Z</time>
      </trkpt>
      <trkpt lat="60.29387" lon="7.55415">
        <ele>1251.29</ele>
        <time>2019-04-04T12:24:50Z</time>
      </trkpt>
      <trkpt lat="60.29373" lon="7.55432">
        <ele>1251.29</ele>
        <time>2019-04-04T12:24:53Z</time>
      </trkpt>
      <trkpt lat="60.29332" lon="7.555">
        <ele>1250.33</ele>
        <time>2019-04-04T12:25:03Z</time>
      </trkpt>
      <trkpt lat="60.29295" lon="7.55557">
        <ele>1247.45</ele>
        <time>2019-04-04T12:25:11Z</time>
      </trkpt>
      <trkpt lat="60.29286" lon="7.55572">
        <ele>1246.01</ele>
        <time>2019-04-04T12:25:13Z</time>
      </trkpt>
      <trkpt lat="60.29257" lon="7.55616">
        <ele>1242.64</ele>
        <time>2019-04-04T12:25:19Z</time>
      </trkpt>
      <trkpt lat="60.29252" lon="7.55624">
        <ele>1242.64</ele>
        <time>2019-04-04T12:25:20Z</time>
      </trkpt>
      <trkpt lat="60.29217" lon="7.55679">
        <ele>1241.68</ele>
        <time>2019-04-04T12:25:28Z</time>
      </trkpt>
      <trkpt lat="60.29208" lon="7.55692">
        <ele>1240.72</ele>
        <time>2019-04-04T12:25:30Z</time>
      </trkpt>
      <trkpt lat="60.29185" lon="7.55727">
        <ele>1238.8</ele>
        <time>2019-04-04T12:25:35Z</time>
      </trkpt>
      <trkpt lat="60.29175" lon="7.55743">
        <ele>1238.32</ele>
        <time>2019-04-04T12:25:37Z</time>
      </trkpt>
      <trkpt lat="60.29164" lon="7.55757">
        <ele>1237.35</ele>
        <time>2019-04-04T12:25:39Z</time>
      </trkpt>
      <trkpt lat="60.29123" lon="7.55831">
        <ele>1234.47</ele>
        <time>2019-04-04T12:25:49Z</time>
      </trkpt>
      <trkpt lat="60.29088" lon="7.55899">
        <ele>1231.59</ele>
        <time>2019-04-04T12:25:58Z</time>
      </trkpt>
      <trkpt lat="60.29085" lon="7.55906">
        <ele>1230.14</ele>
        <time>2019-04-04T12:25:59Z</time>
      </trkpt>
      <trkpt lat="60.29065" lon="7.5593">
        <ele>1228.7</ele>
        <time>2019-04-04T12:26:04Z</time>
      </trkpt>
      <trkpt lat="60.29051" lon="7.5595">
        <ele>1227.26</ele>
        <time>2019-04-04T12:26:07Z</time>
      </trkpt>
      <trkpt lat="60.29037" lon="7.55973">
        <ele>1225.82</ele>
        <time>2019-04-04T12:26:10Z</time>
      </trkpt>
      <trkpt lat="60.28997" lon="7.56025">
        <ele>1223.42</ele>
        <time>2019-04-04T12:26:17Z</time>
      </trkpt>
      <trkpt lat="60.28984" lon="7.56041">
        <ele>1222.45</ele>
        <time>2019-04-04T12:26:19Z</time>
      </trkpt>
      <trkpt lat="60.28962" lon="7.5607">
        <ele>1221.01</ele>
        <time>2019-04-04T12:26:23Z</time>
      </trkpt>
      <trkpt lat="60.28947" lon="7.56091">
        <ele>1219.57</ele>
        <time>2019-04-04T12:26:26Z</time>
      </trkpt>
      <trkpt lat="60.28899" lon="7.56146">
        <ele>1217.65</ele>
        <time>2019-04-04T12:26:34Z</time>
      </trkpt>
      <trkpt lat="60.28887" lon="7.5616">
        <ele>1218.61</ele>
        <time>2019-04-04T12:26:36Z</time>
      </trkpt>
      <trkpt lat="60.28876" lon="7.56171">
        <ele>1216.69</ele>
        <time>2019-04-04T12:26:38Z</time>
      </trkpt>
      <trkpt lat="60.28859" lon="7.56185">
        <ele>1216.69</ele>
        <time>2019-04-04T12:26:41Z</time>
      </trkpt>
      <trkpt lat="60.28847" lon="7.56194">
        <ele>1215.72</ele>
        <time>2019-04-04T12:26:43Z</time>
      </trkpt>
      <trkpt lat="60.288" lon="7.56245">
        <ele>1210.92</ele>
        <time>2019-04-04T12:26:52Z</time>
      </trkpt>
      <trkpt lat="60.28796" lon="7.56251">
        <ele>1210.92</ele>
        <time>2019-04-04T12:26:53Z</time>
      </trkpt>
      <trkpt lat="60.28787" lon="7.56263">
        <ele>1210.44</ele>
        <time>2019-04-04T12:26:55Z</time>
      </trkpt>
      <trkpt lat="60.28748" lon="7.56306">
        <ele>1209</ele>
        <time>2019-04-04T12:27:06Z</time>
      </trkpt>
      <trkpt lat="60.28743" lon="7.56313">
        <ele>1209</ele>
        <time>2019-04-04T12:27:08Z</time>
      </trkpt>
      <trkpt lat="60.28733" lon="7.56329">
        <ele>1208.51</ele>
        <time>2019-04-04T12:27:11Z</time>
      </trkpt>
      <trkpt lat="60.28711" lon="7.56361">
        <ele>1209</ele>
        <time>2019-04-04T12:27:16Z</time>
      </trkpt>
      <trkpt lat="60.28664" lon="7.56418">
        <ele>1206.59</ele>
        <time>2019-04-04T12:27:26Z</time>
      </trkpt>
      <trkpt lat="60.28639" lon="7.56442">
        <ele>1207.07</ele>
        <time>2019-04-04T12:27:31Z</time>
      </trkpt>
      <trkpt lat="60.28605" lon="7.56464">
        <ele>1209</ele>
        <time>2019-04-04T12:27:37Z</time>
      </trkpt>
      <trkpt lat="60.28578" lon="7.56478">
        <ele>1208.03</ele>
        <time>2019-04-04T12:27:41Z</time>
      </trkpt>
      <trkpt lat="60.28549" lon="7.56485">
        <ele>1208.03</ele>
        <time>2019-04-04T12:27:45Z</time>
      </trkpt>
      <trkpt lat="60.285" lon="7.5651">
        <ele>1207.55</ele>
        <time>2019-04-04T12:27:53Z</time>
      </trkpt>
      <trkpt lat="60.28462" lon="7.56538">
        <ele>1208.51</ele>
        <time>2019-04-04T12:27:59Z</time>
      </trkpt>
      <trkpt lat="60.28407" lon="7.56576">
        <ele>1209</ele>
        <time>2019-04-04T12:28:08Z</time>
      </trkpt>
      <trkpt lat="60.28401" lon="7.56582">
        <ele>1209.96</ele>
        <time>2019-04-04T12:28:09Z</time>
      </trkpt>
      <trkpt lat="60.28386" lon="7.56595">
        <ele>1208.51</ele>
        <time>2019-04-04T12:28:12Z</time>
      </trkpt>
      <trkpt lat="60.28342" lon="7.56624">
        <ele>1208.51</ele>
        <time>2019-04-04T12:28:20Z</time>
      </trkpt>
      <trkpt lat="60.28324" lon="7.5664">
        <ele>1206.11</ele>
        <time>2019-04-04T12:28:24Z</time>
      </trkpt>
      <trkpt lat="60.28309" lon="7.56647">
        <ele>1207.55</ele>
        <time>2019-04-04T12:28:27Z</time>
      </trkpt>
      <trkpt lat="60.283" lon="7.56656">
        <ele>1208.03</ele>
        <time>2019-04-04T12:28:29Z</time>
      </trkpt>
      <trkpt lat="60.2829" lon="7.56662">
        <ele>1208.03</ele>
        <time>2019-04-04T12:28:31Z</time>
      </trkpt>
      <trkpt lat="60.28275" lon="7.56674">
        <ele>1208.03</ele>
        <time>2019-04-04T12:28:34Z</time>
      </trkpt>
      <trkpt lat="60.28255" lon="7.56709">
        <ele>1208.03</ele>
        <time>2019-04-04T12:28:42Z</time>
      </trkpt>
      <trkpt lat="60.28254" lon="7.56708">
        <ele>1208.03</ele>
        <time>2019-04-04T12:28:52Z</time>
      </trkpt>
      <trkpt lat="60.28255" lon="7.56707">
        <ele>1208.03</ele>
        <time>2019-04-04T12:29:18Z</time>
      </trkpt>
      <trkpt lat="60.28253" lon="7.56709">
        <ele>1208.03</ele>
        <time>2019-04-04T12:29:20Z</time>
      </trkpt>
      <trkpt lat="60.28249" lon="7.56716">
        <ele>1206.59</ele>
        <time>2019-04-04T12:29:29Z</time>
      </trkpt>
      <trkpt lat="60.28241" lon="7.56726">
        <ele>1208.03</ele>
        <time>2019-04-04T12:29:36Z</time>
      </trkpt>
      <trkpt lat="60.28239" lon="7.56724">
        <ele>1208.03</ele>
        <time>2019-04-04T12:29:47Z</time>
      </trkpt>
      <trkpt lat="60.28239" lon="7.56722">
        <ele>1208.03</ele>
        <time>2019-04-04T12:30:14Z</time>
      </trkpt>
      <trkpt lat="60.28238" lon="7.56721">
        <ele>1208.03</ele>
        <time>2019-04-04T12:30:36Z</time>
      </trkpt>
      <trkpt lat="60.28235" lon="7.56722">
        <ele>1206.59</ele>
        <time>2019-04-04T12:30:52Z</time>
      </trkpt>
      <trkpt lat="60.28235" lon="7.56722">
        <ele>1206.59</ele>
        <time>2019-04-04T12:30:53Z</time>
      </trkpt>
      <trkpt lat="60.28235" lon="7.56722">
        <ele>1206.59</ele>
        <time>2019-04-04T12:30:56Z</time>
      </trkpt>
      <trkpt lat="60.28229" lon="7.56721">
        <ele>1206.59</ele>
        <time>2019-04-04T12:31:08Z</time>
      </trkpt>
      <trkpt lat="60.28227" lon="7.5672">
        <ele>1206.59</ele>
        <time>2019-04-04T12:31:22Z</time>
      </trkpt>
      <trkpt lat="60.28226" lon="7.56717">
        <ele>1206.59</ele>
        <time>2019-04-04T12:31:37Z</time>
      </trkpt>
      <trkpt lat="60.28225" lon="7.56715">
        <ele>1207.07</ele>
        <time>2019-04-04T12:32:00Z</time>
      </trkpt>
      <trkpt lat="60.28223" lon="7.56714">
        <ele>1206.59</ele>
        <time>2019-04-04T12:32:13Z</time>
      </trkpt>
      <trkpt lat="60.28223" lon="7.56714">
        <ele>1206.59</ele>
        <time>2019-04-04T12:32:29Z</time>
      </trkpt>
      <trkpt lat="60.28223" lon="7.56715">
        <ele>1207.55</ele>
        <time>2019-04-04T12:32:55Z</time>
      </trkpt>
      <trkpt lat="60.28223" lon="7.56715">
        <ele>1207.55</ele>
        <time>2019-04-04T12:33:11Z</time>
      </trkpt>
      <trkpt lat="60.28208" lon="7.56727">
        <ele>1207.55</ele>
        <time>2019-04-04T12:33:17Z</time>
      </trkpt>
      <trkpt lat="60.28182" lon="7.5671">
        <ele>1208.03</ele>
        <time>2019-04-04T12:33:22Z</time>
      </trkpt>
      <trkpt lat="60.28113" lon="7.56708">
        <ele>1209</ele>
        <time>2019-04-04T12:33:33Z</time>
      </trkpt>
      <trkpt lat="60.28044" lon="7.5672">
        <ele>1207.07</ele>
        <time>2019-04-04T12:33:43Z</time>
      </trkpt>
      <trkpt lat="60.27992" lon="7.56732">
        <ele>1207.07</ele>
        <time>2019-04-04T12:33:51Z</time>
      </trkpt>
      <trkpt lat="60.27968" lon="7.56737">
        <ele>1207.07</ele>
        <time>2019-04-04T12:33:55Z</time>
      </trkpt>
      <trkpt lat="60.27895" lon="7.56743">
        <ele>1209</ele>
        <time>2019-04-04T12:34:05Z</time>
      </trkpt>
      <trkpt lat="60.27887" lon="7.56743">
        <ele>1209</ele>
        <time>2019-04-04T12:34:06Z</time>
      </trkpt>
      <trkpt lat="60.27829" lon="7.56751">
        <ele>1208.51</ele>
        <time>2019-04-04T12:34:14Z</time>
      </trkpt>
      <trkpt lat="60.27806" lon="7.56753">
        <ele>1208.51</ele>
        <time>2019-04-04T12:34:17Z</time>
      </trkpt>
      <trkpt lat="60.27718" lon="7.56751">
        <ele>1208.51</ele>
        <time>2019-04-04T12:34:28Z</time>
      </trkpt>
      <trkpt lat="60.27681" lon="7.5675">
        <ele>1208.51</ele>
        <time>2019-04-04T12:34:33Z</time>
      </trkpt>
      <trkpt lat="60.27668" lon="7.56752">
        <ele>1208.51</ele>
        <time>2019-04-04T12:34:35Z</time>
      </trkpt>
      <trkpt lat="60.2762" lon="7.56761">
        <ele>1208.51</ele>
        <time>2019-04-04T12:34:42Z</time>
      </trkpt>
      <trkpt lat="60.27546" lon="7.56767">
        <ele>1208.51</ele>
        <time>2019-04-04T12:34:52Z</time>
      </trkpt>
      <trkpt lat="60.27478" lon="7.56777">
        <ele>1209.48</ele>
        <time>2019-04-04T12:35:01Z</time>
      </trkpt>
      <trkpt lat="60.27464" lon="7.56776">
        <ele>1207.07</ele>
        <time>2019-04-04T12:35:03Z</time>
      </trkpt>
      <trkpt lat="60.27399" lon="7.56777">
        <ele>1206.59</ele>
        <time>2019-04-04T12:35:14Z</time>
      </trkpt>
      <trkpt lat="60.27387" lon="7.56775">
        <ele>1208.51</ele>
        <time>2019-04-04T12:35:16Z</time>
      </trkpt>
      <trkpt lat="60.27381" lon="7.56775">
        <ele>1208.51</ele>
        <time>2019-04-04T12:35:17Z</time>
      </trkpt>
      <trkpt lat="60.27352" lon="7.56771">
        <ele>1208.51</ele>
        <time>2019-04-04T12:35:22Z</time>
      </trkpt>
      <trkpt lat="60.27306" lon="7.56767">
        <ele>1207.07</ele>
        <time>2019-04-04T12:35:29Z</time>
      </trkpt>
      <trkpt lat="60.27279" lon="7.56763">
        <ele>1207.07</ele>
        <time>2019-04-04T12:35:33Z</time>
      </trkpt>
      <trkpt lat="60.27223" lon="7.56775">
        <ele>1207.07</ele>
        <time>2019-04-04T12:35:42Z</time>
      </trkpt>
      <trkpt lat="60.272" lon="7.56772">
        <ele>1207.07</ele>
        <time>2019-04-04T12:35:46Z</time>
      </trkpt>
      <trkpt lat="60.27178" lon="7.56773">
        <ele>1207.07</ele>
        <time>2019-04-04T12:35:50Z</time>
      </trkpt>
      <trkpt lat="60.27168" lon="7.56773">
        <ele>1207.07</ele>
        <time>2019-04-04T12:35:52Z</time>
      </trkpt>
      <trkpt lat="60.27147" lon="7.56774">
        <ele>1209</ele>
        <time>2019-04-04T12:35:56Z</time>
      </trkpt>
      <trkpt lat="60.27124" lon="7.5677">
        <ele>1210.44</ele>
        <time>2019-04-04T12:36:01Z</time>
      </trkpt>
      <trkpt lat="60.27107" lon="7.56772">
        <ele>1212.36</ele>
        <time>2019-04-04T12:36:05Z</time>
      </trkpt>
      <trkpt lat="60.27103" lon="7.56771">
        <ele>1212.36</ele>
        <time>2019-04-04T12:36:06Z</time>
      </trkpt>
      <trkpt lat="60.2708" lon="7.56761">
        <ele>1214.28</ele>
        <time>2019-04-04T12:36:17Z</time>
      </trkpt>
      <trkpt lat="60.27065" lon="7.56756">
        <ele>1212.84</ele>
        <time>2019-04-04T12:36:24Z</time>
      </trkpt>
      <trkpt lat="60.27042" lon="7.56747">
        <ele>1210.92</ele>
        <time>2019-04-04T12:36:29Z</time>
      </trkpt>
      <trkpt lat="60.27037" lon="7.56746">
        <ele>1210.92</ele>
        <time>2019-04-04T12:36:30Z</time>
      </trkpt>
      <trkpt lat="60.27019" lon="7.56744">
        <ele>1209.96</ele>
        <time>2019-04-04T12:36:33Z</time>
      </trkpt>
      <trkpt lat="60.2699" lon="7.56732">
        <ele>1211.4</ele>
        <time>2019-04-04T12:36:38Z</time>
      </trkpt>
      <trkpt lat="60.26978" lon="7.56726">
        <ele>1211.4</ele>
        <time>2019-04-04T12:36:40Z</time>
      </trkpt>
      <trkpt lat="60.26968" lon="7.56717">
        <ele>1212.36</ele>
        <time>2019-04-04T12:36:42Z</time>
      </trkpt>
      <trkpt lat="60.26963" lon="7.56714">
        <ele>1212.36</ele>
        <time>2019-04-04T12:36:43Z</time>
      </trkpt>
      <trkpt lat="60.26951" lon="7.56708">
        <ele>1212.84</ele>
        <time>2019-04-04T12:36:45Z</time>
      </trkpt>
      <trkpt lat="60.26939" lon="7.56699">
        <ele>1212.84</ele>
        <time>2019-04-04T12:36:47Z</time>
      </trkpt>
      <trkpt lat="60.26908" lon="7.56687">
        <ele>1213.8</ele>
        <time>2019-04-04T12:36:52Z</time>
      </trkpt>
      <trkpt lat="60.26886" lon="7.56687">
        <ele>1214.28</ele>
        <time>2019-04-04T12:36:56Z</time>
      </trkpt>
      <trkpt lat="60.26864" lon="7.56682">
        <ele>1216.21</ele>
        <time>2019-04-04T12:37:01Z</time>
      </trkpt>
      <trkpt lat="60.2685" lon="7.56683">
        <ele>1217.65</ele>
        <time>2019-04-04T12:37:04Z</time>
      </trkpt>
      <trkpt lat="60.26817" lon="7.56684">
        <ele>1219.09</ele>
        <time>2019-04-04T12:37:11Z</time>
      </trkpt>
      <trkpt lat="60.26784" lon="7.56688">
        <ele>1220.05</ele>
        <time>2019-04-04T12:37:17Z</time>
      </trkpt>
      <trkpt lat="60.26778" lon="7.56687">
        <ele>1220.05</ele>
        <time>2019-04-04T12:37:18Z</time>
      </trkpt>
      <trkpt lat="60.26761" lon="7.56683">
        <ele>1221.49</ele>
        <time>2019-04-04T12:37:21Z</time>
      </trkpt>
      <trkpt lat="60.26735" lon="7.56688">
        <ele>1221.97</ele>
        <time>2019-04-04T12:37:26Z</time>
      </trkpt>
      <trkpt lat="60.26722" lon="7.56689">
        <ele>1222.93</ele>
        <time>2019-04-04T12:37:29Z</time>
      </trkpt>
      <trkpt lat="60.26699" lon="7.56665">
        <ele>1225.82</ele>
        <time>2019-04-04T12:37:35Z</time>
      </trkpt>
      <trkpt lat="60.26694" lon="7.56662">
        <ele>1225.82</ele>
        <time>2019-04-04T12:37:36Z</time>
      </trkpt>
      <trkpt lat="60.2667" lon="7.56652">
        <ele>1228.22</ele>
        <time>2019-04-04T12:37:41Z</time>
      </trkpt>
      <trkpt lat="60.2666" lon="7.56653">
        <ele>1229.18</ele>
        <time>2019-04-04T12:37:43Z</time>
      </trkpt>
      <trkpt lat="60.26634" lon="7.56653">
        <ele>1231.11</ele>
        <time>2019-04-04T12:37:48Z</time>
      </trkpt>
      <trkpt lat="60.26627" lon="7.56641">
        <ele>1232.07</ele>
        <time>2019-04-04T12:37:53Z</time>
      </trkpt>
      <trkpt lat="60.26626" lon="7.56637">
        <ele>1232.07</ele>
        <time>2019-04-04T12:38:05Z</time>
      </trkpt>
      <trkpt lat="60.26626" lon="7.56636">
        <ele>1232.07</ele>
        <time>2019-04-04T12:38:26Z</time>
      </trkpt>
      <trkpt lat="60.26611" lon="7.56605">
        <ele>1232.55</ele>
        <time>2019-04-04T12:38:32Z</time>
      </trkpt>
      <trkpt lat="60.26593" lon="7.56583">
        <ele>1233.51</ele>
        <time>2019-04-04T12:38:37Z</time>
      </trkpt>
      <trkpt lat="60.26573" lon="7.56577">
        <ele>1233.51</ele>
        <time>2019-04-04T12:38:42Z</time>
      </trkpt>
      <trkpt lat="60.2656" lon="7.56571">
        <ele>1233.51</ele>
        <time>2019-04-04T12:38:47Z</time>
      </trkpt>
      <trkpt lat="60.26545" lon="7.56562">
        <ele>1233.99</ele>
        <time>2019-04-04T12:38:53Z</time>
      </trkpt>
      <trkpt lat="60.2653" lon="7.56559">
        <ele>1233.99</ele>
        <time>2019-04-04T12:38:59Z</time>
      </trkpt>
      <trkpt lat="60.2652" lon="7.56569">
        <ele>1235.43</ele>
        <time>2019-04-04T12:39:02Z</time>
      </trkpt>
      <trkpt lat="60.26504" lon="7.56584">
        <ele>1235.43</ele>
        <time>2019-04-04T12:39:08Z</time>
      </trkpt>
      <trkpt lat="60.2649" lon="7.56598">
        <ele>1235.91</ele>
        <time>2019-04-04T12:39:13Z</time>
      </trkpt>
      <trkpt lat="60.26468" lon="7.56607">
        <ele>1235.91</ele>
        <time>2019-04-04T12:39:20Z</time>
      </trkpt>
      <trkpt lat="60.26441" lon="7.56611">
        <ele>1236.39</ele>
        <time>2019-04-04T12:39:27Z</time>
      </trkpt>
      <trkpt lat="60.26433" lon="7.56614">
        <ele>1237.35</ele>
        <time>2019-04-04T12:39:29Z</time>
      </trkpt>
      <trkpt lat="60.26424" lon="7.56616">
        <ele>1237.35</ele>
        <time>2019-04-04T12:39:31Z</time>
      </trkpt>
      <trkpt lat="60.26396" lon="7.56621">
        <ele>1237.35</ele>
        <time>2019-04-04T12:39:39Z</time>
      </trkpt>
      <trkpt lat="60.2639" lon="7.56618">
        <ele>1237.35</ele>
        <time>2019-04-04T12:39:41Z</time>
      </trkpt>
      <trkpt lat="60.2637" lon="7.5662">
        <ele>1237.83</ele>
        <time>2019-04-04T12:39:47Z</time>
      </trkpt>
      <trkpt lat="60.26354" lon="7.56622">
        <ele>1236.39</ele>
        <time>2019-04-04T12:39:54Z</time>
      </trkpt>
      <trkpt lat="60.26354" lon="7.56621">
        <ele>1236.39</ele>
        <time>2019-04-04T12:40:01Z</time>
      </trkpt>
      <trkpt lat="60.26344" lon="7.56599">
        <ele>1236.39</ele>
        <time>2019-04-04T12:40:06Z</time>
      </trkpt>
      <trkpt lat="60.26341" lon="7.56595">
        <ele>1236.39</ele>
        <time>2019-04-04T12:40:07Z</time>
      </trkpt>
      <trkpt lat="60.26334" lon="7.56589">
        <ele>1236.39</ele>
        <time>2019-04-04T12:40:09Z</time>
      </trkpt>
      <trkpt lat="60.26313" lon="7.5655">
        <ele>1237.83</ele>
        <time>2019-04-04T12:40:15Z</time>
      </trkpt>
      <trkpt lat="60.26308" lon="7.56546">
        <ele>1237.83</ele>
        <time>2019-04-04T12:40:16Z</time>
      </trkpt>
      <trkpt lat="60.26274" lon="7.56507">
        <ele>1238.32</ele>
        <time>2019-04-04T12:40:24Z</time>
      </trkpt>
      <trkpt lat="60.2626" lon="7.56478">
        <ele>1238.8</ele>
        <time>2019-04-04T12:40:29Z</time>
      </trkpt>
      <trkpt lat="60.2624" lon="7.56463">
        <ele>1238.8</ele>
        <time>2019-04-04T12:40:38Z</time>
      </trkpt>
      <trkpt lat="60.26236" lon="7.56459">
        <ele>1238.8</ele>
        <time>2019-04-04T12:40:43Z</time>
      </trkpt>
      <trkpt lat="60.26227" lon="7.56451">
        <ele>1237.35</ele>
        <time>2019-04-04T12:40:47Z</time>
      </trkpt>
      <trkpt lat="60.26214" lon="7.56443">
        <ele>1237.35</ele>
        <time>2019-04-04T12:40:52Z</time>
      </trkpt>
      <trkpt lat="60.26204" lon="7.56431">
        <ele>1237.35</ele>
        <time>2019-04-04T12:40:55Z</time>
      </trkpt>
      <trkpt lat="60.26174" lon="7.56425">
        <ele>1237.35</ele>
        <time>2019-04-04T12:41:01Z</time>
      </trkpt>
      <trkpt lat="60.26155" lon="7.5643">
        <ele>1235.91</ele>
        <time>2019-04-04T12:41:05Z</time>
      </trkpt>
      <trkpt lat="60.26127" lon="7.56448">
        <ele>1233.99</ele>
        <time>2019-04-04T12:41:11Z</time>
      </trkpt>
      <trkpt lat="60.26097" lon="7.56468">
        <ele>1231.11</ele>
        <time>2019-04-04T12:41:16Z</time>
      </trkpt>
      <trkpt lat="60.26076" lon="7.56478">
        <ele>1229.66</ele>
        <time>2019-04-04T12:41:19Z</time>
      </trkpt>
      <trkpt lat="60.26041" lon="7.56494">
        <ele>1226.3</ele>
        <time>2019-04-04T12:41:24Z</time>
      </trkpt>
      <trkpt lat="60.26004" lon="7.56514">
        <ele>1222.45</ele>
        <time>2019-04-04T12:41:29Z</time>
      </trkpt>
      <trkpt lat="60.25974" lon="7.5653">
        <ele>1220.53</ele>
        <time>2019-04-04T12:41:33Z</time>
      </trkpt>
      <trkpt lat="60.25915" lon="7.56573">
        <ele>1218.13</ele>
        <time>2019-04-04T12:41:42Z</time>
      </trkpt>
      <trkpt lat="60.25892" lon="7.56606">
        <ele>1218.13</ele>
        <time>2019-04-04T12:41:48Z</time>
      </trkpt>
      <trkpt lat="60.25879" lon="7.5662">
        <ele>1218.13</ele>
        <time>2019-04-04T12:41:51Z</time>
      </trkpt>
      <trkpt lat="60.25847" lon="7.56648">
        <ele>1216.69</ele>
        <time>2019-04-04T12:41:59Z</time>
      </trkpt>
      <trkpt lat="60.2583" lon="7.56644">
        <ele>1216.21</ele>
        <time>2019-04-04T12:42:04Z</time>
      </trkpt>
      <trkpt lat="60.25805" lon="7.56637">
        <ele>1216.21</ele>
        <time>2019-04-04T12:42:12Z</time>
      </trkpt>
      <trkpt lat="60.25787" lon="7.56625">
        <ele>1216.69</ele>
        <time>2019-04-04T12:42:18Z</time>
      </trkpt>
      <trkpt lat="60.25774" lon="7.56622">
        <ele>1216.21</ele>
        <time>2019-04-04T12:42:22Z</time>
      </trkpt>
      <trkpt lat="60.25749" lon="7.56603">
        <ele>1216.21</ele>
        <time>2019-04-04T12:42:29Z</time>
      </trkpt>
      <trkpt lat="60.25739" lon="7.56607">
        <ele>1217.65</ele>
        <time>2019-04-04T12:42:32Z</time>
      </trkpt>
      <trkpt lat="60.25724" lon="7.56588">
        <ele>1218.13</ele>
        <time>2019-04-04T12:42:39Z</time>
      </trkpt>
      <trkpt lat="60.25718" lon="7.56582">
        <ele>1218.61</ele>
        <time>2019-04-04T12:42:43Z</time>
      </trkpt>
      <trkpt lat="60.25708" lon="7.56561">
        <ele>1219.57</ele>
        <time>2019-04-04T12:42:48Z</time>
      </trkpt>
      <trkpt lat="60.25707" lon="7.56557">
        <ele>1219.57</ele>
        <time>2019-04-04T12:43:00Z</time>
      </trkpt>
      <trkpt lat="60.25707" lon="7.56558">
        <ele>1219.57</ele>
        <time>2019-04-04T12:43:25Z</time>
      </trkpt>
      <trkpt lat="60.25706" lon="7.56548">
        <ele>1219.57</ele>
        <time>2019-04-04T12:43:36Z</time>
      </trkpt>
      <trkpt lat="60.25706" lon="7.56544">
        <ele>1219.57</ele>
        <time>2019-04-04T12:43:47Z</time>
      </trkpt>
      <trkpt lat="60.25706" lon="7.56544">
        <ele>1220.05</ele>
        <time>2019-04-04T12:43:55Z</time>
      </trkpt>
      <trkpt lat="60.25706" lon="7.56542">
        <ele>1220.53</ele>
        <time>2019-04-04T12:44:15Z</time>
      </trkpt>
      <trkpt lat="60.25702" lon="7.56544">
        <ele>1219.09</ele>
        <time>2019-04-04T12:44:17Z</time>
      </trkpt>
      <trkpt lat="60.25694" lon="7.56554">
        <ele>1219.09</ele>
        <time>2019-04-04T12:44:22Z</time>
      </trkpt>
      <trkpt lat="60.25674" lon="7.56554">
        <ele>1219.09</ele>
        <time>2019-04-04T12:44:27Z</time>
      </trkpt>
      <trkpt lat="60.25657" lon="7.56575">
        <ele>1219.09</ele>
        <time>2019-04-04T12:44:33Z</time>
      </trkpt>
      <trkpt lat="60.25634" lon="7.56568">
        <ele>1220.05</ele>
        <time>2019-04-04T12:44:39Z</time>
      </trkpt>
      <trkpt lat="60.25606" lon="7.56578">
        <ele>1221.49</ele>
        <time>2019-04-04T12:44:46Z</time>
      </trkpt>
      <trkpt lat="60.25589" lon="7.56572">
        <ele>1221.97</ele>
        <time>2019-04-04T12:44:51Z</time>
      </trkpt>
      <trkpt lat="60.25577" lon="7.56569">
        <ele>1222.45</ele>
        <time>2019-04-04T12:44:55Z</time>
      </trkpt>
      <trkpt lat="60.25563" lon="7.56579">
        <ele>1222.45</ele>
        <time>2019-04-04T12:45:00Z</time>
      </trkpt>
      <trkpt lat="60.25539" lon="7.56578">
        <ele>1223.42</ele>
        <time>2019-04-04T12:45:08Z</time>
      </trkpt>
      <trkpt lat="60.25536" lon="7.56579">
        <ele>1223.42</ele>
        <time>2019-04-04T12:45:09Z</time>
      </trkpt>
      <trkpt lat="60.25517" lon="7.56568">
        <ele>1223.42</ele>
        <time>2019-04-04T12:45:14Z</time>
      </trkpt>
      <trkpt lat="60.25501" lon="7.5656">
        <ele>1223.42</ele>
        <time>2019-04-04T12:45:18Z</time>
      </trkpt>
      <trkpt lat="60.25483" lon="7.5657">
        <ele>1221.97</ele>
        <time>2019-04-04T12:45:22Z</time>
      </trkpt>
      <trkpt lat="60.25477" lon="7.56571">
        <ele>1221.97</ele>
        <time>2019-04-04T12:45:24Z</time>
      </trkpt>
      <trkpt lat="60.25472" lon="7.5657">
        <ele>1221.97</ele>
        <time>2019-04-04T12:45:26Z</time>
      </trkpt>
      <trkpt lat="60.25455" lon="7.56575">
        <ele>1222.93</ele>
        <time>2019-04-04T12:45:30Z</time>
      </trkpt>
      <trkpt lat="60.25447" lon="7.56576">
        <ele>1222.93</ele>
        <time>2019-04-04T12:45:32Z</time>
      </trkpt>
      <trkpt lat="60.25416" lon="7.56585">
        <ele>1222.93</ele>
        <time>2019-04-04T12:45:39Z</time>
      </trkpt>
      <trkpt lat="60.25412" lon="7.56588">
        <ele>1222.93</ele>
        <time>2019-04-04T12:45:40Z</time>
      </trkpt>
      <trkpt lat="60.25391" lon="7.56606">
        <ele>1222.93</ele>
        <time>2019-04-04T12:45:45Z</time>
      </trkpt>
      <trkpt lat="60.25366" lon="7.56615">
        <ele>1222.93</ele>
        <time>2019-04-04T12:45:50Z</time>
      </trkpt>
      <trkpt lat="60.25344" lon="7.56615">
        <ele>1222.93</ele>
        <time>2019-04-04T12:45:54Z</time>
      </trkpt>
      <trkpt lat="60.25319" lon="7.56611">
        <ele>1223.42</ele>
        <time>2019-04-04T12:45:58Z</time>
      </trkpt>
      <trkpt lat="60.25293" lon="7.56608">
        <ele>1223.42</ele>
        <time>2019-04-04T12:46:02Z</time>
      </trkpt>
      <trkpt lat="60.25269" lon="7.5662">
        <ele>1221.97</ele>
        <time>2019-04-04T12:46:06Z</time>
      </trkpt>
      <trkpt lat="60.25264" lon="7.56625">
        <ele>1221.97</ele>
        <time>2019-04-04T12:46:07Z</time>
      </trkpt>
      <trkpt lat="60.25218" lon="7.56663">
        <ele>1223.42</ele>
        <time>2019-04-04T12:46:17Z</time>
      </trkpt>
      <trkpt lat="60.25214" lon="7.56665">
        <ele>1223.42</ele>
        <time>2019-04-04T12:46:18Z</time>
      </trkpt>
      <trkpt lat="60.25179" lon="7.56698">
        <ele>1220.53</ele>
        <time>2019-04-04T12:46:25Z</time>
      </trkpt>
      <trkpt lat="60.25152" lon="7.56725">
        <ele>1217.17</ele>
        <time>2019-04-04T12:46:29Z</time>
      </trkpt>
      <trkpt lat="60.25139" lon="7.56737">
        <ele>1216.21</ele>
        <time>2019-04-04T12:46:31Z</time>
      </trkpt>
      <trkpt lat="60.25116" lon="7.56762">
        <ele>1214.28</ele>
        <time>2019-04-04T12:46:35Z</time>
      </trkpt>
      <trkpt lat="60.25059" lon="7.56805">
        <ele>1213.8</ele>
        <time>2019-04-04T12:46:45Z</time>
      </trkpt>
      <trkpt lat="60.25011" lon="7.5684">
        <ele>1213.8</ele>
        <time>2019-04-04T12:46:54Z</time>
      </trkpt>
      <trkpt lat="60.25007" lon="7.56841">
        <ele>1215.24</ele>
        <time>2019-04-04T12:46:55Z</time>
      </trkpt>
      <trkpt lat="60.25003" lon="7.56842">
        <ele>1215.24</ele>
        <time>2019-04-04T12:46:56Z</time>
      </trkpt>
      <trkpt lat="60.25" lon="7.56843">
        <ele>1215.24</ele>
        <time>2019-04-04T12:46:57Z</time>
      </trkpt>
      <trkpt lat="60.24996" lon="7.56844">
        <ele>1215.72</ele>
        <time>2019-04-04T12:46:58Z</time>
      </trkpt>
      <trkpt lat="60.24993" lon="7.56846">
        <ele>1215.72</ele>
        <time>2019-04-04T12:46:59Z</time>
      </trkpt>
      <trkpt lat="60.2499" lon="7.56849">
        <ele>1217.17</ele>
        <time>2019-04-04T12:47:00Z</time>
      </trkpt>
      <trkpt lat="60.24987" lon="7.56852">
        <ele>1217.17</ele>
        <time>2019-04-04T12:47:01Z</time>
      </trkpt>
      <trkpt lat="60.24983" lon="7.56851">
        <ele>1217.17</ele>
        <time>2019-04-04T12:47:02Z</time>
      </trkpt>
      <trkpt lat="60.24976" lon="7.56847">
        <ele>1217.65</ele>
        <time>2019-04-04T12:47:04Z</time>
      </trkpt>
      <trkpt lat="60.24973" lon="7.56846">
        <ele>1217.65</ele>
        <time>2019-04-04T12:47:05Z</time>
      </trkpt>
      <trkpt lat="60.24969" lon="7.56847">
        <ele>1217.65</ele>
        <time>2019-04-04T12:47:06Z</time>
      </trkpt>
      <trkpt lat="60.2496" lon="7.56849">
        <ele>1217.65</ele>
        <time>2019-04-04T12:47:08Z</time>
      </trkpt>
      <trkpt lat="60.24939" lon="7.56856">
        <ele>1214.76</ele>
        <time>2019-04-04T12:47:12Z</time>
      </trkpt>
      <trkpt lat="60.24928" lon="7.56861">
        <ele>1214.28</ele>
        <time>2019-04-04T12:47:14Z</time>
      </trkpt>
      <trkpt lat="60.24891" lon="7.56899">
        <ele>1212.36</ele>
        <time>2019-04-04T12:47:21Z</time>
      </trkpt>
      <trkpt lat="60.24869" lon="7.56921">
        <ele>1211.88</ele>
        <time>2019-04-04T12:47:25Z</time>
      </trkpt>
      <trkpt lat="60.2484" lon="7.56956">
        <ele>1211.88</ele>
        <time>2019-04-04T12:47:31Z</time>
      </trkpt>
      <trkpt lat="60.24799" lon="7.57006">
        <ele>1211.4</ele>
        <time>2019-04-04T12:47:40Z</time>
      </trkpt>
      <trkpt lat="60.2475" lon="7.57067">
        <ele>1211.4</ele>
        <time>2019-04-04T12:47:53Z</time>
      </trkpt>
      <trkpt lat="60.24723" lon="7.57101">
        <ele>1211.4</ele>
        <time>2019-04-04T12:48:02Z</time>
      </trkpt>
      <trkpt lat="60.24702" lon="7.57124">
        <ele>1211.4</ele>
        <time>2019-04-04T12:48:10Z</time>
      </trkpt>
      <trkpt lat="60.24662" lon="7.57184">
        <ele>1210.92</ele>
        <time>2019-04-04T12:48:21Z</time>
      </trkpt>
      <trkpt lat="60.24649" lon="7.57209">
        <ele>1210.92</ele>
        <time>2019-04-04T12:48:25Z</time>
      </trkpt>
      <trkpt lat="60.24608" lon="7.57264">
        <ele>1209.96</ele>
        <time>2019-04-04T12:48:37Z</time>
      </trkpt>
      <trkpt lat="60.24591" lon="7.57282">
        <ele>1211.88</ele>
        <time>2019-04-04T12:48:43Z</time>
      </trkpt>
      <trkpt lat="60.24588" lon="7.57284">
        <ele>1212.36</ele>
        <time>2019-04-04T12:48:52Z</time>
      </trkpt>
      <trkpt lat="60.24588" lon="7.57285">
        <ele>1212.36</ele>
        <time>2019-04-04T12:49:16Z</time>
      </trkpt>
      <trkpt lat="60.24587" lon="7.57286">
        <ele>1211.4</ele>
        <time>2019-04-04T12:49:20Z</time>
      </trkpt>
      <trkpt lat="60.24585" lon="7.57285">
        <ele>1211.4</ele>
        <time>2019-04-04T12:49:35Z</time>
      </trkpt>
      <trkpt lat="60.24584" lon="7.57285">
        <ele>1211.4</ele>
        <time>2019-04-04T12:49:50Z</time>
      </trkpt>
      <trkpt lat="60.24583" lon="7.57286">
        <ele>1211.4</ele>
        <time>2019-04-04T12:50:11Z</time>
      </trkpt>
      <trkpt lat="60.24582" lon="7.57286">
        <ele>1211.4</ele>
        <time>2019-04-04T12:50:27Z</time>
      </trkpt>
      <trkpt lat="60.24581" lon="7.57285">
        <ele>1211.4</ele>
        <time>2019-04-04T12:50:46Z</time>
      </trkpt>
      <trkpt lat="60.24581" lon="7.57286">
        <ele>1211.4</ele>
        <time>2019-04-04T12:51:05Z</time>
      </trkpt>
      <trkpt lat="60.2458" lon="7.57285">
        <ele>1211.4</ele>
        <time>2019-04-04T12:51:21Z</time>
      </trkpt>
      <trkpt lat="60.2458" lon="7.57285">
        <ele>1211.4</ele>
        <time>2019-04-04T12:51:41Z</time>
      </trkpt>
      <trkpt lat="60.2458" lon="7.57286">
        <ele>1211.4</ele>
        <time>2019-04-04T12:51:59Z</time>
      </trkpt>
      <trkpt lat="60.24576" lon="7.5729">
        <ele>1211.4</ele>
        <time>2019-04-04T12:52:05Z</time>
      </trkpt>
      <trkpt lat="60.24563" lon="7.57314">
        <ele>1210.92</ele>
        <time>2019-04-04T12:52:12Z</time>
      </trkpt>
      <trkpt lat="60.24551" lon="7.57326">
        <ele>1211.88</ele>
        <time>2019-04-04T12:52:16Z</time>
      </trkpt>
      <trkpt lat="60.24547" lon="7.57333">
        <ele>1211.88</ele>
        <time>2019-04-04T12:52:25Z</time>
      </trkpt>
      <trkpt lat="60.24547" lon="7.57332">
        <ele>1211.88</ele>
        <time>2019-04-04T12:52:32Z</time>
      </trkpt>
      <trkpt lat="60.24532" lon="7.57362">
        <ele>1212.36</ele>
        <time>2019-04-04T12:52:39Z</time>
      </trkpt>
      <trkpt lat="60.24528" lon="7.57364">
        <ele>1212.36</ele>
        <time>2019-04-04T12:52:40Z</time>
      </trkpt>
      <trkpt lat="60.24517" lon="7.57374">
        <ele>1212.36</ele>
        <time>2019-04-04T12:52:43Z</time>
      </trkpt>
      <trkpt lat="60.24497" lon="7.57396">
        <ele>1212.36</ele>
        <time>2019-04-04T12:52:48Z</time>
      </trkpt>
      <trkpt lat="60.24479" lon="7.57416">
        <ele>1212.36</ele>
        <time>2019-04-04T12:52:52Z</time>
      </trkpt>
      <trkpt lat="60.24461" lon="7.57435">
        <ele>1212.36</ele>
        <time>2019-04-04T12:52:56Z</time>
      </trkpt>
      <trkpt lat="60.244" lon="7.57466">
        <ele>1212.36</ele>
        <time>2019-04-04T12:53:07Z</time>
      </trkpt>
      <trkpt lat="60.24384" lon="7.57474">
        <ele>1212.36</ele>
        <time>2019-04-04T12:53:10Z</time>
      </trkpt>
      <trkpt lat="60.24368" lon="7.57487">
        <ele>1212.36</ele>
        <time>2019-04-04T12:53:13Z</time>
      </trkpt>
      <trkpt lat="60.24349" lon="7.575">
        <ele>1212.84</ele>
        <time>2019-04-04T12:53:17Z</time>
      </trkpt>
      <trkpt lat="60.24323" lon="7.57524">
        <ele>1214.76</ele>
        <time>2019-04-04T12:53:23Z</time>
      </trkpt>
      <trkpt lat="60.24317" lon="7.57534">
        <ele>1215.72</ele>
        <time>2019-04-04T12:53:25Z</time>
      </trkpt>
      <trkpt lat="60.24304" lon="7.57542">
        <ele>1216.21</ele>
        <time>2019-04-04T12:53:29Z</time>
      </trkpt>
      <trkpt lat="60.24282" lon="7.5756">
        <ele>1216.21</ele>
        <time>2019-04-04T12:53:35Z</time>
      </trkpt>
      <trkpt lat="60.24268" lon="7.57568">
        <ele>1216.21</ele>
        <time>2019-04-04T12:53:38Z</time>
      </trkpt>
      <trkpt lat="60.24258" lon="7.57578">
        <ele>1216.21</ele>
        <time>2019-04-04T12:53:40Z</time>
      </trkpt>
      <trkpt lat="60.24235" lon="7.5761">
        <ele>1216.21</ele>
        <time>2019-04-04T12:53:46Z</time>
      </trkpt>
      <trkpt lat="60.24208" lon="7.57663">
        <ele>1216.21</ele>
        <time>2019-04-04T12:53:57Z</time>
      </trkpt>
      <trkpt lat="60.24192" lon="7.57693">
        <ele>1216.69</ele>
        <time>2019-04-04T12:54:05Z</time>
      </trkpt>
      <trkpt lat="60.24185" lon="7.57701">
        <ele>1216.69</ele>
        <time>2019-04-04T12:54:13Z</time>
      </trkpt>
      <trkpt lat="60.24185" lon="7.577">
        <ele>1216.69</ele>
        <time>2019-04-04T12:54:28Z</time>
      </trkpt>
      <trkpt lat="60.2417" lon="7.57691">
        <ele>1217.65</ele>
        <time>2019-04-04T12:54:35Z</time>
      </trkpt>
      <trkpt lat="60.24167" lon="7.57695">
        <ele>1218.61</ele>
        <time>2019-04-04T12:54:38Z</time>
      </trkpt>
      <trkpt lat="60.2416" lon="7.57692">
        <ele>1218.61</ele>
        <time>2019-04-04T12:54:42Z</time>
      </trkpt>
      <trkpt lat="60.24135" lon="7.57701">
        <ele>1220.53</ele>
        <time>2019-04-04T12:54:48Z</time>
      </trkpt>
      <trkpt lat="60.24101" lon="7.57691">
        <ele>1223.42</ele>
        <time>2019-04-04T12:54:55Z</time>
      </trkpt>
      <trkpt lat="60.2408" lon="7.57704">
        <ele>1224.86</ele>
        <time>2019-04-04T12:54:59Z</time>
      </trkpt>
      <trkpt lat="60.24071" lon="7.57708">
        <ele>1224.38</ele>
        <time>2019-04-04T12:55:01Z</time>
      </trkpt>
      <trkpt lat="60.24035" lon="7.57732">
        <ele>1225.82</ele>
        <time>2019-04-04T12:55:09Z</time>
      </trkpt>
      <trkpt lat="60.24029" lon="7.57734">
        <ele>1225.82</ele>
        <time>2019-04-04T12:55:10Z</time>
      </trkpt>
      <trkpt lat="60.23989" lon="7.57723">
        <ele>1226.3</ele>
        <time>2019-04-04T12:55:17Z</time>
      </trkpt>
      <trkpt lat="60.23978" lon="7.57727">
        <ele>1226.3</ele>
        <time>2019-04-04T12:55:19Z</time>
      </trkpt>
      <trkpt lat="60.23969" lon="7.57733">
        <ele>1226.78</ele>
        <time>2019-04-04T12:55:21Z</time>
      </trkpt>
      <trkpt lat="60.2395" lon="7.57752">
        <ele>1228.22</ele>
        <time>2019-04-04T12:55:26Z</time>
      </trkpt>
      <trkpt lat="60.23935" lon="7.57745">
        <ele>1228.22</ele>
        <time>2019-04-04T12:55:29Z</time>
      </trkpt>
      <trkpt lat="60.23904" lon="7.57745">
        <ele>1229.18</ele>
        <time>2019-04-04T12:55:34Z</time>
      </trkpt>
      <trkpt lat="60.23888" lon="7.57756">
        <ele>1229.18</ele>
        <time>2019-04-04T12:55:37Z</time>
      </trkpt>
      <trkpt lat="60.23879" lon="7.57764">
        <ele>1229.18</ele>
        <time>2019-04-04T12:55:39Z</time>
      </trkpt>
      <trkpt lat="60.23872" lon="7.57771">
        <ele>1229.18</ele>
        <time>2019-04-04T12:55:41Z</time>
      </trkpt>
      <trkpt lat="60.2386" lon="7.57767">
        <ele>1229.66</ele>
        <time>2019-04-04T12:55:44Z</time>
      </trkpt>
      <trkpt lat="60.23833" lon="7.5778">
        <ele>1230.62</ele>
        <time>2019-04-04T12:55:50Z</time>
      </trkpt>
      <trkpt lat="60.2381" lon="7.57775">
        <ele>1231.11</ele>
        <time>2019-04-04T12:55:55Z</time>
      </trkpt>
      <trkpt lat="60.23798" lon="7.57787">
        <ele>1231.59</ele>
        <time>2019-04-04T12:55:58Z</time>
      </trkpt>
      <trkpt lat="60.23778" lon="7.57787">
        <ele>1232.07</ele>
        <time>2019-04-04T12:56:04Z</time>
      </trkpt>
      <trkpt lat="60.23759" lon="7.57806">
        <ele>1232.55</ele>
        <time>2019-04-04T12:56:09Z</time>
      </trkpt>
      <trkpt lat="60.23743" lon="7.57807">
        <ele>1233.51</ele>
        <time>2019-04-04T12:56:14Z</time>
      </trkpt>
      <trkpt lat="60.23711" lon="7.578">
        <ele>1236.39</ele>
        <time>2019-04-04T12:56:22Z</time>
      </trkpt>
      <trkpt lat="60.23682" lon="7.57787">
        <ele>1238.32</ele>
        <time>2019-04-04T12:56:29Z</time>
      </trkpt>
      <trkpt lat="60.23677" lon="7.57789">
        <ele>1238.32</ele>
        <time>2019-04-04T12:56:30Z</time>
      </trkpt>
      <trkpt lat="60.23668" lon="7.57794">
        <ele>1239.28</ele>
        <time>2019-04-04T12:56:32Z</time>
      </trkpt>
      <trkpt lat="60.23647" lon="7.57811">
        <ele>1241.2</ele>
        <time>2019-04-04T12:56:38Z</time>
      </trkpt>
      <trkpt lat="60.23639" lon="7.57815">
        <ele>1241.2</ele>
        <time>2019-04-04T12:56:42Z</time>
      </trkpt>
      <trkpt lat="60.23615" lon="7.57799">
        <ele>1243.6</ele>
        <time>2019-04-04T12:56:48Z</time>
      </trkpt>
      <trkpt lat="60.23605" lon="7.578">
        <ele>1244.56</ele>
        <time>2019-04-04T12:56:50Z</time>
      </trkpt>
      <trkpt lat="60.23587" lon="7.57814">
        <ele>1245.53</ele>
        <time>2019-04-04T12:56:54Z</time>
      </trkpt>
      <trkpt lat="60.23575" lon="7.57808">
        <ele>1246.01</ele>
        <time>2019-04-04T12:56:57Z</time>
      </trkpt>
      <trkpt lat="60.23555" lon="7.57799">
        <ele>1246.97</ele>
        <time>2019-04-04T12:57:01Z</time>
      </trkpt>
      <trkpt lat="60.23544" lon="7.57801">
        <ele>1247.45</ele>
        <time>2019-04-04T12:57:03Z</time>
      </trkpt>
      <trkpt lat="60.23517" lon="7.57816">
        <ele>1247.93</ele>
        <time>2019-04-04T12:57:10Z</time>
      </trkpt>
      <trkpt lat="60.23495" lon="7.57831">
        <ele>1249.85</ele>
        <time>2019-04-04T12:57:16Z</time>
      </trkpt>
      <trkpt lat="60.23487" lon="7.57831">
        <ele>1249.85</ele>
        <time>2019-04-04T12:57:18Z</time>
      </trkpt>
      <trkpt lat="60.23456" lon="7.57846">
        <ele>1252.74</ele>
        <time>2019-04-04T12:57:26Z</time>
      </trkpt>
      <trkpt lat="60.23444" lon="7.57853">
        <ele>1253.22</ele>
        <time>2019-04-04T12:57:29Z</time>
      </trkpt>
      <trkpt lat="60.23437" lon="7.57853">
        <ele>1253.22</ele>
        <time>2019-04-04T12:57:31Z</time>
      </trkpt>
      <trkpt lat="60.23403" lon="7.57854">
        <ele>1254.66</ele>
        <time>2019-04-04T12:57:39Z</time>
      </trkpt>
      <trkpt lat="60.234" lon="7.57854">
        <ele>1254.66</ele>
        <time>2019-04-04T12:57:40Z</time>
      </trkpt>
      <trkpt lat="60.23388" lon="7.57859">
        <ele>1254.66</ele>
        <time>2019-04-04T12:57:43Z</time>
      </trkpt>
      <trkpt lat="60.23373" lon="7.57868">
        <ele>1254.66</ele>
        <time>2019-04-04T12:57:47Z</time>
      </trkpt>
      <trkpt lat="60.23358" lon="7.5786">
        <ele>1255.62</ele>
        <time>2019-04-04T12:57:50Z</time>
      </trkpt>
      <trkpt lat="60.23326" lon="7.57846">
        <ele>1255.14</ele>
        <time>2019-04-04T12:57:55Z</time>
      </trkpt>
      <trkpt lat="60.23299" lon="7.57836">
        <ele>1255.62</ele>
        <time>2019-04-04T12:58:00Z</time>
      </trkpt>
      <trkpt lat="60.23263" lon="7.57837">
        <ele>1256.1</ele>
        <time>2019-04-04T12:58:08Z</time>
      </trkpt>
      <trkpt lat="60.23248" lon="7.57824">
        <ele>1256.1</ele>
        <time>2019-04-04T12:58:11Z</time>
      </trkpt>
      <trkpt lat="60.23238" lon="7.5782">
        <ele>1256.1</ele>
        <time>2019-04-04T12:58:13Z</time>
      </trkpt>
      <trkpt lat="60.23223" lon="7.57822">
        <ele>1256.1</ele>
        <time>2019-04-04T12:58:16Z</time>
      </trkpt>
      <trkpt lat="60.23192" lon="7.57787">
        <ele>1258.5</ele>
        <time>2019-04-04T12:58:22Z</time>
      </trkpt>
      <trkpt lat="60.23185" lon="7.57783">
        <ele>1258.5</ele>
        <time>2019-04-04T12:58:23Z</time>
      </trkpt>
      <trkpt lat="60.23146" lon="7.57759">
        <ele>1258.5</ele>
        <time>2019-04-04T12:58:29Z</time>
      </trkpt>
      <trkpt lat="60.23133" lon="7.57753">
        <ele>1257.06</ele>
        <time>2019-04-04T12:58:31Z</time>
      </trkpt>
      <trkpt lat="60.23126" lon="7.57749">
        <ele>1256.1</ele>
        <time>2019-04-04T12:58:32Z</time>
      </trkpt>
      <trkpt lat="60.23099" lon="7.57737">
        <ele>1255.14</ele>
        <time>2019-04-04T12:58:36Z</time>
      </trkpt>
      <trkpt lat="60.23019" lon="7.57698">
        <ele>1252.25</ele>
        <time>2019-04-04T12:58:47Z</time>
      </trkpt>
      <trkpt lat="60.22988" lon="7.5768">
        <ele>1251.29</ele>
        <time>2019-04-04T12:58:52Z</time>
      </trkpt>
      <trkpt lat="60.2297" lon="7.57672">
        <ele>1251.29</ele>
        <time>2019-04-04T12:58:55Z</time>
      </trkpt>
      <trkpt lat="60.22929" lon="7.57657">
        <ele>1250.81</ele>
        <time>2019-04-04T12:59:03Z</time>
      </trkpt>
      <trkpt lat="60.22889" lon="7.57627">
        <ele>1250.33</ele>
        <time>2019-04-04T12:59:14Z</time>
      </trkpt>
      <trkpt lat="60.22871" lon="7.57609">
        <ele>1248.89</ele>
        <time>2019-04-04T12:59:18Z</time>
      </trkpt>
      <trkpt lat="60.22826" lon="7.57564">
        <ele>1246.49</ele>
        <time>2019-04-04T12:59:25Z</time>
      </trkpt>
      <trkpt lat="60.22807" lon="7.57551">
        <ele>1246.49</ele>
        <time>2019-04-04T12:59:28Z</time>
      </trkpt>
      <trkpt lat="60.22788" lon="7.57547">
        <ele>1246.49</ele>
        <time>2019-04-04T12:59:31Z</time>
      </trkpt>
      <trkpt lat="60.2277" lon="7.57521">
        <ele>1246.97</ele>
        <time>2019-04-04T12:59:35Z</time>
      </trkpt>
      <trkpt lat="60.22761" lon="7.57505">
        <ele>1246.97</ele>
        <time>2019-04-04T12:59:37Z</time>
      </trkpt>
      <trkpt lat="60.22736" lon="7.57478">
        <ele>1247.93</ele>
        <time>2019-04-04T12:59:42Z</time>
      </trkpt>
      <trkpt lat="60.22703" lon="7.57468">
        <ele>1248.41</ele>
        <time>2019-04-04T12:59:48Z</time>
      </trkpt>
      <trkpt lat="60.2268" lon="7.57464">
        <ele>1249.37</ele>
        <time>2019-04-04T12:59:52Z</time>
      </trkpt>
      <trkpt lat="60.22647" lon="7.57427">
        <ele>1249.85</ele>
        <time>2019-04-04T12:59:59Z</time>
      </trkpt>
      <trkpt lat="60.22625" lon="7.57404">
        <ele>1249.85</ele>
        <time>2019-04-04T13:00:03Z</time>
      </trkpt>
      <trkpt lat="60.22613" lon="7.57399">
        <ele>1249.85</ele>
        <time>2019-04-04T13:00:05Z</time>
      </trkpt>
      <trkpt lat="60.22586" lon="7.57394">
        <ele>1252.25</ele>
        <time>2019-04-04T13:00:10Z</time>
      </trkpt>
      <trkpt lat="60.22583" lon="7.57386">
        <ele>1252.25</ele>
        <time>2019-04-04T13:00:11Z</time>
      </trkpt>
      <trkpt lat="60.22553" lon="7.57342">
        <ele>1253.7</ele>
        <time>2019-04-04T13:00:18Z</time>
      </trkpt>
      <trkpt lat="60.22533" lon="7.57324">
        <ele>1253.7</ele>
        <time>2019-04-04T13:00:23Z</time>
      </trkpt>
      <trkpt lat="60.22524" lon="7.57322">
        <ele>1253.7</ele>
        <time>2019-04-04T13:00:25Z</time>
      </trkpt>
      <trkpt lat="60.225" lon="7.57282">
        <ele>1250.81</ele>
        <time>2019-04-04T13:00:30Z</time>
      </trkpt>
      <trkpt lat="60.22482" lon="7.57262">
        <ele>1250.33</ele>
        <time>2019-04-04T13:00:33Z</time>
      </trkpt>
      <trkpt lat="60.22462" lon="7.5725">
        <ele>1249.85</ele>
        <time>2019-04-04T13:00:36Z</time>
      </trkpt>
      <trkpt lat="60.22439" lon="7.57237">
        <ele>1249.37</ele>
        <time>2019-04-04T13:00:40Z</time>
      </trkpt>
      <trkpt lat="60.22427" lon="7.57231">
        <ele>1249.37</ele>
        <time>2019-04-04T13:00:42Z</time>
      </trkpt>
      <trkpt lat="60.22391" lon="7.57204">
        <ele>1249.37</ele>
        <time>2019-04-04T13:00:48Z</time>
      </trkpt>
      <trkpt lat="60.22367" lon="7.57196">
        <ele>1248.89</ele>
        <time>2019-04-04T13:00:52Z</time>
      </trkpt>
      <trkpt lat="60.22362" lon="7.57192">
        <ele>1248.41</ele>
        <time>2019-04-04T13:00:53Z</time>
      </trkpt>
      <trkpt lat="60.22358" lon="7.57188">
        <ele>1248.41</ele>
        <time>2019-04-04T13:00:54Z</time>
      </trkpt>
      <trkpt lat="60.2233" lon="7.57174">
        <ele>1247.93</ele>
        <time>2019-04-04T13:00:59Z</time>
      </trkpt>
      <trkpt lat="60.22316" lon="7.57151">
        <ele>1247.93</ele>
        <time>2019-04-04T13:01:02Z</time>
      </trkpt>
      <trkpt lat="60.22297" lon="7.57133">
        <ele>1247.93</ele>
        <time>2019-04-04T13:01:05Z</time>
      </trkpt>
      <trkpt lat="60.22276" lon="7.57124">
        <ele>1247.93</ele>
        <time>2019-04-04T13:01:08Z</time>
      </trkpt>
      <trkpt lat="60.22247" lon="7.57107">
        <ele>1247.93</ele>
        <time>2019-04-04T13:01:12Z</time>
      </trkpt>
      <trkpt lat="60.2222" lon="7.57094">
        <ele>1247.93</ele>
        <time>2019-04-04T13:01:16Z</time>
      </trkpt>
      <trkpt lat="60.2221" lon="7.57074">
        <ele>1248.89</ele>
        <time>2019-04-04T13:01:19Z</time>
      </trkpt>
      <trkpt lat="60.22216" lon="7.57029">
        <ele>1249.85</ele>
        <time>2019-04-04T13:01:25Z</time>
      </trkpt>
      <trkpt lat="60.22218" lon="7.57022">
        <ele>1249.85</ele>
        <time>2019-04-04T13:01:26Z</time>
      </trkpt>
      <trkpt lat="60.22223" lon="7.56997">
        <ele>1249.85</ele>
        <time>2019-04-04T13:01:33Z</time>
      </trkpt>
      <trkpt lat="60.2222" lon="7.5699">
        <ele>1249.85</ele>
        <time>2019-04-04T13:01:46Z</time>
      </trkpt>
      <trkpt lat="60.22219" lon="7.56987">
        <ele>1249.85</ele>
        <time>2019-04-04T13:02:00Z</time>
      </trkpt>
      <trkpt lat="60.22218" lon="7.5698">
        <ele>1249.85</ele>
        <time>2019-04-04T13:02:14Z</time>
      </trkpt>
      <trkpt lat="60.22218" lon="7.56975">
        <ele>1249.85</ele>
        <time>2019-04-04T13:02:20Z</time>
      </trkpt>
      <trkpt lat="60.22218" lon="7.56968">
        <ele>1249.85</ele>
        <time>2019-04-04T13:02:29Z</time>
      </trkpt>
      <trkpt lat="60.22218" lon="7.56967">
        <ele>1249.85</ele>
        <time>2019-04-04T13:02:52Z</time>
      </trkpt>
      <trkpt lat="60.22218" lon="7.56967">
        <ele>1249.37</ele>
        <time>2019-04-04T13:03:13Z</time>
      </trkpt>
      <trkpt lat="60.22217" lon="7.56967">
        <ele>1249.37</ele>
        <time>2019-04-04T13:03:35Z</time>
      </trkpt>
      <trkpt lat="60.22217" lon="7.56966">
        <ele>1249.37</ele>
        <time>2019-04-04T13:03:42Z</time>
      </trkpt>
      <trkpt lat="60.22208" lon="7.56939">
        <ele>1248.41</ele>
        <time>2019-04-04T13:03:47Z</time>
      </trkpt>
      <trkpt lat="60.22203" lon="7.56935">
        <ele>1247.45</ele>
        <time>2019-04-04T13:03:48Z</time>
      </trkpt>
      <trkpt lat="60.22167" lon="7.56907">
        <ele>1243.12</ele>
        <time>2019-04-04T13:03:53Z</time>
      </trkpt>
      <trkpt lat="60.22133" lon="7.56892">
        <ele>1241.2</ele>
        <time>2019-04-04T13:03:57Z</time>
      </trkpt>
      <trkpt lat="60.22098" lon="7.5688">
        <ele>1238.32</ele>
        <time>2019-04-04T13:04:01Z</time>
      </trkpt>
      <trkpt lat="60.22014" lon="7.56839">
        <ele>1236.87</ele>
        <time>2019-04-04T13:04:11Z</time>
      </trkpt>
      <trkpt lat="60.21943" lon="7.56807">
        <ele>1236.39</ele>
        <time>2019-04-04T13:04:20Z</time>
      </trkpt>
      <trkpt lat="60.21878" lon="7.56778">
        <ele>1236.39</ele>
        <time>2019-04-04T13:04:29Z</time>
      </trkpt>
      <trkpt lat="60.21836" lon="7.56764">
        <ele>1236.39</ele>
        <time>2019-04-04T13:04:35Z</time>
      </trkpt>
      <trkpt lat="60.21823" lon="7.56762">
        <ele>1238.32</ele>
        <time>2019-04-04T13:04:37Z</time>
      </trkpt>
      <trkpt lat="60.218" lon="7.56751">
        <ele>1238.8</ele>
        <time>2019-04-04T13:04:41Z</time>
      </trkpt>
      <trkpt lat="60.21778" lon="7.56742">
        <ele>1239.28</ele>
        <time>2019-04-04T13:04:45Z</time>
      </trkpt>
      <trkpt lat="60.21749" lon="7.56712">
        <ele>1239.76</ele>
        <time>2019-04-04T13:04:50Z</time>
      </trkpt>
      <trkpt lat="60.21728" lon="7.56696">
        <ele>1239.76</ele>
        <time>2019-04-04T13:04:53Z</time>
      </trkpt>
      <trkpt lat="60.21693" lon="7.5668">
        <ele>1241.2</ele>
        <time>2019-04-04T13:04:58Z</time>
      </trkpt>
      <trkpt lat="60.21665" lon="7.56665">
        <ele>1243.12</ele>
        <time>2019-04-04T13:05:03Z</time>
      </trkpt>
      <trkpt lat="60.21646" lon="7.56635">
        <ele>1243.6</ele>
        <time>2019-04-04T13:05:08Z</time>
      </trkpt>
      <trkpt lat="60.21641" lon="7.56629">
        <ele>1243.6</ele>
        <time>2019-04-04T13:05:09Z</time>
      </trkpt>
      <trkpt lat="60.21611" lon="7.56611">
        <ele>1242.64</ele>
        <time>2019-04-04T13:05:13Z</time>
      </trkpt>
      <trkpt lat="60.21567" lon="7.56603">
        <ele>1242.64</ele>
        <time>2019-04-04T13:05:19Z</time>
      </trkpt>
      <trkpt lat="60.21532" lon="7.56587">
        <ele>1243.6</ele>
        <time>2019-04-04T13:05:25Z</time>
      </trkpt>
      <trkpt lat="60.21518" lon="7.56584">
        <ele>1244.56</ele>
        <time>2019-04-04T13:05:27Z</time>
      </trkpt>
      <trkpt lat="60.21491" lon="7.56574">
        <ele>1245.04</ele>
        <time>2019-04-04T13:05:31Z</time>
      </trkpt>
      <trkpt lat="60.21431" lon="7.56565">
        <ele>1248.89</ele>
        <time>2019-04-04T13:05:40Z</time>
      </trkpt>
      <trkpt lat="60.21392" lon="7.56558">
        <ele>1250.81</ele>
        <time>2019-04-04T13:05:47Z</time>
      </trkpt>
      <trkpt lat="60.21372" lon="7.56559">
        <ele>1250.81</ele>
        <time>2019-04-04T13:05:51Z</time>
      </trkpt>
      <trkpt lat="60.21357" lon="7.5654">
        <ele>1252.25</ele>
        <time>2019-04-04T13:05:54Z</time>
      </trkpt>
      <trkpt lat="60.21352" lon="7.56533">
        <ele>1252.25</ele>
        <time>2019-04-04T13:05:55Z</time>
      </trkpt>
      <trkpt lat="60.21322" lon="7.56508">
        <ele>1255.14</ele>
        <time>2019-04-04T13:06:00Z</time>
      </trkpt>
      <trkpt lat="60.2131" lon="7.56499">
        <ele>1255.14</ele>
        <time>2019-04-04T13:06:02Z</time>
      </trkpt>
      <trkpt lat="60.21256" lon="7.56474">
        <ele>1256.1</ele>
        <time>2019-04-04T13:06:10Z</time>
      </trkpt>
      <trkpt lat="60.21242" lon="7.5647">
        <ele>1256.58</ele>
        <time>2019-04-04T13:06:12Z</time>
      </trkpt>
      <trkpt lat="60.21204" lon="7.56458">
        <ele>1258.5</ele>
        <time>2019-04-04T13:06:18Z</time>
      </trkpt>
      <trkpt lat="60.2118" lon="7.56457">
        <ele>1259.46</ele>
        <time>2019-04-04T13:06:22Z</time>
      </trkpt>
      <trkpt lat="60.21161" lon="7.56453">
        <ele>1259.46</ele>
        <time>2019-04-04T13:06:25Z</time>
      </trkpt>
      <trkpt lat="60.21147" lon="7.56447">
        <ele>1259.94</ele>
        <time>2019-04-04T13:06:27Z</time>
      </trkpt>
      <trkpt lat="60.21127" lon="7.56442">
        <ele>1259.94</ele>
        <time>2019-04-04T13:06:30Z</time>
      </trkpt>
      <trkpt lat="60.21086" lon="7.56415">
        <ele>1260.91</ele>
        <time>2019-04-04T13:06:36Z</time>
      </trkpt>
      <trkpt lat="60.21046" lon="7.56385">
        <ele>1261.39</ele>
        <time>2019-04-04T13:06:42Z</time>
      </trkpt>
      <trkpt lat="60.20994" lon="7.56321">
        <ele>1262.35</ele>
        <time>2019-04-04T13:06:51Z</time>
      </trkpt>
      <trkpt lat="60.20981" lon="7.56315">
        <ele>1262.83</ele>
        <time>2019-04-04T13:06:53Z</time>
      </trkpt>
      <trkpt lat="60.20961" lon="7.56301">
        <ele>1263.31</ele>
        <time>2019-04-04T13:06:56Z</time>
      </trkpt>
      <trkpt lat="60.20924" lon="7.56286">
        <ele>1264.27</ele>
        <time>2019-04-04T13:07:02Z</time>
      </trkpt>
      <trkpt lat="60.20892" lon="7.56262">
        <ele>1264.27</ele>
        <time>2019-04-04T13:07:07Z</time>
      </trkpt>
      <trkpt lat="60.20815" lon="7.56209">
        <ele>1264.27</ele>
        <time>2019-04-04T13:07:18Z</time>
      </trkpt>
      <trkpt lat="60.20762" lon="7.56189">
        <ele>1265.23</ele>
        <time>2019-04-04T13:07:27Z</time>
      </trkpt>
      <trkpt lat="60.2072" lon="7.56187">
        <ele>1265.23</ele>
        <time>2019-04-04T13:07:34Z</time>
      </trkpt>
      <trkpt lat="60.20705" lon="7.5618">
        <ele>1265.23</ele>
        <time>2019-04-04T13:07:37Z</time>
      </trkpt>
      <trkpt lat="60.20684" lon="7.56158">
        <ele>1263.31</ele>
        <time>2019-04-04T13:07:42Z</time>
      </trkpt>
      <trkpt lat="60.20653" lon="7.56146">
        <ele>1262.83</ele>
        <time>2019-04-04T13:07:48Z</time>
      </trkpt>
      <trkpt lat="60.20645" lon="7.5613">
        <ele>1261.87</ele>
        <time>2019-04-04T13:07:53Z</time>
      </trkpt>
      <trkpt lat="60.20645" lon="7.5613">
        <ele>1261.39</ele>
        <time>2019-04-04T13:08:07Z</time>
      </trkpt>
      <trkpt lat="60.20645" lon="7.56129">
        <ele>1261.39</ele>
        <time>2019-04-04T13:08:29Z</time>
      </trkpt>
      <trkpt lat="60.20645" lon="7.56128">
        <ele>1261.39</ele>
        <time>2019-04-04T13:08:48Z</time>
      </trkpt>
      <trkpt lat="60.20644" lon="7.56124">
        <ele>1261.39</ele>
        <time>2019-04-04T13:09:07Z</time>
      </trkpt>
      <trkpt lat="60.20646" lon="7.56115">
        <ele>1261.39</ele>
        <time>2019-04-04T13:09:20Z</time>
      </trkpt>
      <trkpt lat="60.20649" lon="7.56102">
        <ele>1260.91</ele>
        <time>2019-04-04T13:09:40Z</time>
      </trkpt>
      <trkpt lat="60.20661" lon="7.56063">
        <ele>1259.94</ele>
        <time>2019-04-04T13:09:49Z</time>
      </trkpt>
      <trkpt lat="60.20655" lon="7.56016">
        <ele>1258.02</ele>
        <time>2019-04-04T13:09:55Z</time>
      </trkpt>
      <trkpt lat="60.20623" lon="7.55978">
        <ele>1255.14</ele>
        <time>2019-04-04T13:10:00Z</time>
      </trkpt>
      <trkpt lat="60.20596" lon="7.55929">
        <ele>1252.74</ele>
        <time>2019-04-04T13:10:05Z</time>
      </trkpt>
      <trkpt lat="60.20584" lon="7.55913">
        <ele>1252.25</ele>
        <time>2019-04-04T13:10:07Z</time>
      </trkpt>
      <trkpt lat="60.20574" lon="7.55893">
        <ele>1251.29</ele>
        <time>2019-04-04T13:10:09Z</time>
      </trkpt>
      <trkpt lat="60.2056" lon="7.55857">
        <ele>1251.29</ele>
        <time>2019-04-04T13:10:13Z</time>
      </trkpt>
      <trkpt lat="60.20551" lon="7.55842">
        <ele>1250.81</ele>
        <time>2019-04-04T13:10:15Z</time>
      </trkpt>
      <trkpt lat="60.20536" lon="7.55803">
        <ele>1250.33</ele>
        <time>2019-04-04T13:10:19Z</time>
      </trkpt>
      <trkpt lat="60.20518" lon="7.5577">
        <ele>1249.37</ele>
        <time>2019-04-04T13:10:23Z</time>
      </trkpt>
      <trkpt lat="60.20505" lon="7.55731">
        <ele>1248.41</ele>
        <time>2019-04-04T13:10:27Z</time>
      </trkpt>
      <trkpt lat="60.20471" lon="7.55691">
        <ele>1243.6</ele>
        <time>2019-04-04T13:10:32Z</time>
      </trkpt>
      <trkpt lat="60.20463" lon="7.55681">
        <ele>1243.12</ele>
        <time>2019-04-04T13:10:33Z</time>
      </trkpt>
      <trkpt lat="60.20429" lon="7.55627">
        <ele>1238.8</ele>
        <time>2019-04-04T13:10:38Z</time>
      </trkpt>
      <trkpt lat="60.20408" lon="7.55606">
        <ele>1236.87</ele>
        <time>2019-04-04T13:10:41Z</time>
      </trkpt>
      <trkpt lat="60.2039" lon="7.55571">
        <ele>1236.87</ele>
        <time>2019-04-04T13:10:45Z</time>
      </trkpt>
      <trkpt lat="60.2038" lon="7.55559">
        <ele>1236.87</ele>
        <time>2019-04-04T13:10:47Z</time>
      </trkpt>
      <trkpt lat="60.20352" lon="7.55518">
        <ele>1237.35</ele>
        <time>2019-04-04T13:10:53Z</time>
      </trkpt>
      <trkpt lat="60.20343" lon="7.55506">
        <ele>1237.35</ele>
        <time>2019-04-04T13:10:55Z</time>
      </trkpt>
      <trkpt lat="60.20317" lon="7.55469">
        <ele>1238.8</ele>
        <time>2019-04-04T13:11:00Z</time>
      </trkpt>
      <trkpt lat="60.20306" lon="7.55456">
        <ele>1239.76</ele>
        <time>2019-04-04T13:11:02Z</time>
      </trkpt>
      <trkpt lat="60.2028" lon="7.55407">
        <ele>1240.72</ele>
        <time>2019-04-04T13:11:08Z</time>
      </trkpt>
      <trkpt lat="60.20258" lon="7.55367">
        <ele>1240.72</ele>
        <time>2019-04-04T13:11:13Z</time>
      </trkpt>
      <trkpt lat="60.20244" lon="7.55323">
        <ele>1240.72</ele>
        <time>2019-04-04T13:11:18Z</time>
      </trkpt>
      <trkpt lat="60.20232" lon="7.55288">
        <ele>1239.28</ele>
        <time>2019-04-04T13:11:22Z</time>
      </trkpt>
      <trkpt lat="60.20204" lon="7.5525">
        <ele>1237.83</ele>
        <time>2019-04-04T13:11:27Z</time>
      </trkpt>
      <trkpt lat="60.20176" lon="7.55181">
        <ele>1236.87</ele>
        <time>2019-04-04T13:11:35Z</time>
      </trkpt>
      <trkpt lat="60.2017" lon="7.55164">
        <ele>1236.87</ele>
        <time>2019-04-04T13:11:37Z</time>
      </trkpt>
      <trkpt lat="60.20152" lon="7.55125">
        <ele>1238.32</ele>
        <time>2019-04-04T13:11:42Z</time>
      </trkpt>
      <trkpt lat="60.20135" lon="7.55096">
        <ele>1238.8</ele>
        <time>2019-04-04T13:11:46Z</time>
      </trkpt>
      <trkpt lat="60.2011" lon="7.55051">
        <ele>1240.24</ele>
        <time>2019-04-04T13:11:52Z</time>
      </trkpt>
      <trkpt lat="60.20105" lon="7.55042">
        <ele>1240.24</ele>
        <time>2019-04-04T13:11:53Z</time>
      </trkpt>
      <trkpt lat="60.20097" lon="7.55016">
        <ele>1241.2</ele>
        <time>2019-04-04T13:11:56Z</time>
      </trkpt>
      <trkpt lat="60.2009" lon="7.55001">
        <ele>1241.2</ele>
        <time>2019-04-04T13:11:58Z</time>
      </trkpt>
      <trkpt lat="60.20083" lon="7.54974">
        <ele>1242.64</ele>
        <time>2019-04-04T13:12:02Z</time>
      </trkpt>
      <trkpt lat="60.20069" lon="7.54926">
        <ele>1244.56</ele>
        <time>2019-04-04T13:12:09Z</time>
      </trkpt>
      <trkpt lat="60.20065" lon="7.54912">
        <ele>1244.56</ele>
        <time>2019-04-04T13:12:12Z</time>
      </trkpt>
      <trkpt lat="60.20058" lon="7.5489">
        <ele>1245.53</ele>
        <time>2019-04-04T13:12:15Z</time>
      </trkpt>
      <trkpt lat="60.20045" lon="7.54862">
        <ele>1246.49</ele>
        <time>2019-04-04T13:12:19Z</time>
      </trkpt>
      <trkpt lat="60.20037" lon="7.5484">
        <ele>1246.97</ele>
        <time>2019-04-04T13:12:22Z</time>
      </trkpt>
      <trkpt lat="60.20024" lon="7.54806">
        <ele>1248.41</ele>
        <time>2019-04-04T13:12:27Z</time>
      </trkpt>
      <trkpt lat="60.20015" lon="7.54785">
        <ele>1250.33</ele>
        <time>2019-04-04T13:12:30Z</time>
      </trkpt>
      <trkpt lat="60.20009" lon="7.54761">
        <ele>1250.81</ele>
        <time>2019-04-04T13:12:33Z</time>
      </trkpt>
      <trkpt lat="60.19995" lon="7.54713">
        <ele>1251.29</ele>
        <time>2019-04-04T13:12:39Z</time>
      </trkpt>
      <trkpt lat="60.19992" lon="7.54691">
        <ele>1251.29</ele>
        <time>2019-04-04T13:12:42Z</time>
      </trkpt>
      <trkpt lat="60.19983" lon="7.54656">
        <ele>1251.29</ele>
        <time>2019-04-04T13:12:47Z</time>
      </trkpt>
      <trkpt lat="60.1997" lon="7.54609">
        <ele>1253.7</ele>
        <time>2019-04-04T13:12:54Z</time>
      </trkpt>
      <trkpt lat="60.19968" lon="7.54596">
        <ele>1253.7</ele>
        <time>2019-04-04T13:12:57Z</time>
      </trkpt>
      <trkpt lat="60.1996" lon="7.54576">
        <ele>1255.62</ele>
        <time>2019-04-04T13:13:00Z</time>
      </trkpt>
      <trkpt lat="60.19951" lon="7.54534">
        <ele>1258.02</ele>
        <time>2019-04-04T13:13:06Z</time>
      </trkpt>
      <trkpt lat="60.1996" lon="7.54495">
        <ele>1258.5</ele>
        <time>2019-04-04T13:13:11Z</time>
      </trkpt>
      <trkpt lat="60.1996" lon="7.54486">
        <ele>1258.5</ele>
        <time>2019-04-04T13:13:12Z</time>
      </trkpt>
      <trkpt lat="60.19957" lon="7.54468">
        <ele>1258.5</ele>
        <time>2019-04-04T13:13:14Z</time>
      </trkpt>
      <trkpt lat="60.19939" lon="7.54441">
        <ele>1256.58</ele>
        <time>2019-04-04T13:13:19Z</time>
      </trkpt>
      <trkpt lat="60.19935" lon="7.54432">
        <ele>1256.58</ele>
        <time>2019-04-04T13:13:20Z</time>
      </trkpt>
      <trkpt lat="60.19924" lon="7.54402">
        <ele>1257.06</ele>
        <time>2019-04-04T13:13:24Z</time>
      </trkpt>
      <trkpt lat="60.19913" lon="7.54362">
        <ele>1258.98</ele>
        <time>2019-04-04T13:13:31Z</time>
      </trkpt>
      <trkpt lat="60.19911" lon="7.54356">
        <ele>1258.98</ele>
        <time>2019-04-04T13:13:32Z</time>
      </trkpt>
      <trkpt lat="60.1991" lon="7.5435">
        <ele>1259.46</ele>
        <time>2019-04-04T13:13:33Z</time>
      </trkpt>
      <trkpt lat="60.19903" lon="7.54323">
        <ele>1261.39</ele>
        <time>2019-04-04T13:13:38Z</time>
      </trkpt>
      <trkpt lat="60.19895" lon="7.54298">
        <ele>1263.79</ele>
        <time>2019-04-04T13:13:43Z</time>
      </trkpt>
      <trkpt lat="60.1989" lon="7.54266">
        <ele>1266.67</ele>
        <time>2019-04-04T13:13:49Z</time>
      </trkpt>
      <trkpt lat="60.19889" lon="7.54255">
        <ele>1267.16</ele>
        <time>2019-04-04T13:13:51Z</time>
      </trkpt>
      <trkpt lat="60.19883" lon="7.54219">
        <ele>1270.52</ele>
        <time>2019-04-04T13:13:58Z</time>
      </trkpt>
      <trkpt lat="60.19878" lon="7.54194">
        <ele>1272.44</ele>
        <time>2019-04-04T13:14:02Z</time>
      </trkpt>
      <trkpt lat="60.19872" lon="7.54179">
        <ele>1273.4</ele>
        <time>2019-04-04T13:14:05Z</time>
      </trkpt>
      <trkpt lat="60.19869" lon="7.54168">
        <ele>1274.85</ele>
        <time>2019-04-04T13:14:07Z</time>
      </trkpt>
      <trkpt lat="60.19869" lon="7.54162">
        <ele>1275.81</ele>
        <time>2019-04-04T13:14:10Z</time>
      </trkpt>
      <trkpt lat="60.19864" lon="7.54154">
        <ele>1276.29</ele>
        <time>2019-04-04T13:14:13Z</time>
      </trkpt>
      <trkpt lat="60.1986" lon="7.54132">
        <ele>1278.69</ele>
        <time>2019-04-04T13:14:20Z</time>
      </trkpt>
      <trkpt lat="60.19859" lon="7.54133">
        <ele>1283.5</ele>
        <time>2019-04-04T13:14:40Z</time>
      </trkpt>
      <trkpt lat="60.19859" lon="7.54133">
        <ele>1276.77</ele>
        <time>2019-04-04T13:14:41Z</time>
      </trkpt>
      <trkpt lat="60.19859" lon="7.54133">
        <ele>1278.21</ele>
        <time>2019-04-04T13:14:53Z</time>
      </trkpt>
      <trkpt lat="60.19858" lon="7.54131">
        <ele>1277.73</ele>
        <time>2019-04-04T13:15:06Z</time>
      </trkpt>
      <trkpt lat="60.19857" lon="7.54119">
        <ele>1278.69</ele>
        <time>2019-04-04T13:15:08Z</time>
      </trkpt>
      <trkpt lat="60.19858" lon="7.54093">
        <ele>1280.13</ele>
        <time>2019-04-04T13:15:15Z</time>
      </trkpt>
      <trkpt lat="60.19852" lon="7.54067">
        <ele>1282.06</ele>
        <time>2019-04-04T13:15:20Z</time>
      </trkpt>
      <trkpt lat="60.19837" lon="7.54034">
        <ele>1285.42</ele>
        <time>2019-04-04T13:15:28Z</time>
      </trkpt>
      <trkpt lat="60.19823" lon="7.54031">
        <ele>1286.86</ele>
        <time>2019-04-04T13:15:32Z</time>
      </trkpt>
      <trkpt lat="60.19816" lon="7.54027">
        <ele>1287.82</ele>
        <time>2019-04-04T13:15:34Z</time>
      </trkpt>
      <trkpt lat="60.19813" lon="7.54023">
        <ele>1287.82</ele>
        <time>2019-04-04T13:15:35Z</time>
      </trkpt>
      <trkpt lat="60.19787" lon="7.54008">
        <ele>1290.23</ele>
        <time>2019-04-04T13:15:41Z</time>
      </trkpt>
      <trkpt lat="60.1977" lon="7.54021">
        <ele>1292.15</ele>
        <time>2019-04-04T13:15:45Z</time>
      </trkpt>
      <trkpt lat="60.19757" lon="7.54026">
        <ele>1292.15</ele>
        <time>2019-04-04T13:15:48Z</time>
      </trkpt>
      <trkpt lat="60.19749" lon="7.54031">
        <ele>1293.59</ele>
        <time>2019-04-04T13:15:50Z</time>
      </trkpt>
      <trkpt lat="60.1973" lon="7.5403">
        <ele>1294.07</ele>
        <time>2019-04-04T13:15:55Z</time>
      </trkpt>
      <trkpt lat="60.19719" lon="7.54036">
        <ele>1295.03</ele>
        <time>2019-04-04T13:15:58Z</time>
      </trkpt>
      <trkpt lat="60.19704" lon="7.54038">
        <ele>1295.03</ele>
        <time>2019-04-04T13:16:03Z</time>
      </trkpt>
      <trkpt lat="60.19698" lon="7.54035">
        <ele>1295.03</ele>
        <time>2019-04-04T13:16:05Z</time>
      </trkpt>
      <trkpt lat="60.19693" lon="7.54025">
        <ele>1296.48</ele>
        <time>2019-04-04T13:16:07Z</time>
      </trkpt>
      <trkpt lat="60.19684" lon="7.5401">
        <ele>1295.51</ele>
        <time>2019-04-04T13:16:12Z</time>
      </trkpt>
      <trkpt lat="60.19665" lon="7.54">
        <ele>1297.92</ele>
        <time>2019-04-04T13:16:18Z</time>
      </trkpt>
      <trkpt lat="60.19661" lon="7.53994">
        <ele>1297.92</ele>
        <time>2019-04-04T13:16:24Z</time>
      </trkpt>
      <trkpt lat="60.19658" lon="7.53965">
        <ele>1298.4</ele>
        <time>2019-04-04T13:16:32Z</time>
      </trkpt>
      <trkpt lat="60.19658" lon="7.53966">
        <ele>1298.4</ele>
        <time>2019-04-04T13:16:39Z</time>
      </trkpt>
      <trkpt lat="60.19643" lon="7.53942">
        <ele>1299.36</ele>
        <time>2019-04-04T13:16:45Z</time>
      </trkpt>
      <trkpt lat="60.19625" lon="7.53939">
        <ele>1301.28</ele>
        <time>2019-04-04T13:16:50Z</time>
      </trkpt>
      <trkpt lat="60.19611" lon="7.53911">
        <ele>1299.84</ele>
        <time>2019-04-04T13:16:55Z</time>
      </trkpt>
      <trkpt lat="60.19603" lon="7.53907">
        <ele>1302.72</ele>
        <time>2019-04-04T13:16:57Z</time>
      </trkpt>
      <trkpt lat="60.19598" lon="7.53905">
        <ele>1302.72</ele>
        <time>2019-04-04T13:16:58Z</time>
      </trkpt>
      <trkpt lat="60.19568" lon="7.53896">
        <ele>1303.69</ele>
        <time>2019-04-04T13:17:07Z</time>
      </trkpt>
      <trkpt lat="60.19563" lon="7.53876">
        <ele>1303.69</ele>
        <time>2019-04-04T13:17:11Z</time>
      </trkpt>
      <trkpt lat="60.19565" lon="7.53852">
        <ele>1303.69</ele>
        <time>2019-04-04T13:17:15Z</time>
      </trkpt>
      <trkpt lat="60.19558" lon="7.53834">
        <ele>1303.69</ele>
        <time>2019-04-04T13:17:19Z</time>
      </trkpt>
      <trkpt lat="60.1954" lon="7.53826">
        <ele>1304.17</ele>
        <time>2019-04-04T13:17:23Z</time>
      </trkpt>
      <trkpt lat="60.19508" lon="7.53827">
        <ele>1305.13</ele>
        <time>2019-04-04T13:17:29Z</time>
      </trkpt>
      <trkpt lat="60.19478" lon="7.53826">
        <ele>1305.13</ele>
        <time>2019-04-04T13:17:34Z</time>
      </trkpt>
      <trkpt lat="60.19457" lon="7.53827">
        <ele>1305.61</ele>
        <time>2019-04-04T13:17:38Z</time>
      </trkpt>
      <trkpt lat="60.19437" lon="7.5383">
        <ele>1305.61</ele>
        <time>2019-04-04T13:17:42Z</time>
      </trkpt>
      <trkpt lat="60.1941" lon="7.53841">
        <ele>1305.61</ele>
        <time>2019-04-04T13:17:47Z</time>
      </trkpt>
      <trkpt lat="60.19397" lon="7.53841">
        <ele>1305.61</ele>
        <time>2019-04-04T13:17:50Z</time>
      </trkpt>
      <trkpt lat="60.19367" lon="7.5384">
        <ele>1305.61</ele>
        <time>2019-04-04T13:17:57Z</time>
      </trkpt>
      <trkpt lat="60.19341" lon="7.53844">
        <ele>1305.61</ele>
        <time>2019-04-04T13:18:03Z</time>
      </trkpt>
      <trkpt lat="60.19337" lon="7.53843">
        <ele>1305.61</ele>
        <time>2019-04-04T13:18:04Z</time>
      </trkpt>
      <trkpt lat="60.19322" lon="7.53843">
        <ele>1306.57</ele>
        <time>2019-04-04T13:18:08Z</time>
      </trkpt>
      <trkpt lat="60.19303" lon="7.53837">
        <ele>1306.57</ele>
        <time>2019-04-04T13:18:13Z</time>
      </trkpt>
      <trkpt lat="60.19278" lon="7.53837">
        <ele>1306.09</ele>
        <time>2019-04-04T13:18:19Z</time>
      </trkpt>
      <trkpt lat="60.1925" lon="7.53822">
        <ele>1306.09</ele>
        <time>2019-04-04T13:18:25Z</time>
      </trkpt>
      <trkpt lat="60.1924" lon="7.53813">
        <ele>1306.09</ele>
        <time>2019-04-04T13:18:27Z</time>
      </trkpt>
      <trkpt lat="60.19222" lon="7.53809">
        <ele>1307.05</ele>
        <time>2019-04-04T13:18:30Z</time>
      </trkpt>
      <trkpt lat="60.1921" lon="7.53806">
        <ele>1305.61</ele>
        <time>2019-04-04T13:18:32Z</time>
      </trkpt>
      <trkpt lat="60.192" lon="7.53803">
        <ele>1305.61</ele>
        <time>2019-04-04T13:18:34Z</time>
      </trkpt>
      <trkpt lat="60.19187" lon="7.53802">
        <ele>1305.61</ele>
        <time>2019-04-04T13:18:37Z</time>
      </trkpt>
      <trkpt lat="60.19166" lon="7.53799">
        <ele>1305.61</ele>
        <time>2019-04-04T13:18:41Z</time>
      </trkpt>
      <trkpt lat="60.19154" lon="7.53793">
        <ele>1305.61</ele>
        <time>2019-04-04T13:18:43Z</time>
      </trkpt>
      <trkpt lat="60.19127" lon="7.53751">
        <ele>1303.2</ele>
        <time>2019-04-04T13:18:49Z</time>
      </trkpt>
      <trkpt lat="60.19115" lon="7.53743">
        <ele>1305.61</ele>
        <time>2019-04-04T13:18:51Z</time>
      </trkpt>
      <trkpt lat="60.19102" lon="7.53737">
        <ele>1304.17</ele>
        <time>2019-04-04T13:18:53Z</time>
      </trkpt>
      <trkpt lat="60.19052" lon="7.53711">
        <ele>1302.72</ele>
        <time>2019-04-04T13:19:01Z</time>
      </trkpt>
      <trkpt lat="60.19034" lon="7.53706">
        <ele>1302.72</ele>
        <time>2019-04-04T13:19:04Z</time>
      </trkpt>
      <trkpt lat="60.19017" lon="7.53696">
        <ele>1302.72</ele>
        <time>2019-04-04T13:19:07Z</time>
      </trkpt>
      <trkpt lat="60.18997" lon="7.53681">
        <ele>1302.72</ele>
        <time>2019-04-04T13:19:11Z</time>
      </trkpt>
      <trkpt lat="60.18987" lon="7.53678">
        <ele>1302.72</ele>
        <time>2019-04-04T13:19:13Z</time>
      </trkpt>
      <trkpt lat="60.18962" lon="7.53657">
        <ele>1302.72</ele>
        <time>2019-04-04T13:19:18Z</time>
      </trkpt>
      <trkpt lat="60.18949" lon="7.5363">
        <ele>1302.24</ele>
        <time>2019-04-04T13:19:22Z</time>
      </trkpt>
      <trkpt lat="60.1892" lon="7.53604">
        <ele>1302.24</ele>
        <time>2019-04-04T13:19:29Z</time>
      </trkpt>
      <trkpt lat="60.18912" lon="7.53571">
        <ele>1302.24</ele>
        <time>2019-04-04T13:19:34Z</time>
      </trkpt>
      <trkpt lat="60.18914" lon="7.53557">
        <ele>1303.2</ele>
        <time>2019-04-04T13:19:38Z</time>
      </trkpt>
      <trkpt lat="60.18915" lon="7.53529">
        <ele>1304.65</ele>
        <time>2019-04-04T13:19:44Z</time>
      </trkpt>
      <trkpt lat="60.18913" lon="7.53512">
        <ele>1304.17</ele>
        <time>2019-04-04T13:19:53Z</time>
      </trkpt>
      <trkpt lat="60.18913" lon="7.53512">
        <ele>1304.17</ele>
        <time>2019-04-04T13:20:18Z</time>
      </trkpt>
      <trkpt lat="60.18913" lon="7.53512">
        <ele>1304.17</ele>
        <time>2019-04-04T13:20:39Z</time>
      </trkpt>
      <trkpt lat="60.18913" lon="7.53511">
        <ele>1304.65</ele>
        <time>2019-04-04T13:20:56Z</time>
      </trkpt>
      <trkpt lat="60.18913" lon="7.53501">
        <ele>1304.65</ele>
        <time>2019-04-04T13:21:03Z</time>
      </trkpt>
      <trkpt lat="60.18922" lon="7.53463">
        <ele>1304.65</ele>
        <time>2019-04-04T13:21:08Z</time>
      </trkpt>
      <trkpt lat="60.18927" lon="7.53437">
        <ele>1304.65</ele>
        <time>2019-04-04T13:21:12Z</time>
      </trkpt>
      <trkpt lat="60.18944" lon="7.53399">
        <ele>1304.65</ele>
        <time>2019-04-04T13:21:18Z</time>
      </trkpt>
      <trkpt lat="60.18952" lon="7.53364">
        <ele>1304.65</ele>
        <time>2019-04-04T13:21:22Z</time>
      </trkpt>
      <trkpt lat="60.18971" lon="7.53339">
        <ele>1304.65</ele>
        <time>2019-04-04T13:21:26Z</time>
      </trkpt>
      <trkpt lat="60.18989" lon="7.53299">
        <ele>1304.65</ele>
        <time>2019-04-04T13:21:31Z</time>
      </trkpt>
      <trkpt lat="60.18997" lon="7.53248">
        <ele>1304.65</ele>
        <time>2019-04-04T13:21:36Z</time>
      </trkpt>
      <trkpt lat="60.19007" lon="7.53215">
        <ele>1304.65</ele>
        <time>2019-04-04T13:21:40Z</time>
      </trkpt>
      <trkpt lat="60.19017" lon="7.53156">
        <ele>1304.65</ele>
        <time>2019-04-04T13:21:47Z</time>
      </trkpt>
      <trkpt lat="60.19021" lon="7.53129">
        <ele>1304.65</ele>
        <time>2019-04-04T13:21:50Z</time>
      </trkpt>
      <trkpt lat="60.19032" lon="7.53086">
        <ele>1304.65</ele>
        <time>2019-04-04T13:21:55Z</time>
      </trkpt>
      <trkpt lat="60.19051" lon="7.53046">
        <ele>1304.65</ele>
        <time>2019-04-04T13:22:03Z</time>
      </trkpt>
      <trkpt lat="60.19052" lon="7.53011">
        <ele>1302.72</ele>
        <time>2019-04-04T13:22:08Z</time>
      </trkpt>
      <trkpt lat="60.19034" lon="7.52981">
        <ele>1300.8</ele>
        <time>2019-04-04T13:22:13Z</time>
      </trkpt>
      <trkpt lat="60.19021" lon="7.52936">
        <ele>1297.92</ele>
        <time>2019-04-04T13:22:18Z</time>
      </trkpt>
      <trkpt lat="60.19008" lon="7.52905">
        <ele>1295.99</ele>
        <time>2019-04-04T13:22:22Z</time>
      </trkpt>
      <trkpt lat="60.19002" lon="7.52888">
        <ele>1295.51</ele>
        <time>2019-04-04T13:22:24Z</time>
      </trkpt>
      <trkpt lat="60.18996" lon="7.52876">
        <ele>1295.03</ele>
        <time>2019-04-04T13:22:26Z</time>
      </trkpt>
      <trkpt lat="60.1898" lon="7.52822">
        <ele>1294.07</ele>
        <time>2019-04-04T13:22:34Z</time>
      </trkpt>
      <trkpt lat="60.18976" lon="7.52806">
        <ele>1294.07</ele>
        <time>2019-04-04T13:22:37Z</time>
      </trkpt>
      <trkpt lat="60.18975" lon="7.52796">
        <ele>1294.07</ele>
        <time>2019-04-04T13:22:39Z</time>
      </trkpt>
      <trkpt lat="60.18964" lon="7.52754">
        <ele>1294.07</ele>
        <time>2019-04-04T13:22:46Z</time>
      </trkpt>
      <trkpt lat="60.18957" lon="7.52728">
        <ele>1294.07</ele>
        <time>2019-04-04T13:22:52Z</time>
      </trkpt>
      <trkpt lat="60.18957" lon="7.52719">
        <ele>1294.07</ele>
        <time>2019-04-04T13:22:54Z</time>
      </trkpt>
      <trkpt lat="60.18951" lon="7.52704">
        <ele>1294.07</ele>
        <time>2019-04-04T13:22:57Z</time>
      </trkpt>
      <trkpt lat="60.18945" lon="7.52673">
        <ele>1294.07</ele>
        <time>2019-04-04T13:23:01Z</time>
      </trkpt>
      <trkpt lat="60.18944" lon="7.52665">
        <ele>1294.07</ele>
        <time>2019-04-04T13:23:03Z</time>
      </trkpt>
      <trkpt lat="60.18946" lon="7.5265">
        <ele>1294.07</ele>
        <time>2019-04-04T13:23:06Z</time>
      </trkpt>
      <trkpt lat="60.18949" lon="7.52619">
        <ele>1294.07</ele>
        <time>2019-04-04T13:23:09Z</time>
      </trkpt>
      <trkpt lat="60.18961" lon="7.52558">
        <ele>1294.07</ele>
        <time>2019-04-04T13:23:16Z</time>
      </trkpt>
      <trkpt lat="60.18943" lon="7.52524">
        <ele>1293.59</ele>
        <time>2019-04-04T13:23:22Z</time>
      </trkpt>
      <trkpt lat="60.18944" lon="7.52467">
        <ele>1293.59</ele>
        <time>2019-04-04T13:23:30Z</time>
      </trkpt>
      <trkpt lat="60.18931" lon="7.5243">
        <ele>1293.11</ele>
        <time>2019-04-04T13:23:36Z</time>
      </trkpt>
      <trkpt lat="60.18927" lon="7.5238">
        <ele>1292.63</ele>
        <time>2019-04-04T13:23:42Z</time>
      </trkpt>
      <trkpt lat="60.1894" lon="7.52342">
        <ele>1292.63</ele>
        <time>2019-04-04T13:23:47Z</time>
      </trkpt>
      <trkpt lat="60.18931" lon="7.52301">
        <ele>1291.19</ele>
        <time>2019-04-04T13:23:52Z</time>
      </trkpt>
      <trkpt lat="60.18928" lon="7.5225">
        <ele>1290.23</ele>
        <time>2019-04-04T13:23:59Z</time>
      </trkpt>
      <trkpt lat="60.18931" lon="7.52229">
        <ele>1289.27</ele>
        <time>2019-04-04T13:24:01Z</time>
      </trkpt>
      <trkpt lat="60.18936" lon="7.52208">
        <ele>1288.78</ele>
        <time>2019-04-04T13:24:03Z</time>
      </trkpt>
      <trkpt lat="60.18945" lon="7.52139">
        <ele>1286.86</ele>
        <time>2019-04-04T13:24:09Z</time>
      </trkpt>
      <trkpt lat="60.18957" lon="7.52072">
        <ele>1284.46</ele>
        <time>2019-04-04T13:24:15Z</time>
      </trkpt>
      <trkpt lat="60.18957" lon="7.52059">
        <ele>1283.5</ele>
        <time>2019-04-04T13:24:16Z</time>
      </trkpt>
      <trkpt lat="60.18959" lon="7.52007">
        <ele>1281.57</ele>
        <time>2019-04-04T13:24:20Z</time>
      </trkpt>
      <trkpt lat="60.18974" lon="7.51948">
        <ele>1280.61</ele>
        <time>2019-04-04T13:24:25Z</time>
      </trkpt>
      <trkpt lat="60.18981" lon="7.5193">
        <ele>1280.61</ele>
        <time>2019-04-04T13:24:27Z</time>
      </trkpt>
      <trkpt lat="60.18985" lon="7.51891">
        <ele>1279.65</ele>
        <time>2019-04-04T13:24:31Z</time>
      </trkpt>
      <trkpt lat="60.1899" lon="7.51867">
        <ele>1279.17</ele>
        <time>2019-04-04T13:24:33Z</time>
      </trkpt>
      <trkpt lat="60.18998" lon="7.51845">
        <ele>1279.17</ele>
        <time>2019-04-04T13:24:35Z</time>
      </trkpt>
      <trkpt lat="60.19008" lon="7.51826">
        <ele>1279.17</ele>
        <time>2019-04-04T13:24:37Z</time>
      </trkpt>
      <trkpt lat="60.19028" lon="7.51801">
        <ele>1278.69</ele>
        <time>2019-04-04T13:24:41Z</time>
      </trkpt>
      <trkpt lat="60.19034" lon="7.51774">
        <ele>1277.73</ele>
        <time>2019-04-04T13:24:46Z</time>
      </trkpt>
      <trkpt lat="60.19019" lon="7.51742">
        <ele>1277.25</ele>
        <time>2019-04-04T13:24:52Z</time>
      </trkpt>
      <trkpt lat="60.19005" lon="7.51697">
        <ele>1277.25</ele>
        <time>2019-04-04T13:24:59Z</time>
      </trkpt>
      <trkpt lat="60.18988" lon="7.51655">
        <ele>1277.25</ele>
        <time>2019-04-04T13:25:05Z</time>
      </trkpt>
      <trkpt lat="60.18976" lon="7.51614">
        <ele>1276.77</ele>
        <time>2019-04-04T13:25:11Z</time>
      </trkpt>
      <trkpt lat="60.1897" lon="7.51605">
        <ele>1276.29</ele>
        <time>2019-04-04T13:25:13Z</time>
      </trkpt>
      <trkpt lat="60.18956" lon="7.51558">
        <ele>1276.29</ele>
        <time>2019-04-04T13:25:21Z</time>
      </trkpt>
      <trkpt lat="60.1896" lon="7.51543">
        <ele>1276.29</ele>
        <time>2019-04-04T13:25:29Z</time>
      </trkpt>
      <trkpt lat="60.1896" lon="7.51543">
        <ele>1277.25</ele>
        <time>2019-04-04T13:25:50Z</time>
      </trkpt>
      <trkpt lat="60.1896" lon="7.51543">
        <ele>1275.81</ele>
        <time>2019-04-04T13:25:52Z</time>
      </trkpt>
      <trkpt lat="60.1896" lon="7.51542">
        <ele>1277.25</ele>
        <time>2019-04-04T13:25:55Z</time>
      </trkpt>
      <trkpt lat="60.18959" lon="7.51541">
        <ele>1277.25</ele>
        <time>2019-04-04T13:25:56Z</time>
      </trkpt>
      <trkpt lat="60.18956" lon="7.51503">
        <ele>1277.25</ele>
        <time>2019-04-04T13:26:04Z</time>
      </trkpt>
      <trkpt lat="60.18956" lon="7.51497">
        <ele>1277.25</ele>
        <time>2019-04-04T13:26:07Z</time>
      </trkpt>
      <trkpt lat="60.18951" lon="7.51471">
        <ele>1277.25</ele>
        <time>2019-04-04T13:26:14Z</time>
      </trkpt>
      <trkpt lat="60.18945" lon="7.51461">
        <ele>1275.33</ele>
        <time>2019-04-04T13:26:16Z</time>
      </trkpt>
      <trkpt lat="60.18941" lon="7.51455">
        <ele>1275.33</ele>
        <time>2019-04-04T13:26:17Z</time>
      </trkpt>
      <trkpt lat="60.18934" lon="7.51438">
        <ele>1276.77</ele>
        <time>2019-04-04T13:26:19Z</time>
      </trkpt>
      <trkpt lat="60.1894" lon="7.51399">
        <ele>1276.77</ele>
        <time>2019-04-04T13:26:23Z</time>
      </trkpt>
      <trkpt lat="60.18941" lon="7.51346">
        <ele>1277.73</ele>
        <time>2019-04-04T13:26:29Z</time>
      </trkpt>
      <trkpt lat="60.18918" lon="7.51302">
        <ele>1277.73</ele>
        <time>2019-04-04T13:26:36Z</time>
      </trkpt>
      <trkpt lat="60.18914" lon="7.5129">
        <ele>1277.73</ele>
        <time>2019-04-04T13:26:38Z</time>
      </trkpt>
      <trkpt lat="60.18901" lon="7.51274">
        <ele>1277.73</ele>
        <time>2019-04-04T13:26:41Z</time>
      </trkpt>
      <trkpt lat="60.1889" lon="7.51251">
        <ele>1277.73</ele>
        <time>2019-04-04T13:26:44Z</time>
      </trkpt>
      <trkpt lat="60.1888" lon="7.51205">
        <ele>1278.69</ele>
        <time>2019-04-04T13:26:50Z</time>
      </trkpt>
      <trkpt lat="60.18887" lon="7.51155">
        <ele>1280.61</ele>
        <time>2019-04-04T13:26:55Z</time>
      </trkpt>
      <trkpt lat="60.18888" lon="7.51122">
        <ele>1281.09</ele>
        <time>2019-04-04T13:26:58Z</time>
      </trkpt>
      <trkpt lat="60.18896" lon="7.51055">
        <ele>1282.06</ele>
        <time>2019-04-04T13:27:05Z</time>
      </trkpt>
      <trkpt lat="60.18897" lon="7.50973">
        <ele>1279.65</ele>
        <time>2019-04-04T13:27:13Z</time>
      </trkpt>
      <trkpt lat="60.18869" lon="7.50931">
        <ele>1278.69</ele>
        <time>2019-04-04T13:27:19Z</time>
      </trkpt>
      <trkpt lat="60.18853" lon="7.50893">
        <ele>1278.21</ele>
        <time>2019-04-04T13:27:23Z</time>
      </trkpt>
      <trkpt lat="60.18846" lon="7.50846">
        <ele>1278.21</ele>
        <time>2019-04-04T13:27:29Z</time>
      </trkpt>
      <trkpt lat="60.18858" lon="7.5079">
        <ele>1278.21</ele>
        <time>2019-04-04T13:27:34Z</time>
      </trkpt>
      <trkpt lat="60.18873" lon="7.50758">
        <ele>1278.21</ele>
        <time>2019-04-04T13:27:37Z</time>
      </trkpt>
      <trkpt lat="60.18873" lon="7.50721">
        <ele>1277.73</ele>
        <time>2019-04-04T13:27:41Z</time>
      </trkpt>
      <trkpt lat="60.18844" lon="7.50704">
        <ele>1277.73</ele>
        <time>2019-04-04T13:27:46Z</time>
      </trkpt>
      <trkpt lat="60.18829" lon="7.50682">
        <ele>1279.17</ele>
        <time>2019-04-04T13:27:50Z</time>
      </trkpt>
      <trkpt lat="60.18829" lon="7.50673">
        <ele>1279.17</ele>
        <time>2019-04-04T13:27:51Z</time>
      </trkpt>
      <trkpt lat="60.1883" lon="7.50664">
        <ele>1279.65</ele>
        <time>2019-04-04T13:27:52Z</time>
      </trkpt>
      <trkpt lat="60.18834" lon="7.50646">
        <ele>1280.13</ele>
        <time>2019-04-04T13:27:54Z</time>
      </trkpt>
      <trkpt lat="60.18825" lon="7.50599">
        <ele>1281.09</ele>
        <time>2019-04-04T13:28:00Z</time>
      </trkpt>
      <trkpt lat="60.18809" lon="7.50573">
        <ele>1282.54</ele>
        <time>2019-04-04T13:28:05Z</time>
      </trkpt>
      <trkpt lat="60.18806" lon="7.50513">
        <ele>1283.02</ele>
        <time>2019-04-04T13:28:12Z</time>
      </trkpt>
      <trkpt lat="60.188" lon="7.50499">
        <ele>1283.98</ele>
        <time>2019-04-04T13:28:14Z</time>
      </trkpt>
      <trkpt lat="60.18794" lon="7.50449">
        <ele>1285.42</ele>
        <time>2019-04-04T13:28:20Z</time>
      </trkpt>
      <trkpt lat="60.18796" lon="7.50407">
        <ele>1285.9</ele>
        <time>2019-04-04T13:28:24Z</time>
      </trkpt>
      <trkpt lat="60.18792" lon="7.50392">
        <ele>1286.38</ele>
        <time>2019-04-04T13:28:26Z</time>
      </trkpt>
      <trkpt lat="60.18776" lon="7.5037">
        <ele>1287.34</ele>
        <time>2019-04-04T13:28:30Z</time>
      </trkpt>
      <trkpt lat="60.18766" lon="7.50357">
        <ele>1288.3</ele>
        <time>2019-04-04T13:28:32Z</time>
      </trkpt>
      <trkpt lat="60.18762" lon="7.50348">
        <ele>1288.3</ele>
        <time>2019-04-04T13:28:33Z</time>
      </trkpt>
      <trkpt lat="60.18734" lon="7.50315">
        <ele>1287.82</ele>
        <time>2019-04-04T13:28:38Z</time>
      </trkpt>
      <trkpt lat="60.18713" lon="7.50301">
        <ele>1286.38</ele>
        <time>2019-04-04T13:28:41Z</time>
      </trkpt>
      <trkpt lat="60.18701" lon="7.50295">
        <ele>1285.42</ele>
        <time>2019-04-04T13:28:43Z</time>
      </trkpt>
      <trkpt lat="60.18682" lon="7.50293">
        <ele>1283.98</ele>
        <time>2019-04-04T13:28:46Z</time>
      </trkpt>
      <trkpt lat="60.18676" lon="7.50292">
        <ele>1285.42</ele>
        <time>2019-04-04T13:28:47Z</time>
      </trkpt>
      <trkpt lat="60.18664" lon="7.50262">
        <ele>1283.98</ele>
        <time>2019-04-04T13:28:51Z</time>
      </trkpt>
      <trkpt lat="60.18652" lon="7.50225">
        <ele>1283.98</ele>
        <time>2019-04-04T13:28:56Z</time>
      </trkpt>
      <trkpt lat="60.1865" lon="7.50217">
        <ele>1283.98</ele>
        <time>2019-04-04T13:28:57Z</time>
      </trkpt>
      <trkpt lat="60.18643" lon="7.50197">
        <ele>1285.9</ele>
        <time>2019-04-04T13:29:00Z</time>
      </trkpt>
      <trkpt lat="60.18633" lon="7.50169">
        <ele>1286.86</ele>
        <time>2019-04-04T13:29:04Z</time>
      </trkpt>
      <trkpt lat="60.18621" lon="7.5015">
        <ele>1286.86</ele>
        <time>2019-04-04T13:29:07Z</time>
      </trkpt>
      <trkpt lat="60.18606" lon="7.50112">
        <ele>1286.86</ele>
        <time>2019-04-04T13:29:11Z</time>
      </trkpt>
      <trkpt lat="60.18602" lon="7.50067">
        <ele>1288.78</ele>
        <time>2019-04-04T13:29:16Z</time>
      </trkpt>
      <trkpt lat="60.18607" lon="7.50036">
        <ele>1289.75</ele>
        <time>2019-04-04T13:29:19Z</time>
      </trkpt>
      <trkpt lat="60.18619" lon="7.49992">
        <ele>1292.15</ele>
        <time>2019-04-04T13:29:24Z</time>
      </trkpt>
      <trkpt lat="60.1862" lon="7.49968">
        <ele>1292.15</ele>
        <time>2019-04-04T13:29:26Z</time>
      </trkpt>
      <trkpt lat="60.18627" lon="7.49884">
        <ele>1293.11</ele>
        <time>2019-04-04T13:29:34Z</time>
      </trkpt>
      <trkpt lat="60.18616" lon="7.49851">
        <ele>1293.11</ele>
        <time>2019-04-04T13:29:41Z</time>
      </trkpt>
      <trkpt lat="60.18607" lon="7.49836">
        <ele>1293.11</ele>
        <time>2019-04-04T13:29:43Z</time>
      </trkpt>
      <trkpt lat="60.18595" lon="7.49822">
        <ele>1291.67</ele>
        <time>2019-04-04T13:29:45Z</time>
      </trkpt>
      <trkpt lat="60.18589" lon="7.49816">
        <ele>1293.59</ele>
        <time>2019-04-04T13:29:46Z</time>
      </trkpt>
      <trkpt lat="60.18574" lon="7.49807">
        <ele>1293.59</ele>
        <time>2019-04-04T13:29:48Z</time>
      </trkpt>
      <trkpt lat="60.18561" lon="7.49797">
        <ele>1290.71</ele>
        <time>2019-04-04T13:29:50Z</time>
      </trkpt>
      <trkpt lat="60.18555" lon="7.49791">
        <ele>1290.71</ele>
        <time>2019-04-04T13:29:51Z</time>
      </trkpt>
      <trkpt lat="60.18549" lon="7.49759">
        <ele>1290.23</ele>
        <time>2019-04-04T13:29:56Z</time>
      </trkpt>
      <trkpt lat="60.18545" lon="7.49734">
        <ele>1291.67</ele>
        <time>2019-04-04T13:29:59Z</time>
      </trkpt>
      <trkpt lat="60.18548" lon="7.49713">
        <ele>1292.15</ele>
        <time>2019-04-04T13:30:03Z</time>
      </trkpt>
      <trkpt lat="60.1855" lon="7.49694">
        <ele>1292.15</ele>
        <time>2019-04-04T13:30:07Z</time>
      </trkpt>
      <trkpt lat="60.1854" lon="7.49659">
        <ele>1288.78</ele>
        <time>2019-04-04T13:30:11Z</time>
      </trkpt>
      <trkpt lat="60.18535" lon="7.49653">
        <ele>1288.78</ele>
        <time>2019-04-04T13:30:12Z</time>
      </trkpt>
      <trkpt lat="60.18519" lon="7.49637">
        <ele>1286.38</ele>
        <time>2019-04-04T13:30:15Z</time>
      </trkpt>
      <trkpt lat="60.18501" lon="7.49623">
        <ele>1284.46</ele>
        <time>2019-04-04T13:30:18Z</time>
      </trkpt>
      <trkpt lat="60.18456" lon="7.49595">
        <ele>1282.54</ele>
        <time>2019-04-04T13:30:26Z</time>
      </trkpt>
      <trkpt lat="60.18452" lon="7.4955">
        <ele>1282.54</ele>
        <time>2019-04-04T13:30:31Z</time>
      </trkpt>
      <trkpt lat="60.18439" lon="7.49514">
        <ele>1283.5</ele>
        <time>2019-04-04T13:30:36Z</time>
      </trkpt>
      <trkpt lat="60.18434" lon="7.49463">
        <ele>1283.5</ele>
        <time>2019-04-04T13:30:41Z</time>
      </trkpt>
      <trkpt lat="60.18435" lon="7.49454">
        <ele>1283.98</ele>
        <time>2019-04-04T13:30:42Z</time>
      </trkpt>
      <trkpt lat="60.18431" lon="7.49413">
        <ele>1283.02</ele>
        <time>2019-04-04T13:30:47Z</time>
      </trkpt>
      <trkpt lat="60.18423" lon="7.49379">
        <ele>1283.02</ele>
        <time>2019-04-04T13:30:51Z</time>
      </trkpt>
      <trkpt lat="60.18415" lon="7.49351">
        <ele>1281.57</ele>
        <time>2019-04-04T13:30:54Z</time>
      </trkpt>
      <trkpt lat="60.18409" lon="7.49327">
        <ele>1281.09</ele>
        <time>2019-04-04T13:30:57Z</time>
      </trkpt>
      <trkpt lat="60.1841" lon="7.49289">
        <ele>1281.09</ele>
        <time>2019-04-04T13:31:02Z</time>
      </trkpt>
      <trkpt lat="60.18422" lon="7.49235">
        <ele>1278.21</ele>
        <time>2019-04-04T13:31:07Z</time>
      </trkpt>
      <trkpt lat="60.18439" lon="7.49183">
        <ele>1275.33</ele>
        <time>2019-04-04T13:31:11Z</time>
      </trkpt>
      <trkpt lat="60.18458" lon="7.49108">
        <ele>1273.88</ele>
        <time>2019-04-04T13:31:17Z</time>
      </trkpt>
      <trkpt lat="60.1846" lon="7.49094">
        <ele>1273.4</ele>
        <time>2019-04-04T13:31:18Z</time>
      </trkpt>
      <trkpt lat="60.1846" lon="7.4908">
        <ele>1272.44</ele>
        <time>2019-04-04T13:31:19Z</time>
      </trkpt>
      <trkpt lat="60.18459" lon="7.49064">
        <ele>1271.48</ele>
        <time>2019-04-04T13:31:20Z</time>
      </trkpt>
      <trkpt lat="60.1846" lon="7.49048">
        <ele>1271</ele>
        <time>2019-04-04T13:31:21Z</time>
      </trkpt>
      <trkpt lat="60.18478" lon="7.48906">
        <ele>1266.67</ele>
        <time>2019-04-04T13:31:29Z</time>
      </trkpt>
      <trkpt lat="60.18481" lon="7.48887">
        <ele>1265.71</ele>
        <time>2019-04-04T13:31:30Z</time>
      </trkpt>
      <trkpt lat="60.18488" lon="7.48854">
        <ele>1265.23</ele>
        <time>2019-04-04T13:31:32Z</time>
      </trkpt>
      <trkpt lat="60.18499" lon="7.48812">
        <ele>1265.23</ele>
        <time>2019-04-04T13:31:35Z</time>
      </trkpt>
      <trkpt lat="60.18499" lon="7.48764">
        <ele>1263.31</ele>
        <time>2019-04-04T13:31:39Z</time>
      </trkpt>
      <trkpt lat="60.18499" lon="7.48708">
        <ele>1261.39</ele>
        <time>2019-04-04T13:31:43Z</time>
      </trkpt>
      <trkpt lat="60.18499" lon="7.48676">
        <ele>1259.94</ele>
        <time>2019-04-04T13:31:45Z</time>
      </trkpt>
      <trkpt lat="60.18518" lon="7.4855">
        <ele>1258.02</ele>
        <time>2019-04-04T13:31:52Z</time>
      </trkpt>
      <trkpt lat="60.18545" lon="7.48465">
        <ele>1261.87</ele>
        <time>2019-04-04T13:31:58Z</time>
      </trkpt>
      <trkpt lat="60.18548" lon="7.48448">
        <ele>1262.83</ele>
        <time>2019-04-04T13:32:00Z</time>
      </trkpt>
      <trkpt lat="60.18548" lon="7.48443">
        <ele>1263.79</ele>
        <time>2019-04-04T13:32:01Z</time>
      </trkpt>
      <trkpt lat="60.18546" lon="7.48432">
        <ele>1263.79</ele>
        <time>2019-04-04T13:32:05Z</time>
      </trkpt>
      <trkpt lat="60.18545" lon="7.4843">
        <ele>1263.79</ele>
        <time>2019-04-04T13:32:06Z</time>
      </trkpt>
      <trkpt lat="60.18541" lon="7.48413">
        <ele>1261.87</ele>
        <time>2019-04-04T13:32:10Z</time>
      </trkpt>
      <trkpt lat="60.18541" lon="7.48406">
        <ele>1261.87</ele>
        <time>2019-04-04T13:32:11Z</time>
      </trkpt>
      <trkpt lat="60.18544" lon="7.4839">
        <ele>1261.39</ele>
        <time>2019-04-04T13:32:13Z</time>
      </trkpt>
      <trkpt lat="60.18562" lon="7.48346">
        <ele>1260.43</ele>
        <time>2019-04-04T13:32:19Z</time>
      </trkpt>
      <trkpt lat="60.18569" lon="7.48305">
        <ele>1259.94</ele>
        <time>2019-04-04T13:32:24Z</time>
      </trkpt>
      <trkpt lat="60.18543" lon="7.48281">
        <ele>1257.54</ele>
        <time>2019-04-04T13:32:29Z</time>
      </trkpt>
      <trkpt lat="60.18538" lon="7.48285">
        <ele>1256.58</ele>
        <time>2019-04-04T13:32:30Z</time>
      </trkpt>
      <trkpt lat="60.18519" lon="7.48283">
        <ele>1254.66</ele>
        <time>2019-04-04T13:32:34Z</time>
      </trkpt>
      <trkpt lat="60.1851" lon="7.48233">
        <ele>1253.22</ele>
        <time>2019-04-04T13:32:39Z</time>
      </trkpt>
      <trkpt lat="60.18489" lon="7.48226">
        <ele>1250.81</ele>
        <time>2019-04-04T13:32:44Z</time>
      </trkpt>
      <trkpt lat="60.18482" lon="7.48223">
        <ele>1250.33</ele>
        <time>2019-04-04T13:32:46Z</time>
      </trkpt>
      <trkpt lat="60.18467" lon="7.48199">
        <ele>1248.89</ele>
        <time>2019-04-04T13:32:57Z</time>
      </trkpt>
      <trkpt lat="60.18465" lon="7.48197">
        <ele>1248.89</ele>
        <time>2019-04-04T13:32:58Z</time>
      </trkpt>
      <trkpt lat="60.18459" lon="7.48196">
        <ele>1248.41</ele>
        <time>2019-04-04T13:33:08Z</time>
      </trkpt>
      <trkpt lat="60.18457" lon="7.48195">
        <ele>1249.37</ele>
        <time>2019-04-04T13:33:22Z</time>
      </trkpt>
      <trkpt lat="60.18453" lon="7.48187">
        <ele>1248.89</ele>
        <time>2019-04-04T13:33:33Z</time>
      </trkpt>
      <trkpt lat="60.18452" lon="7.48186">
        <ele>1248.89</ele>
        <time>2019-04-04T13:33:34Z</time>
      </trkpt>
      <trkpt lat="60.18451" lon="7.48182">
        <ele>1249.37</ele>
        <time>2019-04-04T13:33:44Z</time>
      </trkpt>
      <trkpt lat="60.18451" lon="7.48176">
        <ele>1248.41</ele>
        <time>2019-04-04T13:33:50Z</time>
      </trkpt>
      <trkpt lat="60.18456" lon="7.4814">
        <ele>1246.49</ele>
        <time>2019-04-04T13:33:56Z</time>
      </trkpt>
      <trkpt lat="60.1846" lon="7.48134">
        <ele>1246.01</ele>
        <time>2019-04-04T13:33:57Z</time>
      </trkpt>
      <trkpt lat="60.18465" lon="7.4813">
        <ele>1246.01</ele>
        <time>2019-04-04T13:33:58Z</time>
      </trkpt>
      <trkpt lat="60.18479" lon="7.48119">
        <ele>1247.93</ele>
        <time>2019-04-04T13:34:00Z</time>
      </trkpt>
      <trkpt lat="60.18496" lon="7.48101">
        <ele>1248.41</ele>
        <time>2019-04-04T13:34:02Z</time>
      </trkpt>
      <trkpt lat="60.18564" lon="7.47989">
        <ele>1250.33</ele>
        <time>2019-04-04T13:34:10Z</time>
      </trkpt>
      <trkpt lat="60.18627" lon="7.47898">
        <ele>1254.18</ele>
        <time>2019-04-04T13:34:18Z</time>
      </trkpt>
      <trkpt lat="60.18641" lon="7.47879">
        <ele>1254.66</ele>
        <time>2019-04-04T13:34:20Z</time>
      </trkpt>
      <trkpt lat="60.18677" lon="7.47816">
        <ele>1249.85</ele>
        <time>2019-04-04T13:34:25Z</time>
      </trkpt>
      <trkpt lat="60.18684" lon="7.47801">
        <ele>1249.37</ele>
        <time>2019-04-04T13:34:26Z</time>
      </trkpt>
      <trkpt lat="60.18707" lon="7.47754">
        <ele>1250.81</ele>
        <time>2019-04-04T13:34:29Z</time>
      </trkpt>
      <trkpt lat="60.18752" lon="7.47688">
        <ele>1248.41</ele>
        <time>2019-04-04T13:34:34Z</time>
      </trkpt>
      <trkpt lat="60.18822" lon="7.47601">
        <ele>1249.85</ele>
        <time>2019-04-04T13:34:42Z</time>
      </trkpt>
      <trkpt lat="60.18839" lon="7.47582">
        <ele>1251.29</ele>
        <time>2019-04-04T13:34:44Z</time>
      </trkpt>
      <trkpt lat="60.18888" lon="7.47541">
        <ele>1254.66</ele>
        <time>2019-04-04T13:34:50Z</time>
      </trkpt>
      <trkpt lat="60.18896" lon="7.47535">
        <ele>1255.14</ele>
        <time>2019-04-04T13:34:51Z</time>
      </trkpt>
      <trkpt lat="60.1892" lon="7.47498">
        <ele>1256.1</ele>
        <time>2019-04-04T13:34:56Z</time>
      </trkpt>
      <trkpt lat="60.18969" lon="7.47434">
        <ele>1258.02</ele>
        <time>2019-04-04T13:35:03Z</time>
      </trkpt>
      <trkpt lat="60.18978" lon="7.47427">
        <ele>1258.02</ele>
        <time>2019-04-04T13:35:04Z</time>
      </trkpt>
      <trkpt lat="60.18995" lon="7.47414">
        <ele>1258.02</ele>
        <time>2019-04-04T13:35:07Z</time>
      </trkpt>
      <trkpt lat="60.19" lon="7.47403">
        <ele>1256.1</ele>
        <time>2019-04-04T13:35:10Z</time>
      </trkpt>
      <trkpt lat="60.18997" lon="7.47405">
        <ele>1255.14</ele>
        <time>2019-04-04T13:35:12Z</time>
      </trkpt>
      <trkpt lat="60.18991" lon="7.47412">
        <ele>1255.14</ele>
        <time>2019-04-04T13:35:14Z</time>
      </trkpt>
      <trkpt lat="60.18974" lon="7.47458">
        <ele>1257.06</ele>
        <time>2019-04-04T13:35:21Z</time>
      </trkpt>
      <trkpt lat="60.18972" lon="7.47464">
        <ele>1254.18</ele>
        <time>2019-04-04T13:35:22Z</time>
      </trkpt>
      <trkpt lat="60.18964" lon="7.47483">
        <ele>1256.58</ele>
        <time>2019-04-04T13:35:25Z</time>
      </trkpt>
      <trkpt lat="60.18951" lon="7.47518">
        <ele>1257.54</ele>
        <time>2019-04-04T13:35:29Z</time>
      </trkpt>
      <trkpt lat="60.18944" lon="7.47534">
        <ele>1255.14</ele>
        <time>2019-04-04T13:35:31Z</time>
      </trkpt>
      <trkpt lat="60.18919" lon="7.47588">
        <ele>1256.58</ele>
        <time>2019-04-04T13:35:37Z</time>
      </trkpt>
      <trkpt lat="60.18911" lon="7.47609">
        <ele>1257.06</ele>
        <time>2019-04-04T13:35:39Z</time>
      </trkpt>
      <trkpt lat="60.18898" lon="7.47636">
        <ele>1257.06</ele>
        <time>2019-04-04T13:35:42Z</time>
      </trkpt>
      <trkpt lat="60.18882" lon="7.47668">
        <ele>1253.7</ele>
        <time>2019-04-04T13:35:45Z</time>
      </trkpt>
      <trkpt lat="60.1887" lon="7.47689">
        <ele>1253.7</ele>
        <time>2019-04-04T13:35:47Z</time>
      </trkpt>
      <trkpt lat="60.18852" lon="7.47716">
        <ele>1257.06</ele>
        <time>2019-04-04T13:35:50Z</time>
      </trkpt>
      <trkpt lat="60.18847" lon="7.47726">
        <ele>1257.06</ele>
        <time>2019-04-04T13:35:51Z</time>
      </trkpt>
      <trkpt lat="60.18837" lon="7.47744">
        <ele>1253.7</ele>
        <time>2019-04-04T13:35:53Z</time>
      </trkpt>
      <trkpt lat="60.18833" lon="7.47752">
        <ele>1253.7</ele>
        <time>2019-04-04T13:35:54Z</time>
      </trkpt>
      <trkpt lat="60.18824" lon="7.47767">
        <ele>1255.62</ele>
        <time>2019-04-04T13:35:56Z</time>
      </trkpt>
      <trkpt lat="60.18809" lon="7.47794">
        <ele>1257.54</ele>
        <time>2019-04-04T13:35:59Z</time>
      </trkpt>
      <trkpt lat="60.18805" lon="7.47803">
        <ele>1257.54</ele>
        <time>2019-04-04T13:36:00Z</time>
      </trkpt>
      <trkpt lat="60.18799" lon="7.47822">
        <ele>1258.5</ele>
        <time>2019-04-04T13:36:02Z</time>
      </trkpt>
      <trkpt lat="60.18793" lon="7.47848">
        <ele>1259.46</ele>
        <time>2019-04-04T13:36:06Z</time>
      </trkpt>
      <trkpt lat="60.18792" lon="7.47838">
        <ele>1260.43</ele>
        <time>2019-04-04T13:36:10Z</time>
      </trkpt>
      <trkpt lat="60.18803" lon="7.47831">
        <ele>1262.35</ele>
        <time>2019-04-04T13:36:12Z</time>
      </trkpt>
      <trkpt lat="60.18826" lon="7.47819">
        <ele>1263.31</ele>
        <time>2019-04-04T13:36:15Z</time>
      </trkpt>
      <trkpt lat="60.18842" lon="7.47809">
        <ele>1264.27</ele>
        <time>2019-04-04T13:36:17Z</time>
      </trkpt>
      <trkpt lat="60.18917" lon="7.47766">
        <ele>1266.19</ele>
        <time>2019-04-04T13:36:26Z</time>
      </trkpt>
      <trkpt lat="60.18949" lon="7.47748">
        <ele>1269.56</ele>
        <time>2019-04-04T13:36:31Z</time>
      </trkpt>
      <trkpt lat="60.18955" lon="7.47745">
        <ele>1270.52</ele>
        <time>2019-04-04T13:36:32Z</time>
      </trkpt>
      <trkpt lat="60.19029" lon="7.47723">
        <ele>1272.92</ele>
        <time>2019-04-04T13:36:42Z</time>
      </trkpt>
      <trkpt lat="60.19062" lon="7.47714">
        <ele>1276.29</ele>
        <time>2019-04-04T13:36:47Z</time>
      </trkpt>
      <trkpt lat="60.19085" lon="7.47708">
        <ele>1280.13</ele>
        <time>2019-04-04T13:36:52Z</time>
      </trkpt>
      <trkpt lat="60.19107" lon="7.47699">
        <ele>1283.02</ele>
        <time>2019-04-04T13:36:56Z</time>
      </trkpt>
      <trkpt lat="60.19118" lon="7.47694">
        <ele>1283.5</ele>
        <time>2019-04-04T13:36:58Z</time>
      </trkpt>
      <trkpt lat="60.1916" lon="7.47678">
        <ele>1287.34</ele>
        <time>2019-04-04T13:37:04Z</time>
      </trkpt>
      <trkpt lat="60.19167" lon="7.47676">
        <ele>1287.82</ele>
        <time>2019-04-04T13:37:05Z</time>
      </trkpt>
      <trkpt lat="60.19181" lon="7.47673">
        <ele>1288.78</ele>
        <time>2019-04-04T13:37:07Z</time>
      </trkpt>
      <trkpt lat="60.19253" lon="7.4766">
        <ele>1291.19</ele>
        <time>2019-04-04T13:37:17Z</time>
      </trkpt>
      <trkpt lat="60.19329" lon="7.47622">
        <ele>1292.15</ele>
        <time>2019-04-04T13:37:26Z</time>
      </trkpt>
      <trkpt lat="60.19338" lon="7.47614">
        <ele>1292.15</ele>
        <time>2019-04-04T13:37:27Z</time>
      </trkpt>
      <trkpt lat="60.19372" lon="7.47593">
        <ele>1292.15</ele>
        <time>2019-04-04T13:37:31Z</time>
      </trkpt>
      <trkpt lat="60.19421" lon="7.47575">
        <ele>1294.07</ele>
        <time>2019-04-04T13:37:37Z</time>
      </trkpt>
      <trkpt lat="60.19428" lon="7.47572">
        <ele>1294.07</ele>
        <time>2019-04-04T13:37:38Z</time>
      </trkpt>
      <trkpt lat="60.19434" lon="7.47547">
        <ele>1290.23</ele>
        <time>2019-04-04T13:37:41Z</time>
      </trkpt>
      <trkpt lat="60.19415" lon="7.47541">
        <ele>1289.27</ele>
        <time>2019-04-04T13:37:44Z</time>
      </trkpt>
      <trkpt lat="60.19408" lon="7.47543">
        <ele>1288.3</ele>
        <time>2019-04-04T13:37:45Z</time>
      </trkpt>
      <trkpt lat="60.19392" lon="7.47551">
        <ele>1287.34</ele>
        <time>2019-04-04T13:37:47Z</time>
      </trkpt>
      <trkpt lat="60.19354" lon="7.47578">
        <ele>1288.3</ele>
        <time>2019-04-04T13:37:52Z</time>
      </trkpt>
      <trkpt lat="60.19348" lon="7.47581">
        <ele>1288.3</ele>
        <time>2019-04-04T13:37:53Z</time>
      </trkpt>
      <trkpt lat="60.19329" lon="7.47595">
        <ele>1285.42</ele>
        <time>2019-04-04T13:37:56Z</time>
      </trkpt>
      <trkpt lat="60.19286" lon="7.47637">
        <ele>1285.9</ele>
        <time>2019-04-04T13:38:03Z</time>
      </trkpt>
      <trkpt lat="60.19244" lon="7.47676">
        <ele>1288.78</ele>
        <time>2019-04-04T13:38:10Z</time>
      </trkpt>
      <trkpt lat="60.19232" lon="7.47684">
        <ele>1289.27</ele>
        <time>2019-04-04T13:38:12Z</time>
      </trkpt>
      <trkpt lat="60.192" lon="7.47711">
        <ele>1291.67</ele>
        <time>2019-04-04T13:38:18Z</time>
      </trkpt>
      <trkpt lat="60.19174" lon="7.4773">
        <ele>1293.11</ele>
        <time>2019-04-04T13:38:23Z</time>
      </trkpt>
      <trkpt lat="60.19163" lon="7.47739">
        <ele>1291.19</ele>
        <time>2019-04-04T13:38:26Z</time>
      </trkpt>
      <trkpt lat="60.19149" lon="7.47752">
        <ele>1293.11</ele>
        <time>2019-04-04T13:38:33Z</time>
      </trkpt>
      <trkpt lat="60.19139" lon="7.47761">
        <ele>1292.63</ele>
        <time>2019-04-04T13:38:42Z</time>
      </trkpt>
      <trkpt lat="60.19133" lon="7.47761">
        <ele>1291.67</ele>
        <time>2019-04-04T13:38:54Z</time>
      </trkpt>
      <trkpt lat="60.19133" lon="7.47761">
        <ele>1291.19</ele>
        <time>2019-04-04T13:38:56Z</time>
      </trkpt>
      <trkpt lat="60.19127" lon="7.47759">
        <ele>1289.75</ele>
        <time>2019-04-04T13:39:06Z</time>
      </trkpt>
      <trkpt lat="60.19127" lon="7.47759">
        <ele>1289.75</ele>
        <time>2019-04-04T13:39:25Z</time>
      </trkpt>
      <trkpt lat="60.19127" lon="7.47759">
        <ele>1289.75</ele>
        <time>2019-04-04T13:39:42Z</time>
      </trkpt>
      <trkpt lat="60.19127" lon="7.47759">
        <ele>1289.75</ele>
        <time>2019-04-04T13:40:03Z</time>
      </trkpt>
      <trkpt lat="60.19127" lon="7.47759">
        <ele>1289.75</ele>
        <time>2019-04-04T13:40:26Z</time>
      </trkpt>
      <trkpt lat="60.19127" lon="7.47759">
        <ele>1292.63</ele>
        <time>2019-04-04T13:40:35Z</time>
      </trkpt>
      <trkpt lat="60.19124" lon="7.47758">
        <ele>1290.71</ele>
        <time>2019-04-04T13:40:37Z</time>
      </trkpt>
      <trkpt lat="60.19106" lon="7.47756">
        <ele>1287.34</ele>
        <time>2019-04-04T13:40:42Z</time>
      </trkpt>
      <trkpt lat="60.19092" lon="7.47757">
        <ele>1284.94</ele>
        <time>2019-04-04T13:40:46Z</time>
      </trkpt>
      <trkpt lat="60.1907" lon="7.47768">
        <ele>1282.54</ele>
        <time>2019-04-04T13:40:50Z</time>
      </trkpt>
      <trkpt lat="60.19044" lon="7.47777">
        <ele>1278.21</ele>
        <time>2019-04-04T13:40:53Z</time>
      </trkpt>
      <trkpt lat="60.19013" lon="7.478">
        <ele>1274.85</ele>
        <time>2019-04-04T13:40:57Z</time>
      </trkpt>
      <trkpt lat="60.18999" lon="7.47811">
        <ele>1272.44</ele>
        <time>2019-04-04T13:40:59Z</time>
      </trkpt>
      <trkpt lat="60.18962" lon="7.47826">
        <ele>1271</ele>
        <time>2019-04-04T13:41:04Z</time>
      </trkpt>
      <trkpt lat="60.18932" lon="7.47858">
        <ele>1271.96</ele>
        <time>2019-04-04T13:41:09Z</time>
      </trkpt>
      <trkpt lat="60.1892" lon="7.47873">
        <ele>1273.4</ele>
        <time>2019-04-04T13:41:11Z</time>
      </trkpt>
      <trkpt lat="60.18897" lon="7.47904">
        <ele>1273.88</ele>
        <time>2019-04-04T13:41:15Z</time>
      </trkpt>
      <trkpt lat="60.18887" lon="7.47918">
        <ele>1275.81</ele>
        <time>2019-04-04T13:41:17Z</time>
      </trkpt>
      <trkpt lat="60.18865" lon="7.47955">
        <ele>1275.33</ele>
        <time>2019-04-04T13:41:23Z</time>
      </trkpt>
      <trkpt lat="60.18859" lon="7.47964">
        <ele>1277.25</ele>
        <time>2019-04-04T13:41:25Z</time>
      </trkpt>
      <trkpt lat="60.18851" lon="7.4798">
        <ele>1277.73</ele>
        <time>2019-04-04T13:41:28Z</time>
      </trkpt>
      <trkpt lat="60.18827" lon="7.48018">
        <ele>1275.33</ele>
        <time>2019-04-04T13:41:34Z</time>
      </trkpt>
      <trkpt lat="60.18818" lon="7.48044">
        <ele>1271.48</ele>
        <time>2019-04-04T13:41:37Z</time>
      </trkpt>
      <trkpt lat="60.18804" lon="7.4808">
        <ele>1274.36</ele>
        <time>2019-04-04T13:41:41Z</time>
      </trkpt>
      <trkpt lat="60.18792" lon="7.48104">
        <ele>1273.4</ele>
        <time>2019-04-04T13:41:44Z</time>
      </trkpt>
      <trkpt lat="60.18782" lon="7.48119">
        <ele>1272.44</ele>
        <time>2019-04-04T13:41:46Z</time>
      </trkpt>
      <trkpt lat="60.18751" lon="7.48154">
        <ele>1271</ele>
        <time>2019-04-04T13:41:51Z</time>
      </trkpt>
      <trkpt lat="60.18737" lon="7.48166">
        <ele>1271.96</ele>
        <time>2019-04-04T13:41:53Z</time>
      </trkpt>
      <trkpt lat="60.18724" lon="7.48179">
        <ele>1270.52</ele>
        <time>2019-04-04T13:41:55Z</time>
      </trkpt>
      <trkpt lat="60.18684" lon="7.48221">
        <ele>1268.6</ele>
        <time>2019-04-04T13:42:02Z</time>
      </trkpt>
      <trkpt lat="60.1867" lon="7.48243">
        <ele>1266.67</ele>
        <time>2019-04-04T13:42:05Z</time>
      </trkpt>
      <trkpt lat="60.18654" lon="7.48267">
        <ele>1268.6</ele>
        <time>2019-04-04T13:42:08Z</time>
      </trkpt>
      <trkpt lat="60.18631" lon="7.48306">
        <ele>1267.16</ele>
        <time>2019-04-04T13:42:12Z</time>
      </trkpt>
      <trkpt lat="60.18622" lon="7.48325">
        <ele>1265.23</ele>
        <time>2019-04-04T13:42:14Z</time>
      </trkpt>
      <trkpt lat="60.18609" lon="7.48357">
        <ele>1263.79</ele>
        <time>2019-04-04T13:42:17Z</time>
      </trkpt>
      <trkpt lat="60.186" lon="7.48378">
        <ele>1262.83</ele>
        <time>2019-04-04T13:42:19Z</time>
      </trkpt>
      <trkpt lat="60.18591" lon="7.48395">
        <ele>1265.23</ele>
        <time>2019-04-04T13:42:21Z</time>
      </trkpt>
      <trkpt lat="60.18579" lon="7.48418">
        <ele>1264.27</ele>
        <time>2019-04-04T13:42:24Z</time>
      </trkpt>
      <trkpt lat="60.18568" lon="7.48431">
        <ele>1263.31</ele>
        <time>2019-04-04T13:42:26Z</time>
      </trkpt>
      <trkpt lat="60.18558" lon="7.48441">
        <ele>1265.23</ele>
        <time>2019-04-04T13:42:28Z</time>
      </trkpt>
      <trkpt lat="60.1855" lon="7.48453">
        <ele>1260.43</ele>
        <time>2019-04-04T13:42:30Z</time>
      </trkpt>
      <trkpt lat="60.18546" lon="7.4846">
        <ele>1260.43</ele>
        <time>2019-04-04T13:42:31Z</time>
      </trkpt>
      <trkpt lat="60.18542" lon="7.48468">
        <ele>1260.43</ele>
        <time>2019-04-04T13:42:32Z</time>
      </trkpt>
      <trkpt lat="60.18525" lon="7.48499">
        <ele>1255.62</ele>
        <time>2019-04-04T13:42:35Z</time>
      </trkpt>
      <trkpt lat="60.1852" lon="7.48509">
        <ele>1258.98</ele>
        <time>2019-04-04T13:42:36Z</time>
      </trkpt>
      <trkpt lat="60.18497" lon="7.48545">
        <ele>1254.66</ele>
        <time>2019-04-04T13:42:39Z</time>
      </trkpt>
      <trkpt lat="60.18482" lon="7.48568">
        <ele>1253.7</ele>
        <time>2019-04-04T13:42:41Z</time>
      </trkpt>
      <trkpt lat="60.18468" lon="7.48586">
        <ele>1255.62</ele>
        <time>2019-04-04T13:42:43Z</time>
      </trkpt>
      <trkpt lat="60.18439" lon="7.48625">
        <ele>1258.5</ele>
        <time>2019-04-04T13:42:48Z</time>
      </trkpt>
      <trkpt lat="60.18427" lon="7.48639">
        <ele>1260.43</ele>
        <time>2019-04-04T13:42:50Z</time>
      </trkpt>
      <trkpt lat="60.18408" lon="7.48657">
        <ele>1260.43</ele>
        <time>2019-04-04T13:42:53Z</time>
      </trkpt>
      <trkpt lat="60.18379" lon="7.48679">
        <ele>1258.02</ele>
        <time>2019-04-04T13:42:57Z</time>
      </trkpt>
      <trkpt lat="60.18364" lon="7.4869">
        <ele>1257.06</ele>
        <time>2019-04-04T13:42:59Z</time>
      </trkpt>
      <trkpt lat="60.18331" lon="7.48716">
        <ele>1258.02</ele>
        <time>2019-04-04T13:43:04Z</time>
      </trkpt>
      <trkpt lat="60.18314" lon="7.48733">
        <ele>1254.18</ele>
        <time>2019-04-04T13:43:07Z</time>
      </trkpt>
      <trkpt lat="60.18309" lon="7.48741">
        <ele>1254.18</ele>
        <time>2019-04-04T13:43:08Z</time>
      </trkpt>
      <trkpt lat="60.18299" lon="7.48758">
        <ele>1253.7</ele>
        <time>2019-04-04T13:43:10Z</time>
      </trkpt>
      <trkpt lat="60.18256" lon="7.48853">
        <ele>1248.41</ele>
        <time>2019-04-04T13:43:19Z</time>
      </trkpt>
      <trkpt lat="60.18251" lon="7.48863">
        <ele>1248.41</ele>
        <time>2019-04-04T13:43:20Z</time>
      </trkpt>
      <trkpt lat="60.18224" lon="7.48919">
        <ele>1250.81</ele>
        <time>2019-04-04T13:43:25Z</time>
      </trkpt>
      <trkpt lat="60.18212" lon="7.4894">
        <ele>1251.77</ele>
        <time>2019-04-04T13:43:27Z</time>
      </trkpt>
      <trkpt lat="60.18189" lon="7.48976">
        <ele>1250.33</ele>
        <time>2019-04-04T13:43:31Z</time>
      </trkpt>
      <trkpt lat="60.18167" lon="7.49013">
        <ele>1248.41</ele>
        <time>2019-04-04T13:43:35Z</time>
      </trkpt>
      <trkpt lat="60.18155" lon="7.49032">
        <ele>1250.81</ele>
        <time>2019-04-04T13:43:37Z</time>
      </trkpt>
      <trkpt lat="60.1815" lon="7.49042">
        <ele>1250.81</ele>
        <time>2019-04-04T13:43:38Z</time>
      </trkpt>
      <trkpt lat="60.18107" lon="7.4911">
        <ele>1249.85</ele>
        <time>2019-04-04T13:43:45Z</time>
      </trkpt>
      <trkpt lat="60.18076" lon="7.49169">
        <ele>1251.77</ele>
        <time>2019-04-04T13:43:51Z</time>
      </trkpt>
      <trkpt lat="60.18071" lon="7.49178">
        <ele>1251.77</ele>
        <time>2019-04-04T13:43:52Z</time>
      </trkpt>
      <trkpt lat="60.18067" lon="7.49187">
        <ele>1251.77</ele>
        <time>2019-04-04T13:43:53Z</time>
      </trkpt>
      <trkpt lat="60.18056" lon="7.49213">
        <ele>1250.81</ele>
        <time>2019-04-04T13:43:56Z</time>
      </trkpt>
      <trkpt lat="60.18005" lon="7.49304">
        <ele>1247.45</ele>
        <time>2019-04-04T13:44:06Z</time>
      </trkpt>
      <trkpt lat="60.18" lon="7.49314">
        <ele>1247.45</ele>
        <time>2019-04-04T13:44:07Z</time>
      </trkpt>
      <trkpt lat="60.17932" lon="7.49405">
        <ele>1245.04</ele>
        <time>2019-04-04T13:44:17Z</time>
      </trkpt>
      <trkpt lat="60.17889" lon="7.49453">
        <ele>1246.01</ele>
        <time>2019-04-04T13:44:23Z</time>
      </trkpt>
      <trkpt lat="60.17876" lon="7.4947">
        <ele>1245.04</ele>
        <time>2019-04-04T13:44:25Z</time>
      </trkpt>
      <trkpt lat="60.17869" lon="7.49478">
        <ele>1245.04</ele>
        <time>2019-04-04T13:44:26Z</time>
      </trkpt>
      <trkpt lat="60.17835" lon="7.49533">
        <ele>1243.12</ele>
        <time>2019-04-04T13:44:32Z</time>
      </trkpt>
      <trkpt lat="60.17814" lon="7.49568">
        <ele>1245.53</ele>
        <time>2019-04-04T13:44:36Z</time>
      </trkpt>
      <trkpt lat="60.17787" lon="7.49618">
        <ele>1244.08</ele>
        <time>2019-04-04T13:44:42Z</time>
      </trkpt>
      <trkpt lat="60.17781" lon="7.49626">
        <ele>1244.08</ele>
        <time>2019-04-04T13:44:43Z</time>
      </trkpt>
      <trkpt lat="60.17759" lon="7.49658">
        <ele>1244.56</ele>
        <time>2019-04-04T13:44:47Z</time>
      </trkpt>
      <trkpt lat="60.17746" lon="7.49675">
        <ele>1243.12</ele>
        <time>2019-04-04T13:44:49Z</time>
      </trkpt>
      <trkpt lat="60.17734" lon="7.49693">
        <ele>1246.49</ele>
        <time>2019-04-04T13:44:51Z</time>
      </trkpt>
      <trkpt lat="60.17728" lon="7.49703">
        <ele>1246.49</ele>
        <time>2019-04-04T13:44:52Z</time>
      </trkpt>
      <trkpt lat="60.17673" lon="7.49798">
        <ele>1246.01</ele>
        <time>2019-04-04T13:45:02Z</time>
      </trkpt>
      <trkpt lat="60.17639" lon="7.49871">
        <ele>1246.97</ele>
        <time>2019-04-04T13:45:09Z</time>
      </trkpt>
      <trkpt lat="60.17627" lon="7.49892">
        <ele>1242.64</ele>
        <time>2019-04-04T13:45:11Z</time>
      </trkpt>
      <trkpt lat="60.17595" lon="7.49938">
        <ele>1246.97</ele>
        <time>2019-04-04T13:45:16Z</time>
      </trkpt>
      <trkpt lat="60.17584" lon="7.49955">
        <ele>1247.45</ele>
        <time>2019-04-04T13:45:18Z</time>
      </trkpt>
      <trkpt lat="60.17567" lon="7.49981">
        <ele>1248.89</ele>
        <time>2019-04-04T13:45:21Z</time>
      </trkpt>
      <trkpt lat="60.1753" lon="7.50042">
        <ele>1251.29</ele>
        <time>2019-04-04T13:45:28Z</time>
      </trkpt>
      <trkpt lat="60.17483" lon="7.50154">
        <ele>1251.29</ele>
        <time>2019-04-04T13:45:39Z</time>
      </trkpt>
      <trkpt lat="60.17467" lon="7.50194">
        <ele>1248.89</ele>
        <time>2019-04-04T13:45:43Z</time>
      </trkpt>
      <trkpt lat="60.17431" lon="7.50303">
        <ele>1246.49</ele>
        <time>2019-04-04T13:45:53Z</time>
      </trkpt>
      <trkpt lat="60.17421" lon="7.5034">
        <ele>1245.53</ele>
        <time>2019-04-04T13:45:56Z</time>
      </trkpt>
      <trkpt lat="60.1741" lon="7.50371">
        <ele>1242.64</ele>
        <time>2019-04-04T13:45:59Z</time>
      </trkpt>
      <trkpt lat="60.17392" lon="7.50406">
        <ele>1246.49</ele>
        <time>2019-04-04T13:46:03Z</time>
      </trkpt>
      <trkpt lat="60.1738" lon="7.50435">
        <ele>1246.49</ele>
        <time>2019-04-04T13:46:06Z</time>
      </trkpt>
      <trkpt lat="60.17372" lon="7.50452">
        <ele>1244.56</ele>
        <time>2019-04-04T13:46:08Z</time>
      </trkpt>
      <trkpt lat="60.17362" lon="7.5047">
        <ele>1246.49</ele>
        <time>2019-04-04T13:46:10Z</time>
      </trkpt>
      <trkpt lat="60.17329" lon="7.50522">
        <ele>1245.04</ele>
        <time>2019-04-04T13:46:16Z</time>
      </trkpt>
      <trkpt lat="60.17277" lon="7.50594">
        <ele>1244.08</ele>
        <time>2019-04-04T13:46:24Z</time>
      </trkpt>
      <trkpt lat="60.17253" lon="7.50632">
        <ele>1243.6</ele>
        <time>2019-04-04T13:46:28Z</time>
      </trkpt>
      <trkpt lat="60.17206" lon="7.50706">
        <ele>1241.68</ele>
        <time>2019-04-04T13:46:36Z</time>
      </trkpt>
      <trkpt lat="60.17144" lon="7.50815">
        <ele>1239.76</ele>
        <time>2019-04-04T13:46:47Z</time>
      </trkpt>
      <trkpt lat="60.17082" lon="7.50913">
        <ele>1240.72</ele>
        <time>2019-04-04T13:46:57Z</time>
      </trkpt>
      <trkpt lat="60.17033" lon="7.50986">
        <ele>1241.2</ele>
        <time>2019-04-04T13:47:05Z</time>
      </trkpt>
      <trkpt lat="60.17006" lon="7.51022">
        <ele>1242.64</ele>
        <time>2019-04-04T13:47:09Z</time>
      </trkpt>
      <trkpt lat="60.16971" lon="7.51073">
        <ele>1239.76</ele>
        <time>2019-04-04T13:47:14Z</time>
      </trkpt>
      <trkpt lat="60.16955" lon="7.51092">
        <ele>1237.83</ele>
        <time>2019-04-04T13:47:16Z</time>
      </trkpt>
      <trkpt lat="60.16883" lon="7.51156">
        <ele>1236.87</ele>
        <time>2019-04-04T13:47:24Z</time>
      </trkpt>
      <trkpt lat="60.16799" lon="7.51226">
        <ele>1236.39</ele>
        <time>2019-04-04T13:47:34Z</time>
      </trkpt>
      <trkpt lat="60.16783" lon="7.51241">
        <ele>1237.83</ele>
        <time>2019-04-04T13:47:36Z</time>
      </trkpt>
      <trkpt lat="60.16701" lon="7.5133">
        <ele>1238.32</ele>
        <time>2019-04-04T13:47:47Z</time>
      </trkpt>
      <trkpt lat="60.16673" lon="7.51363">
        <ele>1236.87</ele>
        <time>2019-04-04T13:47:51Z</time>
      </trkpt>
      <trkpt lat="60.16658" lon="7.5138">
        <ele>1237.83</ele>
        <time>2019-04-04T13:47:53Z</time>
      </trkpt>
      <trkpt lat="60.16644" lon="7.51396">
        <ele>1236.87</ele>
        <time>2019-04-04T13:47:55Z</time>
      </trkpt>
      <trkpt lat="60.16636" lon="7.51404">
        <ele>1236.87</ele>
        <time>2019-04-04T13:47:56Z</time>
      </trkpt>
      <trkpt lat="60.16621" lon="7.51419">
        <ele>1238.32</ele>
        <time>2019-04-04T13:47:58Z</time>
      </trkpt>
      <trkpt lat="60.16548" lon="7.51503">
        <ele>1238.32</ele>
        <time>2019-04-04T13:48:08Z</time>
      </trkpt>
      <trkpt lat="60.16505" lon="7.51555">
        <ele>1236.39</ele>
        <time>2019-04-04T13:48:15Z</time>
      </trkpt>
      <trkpt lat="60.16497" lon="7.51563">
        <ele>1235.91</ele>
        <time>2019-04-04T13:48:17Z</time>
      </trkpt>
      <trkpt lat="60.16475" lon="7.51589">
        <ele>1236.39</ele>
        <time>2019-04-04T13:48:22Z</time>
      </trkpt>
      <trkpt lat="60.16447" lon="7.51642">
        <ele>1234.95</ele>
        <time>2019-04-04T13:48:28Z</time>
      </trkpt>
      <trkpt lat="60.16429" lon="7.51662">
        <ele>1236.39</ele>
        <time>2019-04-04T13:48:31Z</time>
      </trkpt>
      <trkpt lat="60.16398" lon="7.51703">
        <ele>1238.32</ele>
        <time>2019-04-04T13:48:36Z</time>
      </trkpt>
      <trkpt lat="60.16351" lon="7.51754">
        <ele>1237.83</ele>
        <time>2019-04-04T13:48:43Z</time>
      </trkpt>
      <trkpt lat="60.16338" lon="7.51769">
        <ele>1239.76</ele>
        <time>2019-04-04T13:48:45Z</time>
      </trkpt>
      <trkpt lat="60.16285" lon="7.51833">
        <ele>1238.32</ele>
        <time>2019-04-04T13:48:53Z</time>
      </trkpt>
      <trkpt lat="60.16279" lon="7.51841">
        <ele>1240.24</ele>
        <time>2019-04-04T13:48:54Z</time>
      </trkpt>
      <trkpt lat="60.16261" lon="7.51863">
        <ele>1239.28</ele>
        <time>2019-04-04T13:48:57Z</time>
      </trkpt>
      <trkpt lat="60.16241" lon="7.51889">
        <ele>1239.28</ele>
        <time>2019-04-04T13:49:01Z</time>
      </trkpt>
      <trkpt lat="60.16234" lon="7.51902">
        <ele>1239.28</ele>
        <time>2019-04-04T13:49:03Z</time>
      </trkpt>
      <trkpt lat="60.16228" lon="7.51914">
        <ele>1241.68</ele>
        <time>2019-04-04T13:49:05Z</time>
      </trkpt>
      <trkpt lat="60.16223" lon="7.51924">
        <ele>1240.24</ele>
        <time>2019-04-04T13:49:07Z</time>
      </trkpt>
      <trkpt lat="60.16224" lon="7.51922">
        <ele>1242.64</ele>
        <time>2019-04-04T13:49:11Z</time>
      </trkpt>
      <trkpt lat="60.16236" lon="7.51929">
        <ele>1243.12</ele>
        <time>2019-04-04T13:49:14Z</time>
      </trkpt>
      <trkpt lat="60.16247" lon="7.51933">
        <ele>1243.12</ele>
        <time>2019-04-04T13:49:16Z</time>
      </trkpt>
      <trkpt lat="60.16261" lon="7.51934">
        <ele>1243.12</ele>
        <time>2019-04-04T13:49:18Z</time>
      </trkpt>
      <trkpt lat="60.16344" lon="7.51946">
        <ele>1243.12</ele>
        <time>2019-04-04T13:49:29Z</time>
      </trkpt>
      <trkpt lat="60.16364" lon="7.5196">
        <ele>1243.12</ele>
        <time>2019-04-04T13:49:32Z</time>
      </trkpt>
      <trkpt lat="60.16404" lon="7.5199">
        <ele>1241.68</ele>
        <time>2019-04-04T13:49:38Z</time>
      </trkpt>
      <trkpt lat="60.16431" lon="7.52026">
        <ele>1240.72</ele>
        <time>2019-04-04T13:49:44Z</time>
      </trkpt>
      <trkpt lat="60.16435" lon="7.52025">
        <ele>1237.35</ele>
        <time>2019-04-04T13:49:49Z</time>
      </trkpt>
      <trkpt lat="60.16435" lon="7.52027">
        <ele>1236.87</ele>
        <time>2019-04-04T13:49:58Z</time>
      </trkpt>
      <trkpt lat="60.16435" lon="7.52027">
        <ele>1238.32</ele>
        <time>2019-04-04T13:50:01Z</time>
      </trkpt>
      <trkpt lat="60.16435" lon="7.52027">
        <ele>1238.32</ele>
        <time>2019-04-04T13:50:06Z</time>
      </trkpt>
      <trkpt lat="60.16429" lon="7.52024">
        <ele>1238.32</ele>
        <time>2019-04-04T13:50:18Z</time>
      </trkpt>
      <trkpt lat="60.16417" lon="7.52023">
        <ele>1237.35</ele>
        <time>2019-04-04T13:50:26Z</time>
      </trkpt>
      <trkpt lat="60.16415" lon="7.52025">
        <ele>1238.32</ele>
        <time>2019-04-04T13:50:29Z</time>
      </trkpt>
      <trkpt lat="60.16414" lon="7.52024">
        <ele>1237.83</ele>
        <time>2019-04-04T13:50:40Z</time>
      </trkpt>
      <trkpt lat="60.16412" lon="7.52017">
        <ele>1237.83</ele>
        <time>2019-04-04T13:50:48Z</time>
      </trkpt>
      <trkpt lat="60.16412" lon="7.52016">
        <ele>1237.83</ele>
        <time>2019-04-04T13:50:54Z</time>
      </trkpt>
      <trkpt lat="60.16419" lon="7.51997">
        <ele>1237.83</ele>
        <time>2019-04-04T13:51:00Z</time>
      </trkpt>
      <trkpt lat="60.1643" lon="7.51983">
        <ele>1239.76</ele>
        <time>2019-04-04T13:51:02Z</time>
      </trkpt>
      <trkpt lat="60.16463" lon="7.51971">
        <ele>1241.68</ele>
        <time>2019-04-04T13:51:06Z</time>
      </trkpt>
      <trkpt lat="60.16553" lon="7.51947">
        <ele>1242.16</ele>
        <time>2019-04-04T13:51:15Z</time>
      </trkpt>
      <trkpt lat="60.16635" lon="7.5192">
        <ele>1240.24</ele>
        <time>2019-04-04T13:51:23Z</time>
      </trkpt>
      <trkpt lat="60.16744" lon="7.51878">
        <ele>1241.68</ele>
        <time>2019-04-04T13:51:34Z</time>
      </trkpt>
      <trkpt lat="60.16822" lon="7.5186">
        <ele>1241.68</ele>
        <time>2019-04-04T13:51:42Z</time>
      </trkpt>
      <trkpt lat="60.169" lon="7.51844">
        <ele>1240.72</ele>
        <time>2019-04-04T13:51:50Z</time>
      </trkpt>
      <trkpt lat="60.16974" lon="7.51834">
        <ele>1242.16</ele>
        <time>2019-04-04T13:51:58Z</time>
      </trkpt>
      <trkpt lat="60.17049" lon="7.51847">
        <ele>1240.72</ele>
        <time>2019-04-04T13:52:07Z</time>
      </trkpt>
      <trkpt lat="60.17065" lon="7.51849">
        <ele>1242.16</ele>
        <time>2019-04-04T13:52:09Z</time>
      </trkpt>
      <trkpt lat="60.17081" lon="7.51853">
        <ele>1243.6</ele>
        <time>2019-04-04T13:52:11Z</time>
      </trkpt>
      <trkpt lat="60.17149" lon="7.5187">
        <ele>1241.2</ele>
        <time>2019-04-04T13:52:19Z</time>
      </trkpt>
      <trkpt lat="60.17193" lon="7.51887">
        <ele>1242.64</ele>
        <time>2019-04-04T13:52:25Z</time>
      </trkpt>
      <trkpt lat="60.17268" lon="7.51915">
        <ele>1245.04</ele>
        <time>2019-04-04T13:52:35Z</time>
      </trkpt>
      <trkpt lat="60.17284" lon="7.51921">
        <ele>1245.53</ele>
        <time>2019-04-04T13:52:37Z</time>
      </trkpt>
      <trkpt lat="60.17338" lon="7.51938">
        <ele>1246.97</ele>
        <time>2019-04-04T13:52:44Z</time>
      </trkpt>
      <trkpt lat="60.17356" lon="7.51949">
        <ele>1246.97</ele>
        <time>2019-04-04T13:52:47Z</time>
      </trkpt>
      <trkpt lat="60.1739" lon="7.51962">
        <ele>1248.41</ele>
        <time>2019-04-04T13:52:52Z</time>
      </trkpt>
      <trkpt lat="60.17408" lon="7.51971">
        <ele>1248.89</ele>
        <time>2019-04-04T13:52:55Z</time>
      </trkpt>
      <trkpt lat="60.17421" lon="7.51978">
        <ele>1249.85</ele>
        <time>2019-04-04T13:52:57Z</time>
      </trkpt>
      <trkpt lat="60.17433" lon="7.51982">
        <ele>1247.93</ele>
        <time>2019-04-04T13:53:01Z</time>
      </trkpt>
      <trkpt lat="60.17425" lon="7.52008">
        <ele>1245.53</ele>
        <time>2019-04-04T13:53:07Z</time>
      </trkpt>
      <trkpt lat="60.17418" lon="7.52035">
        <ele>1245.04</ele>
        <time>2019-04-04T13:53:11Z</time>
      </trkpt>
      <trkpt lat="60.17406" lon="7.52073">
        <ele>1244.08</ele>
        <time>2019-04-04T13:53:16Z</time>
      </trkpt>
      <trkpt lat="60.17403" lon="7.52075">
        <ele>1246.01</ele>
        <time>2019-04-04T13:53:17Z</time>
      </trkpt>
      <trkpt lat="60.17403" lon="7.52071">
        <ele>1246.01</ele>
        <time>2019-04-04T13:53:18Z</time>
      </trkpt>
      <trkpt lat="60.17411" lon="7.52066">
        <ele>1248.41</ele>
        <time>2019-04-04T13:53:21Z</time>
      </trkpt>
      <trkpt lat="60.17426" lon="7.52072">
        <ele>1249.37</ele>
        <time>2019-04-04T13:53:25Z</time>
      </trkpt>
      <trkpt lat="60.17437" lon="7.5207">
        <ele>1249.85</ele>
        <time>2019-04-04T13:53:27Z</time>
      </trkpt>
      <trkpt lat="60.17465" lon="7.52071">
        <ele>1251.77</ele>
        <time>2019-04-04T13:53:31Z</time>
      </trkpt>
      <trkpt lat="60.17473" lon="7.52072">
        <ele>1253.22</ele>
        <time>2019-04-04T13:53:32Z</time>
      </trkpt>
      <trkpt lat="60.17489" lon="7.52071">
        <ele>1253.7</ele>
        <time>2019-04-04T13:53:34Z</time>
      </trkpt>
      <trkpt lat="60.17515" lon="7.52065">
        <ele>1255.62</ele>
        <time>2019-04-04T13:53:37Z</time>
      </trkpt>
      <trkpt lat="60.17558" lon="7.52054">
        <ele>1258.02</ele>
        <time>2019-04-04T13:53:42Z</time>
      </trkpt>
      <trkpt lat="60.17582" lon="7.52046">
        <ele>1259.94</ele>
        <time>2019-04-04T13:53:45Z</time>
      </trkpt>
      <trkpt lat="60.17613" lon="7.5204">
        <ele>1263.79</ele>
        <time>2019-04-04T13:53:49Z</time>
      </trkpt>
      <trkpt lat="60.17636" lon="7.52031">
        <ele>1266.67</ele>
        <time>2019-04-04T13:53:52Z</time>
      </trkpt>
      <trkpt lat="60.17644" lon="7.52027">
        <ele>1266.67</ele>
        <time>2019-04-04T13:53:53Z</time>
      </trkpt>
      <trkpt lat="60.17652" lon="7.52022">
        <ele>1266.67</ele>
        <time>2019-04-04T13:53:54Z</time>
      </trkpt>
      <trkpt lat="60.17692" lon="7.52006">
        <ele>1268.6</ele>
        <time>2019-04-04T13:53:59Z</time>
      </trkpt>
      <trkpt lat="60.17714" lon="7.51999">
        <ele>1271</ele>
        <time>2019-04-04T13:54:02Z</time>
      </trkpt>
      <trkpt lat="60.17741" lon="7.51995">
        <ele>1275.33</ele>
        <time>2019-04-04T13:54:06Z</time>
      </trkpt>
      <trkpt lat="60.1777" lon="7.51989">
        <ele>1278.21</ele>
        <time>2019-04-04T13:54:10Z</time>
      </trkpt>
      <trkpt lat="60.17797" lon="7.51983">
        <ele>1282.06</ele>
        <time>2019-04-04T13:54:14Z</time>
      </trkpt>
      <trkpt lat="60.17803" lon="7.51983">
        <ele>1282.54</ele>
        <time>2019-04-04T13:54:15Z</time>
      </trkpt>
      <trkpt lat="60.1782" lon="7.51977">
        <ele>1284.46</ele>
        <time>2019-04-04T13:54:18Z</time>
      </trkpt>
      <trkpt lat="60.17831" lon="7.51973">
        <ele>1285.9</ele>
        <time>2019-04-04T13:54:20Z</time>
      </trkpt>
      <trkpt lat="60.17843" lon="7.51967">
        <ele>1286.86</ele>
        <time>2019-04-04T13:54:22Z</time>
      </trkpt>
      <trkpt lat="60.17876" lon="7.51953">
        <ele>1287.82</ele>
        <time>2019-04-04T13:54:30Z</time>
      </trkpt>
      <trkpt lat="60.17867" lon="7.51916">
        <ele>1287.82</ele>
        <time>2019-04-04T13:54:35Z</time>
      </trkpt>
      <trkpt lat="60.17864" lon="7.5188">
        <ele>1287.82</ele>
        <time>2019-04-04T13:54:39Z</time>
      </trkpt>
      <trkpt lat="60.1788" lon="7.51834">
        <ele>1290.71</ele>
        <time>2019-04-04T13:54:44Z</time>
      </trkpt>
      <trkpt lat="60.17883" lon="7.51817">
        <ele>1292.63</ele>
        <time>2019-04-04T13:54:46Z</time>
      </trkpt>
      <trkpt lat="60.17882" lon="7.51801">
        <ele>1294.55</ele>
        <time>2019-04-04T13:54:48Z</time>
      </trkpt>
      <trkpt lat="60.17882" lon="7.5178">
        <ele>1296.48</ele>
        <time>2019-04-04T13:54:51Z</time>
      </trkpt>
      <trkpt lat="60.17881" lon="7.51746">
        <ele>1299.84</ele>
        <time>2019-04-04T13:54:59Z</time>
      </trkpt>
      <trkpt lat="60.17881" lon="7.51746">
        <ele>1300.32</ele>
        <time>2019-04-04T13:55:06Z</time>
      </trkpt>
      <trkpt lat="60.17881" lon="7.51747">
        <ele>1299.84</ele>
        <time>2019-04-04T13:55:23Z</time>
      </trkpt>
      <trkpt lat="60.17881" lon="7.51746">
        <ele>1298.88</ele>
        <time>2019-04-04T13:55:38Z</time>
      </trkpt>
      <trkpt lat="60.1788" lon="7.51747">
        <ele>1298.88</ele>
        <time>2019-04-04T13:55:59Z</time>
      </trkpt>
      <trkpt lat="60.1788" lon="7.51746">
        <ele>1298.88</ele>
        <time>2019-04-04T13:56:27Z</time>
      </trkpt>
      <trkpt lat="60.1788" lon="7.51746">
        <ele>1298.88</ele>
        <time>2019-04-04T13:56:47Z</time>
      </trkpt>
      <trkpt lat="60.1788" lon="7.51745">
        <ele>1300.8</ele>
        <time>2019-04-04T13:56:55Z</time>
      </trkpt>
      <trkpt lat="60.1788" lon="7.51745">
        <ele>1299.36</ele>
        <time>2019-04-04T13:57:15Z</time>
      </trkpt>
      <trkpt lat="60.17881" lon="7.51742">
        <ele>1301.28</ele>
        <time>2019-04-04T13:57:34Z</time>
      </trkpt>
      <trkpt lat="60.17897" lon="7.51747">
        <ele>1302.24</ele>
        <time>2019-04-04T13:57:40Z</time>
      </trkpt>
      <trkpt lat="60.17939" lon="7.51729">
        <ele>1303.2</ele>
        <time>2019-04-04T13:57:47Z</time>
      </trkpt>
      <trkpt lat="60.17952" lon="7.51729">
        <ele>1303.69</ele>
        <time>2019-04-04T13:57:49Z</time>
      </trkpt>
      <trkpt lat="60.17985" lon="7.51723">
        <ele>1303.69</ele>
        <time>2019-04-04T13:57:53Z</time>
      </trkpt>
      <trkpt lat="60.18023" lon="7.51704">
        <ele>1299.36</ele>
        <time>2019-04-04T13:57:57Z</time>
      </trkpt>
      <trkpt lat="60.18045" lon="7.51693">
        <ele>1297.92</ele>
        <time>2019-04-04T13:57:59Z</time>
      </trkpt>
      <trkpt lat="60.18076" lon="7.51685">
        <ele>1294.55</ele>
        <time>2019-04-04T13:58:02Z</time>
      </trkpt>
      <trkpt lat="60.18135" lon="7.51688">
        <ele>1289.75</ele>
        <time>2019-04-04T13:58:08Z</time>
      </trkpt>
      <trkpt lat="60.18155" lon="7.51688">
        <ele>1289.27</ele>
        <time>2019-04-04T13:58:10Z</time>
      </trkpt>
      <trkpt lat="60.18192" lon="7.51684">
        <ele>1287.34</ele>
        <time>2019-04-04T13:58:14Z</time>
      </trkpt>
      <trkpt lat="60.18286" lon="7.51662">
        <ele>1286.86</ele>
        <time>2019-04-04T13:58:24Z</time>
      </trkpt>
      <trkpt lat="60.18337" lon="7.51654">
        <ele>1283.98</ele>
        <time>2019-04-04T13:58:29Z</time>
      </trkpt>
      <trkpt lat="60.18426" lon="7.51624">
        <ele>1282.06</ele>
        <time>2019-04-04T13:58:38Z</time>
      </trkpt>
      <trkpt lat="60.18479" lon="7.51603">
        <ele>1283.5</ele>
        <time>2019-04-04T13:58:44Z</time>
      </trkpt>
      <trkpt lat="60.18574" lon="7.5159">
        <ele>1283.98</ele>
        <time>2019-04-04T13:58:55Z</time>
      </trkpt>
      <trkpt lat="60.18602" lon="7.51587">
        <ele>1282.54</ele>
        <time>2019-04-04T13:58:58Z</time>
      </trkpt>
      <trkpt lat="60.1868" lon="7.5157">
        <ele>1281.09</ele>
        <time>2019-04-04T13:59:07Z</time>
      </trkpt>
      <trkpt lat="60.18781" lon="7.51533">
        <ele>1280.61</ele>
        <time>2019-04-04T13:59:18Z</time>
      </trkpt>
      <trkpt lat="60.18883" lon="7.51485">
        <ele>1279.65</ele>
        <time>2019-04-04T13:59:29Z</time>
      </trkpt>
      <trkpt lat="60.18976" lon="7.51439">
        <ele>1279.17</ele>
        <time>2019-04-04T13:59:39Z</time>
      </trkpt>
      <trkpt lat="60.19053" lon="7.51374">
        <ele>1281.57</ele>
        <time>2019-04-04T13:59:48Z</time>
      </trkpt>
      <trkpt lat="60.19077" lon="7.51352">
        <ele>1282.54</ele>
        <time>2019-04-04T13:59:51Z</time>
      </trkpt>
      <trkpt lat="60.19097" lon="7.51327">
        <ele>1283.98</ele>
        <time>2019-04-04T13:59:54Z</time>
      </trkpt>
      <trkpt lat="60.19104" lon="7.51319">
        <ele>1283.98</ele>
        <time>2019-04-04T13:59:55Z</time>
      </trkpt>
      <trkpt lat="60.19167" lon="7.51276">
        <ele>1286.86</ele>
        <time>2019-04-04T14:00:04Z</time>
      </trkpt>
      <trkpt lat="60.19175" lon="7.51272">
        <ele>1286.86</ele>
        <time>2019-04-04T14:00:05Z</time>
      </trkpt>
      <trkpt lat="60.19219" lon="7.51236">
        <ele>1285.42</ele>
        <time>2019-04-04T14:00:10Z</time>
      </trkpt>
      <trkpt lat="60.19266" lon="7.51183">
        <ele>1282.06</ele>
        <time>2019-04-04T14:00:15Z</time>
      </trkpt>
      <trkpt lat="60.19351" lon="7.51048">
        <ele>1279.65</ele>
        <time>2019-04-04T14:00:25Z</time>
      </trkpt>
      <trkpt lat="60.19366" lon="7.51022">
        <ele>1279.65</ele>
        <time>2019-04-04T14:00:27Z</time>
      </trkpt>
      <trkpt lat="60.19391" lon="7.50993">
        <ele>1281.09</ele>
        <time>2019-04-04T14:00:30Z</time>
      </trkpt>
      <trkpt lat="60.19469" lon="7.50902">
        <ele>1282.54</ele>
        <time>2019-04-04T14:00:39Z</time>
      </trkpt>
      <trkpt lat="60.19559" lon="7.50802">
        <ele>1283.02</ele>
        <time>2019-04-04T14:00:49Z</time>
      </trkpt>
      <trkpt lat="60.19626" lon="7.50737">
        <ele>1286.38</ele>
        <time>2019-04-04T14:00:57Z</time>
      </trkpt>
      <trkpt lat="60.19692" lon="7.5066">
        <ele>1289.75</ele>
        <time>2019-04-04T14:01:06Z</time>
      </trkpt>
      <trkpt lat="60.19727" lon="7.50616">
        <ele>1291.67</ele>
        <time>2019-04-04T14:01:11Z</time>
      </trkpt>
      <trkpt lat="60.19757" lon="7.50595">
        <ele>1292.15</ele>
        <time>2019-04-04T14:01:15Z</time>
      </trkpt>
      <trkpt lat="60.19757" lon="7.50554">
        <ele>1290.71</ele>
        <time>2019-04-04T14:01:20Z</time>
      </trkpt>
      <trkpt lat="60.19753" lon="7.50548">
        <ele>1290.71</ele>
        <time>2019-04-04T14:01:21Z</time>
      </trkpt>
      <trkpt lat="60.19736" lon="7.50515">
        <ele>1291.67</ele>
        <time>2019-04-04T14:01:25Z</time>
      </trkpt>
      <trkpt lat="60.1973" lon="7.50499">
        <ele>1293.11</ele>
        <time>2019-04-04T14:01:27Z</time>
      </trkpt>
      <trkpt lat="60.1972" lon="7.50486">
        <ele>1294.55</ele>
        <time>2019-04-04T14:01:29Z</time>
      </trkpt>
      <trkpt lat="60.19703" lon="7.50469">
        <ele>1296.48</ele>
        <time>2019-04-04T14:01:32Z</time>
      </trkpt>
      <trkpt lat="60.19685" lon="7.50423">
        <ele>1299.84</ele>
        <time>2019-04-04T14:01:37Z</time>
      </trkpt>
      <trkpt lat="60.19683" lon="7.50414">
        <ele>1300.32</ele>
        <time>2019-04-04T14:01:38Z</time>
      </trkpt>
      <trkpt lat="60.19671" lon="7.50381">
        <ele>1304.17</ele>
        <time>2019-04-04T14:01:42Z</time>
      </trkpt>
      <trkpt lat="60.1967" lon="7.50368">
        <ele>1305.13</ele>
        <time>2019-04-04T14:01:44Z</time>
      </trkpt>
      <trkpt lat="60.19668" lon="7.50352">
        <ele>1308.01</ele>
        <time>2019-04-04T14:01:46Z</time>
      </trkpt>
      <trkpt lat="60.19664" lon="7.50337">
        <ele>1308.97</ele>
        <time>2019-04-04T14:01:48Z</time>
      </trkpt>
      <trkpt lat="60.19655" lon="7.503">
        <ele>1311.86</ele>
        <time>2019-04-04T14:01:55Z</time>
      </trkpt>
      <trkpt lat="60.19669" lon="7.50285">
        <ele>1314.26</ele>
        <time>2019-04-04T14:02:00Z</time>
      </trkpt>
      <trkpt lat="60.19676" lon="7.50275">
        <ele>1314.26</ele>
        <time>2019-04-04T14:02:02Z</time>
      </trkpt>
      <trkpt lat="60.19684" lon="7.50259">
        <ele>1314.26</ele>
        <time>2019-04-04T14:02:04Z</time>
      </trkpt>
      <trkpt lat="60.1971" lon="7.50232">
        <ele>1312.82</ele>
        <time>2019-04-04T14:02:08Z</time>
      </trkpt>
      <trkpt lat="60.19745" lon="7.50198">
        <ele>1308.49</ele>
        <time>2019-04-04T14:02:12Z</time>
      </trkpt>
      <trkpt lat="60.19761" lon="7.50173">
        <ele>1306.09</ele>
        <time>2019-04-04T14:02:14Z</time>
      </trkpt>
      <trkpt lat="60.19779" lon="7.50132">
        <ele>1309.93</ele>
        <time>2019-04-04T14:02:19Z</time>
      </trkpt>
      <trkpt lat="60.19779" lon="7.50126">
        <ele>1309.93</ele>
        <time>2019-04-04T14:02:20Z</time>
      </trkpt>
      <trkpt lat="60.19778" lon="7.50113">
        <ele>1311.86</ele>
        <time>2019-04-04T14:02:22Z</time>
      </trkpt>
      <trkpt lat="60.19779" lon="7.50086">
        <ele>1316.66</ele>
        <time>2019-04-04T14:02:26Z</time>
      </trkpt>
      <trkpt lat="60.19782" lon="7.50063">
        <ele>1320.03</ele>
        <time>2019-04-04T14:02:29Z</time>
      </trkpt>
      <trkpt lat="60.19788" lon="7.50044">
        <ele>1323.39</ele>
        <time>2019-04-04T14:02:32Z</time>
      </trkpt>
      <trkpt lat="60.19793" lon="7.50014">
        <ele>1328.2</ele>
        <time>2019-04-04T14:02:36Z</time>
      </trkpt>
      <trkpt lat="60.19796" lon="7.49977">
        <ele>1331.56</ele>
        <time>2019-04-04T14:02:41Z</time>
      </trkpt>
      <trkpt lat="60.19797" lon="7.49965">
        <ele>1333.01</ele>
        <time>2019-04-04T14:02:44Z</time>
      </trkpt>
      <trkpt lat="60.19797" lon="7.49943">
        <ele>1334.93</ele>
        <time>2019-04-04T14:02:47Z</time>
      </trkpt>
      <trkpt lat="60.19815" lon="7.49914">
        <ele>1335.41</ele>
        <time>2019-04-04T14:02:54Z</time>
      </trkpt>
      <trkpt lat="60.19826" lon="7.4991">
        <ele>1335.41</ele>
        <time>2019-04-04T14:02:57Z</time>
      </trkpt>
      <trkpt lat="60.19838" lon="7.49871">
        <ele>1330.6</ele>
        <time>2019-04-04T14:03:02Z</time>
      </trkpt>
      <trkpt lat="60.19826" lon="7.49845">
        <ele>1332.04</ele>
        <time>2019-04-04T14:03:06Z</time>
      </trkpt>
      <trkpt lat="60.19835" lon="7.49825">
        <ele>1332.04</ele>
        <time>2019-04-04T14:03:09Z</time>
      </trkpt>
      <trkpt lat="60.1984" lon="7.49822">
        <ele>1330.6</ele>
        <time>2019-04-04T14:03:10Z</time>
      </trkpt>
      <trkpt lat="60.19845" lon="7.49808">
        <ele>1328.2</ele>
        <time>2019-04-04T14:03:12Z</time>
      </trkpt>
      <trkpt lat="60.19845" lon="7.49801">
        <ele>1327.72</ele>
        <time>2019-04-04T14:03:13Z</time>
      </trkpt>
      <trkpt lat="60.19843" lon="7.49794">
        <ele>1326.76</ele>
        <time>2019-04-04T14:03:14Z</time>
      </trkpt>
      <trkpt lat="60.19842" lon="7.49786">
        <ele>1326.76</ele>
        <time>2019-04-04T14:03:15Z</time>
      </trkpt>
      <trkpt lat="60.19838" lon="7.49779">
        <ele>1326.76</ele>
        <time>2019-04-04T14:03:16Z</time>
      </trkpt>
      <trkpt lat="60.19835" lon="7.49772">
        <ele>1326.76</ele>
        <time>2019-04-04T14:03:17Z</time>
      </trkpt>
      <trkpt lat="60.19811" lon="7.49721">
        <ele>1323.39</ele>
        <time>2019-04-04T14:03:23Z</time>
      </trkpt>
      <trkpt lat="60.19801" lon="7.49696">
        <ele>1320.99</ele>
        <time>2019-04-04T14:03:25Z</time>
      </trkpt>
      <trkpt lat="60.19795" lon="7.49683">
        <ele>1320.99</ele>
        <time>2019-04-04T14:03:26Z</time>
      </trkpt>
      <trkpt lat="60.19787" lon="7.49672">
        <ele>1318.59</ele>
        <time>2019-04-04T14:03:27Z</time>
      </trkpt>
      <trkpt lat="60.1978" lon="7.49663">
        <ele>1318.1</ele>
        <time>2019-04-04T14:03:28Z</time>
      </trkpt>
      <trkpt lat="60.19773" lon="7.49654">
        <ele>1316.18</ele>
        <time>2019-04-04T14:03:29Z</time>
      </trkpt>
      <trkpt lat="60.19767" lon="7.49642">
        <ele>1318.1</ele>
        <time>2019-04-04T14:03:30Z</time>
      </trkpt>
      <trkpt lat="60.19762" lon="7.4963">
        <ele>1318.1</ele>
        <time>2019-04-04T14:03:31Z</time>
      </trkpt>
      <trkpt lat="60.19755" lon="7.4962">
        <ele>1316.18</ele>
        <time>2019-04-04T14:03:32Z</time>
      </trkpt>
      <trkpt lat="60.19742" lon="7.49596">
        <ele>1314.74</ele>
        <time>2019-04-04T14:03:34Z</time>
      </trkpt>
      <trkpt lat="60.1973" lon="7.49571">
        <ele>1313.3</ele>
        <time>2019-04-04T14:03:36Z</time>
      </trkpt>
      <trkpt lat="60.19716" lon="7.49534">
        <ele>1311.86</ele>
        <time>2019-04-04T14:03:39Z</time>
      </trkpt>
      <trkpt lat="60.19712" lon="7.49522">
        <ele>1310.41</ele>
        <time>2019-04-04T14:03:40Z</time>
      </trkpt>
      <trkpt lat="60.19697" lon="7.49479">
        <ele>1311.86</ele>
        <time>2019-04-04T14:03:44Z</time>
      </trkpt>
      <trkpt lat="60.19695" lon="7.49464">
        <ele>1313.3</ele>
        <time>2019-04-04T14:03:46Z</time>
      </trkpt>
      <trkpt lat="60.19692" lon="7.49446">
        <ele>1315.22</ele>
        <time>2019-04-04T14:03:49Z</time>
      </trkpt>
      <trkpt lat="60.19688" lon="7.4943">
        <ele>1319.07</ele>
        <time>2019-04-04T14:03:52Z</time>
      </trkpt>
      <trkpt lat="60.19682" lon="7.49411">
        <ele>1321.95</ele>
        <time>2019-04-04T14:03:55Z</time>
      </trkpt>
      <trkpt lat="60.19682" lon="7.494">
        <ele>1323.87</ele>
        <time>2019-04-04T14:03:57Z</time>
      </trkpt>
      <trkpt lat="60.19679" lon="7.4937">
        <ele>1328.2</ele>
        <time>2019-04-04T14:04:01Z</time>
      </trkpt>
      <trkpt lat="60.19683" lon="7.49348">
        <ele>1331.08</ele>
        <time>2019-04-04T14:04:05Z</time>
      </trkpt>
      <trkpt lat="60.19685" lon="7.49298">
        <ele>1336.85</ele>
        <time>2019-04-04T14:04:11Z</time>
      </trkpt>
      <trkpt lat="60.19685" lon="7.49289">
        <ele>1336.85</ele>
        <time>2019-04-04T14:04:12Z</time>
      </trkpt>
      <trkpt lat="60.19687" lon="7.49264">
        <ele>1340.7</ele>
        <time>2019-04-04T14:04:15Z</time>
      </trkpt>
      <trkpt lat="60.19687" lon="7.49256">
        <ele>1341.66</ele>
        <time>2019-04-04T14:04:16Z</time>
      </trkpt>
      <trkpt lat="60.19682" lon="7.49233">
        <ele>1343.58</ele>
        <time>2019-04-04T14:04:19Z</time>
      </trkpt>
      <trkpt lat="60.19659" lon="7.49223">
        <ele>1340.22</ele>
        <time>2019-04-04T14:04:23Z</time>
      </trkpt>
      <trkpt lat="60.19654" lon="7.49221">
        <ele>1340.22</ele>
        <time>2019-04-04T14:04:24Z</time>
      </trkpt>
      <trkpt lat="60.1965" lon="7.49192">
        <ele>1342.62</ele>
        <time>2019-04-04T14:04:28Z</time>
      </trkpt>
      <trkpt lat="60.19648" lon="7.49183">
        <ele>1342.62</ele>
        <time>2019-04-04T14:04:29Z</time>
      </trkpt>
      <trkpt lat="60.19629" lon="7.49155">
        <ele>1339.73</ele>
        <time>2019-04-04T14:04:33Z</time>
      </trkpt>
      <trkpt lat="60.19605" lon="7.49147">
        <ele>1339.73</ele>
        <time>2019-04-04T14:04:37Z</time>
      </trkpt>
      <trkpt lat="60.19585" lon="7.49147">
        <ele>1339.73</ele>
        <time>2019-04-04T14:04:41Z</time>
      </trkpt>
      <trkpt lat="60.19566" lon="7.49126">
        <ele>1340.22</ele>
        <time>2019-04-04T14:04:49Z</time>
      </trkpt>
      <trkpt lat="60.19557" lon="7.49101">
        <ele>1342.14</ele>
        <time>2019-04-04T14:04:55Z</time>
      </trkpt>
      <trkpt lat="60.19564" lon="7.49068">
        <ele>1345.98</ele>
        <time>2019-04-04T14:04:59Z</time>
      </trkpt>
      <trkpt lat="60.19568" lon="7.49064">
        <ele>1346.94</ele>
        <time>2019-04-04T14:05:00Z</time>
      </trkpt>
      <trkpt lat="60.19577" lon="7.49049">
        <ele>1350.31</ele>
        <time>2019-04-04T14:05:04Z</time>
      </trkpt>
      <trkpt lat="60.19588" lon="7.4902">
        <ele>1354.63</ele>
        <time>2019-04-04T14:05:08Z</time>
      </trkpt>
      <trkpt lat="60.19589" lon="7.49014">
        <ele>1356.56</ele>
        <time>2019-04-04T14:05:09Z</time>
      </trkpt>
      <trkpt lat="60.19581" lon="7.48996">
        <ele>1355.12</ele>
        <time>2019-04-04T14:05:13Z</time>
      </trkpt>
      <trkpt lat="60.19579" lon="7.48948">
        <ele>1354.15</ele>
        <time>2019-04-04T14:05:22Z</time>
      </trkpt>
      <trkpt lat="60.19579" lon="7.48938">
        <ele>1354.15</ele>
        <time>2019-04-04T14:05:23Z</time>
      </trkpt>
      <trkpt lat="60.19581" lon="7.48901">
        <ele>1351.27</ele>
        <time>2019-04-04T14:05:27Z</time>
      </trkpt>
      <trkpt lat="60.19583" lon="7.48877">
        <ele>1350.79</ele>
        <time>2019-04-04T14:05:31Z</time>
      </trkpt>
      <trkpt lat="60.19577" lon="7.48872">
        <ele>1348.39</ele>
        <time>2019-04-04T14:05:35Z</time>
      </trkpt>
      <trkpt lat="60.1956" lon="7.48902">
        <ele>1349.83</ele>
        <time>2019-04-04T14:05:40Z</time>
      </trkpt>
      <trkpt lat="60.1955" lon="7.48932">
        <ele>1349.83</ele>
        <time>2019-04-04T14:05:44Z</time>
      </trkpt>
      <trkpt lat="60.19543" lon="7.48953">
        <ele>1346.94</ele>
        <time>2019-04-04T14:05:47Z</time>
      </trkpt>
      <trkpt lat="60.1954" lon="7.48967">
        <ele>1348.87</ele>
        <time>2019-04-04T14:05:49Z</time>
      </trkpt>
      <trkpt lat="60.19537" lon="7.4899">
        <ele>1347.43</ele>
        <time>2019-04-04T14:05:52Z</time>
      </trkpt>
      <trkpt lat="60.19529" lon="7.48993">
        <ele>1345.98</ele>
        <time>2019-04-04T14:05:55Z</time>
      </trkpt>
      <trkpt lat="60.19507" lon="7.48999">
        <ele>1343.58</ele>
        <time>2019-04-04T14:06:00Z</time>
      </trkpt>
      <trkpt lat="60.19496" lon="7.49015">
        <ele>1340.22</ele>
        <time>2019-04-04T14:06:03Z</time>
      </trkpt>
      <trkpt lat="60.19493" lon="7.4902">
        <ele>1339.25</ele>
        <time>2019-04-04T14:06:04Z</time>
      </trkpt>
      <trkpt lat="60.1948" lon="7.49036">
        <ele>1335.89</ele>
        <time>2019-04-04T14:06:07Z</time>
      </trkpt>
      <trkpt lat="60.19469" lon="7.49048">
        <ele>1332.04</ele>
        <time>2019-04-04T14:06:09Z</time>
      </trkpt>
      <trkpt lat="60.19458" lon="7.49057">
        <ele>1327.24</ele>
        <time>2019-04-04T14:06:11Z</time>
      </trkpt>
      <trkpt lat="60.19454" lon="7.49057">
        <ele>1327.24</ele>
        <time>2019-04-04T14:06:12Z</time>
      </trkpt>
      <trkpt lat="60.19448" lon="7.49042">
        <ele>1327.24</ele>
        <time>2019-04-04T14:06:16Z</time>
      </trkpt>
      <trkpt lat="60.19446" lon="7.49036">
        <ele>1328.2</ele>
        <time>2019-04-04T14:06:18Z</time>
      </trkpt>
      <trkpt lat="60.19445" lon="7.49016">
        <ele>1329.64</ele>
        <time>2019-04-04T14:06:21Z</time>
      </trkpt>
      <trkpt lat="60.19428" lon="7.48971">
        <ele>1330.6</ele>
        <time>2019-04-04T14:06:26Z</time>
      </trkpt>
      <trkpt lat="60.19395" lon="7.48942">
        <ele>1327.24</ele>
        <time>2019-04-04T14:06:30Z</time>
      </trkpt>
      <trkpt lat="60.19386" lon="7.48938">
        <ele>1326.76</ele>
        <time>2019-04-04T14:06:31Z</time>
      </trkpt>
      <trkpt lat="60.19356" lon="7.48912">
        <ele>1328.68</ele>
        <time>2019-04-04T14:06:37Z</time>
      </trkpt>
      <trkpt lat="60.19354" lon="7.48903">
        <ele>1330.12</ele>
        <time>2019-04-04T14:06:40Z</time>
      </trkpt>
      <trkpt lat="60.19337" lon="7.48879">
        <ele>1329.64</ele>
        <time>2019-04-04T14:06:51Z</time>
      </trkpt>
      <trkpt lat="60.19322" lon="7.48857">
        <ele>1328.68</ele>
        <time>2019-04-04T14:06:57Z</time>
      </trkpt>
      <trkpt lat="60.19303" lon="7.48827">
        <ele>1332.04</ele>
        <time>2019-04-04T14:07:03Z</time>
      </trkpt>
      <trkpt lat="60.193" lon="7.48825">
        <ele>1332.52</ele>
        <time>2019-04-04T14:07:04Z</time>
      </trkpt>
      <trkpt lat="60.19293" lon="7.4882">
        <ele>1332.52</ele>
        <time>2019-04-04T14:07:06Z</time>
      </trkpt>
      <trkpt lat="60.19273" lon="7.48788">
        <ele>1332.52</ele>
        <time>2019-04-04T14:07:14Z</time>
      </trkpt>
      <trkpt lat="60.19259" lon="7.48759">
        <ele>1333.01</ele>
        <time>2019-04-04T14:07:24Z</time>
      </trkpt>
      <trkpt lat="60.19255" lon="7.48755">
        <ele>1333.01</ele>
        <time>2019-04-04T14:07:29Z</time>
      </trkpt>
      <trkpt lat="60.19243" lon="7.48739">
        <ele>1331.56</ele>
        <time>2019-04-04T14:07:38Z</time>
      </trkpt>
      <trkpt lat="60.19238" lon="7.48736">
        <ele>1330.6</ele>
        <time>2019-04-04T14:07:41Z</time>
      </trkpt>
      <trkpt lat="60.19226" lon="7.48738">
        <ele>1326.76</ele>
        <time>2019-04-04T14:07:46Z</time>
      </trkpt>
      <trkpt lat="60.19223" lon="7.48736">
        <ele>1326.76</ele>
        <time>2019-04-04T14:07:47Z</time>
      </trkpt>
      <trkpt lat="60.1922" lon="7.48736">
        <ele>1325.8</ele>
        <time>2019-04-04T14:07:48Z</time>
      </trkpt>
      <trkpt lat="60.19213" lon="7.48741">
        <ele>1325.31</ele>
        <time>2019-04-04T14:07:50Z</time>
      </trkpt>
      <trkpt lat="60.19207" lon="7.48751">
        <ele>1322.43</ele>
        <time>2019-04-04T14:07:52Z</time>
      </trkpt>
      <trkpt lat="60.19204" lon="7.48757">
        <ele>1321.47</ele>
        <time>2019-04-04T14:07:53Z</time>
      </trkpt>
      <trkpt lat="60.19197" lon="7.4877">
        <ele>1315.7</ele>
        <time>2019-04-04T14:07:55Z</time>
      </trkpt>
      <trkpt lat="60.19188" lon="7.48786">
        <ele>1314.26</ele>
        <time>2019-04-04T14:07:57Z</time>
      </trkpt>
      <trkpt lat="60.19182" lon="7.48805">
        <ele>1312.34</ele>
        <time>2019-04-04T14:07:59Z</time>
      </trkpt>
      <trkpt lat="60.19178" lon="7.48814">
        <ele>1304.65</ele>
        <time>2019-04-04T14:08:00Z</time>
      </trkpt>
      <trkpt lat="60.19163" lon="7.48858">
        <ele>1299.36</ele>
        <time>2019-04-04T14:08:04Z</time>
      </trkpt>
      <trkpt lat="60.19156" lon="7.48878">
        <ele>1297.44</ele>
        <time>2019-04-04T14:08:06Z</time>
      </trkpt>
      <trkpt lat="60.19139" lon="7.48905">
        <ele>1294.55</ele>
        <time>2019-04-04T14:08:09Z</time>
      </trkpt>
      <trkpt lat="60.19124" lon="7.4893">
        <ele>1295.03</ele>
        <time>2019-04-04T14:08:14Z</time>
      </trkpt>
      <trkpt lat="60.19123" lon="7.48925">
        <ele>1295.03</ele>
        <time>2019-04-04T14:08:15Z</time>
      </trkpt>
      <trkpt lat="60.19135" lon="7.48887">
        <ele>1297.92</ele>
        <time>2019-04-04T14:08:19Z</time>
      </trkpt>
      <trkpt lat="60.19155" lon="7.48868">
        <ele>1301.76</ele>
        <time>2019-04-04T14:08:22Z</time>
      </trkpt>
      <trkpt lat="60.19169" lon="7.48863">
        <ele>1304.17</ele>
        <time>2019-04-04T14:08:24Z</time>
      </trkpt>
      <trkpt lat="60.19196" lon="7.48856">
        <ele>1308.97</ele>
        <time>2019-04-04T14:08:28Z</time>
      </trkpt>
      <trkpt lat="60.19209" lon="7.48853">
        <ele>1310.9</ele>
        <time>2019-04-04T14:08:30Z</time>
      </trkpt>
      <trkpt lat="60.19238" lon="7.48855">
        <ele>1315.7</ele>
        <time>2019-04-04T14:08:35Z</time>
      </trkpt>
      <trkpt lat="60.19257" lon="7.48865">
        <ele>1317.14</ele>
        <time>2019-04-04T14:08:38Z</time>
      </trkpt>
      <trkpt lat="60.19281" lon="7.48878">
        <ele>1317.14</ele>
        <time>2019-04-04T14:08:43Z</time>
      </trkpt>
      <trkpt lat="60.19289" lon="7.48887">
        <ele>1318.1</ele>
        <time>2019-04-04T14:08:45Z</time>
      </trkpt>
      <trkpt lat="60.19306" lon="7.48915">
        <ele>1318.59</ele>
        <time>2019-04-04T14:08:50Z</time>
      </trkpt>
      <trkpt lat="60.19308" lon="7.48908">
        <ele>1320.03</ele>
        <time>2019-04-04T14:08:55Z</time>
      </trkpt>
      <trkpt lat="60.19298" lon="7.48914">
        <ele>1315.22</ele>
        <time>2019-04-04T14:08:58Z</time>
      </trkpt>
      <trkpt lat="60.19284" lon="7.48943">
        <ele>1311.86</ele>
        <time>2019-04-04T14:09:01Z</time>
      </trkpt>
      <trkpt lat="60.19272" lon="7.48959">
        <ele>1308.01</ele>
        <time>2019-04-04T14:09:03Z</time>
      </trkpt>
      <trkpt lat="60.19266" lon="7.48963">
        <ele>1308.01</ele>
        <time>2019-04-04T14:09:04Z</time>
      </trkpt>
      <trkpt lat="60.19254" lon="7.48976">
        <ele>1303.69</ele>
        <time>2019-04-04T14:09:07Z</time>
      </trkpt>
      <trkpt lat="60.19251" lon="7.48979">
        <ele>1302.72</ele>
        <time>2019-04-04T14:09:09Z</time>
      </trkpt>
      <trkpt lat="60.1925" lon="7.48979">
        <ele>1304.65</ele>
        <time>2019-04-04T14:09:13Z</time>
      </trkpt>
      <trkpt lat="60.19249" lon="7.4898">
        <ele>1304.65</ele>
        <time>2019-04-04T14:09:30Z</time>
      </trkpt>
      <trkpt lat="60.19247" lon="7.48978">
        <ele>1304.65</ele>
        <time>2019-04-04T14:09:57Z</time>
      </trkpt>
      <trkpt lat="60.19247" lon="7.48976">
        <ele>1304.65</ele>
        <time>2019-04-04T14:10:13Z</time>
      </trkpt>
      <trkpt lat="60.19246" lon="7.48976">
        <ele>1304.65</ele>
        <time>2019-04-04T14:10:29Z</time>
      </trkpt>
      <trkpt lat="60.19245" lon="7.48976">
        <ele>1303.2</ele>
        <time>2019-04-04T14:10:31Z</time>
      </trkpt>
      <trkpt lat="60.19244" lon="7.48977">
        <ele>1303.2</ele>
        <time>2019-04-04T14:10:37Z</time>
      </trkpt>
      <trkpt lat="60.19243" lon="7.48972">
        <ele>1303.2</ele>
        <time>2019-04-04T14:10:40Z</time>
      </trkpt>
      <trkpt lat="60.19248" lon="7.48967">
        <ele>1305.13</ele>
        <time>2019-04-04T14:10:44Z</time>
      </trkpt>
      <trkpt lat="60.19252" lon="7.48968">
        <ele>1305.61</ele>
        <time>2019-04-04T14:10:53Z</time>
      </trkpt>
      <trkpt lat="60.19252" lon="7.48968">
        <ele>1305.61</ele>
        <time>2019-04-04T14:10:57Z</time>
      </trkpt>
      <trkpt lat="60.1926" lon="7.48956">
        <ele>1307.05</ele>
        <time>2019-04-04T14:11:04Z</time>
      </trkpt>
      <trkpt lat="60.19265" lon="7.48947">
        <ele>1308.01</ele>
        <time>2019-04-04T14:11:07Z</time>
      </trkpt>
      <trkpt lat="60.19277" lon="7.48945">
        <ele>1309.93</ele>
        <time>2019-04-04T14:11:13Z</time>
      </trkpt>
      <trkpt lat="60.1929" lon="7.48919">
        <ele>1313.3</ele>
        <time>2019-04-04T14:11:17Z</time>
      </trkpt>
      <trkpt lat="60.193" lon="7.48916">
        <ele>1317.14</ele>
        <time>2019-04-04T14:11:19Z</time>
      </trkpt>
      <trkpt lat="60.1931" lon="7.48913">
        <ele>1320.51</ele>
        <time>2019-04-04T14:11:22Z</time>
      </trkpt>
      <trkpt lat="60.19313" lon="7.48912">
        <ele>1320.99</ele>
        <time>2019-04-04T14:11:23Z</time>
      </trkpt>
      <trkpt lat="60.19317" lon="7.48906">
        <ele>1322.91</ele>
        <time>2019-04-04T14:11:26Z</time>
      </trkpt>
      <trkpt lat="60.19303" lon="7.48901">
        <ele>1319.55</ele>
        <time>2019-04-04T14:11:32Z</time>
      </trkpt>
      <trkpt lat="60.19297" lon="7.48907">
        <ele>1316.66</ele>
        <time>2019-04-04T14:11:33Z</time>
      </trkpt>
      <trkpt lat="60.19262" lon="7.48926">
        <ele>1307.53</ele>
        <time>2019-04-04T14:11:37Z</time>
      </trkpt>
      <trkpt lat="60.19252" lon="7.48931">
        <ele>1305.13</ele>
        <time>2019-04-04T14:11:38Z</time>
      </trkpt>
      <trkpt lat="60.19233" lon="7.48941">
        <ele>1301.76</ele>
        <time>2019-04-04T14:11:40Z</time>
      </trkpt>
      <trkpt lat="60.19204" lon="7.48952">
        <ele>1298.88</ele>
        <time>2019-04-04T14:11:43Z</time>
      </trkpt>
      <trkpt lat="60.19185" lon="7.4897">
        <ele>1293.59</ele>
        <time>2019-04-04T14:11:46Z</time>
      </trkpt>
      <trkpt lat="60.19178" lon="7.48973">
        <ele>1293.11</ele>
        <time>2019-04-04T14:11:47Z</time>
      </trkpt>
      <trkpt lat="60.19133" lon="7.48959">
        <ele>1294.07</ele>
        <time>2019-04-04T14:11:55Z</time>
      </trkpt>
      <trkpt lat="60.19118" lon="7.48949">
        <ele>1295.03</ele>
        <time>2019-04-04T14:11:59Z</time>
      </trkpt>
      <trkpt lat="60.1911" lon="7.48951">
        <ele>1295.99</ele>
        <time>2019-04-04T14:12:03Z</time>
      </trkpt>
      <trkpt lat="60.19115" lon="7.48936">
        <ele>1296.96</ele>
        <time>2019-04-04T14:12:10Z</time>
      </trkpt>
      <trkpt lat="60.19117" lon="7.48929">
        <ele>1296.96</ele>
        <time>2019-04-04T14:12:19Z</time>
      </trkpt>
      <trkpt lat="60.19117" lon="7.48926">
        <ele>1296.48</ele>
        <time>2019-04-04T14:12:21Z</time>
      </trkpt>
      <trkpt lat="60.19127" lon="7.4891">
        <ele>1296.96</ele>
        <time>2019-04-04T14:12:26Z</time>
      </trkpt>
      <trkpt lat="60.19134" lon="7.48908">
        <ele>1296.96</ele>
        <time>2019-04-04T14:12:28Z</time>
      </trkpt>
      <trkpt lat="60.19141" lon="7.48891">
        <ele>1297.92</ele>
        <time>2019-04-04T14:12:34Z</time>
      </trkpt>
      <trkpt lat="60.19144" lon="7.48881">
        <ele>1298.88</ele>
        <time>2019-04-04T14:12:41Z</time>
      </trkpt>
      <trkpt lat="60.19155" lon="7.48858">
        <ele>1303.2</ele>
        <time>2019-04-04T14:12:45Z</time>
      </trkpt>
      <trkpt lat="60.19161" lon="7.48854">
        <ele>1304.17</ele>
        <time>2019-04-04T14:12:46Z</time>
      </trkpt>
      <trkpt lat="60.19188" lon="7.48837">
        <ele>1308.97</ele>
        <time>2019-04-04T14:12:50Z</time>
      </trkpt>
      <trkpt lat="60.19202" lon="7.48822">
        <ele>1314.26</ele>
        <time>2019-04-04T14:12:54Z</time>
      </trkpt>
      <trkpt lat="60.19195" lon="7.48795">
        <ele>1315.22</ele>
        <time>2019-04-04T14:13:03Z</time>
      </trkpt>
      <trkpt lat="60.19193" lon="7.48795">
        <ele>1315.22</ele>
        <time>2019-04-04T14:13:04Z</time>
      </trkpt>
      <trkpt lat="60.19189" lon="7.48795">
        <ele>1313.78</ele>
        <time>2019-04-04T14:13:06Z</time>
      </trkpt>
      <trkpt lat="60.19176" lon="7.48801">
        <ele>1310.9</ele>
        <time>2019-04-04T14:13:10Z</time>
      </trkpt>
      <trkpt lat="60.19152" lon="7.48798">
        <ele>1308.97</ele>
        <time>2019-04-04T14:13:17Z</time>
      </trkpt>
      <trkpt lat="60.19138" lon="7.48801">
        <ele>1306.57</ele>
        <time>2019-04-04T14:13:21Z</time>
      </trkpt>
      <trkpt lat="60.1913" lon="7.48798">
        <ele>1307.05</ele>
        <time>2019-04-04T14:13:24Z</time>
      </trkpt>
      <trkpt lat="60.19137" lon="7.48776">
        <ele>1311.38</ele>
        <time>2019-04-04T14:13:28Z</time>
      </trkpt>
      <trkpt lat="60.19151" lon="7.48775">
        <ele>1313.3</ele>
        <time>2019-04-04T14:13:30Z</time>
      </trkpt>
      <trkpt lat="60.19194" lon="7.4878">
        <ele>1317.62</ele>
        <time>2019-04-04T14:13:36Z</time>
      </trkpt>
      <trkpt lat="60.19214" lon="7.4878">
        <ele>1321.95</ele>
        <time>2019-04-04T14:13:40Z</time>
      </trkpt>
      <trkpt lat="60.19233" lon="7.48782">
        <ele>1326.76</ele>
        <time>2019-04-04T14:13:45Z</time>
      </trkpt>
      <trkpt lat="60.19245" lon="7.48789">
        <ele>1327.24</ele>
        <time>2019-04-04T14:13:51Z</time>
      </trkpt>
      <trkpt lat="60.19236" lon="7.48787">
        <ele>1323.39</ele>
        <time>2019-04-04T14:13:56Z</time>
      </trkpt>
      <trkpt lat="60.19233" lon="7.48787">
        <ele>1322.91</ele>
        <time>2019-04-04T14:13:57Z</time>
      </trkpt>
      <trkpt lat="60.1922" lon="7.48784">
        <ele>1322.43</ele>
        <time>2019-04-04T14:14:02Z</time>
      </trkpt>
      <trkpt lat="60.19205" lon="7.48793">
        <ele>1316.66</ele>
        <time>2019-04-04T14:14:05Z</time>
      </trkpt>
      <trkpt lat="60.19199" lon="7.488">
        <ele>1314.26</ele>
        <time>2019-04-04T14:14:06Z</time>
      </trkpt>
      <trkpt lat="60.19181" lon="7.48825">
        <ele>1307.53</ele>
        <time>2019-04-04T14:14:09Z</time>
      </trkpt>
      <trkpt lat="60.19176" lon="7.48836">
        <ele>1307.05</ele>
        <time>2019-04-04T14:14:10Z</time>
      </trkpt>
      <trkpt lat="60.1917" lon="7.48863">
        <ele>1303.2</ele>
        <time>2019-04-04T14:14:12Z</time>
      </trkpt>
      <trkpt lat="60.19165" lon="7.48887">
        <ele>1299.36</ele>
        <time>2019-04-04T14:14:14Z</time>
      </trkpt>
      <trkpt lat="60.19161" lon="7.48909">
        <ele>1298.4</ele>
        <time>2019-04-04T14:14:16Z</time>
      </trkpt>
      <trkpt lat="60.1916" lon="7.48918">
        <ele>1295.03</ele>
        <time>2019-04-04T14:14:17Z</time>
      </trkpt>
      <trkpt lat="60.19153" lon="7.48927">
        <ele>1294.07</ele>
        <time>2019-04-04T14:14:19Z</time>
      </trkpt>
      <trkpt lat="60.19148" lon="7.48921">
        <ele>1295.03</ele>
        <time>2019-04-04T14:14:21Z</time>
      </trkpt>
      <trkpt lat="60.1914" lon="7.48881">
        <ele>1297.92</ele>
        <time>2019-04-04T14:14:28Z</time>
      </trkpt>
      <trkpt lat="60.19141" lon="7.48881">
        <ele>1299.36</ele>
        <time>2019-04-04T14:14:35Z</time>
      </trkpt>
      <trkpt lat="60.1914" lon="7.48881">
        <ele>1299.36</ele>
        <time>2019-04-04T14:14:52Z</time>
      </trkpt>
      <trkpt lat="60.19155" lon="7.48867">
        <ele>1301.28</ele>
        <time>2019-04-04T14:14:57Z</time>
      </trkpt>
      <trkpt lat="60.19159" lon="7.48864">
        <ele>1302.24</ele>
        <time>2019-04-04T14:14:58Z</time>
      </trkpt>
      <trkpt lat="60.19181" lon="7.48855">
        <ele>1306.09</ele>
        <time>2019-04-04T14:15:03Z</time>
      </trkpt>
      <trkpt lat="60.19197" lon="7.48839">
        <ele>1310.41</ele>
        <time>2019-04-04T14:15:08Z</time>
      </trkpt>
      <trkpt lat="60.192" lon="7.48833">
        <ele>1311.38</ele>
        <time>2019-04-04T14:15:09Z</time>
      </trkpt>
      <trkpt lat="60.19213" lon="7.48805">
        <ele>1318.1</ele>
        <time>2019-04-04T14:15:13Z</time>
      </trkpt>
      <trkpt lat="60.19223" lon="7.48797">
        <ele>1321.47</ele>
        <time>2019-04-04T14:15:15Z</time>
      </trkpt>
      <trkpt lat="60.19234" lon="7.48785">
        <ele>1325.31</ele>
        <time>2019-04-04T14:15:18Z</time>
      </trkpt>
      <trkpt lat="60.19236" lon="7.48779">
        <ele>1326.28</ele>
        <time>2019-04-04T14:15:20Z</time>
      </trkpt>
      <trkpt lat="60.1922" lon="7.48789">
        <ele>1320.99</ele>
        <time>2019-04-04T14:15:25Z</time>
      </trkpt>
      <trkpt lat="60.1921" lon="7.48807">
        <ele>1313.78</ele>
        <time>2019-04-04T14:15:27Z</time>
      </trkpt>
      <trkpt lat="60.19194" lon="7.48838">
        <ele>1308.97</ele>
        <time>2019-04-04T14:15:30Z</time>
      </trkpt>
      <trkpt lat="60.19183" lon="7.48859">
        <ele>1304.65</ele>
        <time>2019-04-04T14:15:32Z</time>
      </trkpt>
      <trkpt lat="60.19172" lon="7.48879">
        <ele>1303.2</ele>
        <time>2019-04-04T14:15:34Z</time>
      </trkpt>
      <trkpt lat="60.19158" lon="7.48897">
        <ele>1296.96</ele>
        <time>2019-04-04T14:15:36Z</time>
      </trkpt>
      <trkpt lat="60.19144" lon="7.48912">
        <ele>1292.63</ele>
        <time>2019-04-04T14:15:38Z</time>
      </trkpt>
      <trkpt lat="60.19125" lon="7.48905">
        <ele>1294.55</ele>
        <time>2019-04-04T14:15:42Z</time>
      </trkpt>
      <trkpt lat="60.19135" lon="7.48882">
        <ele>1297.92</ele>
        <time>2019-04-04T14:15:46Z</time>
      </trkpt>
      <trkpt lat="60.19141" lon="7.48867">
        <ele>1300.32</ele>
        <time>2019-04-04T14:15:50Z</time>
      </trkpt>
      <trkpt lat="60.19142" lon="7.4886">
        <ele>1300.8</ele>
        <time>2019-04-04T14:15:52Z</time>
      </trkpt>
      <trkpt lat="60.19139" lon="7.48827">
        <ele>1304.17</ele>
        <time>2019-04-04T14:15:57Z</time>
      </trkpt>
      <trkpt lat="60.19139" lon="7.48817">
        <ele>1306.09</ele>
        <time>2019-04-04T14:16:00Z</time>
      </trkpt>
      <trkpt lat="60.19143" lon="7.48807">
        <ele>1308.01</ele>
        <time>2019-04-04T14:16:07Z</time>
      </trkpt>
      <trkpt lat="60.19142" lon="7.48809">
        <ele>1308.01</ele>
        <time>2019-04-04T14:16:21Z</time>
      </trkpt>
      <trkpt lat="60.19136" lon="7.48806">
        <ele>1306.57</ele>
        <time>2019-04-04T14:16:23Z</time>
      </trkpt>
      <trkpt lat="60.19124" lon="7.48808">
        <ele>1304.65</ele>
        <time>2019-04-04T14:16:25Z</time>
      </trkpt>
      <trkpt lat="60.19112" lon="7.488">
        <ele>1305.13</ele>
        <time>2019-04-04T14:16:28Z</time>
      </trkpt>
      <trkpt lat="60.19123" lon="7.48781">
        <ele>1308.97</ele>
        <time>2019-04-04T14:16:32Z</time>
      </trkpt>
      <trkpt lat="60.19128" lon="7.48774">
        <ele>1310.41</ele>
        <time>2019-04-04T14:16:34Z</time>
      </trkpt>
      <trkpt lat="60.19131" lon="7.48766">
        <ele>1311.38</ele>
        <time>2019-04-04T14:16:38Z</time>
      </trkpt>
      <trkpt lat="60.19131" lon="7.48766">
        <ele>1310.9</ele>
        <time>2019-04-04T14:16:55Z</time>
      </trkpt>
      <trkpt lat="60.19136" lon="7.48764">
        <ele>1311.86</ele>
        <time>2019-04-04T14:17:05Z</time>
      </trkpt>
      <trkpt lat="60.19136" lon="7.48765">
        <ele>1311.86</ele>
        <time>2019-04-04T14:17:07Z</time>
      </trkpt>
      <trkpt lat="60.19149" lon="7.48773">
        <ele>1312.82</ele>
        <time>2019-04-04T14:17:13Z</time>
      </trkpt>
      <trkpt lat="60.1917" lon="7.48771">
        <ele>1315.22</ele>
        <time>2019-04-04T14:17:17Z</time>
      </trkpt>
      <trkpt lat="60.19176" lon="7.48771">
        <ele>1315.22</ele>
        <time>2019-04-04T14:17:18Z</time>
      </trkpt>
      <trkpt lat="60.19196" lon="7.48772">
        <ele>1318.1</ele>
        <time>2019-04-04T14:17:21Z</time>
      </trkpt>
      <trkpt lat="60.19219" lon="7.48769">
        <ele>1324.35</ele>
        <time>2019-04-04T14:17:25Z</time>
      </trkpt>
      <trkpt lat="60.19235" lon="7.48771">
        <ele>1327.72</ele>
        <time>2019-04-04T14:17:29Z</time>
      </trkpt>
      <trkpt lat="60.19235" lon="7.4877">
        <ele>1327.72</ele>
        <time>2019-04-04T14:17:30Z</time>
      </trkpt>
      <trkpt lat="60.19225" lon="7.48785">
        <ele>1319.55</ele>
        <time>2019-04-04T14:17:34Z</time>
      </trkpt>
      <trkpt lat="60.19214" lon="7.48814">
        <ele>1314.26</ele>
        <time>2019-04-04T14:17:37Z</time>
      </trkpt>
      <trkpt lat="60.19199" lon="7.4885">
        <ele>1308.97</ele>
        <time>2019-04-04T14:17:40Z</time>
      </trkpt>
      <trkpt lat="60.19195" lon="7.48862">
        <ele>1305.61</ele>
        <time>2019-04-04T14:17:41Z</time>
      </trkpt>
      <trkpt lat="60.1919" lon="7.48876">
        <ele>1301.76</ele>
        <time>2019-04-04T14:17:42Z</time>
      </trkpt>
      <trkpt lat="60.19183" lon="7.48902">
        <ele>1297.44</ele>
        <time>2019-04-04T14:17:44Z</time>
      </trkpt>
      <trkpt lat="60.19183" lon="7.48912">
        <ele>1262.35</ele>
        <time>2019-04-04T14:17:45Z</time>
      </trkpt>
      <trkpt lat="60.19182" lon="7.48917">
        <ele>1304.65</ele>
        <time>2019-04-04T14:17:46Z</time>
      </trkpt>
      <trkpt lat="60.19182" lon="7.48918">
        <ele>1295.99</ele>
        <time>2019-04-04T14:17:47Z</time>
      </trkpt>
      <trkpt lat="60.19181" lon="7.48917">
        <ele>1300.8</ele>
        <time>2019-04-04T14:17:48Z</time>
      </trkpt>
      <trkpt lat="60.19181" lon="7.48916">
        <ele>1307.05</ele>
        <time>2019-04-04T14:17:49Z</time>
      </trkpt>
      <trkpt lat="60.1918" lon="7.48915">
        <ele>1296.48</ele>
        <time>2019-04-04T14:17:50Z</time>
      </trkpt>
      <trkpt lat="60.1918" lon="7.48915">
        <ele>1295.99</ele>
        <time>2019-04-04T14:17:51Z</time>
      </trkpt>
      <trkpt lat="60.19178" lon="7.48917">
        <ele>1300.32</ele>
        <time>2019-04-04T14:17:53Z</time>
      </trkpt>
      <trkpt lat="60.19177" lon="7.4892">
        <ele>1296.96</ele>
        <time>2019-04-04T14:17:54Z</time>
      </trkpt>
      <trkpt lat="60.19174" lon="7.48931">
        <ele>1295.51</ele>
        <time>2019-04-04T14:17:56Z</time>
      </trkpt>
      <trkpt lat="60.19156" lon="7.48936">
        <ele>1295.51</ele>
        <time>2019-04-04T14:18:03Z</time>
      </trkpt>
      <trkpt lat="60.19156" lon="7.48936">
        <ele>1296.48</ele>
        <time>2019-04-04T14:18:15Z</time>
      </trkpt>
      <trkpt lat="60.19152" lon="7.48934">
        <ele>1296.48</ele>
        <time>2019-04-04T14:18:19Z</time>
      </trkpt>
      <trkpt lat="60.19145" lon="7.48932">
        <ele>1296.48</ele>
        <time>2019-04-04T14:18:25Z</time>
      </trkpt>
      <trkpt lat="60.19154" lon="7.48934">
        <ele>1297.92</ele>
        <time>2019-04-04T14:18:31Z</time>
      </trkpt>
      <trkpt lat="60.19159" lon="7.48941">
        <ele>1297.92</ele>
        <time>2019-04-04T14:18:33Z</time>
      </trkpt>
      <trkpt lat="60.19181" lon="7.48957">
        <ele>1297.92</ele>
        <time>2019-04-04T14:18:41Z</time>
      </trkpt>
      <trkpt lat="60.19184" lon="7.48955">
        <ele>1296.48</ele>
        <time>2019-04-04T14:18:44Z</time>
      </trkpt>
      <trkpt lat="60.19184" lon="7.48957">
        <ele>1296.48</ele>
        <time>2019-04-04T14:18:58Z</time>
      </trkpt>
      <trkpt lat="60.19183" lon="7.48957">
        <ele>1296.48</ele>
        <time>2019-04-04T14:19:02Z</time>
      </trkpt>
      <trkpt lat="60.19179" lon="7.48955">
        <ele>1295.03</ele>
        <time>2019-04-04T14:19:06Z</time>
      </trkpt>
      <trkpt lat="60.19179" lon="7.48956">
        <ele>1295.99</ele>
        <time>2019-04-04T14:19:08Z</time>
      </trkpt>
      <trkpt lat="60.19171" lon="7.48955">
        <ele>1296.48</ele>
        <time>2019-04-04T14:19:17Z</time>
      </trkpt>
      <trkpt lat="60.19161" lon="7.48965">
        <ele>1293.59</ele>
        <time>2019-04-04T14:19:20Z</time>
      </trkpt>
      <trkpt lat="60.19144" lon="7.48961">
        <ele>1293.59</ele>
        <time>2019-04-04T14:19:24Z</time>
      </trkpt>
      <trkpt lat="60.19141" lon="7.48954">
        <ele>1295.03</ele>
        <time>2019-04-04T14:19:25Z</time>
      </trkpt>
      <trkpt lat="60.19136" lon="7.48938">
        <ele>1295.51</ele>
        <time>2019-04-04T14:19:30Z</time>
      </trkpt>
      <trkpt lat="60.19135" lon="7.48921">
        <ele>1296.48</ele>
        <time>2019-04-04T14:19:40Z</time>
      </trkpt>
      <trkpt lat="60.19134" lon="7.4892">
        <ele>1296.48</ele>
        <time>2019-04-04T14:19:46Z</time>
      </trkpt>
      <trkpt lat="60.19134" lon="7.4892">
        <ele>1294.55</ele>
        <time>2019-04-04T14:19:55Z</time>
      </trkpt>
      <trkpt lat="60.19134" lon="7.4892">
        <ele>1296.48</ele>
        <time>2019-04-04T14:19:59Z</time>
      </trkpt>
      <trkpt lat="60.19134" lon="7.48921">
        <ele>1295.03</ele>
        <time>2019-04-04T14:20:01Z</time>
      </trkpt>
      <trkpt lat="60.19137" lon="7.48916">
        <ele>1296.96</ele>
        <time>2019-04-04T14:20:04Z</time>
      </trkpt>
      <trkpt lat="60.19144" lon="7.48913">
        <ele>1297.44</ele>
        <time>2019-04-04T14:20:06Z</time>
      </trkpt>
      <trkpt lat="60.19154" lon="7.48903">
        <ele>1297.92</ele>
        <time>2019-04-04T14:20:09Z</time>
      </trkpt>
      <trkpt lat="60.19141" lon="7.48878">
        <ele>1298.4</ele>
        <time>2019-04-04T14:20:16Z</time>
      </trkpt>
      <trkpt lat="60.19137" lon="7.48856">
        <ele>1300.8</ele>
        <time>2019-04-04T14:20:19Z</time>
      </trkpt>
      <trkpt lat="60.19151" lon="7.48824">
        <ele>1306.09</ele>
        <time>2019-04-04T14:20:24Z</time>
      </trkpt>
      <trkpt lat="60.19166" lon="7.48809">
        <ele>1309.93</ele>
        <time>2019-04-04T14:20:27Z</time>
      </trkpt>
      <trkpt lat="60.19178" lon="7.48798">
        <ele>1312.34</ele>
        <time>2019-04-04T14:20:29Z</time>
      </trkpt>
      <trkpt lat="60.19189" lon="7.48789">
        <ele>1314.74</ele>
        <time>2019-04-04T14:20:31Z</time>
      </trkpt>
      <trkpt lat="60.19209" lon="7.48776">
        <ele>1320.51</ele>
        <time>2019-04-04T14:20:35Z</time>
      </trkpt>
      <trkpt lat="60.19219" lon="7.48768">
        <ele>1323.87</ele>
        <time>2019-04-04T14:20:38Z</time>
      </trkpt>
      <trkpt lat="60.1923" lon="7.48768">
        <ele>1327.24</ele>
        <time>2019-04-04T14:20:42Z</time>
      </trkpt>
      <trkpt lat="60.19239" lon="7.48777">
        <ele>1328.2</ele>
        <time>2019-04-04T14:20:49Z</time>
      </trkpt>
      <trkpt lat="60.19239" lon="7.48779">
        <ele>1327.24</ele>
        <time>2019-04-04T14:20:56Z</time>
      </trkpt>
      <trkpt lat="60.1923" lon="7.48788">
        <ele>1322.43</ele>
        <time>2019-04-04T14:21:00Z</time>
      </trkpt>
      <trkpt lat="60.19218" lon="7.48806">
        <ele>1316.66</ele>
        <time>2019-04-04T14:21:03Z</time>
      </trkpt>
      <trkpt lat="60.19209" lon="7.48823">
        <ele>1312.34</ele>
        <time>2019-04-04T14:21:05Z</time>
      </trkpt>
      <trkpt lat="60.19196" lon="7.4884">
        <ele>1308.97</ele>
        <time>2019-04-04T14:21:07Z</time>
      </trkpt>
      <trkpt lat="60.19185" lon="7.48869">
        <ele>1302.72</ele>
        <time>2019-04-04T14:21:10Z</time>
      </trkpt>
      <trkpt lat="60.19181" lon="7.48889">
        <ele>1297.44</ele>
        <time>2019-04-04T14:21:12Z</time>
      </trkpt>
      <trkpt lat="60.19173" lon="7.48906">
        <ele>1296.48</ele>
        <time>2019-04-04T14:21:14Z</time>
      </trkpt>
      <trkpt lat="60.19166" lon="7.48912">
        <ele>1296.48</ele>
        <time>2019-04-04T14:21:17Z</time>
      </trkpt>
      <trkpt lat="60.19165" lon="7.48911">
        <ele>1297.92</ele>
        <time>2019-04-04T14:21:20Z</time>
      </trkpt>
      <trkpt lat="60.19165" lon="7.48911">
        <ele>1297.92</ele>
        <time>2019-04-04T14:21:21Z</time>
      </trkpt>
      <trkpt lat="60.19155" lon="7.48927">
        <ele>1294.07</ele>
        <time>2019-04-04T14:21:25Z</time>
      </trkpt>
      <trkpt lat="60.1915" lon="7.48933">
        <ele>1293.59</ele>
        <time>2019-04-04T14:21:26Z</time>
      </trkpt>
      <trkpt lat="60.19129" lon="7.48938">
        <ele>1295.51</ele>
        <time>2019-04-04T14:21:31Z</time>
      </trkpt>
      <trkpt lat="60.19128" lon="7.48931">
        <ele>1295.51</ele>
        <time>2019-04-04T14:21:32Z</time>
      </trkpt>
      <trkpt lat="60.19137" lon="7.48884">
        <ele>1297.92</ele>
        <time>2019-04-04T14:21:37Z</time>
      </trkpt>
      <trkpt lat="60.19144" lon="7.48864">
        <ele>1301.28</ele>
        <time>2019-04-04T14:21:40Z</time>
      </trkpt>
      <trkpt lat="60.19154" lon="7.48833">
        <ele>1304.65</ele>
        <time>2019-04-04T14:21:44Z</time>
      </trkpt>
      <trkpt lat="60.19161" lon="7.48815">
        <ele>1307.53</ele>
        <time>2019-04-04T14:21:46Z</time>
      </trkpt>
      <trkpt lat="60.19169" lon="7.488">
        <ele>1310.9</ele>
        <time>2019-04-04T14:21:48Z</time>
      </trkpt>
      <trkpt lat="60.19176" lon="7.48786">
        <ele>1312.34</ele>
        <time>2019-04-04T14:21:50Z</time>
      </trkpt>
      <trkpt lat="60.19195" lon="7.48768">
        <ele>1318.1</ele>
        <time>2019-04-04T14:21:54Z</time>
      </trkpt>
      <trkpt lat="60.1921" lon="7.48764">
        <ele>1321.95</ele>
        <time>2019-04-04T14:21:57Z</time>
      </trkpt>
      <trkpt lat="60.19226" lon="7.48768">
        <ele>1327.24</ele>
        <time>2019-04-04T14:22:01Z</time>
      </trkpt>
      <trkpt lat="60.19229" lon="7.48769">
        <ele>1327.24</ele>
        <time>2019-04-04T14:22:02Z</time>
      </trkpt>
      <trkpt lat="60.19236" lon="7.48767">
        <ele>1328.2</ele>
        <time>2019-04-04T14:22:09Z</time>
      </trkpt>
      <trkpt lat="60.19235" lon="7.48766">
        <ele>1326.28</ele>
        <time>2019-04-04T14:22:21Z</time>
      </trkpt>
      <trkpt lat="60.19234" lon="7.48765">
        <ele>1327.72</ele>
        <time>2019-04-04T14:22:28Z</time>
      </trkpt>
      <trkpt lat="60.19234" lon="7.48766">
        <ele>1327.72</ele>
        <time>2019-04-04T14:22:30Z</time>
      </trkpt>
      <trkpt lat="60.1923" lon="7.48775">
        <ele>1323.87</ele>
        <time>2019-04-04T14:22:33Z</time>
      </trkpt>
      <trkpt lat="60.19228" lon="7.48781">
        <ele>1320.99</ele>
        <time>2019-04-04T14:22:34Z</time>
      </trkpt>
      <trkpt lat="60.1922" lon="7.48795">
        <ele>1317.62</ele>
        <time>2019-04-04T14:22:36Z</time>
      </trkpt>
      <trkpt lat="60.1921" lon="7.48812">
        <ele>1312.34</ele>
        <time>2019-04-04T14:22:38Z</time>
      </trkpt>
      <trkpt lat="60.19205" lon="7.48823">
        <ele>1312.34</ele>
        <time>2019-04-04T14:22:39Z</time>
      </trkpt>
      <trkpt lat="60.1919" lon="7.48847">
        <ele>1307.05</ele>
        <time>2019-04-04T14:22:42Z</time>
      </trkpt>
      <trkpt lat="60.19184" lon="7.48864">
        <ele>1302.72</ele>
        <time>2019-04-04T14:22:44Z</time>
      </trkpt>
      <trkpt lat="60.1918" lon="7.4888">
        <ele>1299.36</ele>
        <time>2019-04-04T14:22:46Z</time>
      </trkpt>
      <trkpt lat="60.19171" lon="7.48896">
        <ele>1295.03</ele>
        <time>2019-04-04T14:22:48Z</time>
      </trkpt>
      <trkpt lat="60.19158" lon="7.48909">
        <ele>1293.59</ele>
        <time>2019-04-04T14:22:50Z</time>
      </trkpt>
      <trkpt lat="60.19126" lon="7.48923">
        <ele>1295.51</ele>
        <time>2019-04-04T14:22:54Z</time>
      </trkpt>
      <trkpt lat="60.19106" lon="7.48911">
        <ele>1295.51</ele>
        <time>2019-04-04T14:22:57Z</time>
      </trkpt>
      <trkpt lat="60.19093" lon="7.48907">
        <ele>1295.51</ele>
        <time>2019-04-04T14:22:59Z</time>
      </trkpt>
      <trkpt lat="60.19088" lon="7.48887">
        <ele>1296.48</ele>
        <time>2019-04-04T14:23:03Z</time>
      </trkpt>
      <trkpt lat="60.19096" lon="7.48857">
        <ele>1298.88</ele>
        <time>2019-04-04T14:23:06Z</time>
      </trkpt>
      <trkpt lat="60.19105" lon="7.48838">
        <ele>1300.32</ele>
        <time>2019-04-04T14:23:08Z</time>
      </trkpt>
      <trkpt lat="60.19112" lon="7.4881">
        <ele>1304.17</ele>
        <time>2019-04-04T14:23:13Z</time>
      </trkpt>
      <trkpt lat="60.19118" lon="7.48793">
        <ele>1307.53</ele>
        <time>2019-04-04T14:23:19Z</time>
      </trkpt>
      <trkpt lat="60.19118" lon="7.48793">
        <ele>1307.05</ele>
        <time>2019-04-04T14:23:20Z</time>
      </trkpt>
      <trkpt lat="60.1912" lon="7.48786">
        <ele>1308.49</ele>
        <time>2019-04-04T14:23:28Z</time>
      </trkpt>
      <trkpt lat="60.19122" lon="7.4877">
        <ele>1309.93</ele>
        <time>2019-04-04T14:23:30Z</time>
      </trkpt>
      <trkpt lat="60.19125" lon="7.48761">
        <ele>1309.93</ele>
        <time>2019-04-04T14:23:31Z</time>
      </trkpt>
      <trkpt lat="60.19136" lon="7.48746">
        <ele>1313.3</ele>
        <time>2019-04-04T14:23:33Z</time>
      </trkpt>
      <trkpt lat="60.19144" lon="7.48741">
        <ele>1314.26</ele>
        <time>2019-04-04T14:23:34Z</time>
      </trkpt>
      <trkpt lat="60.19174" lon="7.48732">
        <ele>1319.07</ele>
        <time>2019-04-04T14:23:38Z</time>
      </trkpt>
      <trkpt lat="60.192" lon="7.48736">
        <ele>1322.43</ele>
        <time>2019-04-04T14:23:42Z</time>
      </trkpt>
      <trkpt lat="60.19211" lon="7.48745">
        <ele>1325.31</ele>
        <time>2019-04-04T14:23:45Z</time>
      </trkpt>
      <trkpt lat="60.19235" lon="7.48761">
        <ele>1328.68</ele>
        <time>2019-04-04T14:23:53Z</time>
      </trkpt>
      <trkpt lat="60.19249" lon="7.48764">
        <ele>1330.6</ele>
        <time>2019-04-04T14:23:57Z</time>
      </trkpt>
      <trkpt lat="60.19245" lon="7.48766">
        <ele>1327.72</ele>
        <time>2019-04-04T14:24:01Z</time>
      </trkpt>
      <trkpt lat="60.19231" lon="7.48774">
        <ele>1325.31</ele>
        <time>2019-04-04T14:24:04Z</time>
      </trkpt>
      <trkpt lat="60.19221" lon="7.48787">
        <ele>1320.03</ele>
        <time>2019-04-04T14:24:06Z</time>
      </trkpt>
      <trkpt lat="60.19194" lon="7.48817">
        <ele>1312.34</ele>
        <time>2019-04-04T14:24:10Z</time>
      </trkpt>
      <trkpt lat="60.19171" lon="7.48836">
        <ele>1306.57</ele>
        <time>2019-04-04T14:24:13Z</time>
      </trkpt>
      <trkpt lat="60.19164" lon="7.48844">
        <ele>1304.17</ele>
        <time>2019-04-04T14:24:14Z</time>
      </trkpt>
      <trkpt lat="60.19144" lon="7.48852">
        <ele>1300.8</ele>
        <time>2019-04-04T14:24:17Z</time>
      </trkpt>
      <trkpt lat="60.1914" lon="7.4885">
        <ele>1300.8</ele>
        <time>2019-04-04T14:24:18Z</time>
      </trkpt>
      <trkpt lat="60.19135" lon="7.48831">
        <ele>1301.76</ele>
        <time>2019-04-04T14:24:21Z</time>
      </trkpt>
      <trkpt lat="60.19137" lon="7.48825">
        <ele>1304.17</ele>
        <time>2019-04-04T14:24:23Z</time>
      </trkpt>
      <trkpt lat="60.19136" lon="7.48809">
        <ele>1307.05</ele>
        <time>2019-04-04T14:24:29Z</time>
      </trkpt>
      <trkpt lat="60.19136" lon="7.48806">
        <ele>1307.53</ele>
        <time>2019-04-04T14:24:38Z</time>
      </trkpt>
      <trkpt lat="60.19137" lon="7.48805">
        <ele>1307.53</ele>
        <time>2019-04-04T14:24:54Z</time>
      </trkpt>
      <trkpt lat="60.19138" lon="7.48805">
        <ele>1308.49</ele>
        <time>2019-04-04T14:25:11Z</time>
      </trkpt>
      <trkpt lat="60.19138" lon="7.48805">
        <ele>1308.49</ele>
        <time>2019-04-04T14:25:12Z</time>
      </trkpt>
      <trkpt lat="60.1914" lon="7.488">
        <ele>1308.97</ele>
        <time>2019-04-04T14:25:16Z</time>
      </trkpt>
      <trkpt lat="60.19155" lon="7.48769">
        <ele>1312.34</ele>
        <time>2019-04-04T14:25:21Z</time>
      </trkpt>
      <trkpt lat="60.19167" lon="7.48763">
        <ele>1315.7</ele>
        <time>2019-04-04T14:25:23Z</time>
      </trkpt>
      <trkpt lat="60.19192" lon="7.48747">
        <ele>1319.55</ele>
        <time>2019-04-04T14:25:27Z</time>
      </trkpt>
      <trkpt lat="60.19201" lon="7.48737">
        <ele>1321.95</ele>
        <time>2019-04-04T14:25:29Z</time>
      </trkpt>
      <trkpt lat="60.19211" lon="7.48729">
        <ele>1325.31</ele>
        <time>2019-04-04T14:25:31Z</time>
      </trkpt>
      <trkpt lat="60.19227" lon="7.4872">
        <ele>1330.6</ele>
        <time>2019-04-04T14:25:34Z</time>
      </trkpt>
      <trkpt lat="60.19233" lon="7.48717">
        <ele>1332.52</ele>
        <time>2019-04-04T14:25:35Z</time>
      </trkpt>
      <trkpt lat="60.1925" lon="7.48714">
        <ele>1337.81</ele>
        <time>2019-04-04T14:25:38Z</time>
      </trkpt>
      <trkpt lat="60.19256" lon="7.48714">
        <ele>1339.73</ele>
        <time>2019-04-04T14:25:39Z</time>
      </trkpt>
      <trkpt lat="60.19272" lon="7.4871">
        <ele>1344.54</ele>
        <time>2019-04-04T14:25:43Z</time>
      </trkpt>
      <trkpt lat="60.19285" lon="7.48704">
        <ele>1346.46</ele>
        <time>2019-04-04T14:25:49Z</time>
      </trkpt>
      <trkpt lat="60.19284" lon="7.48704">
        <ele>1346.94</ele>
        <time>2019-04-04T14:25:51Z</time>
      </trkpt>
      <trkpt lat="60.19292" lon="7.48705">
        <ele>1347.43</ele>
        <time>2019-04-04T14:25:55Z</time>
      </trkpt>
      <trkpt lat="60.1932" lon="7.48701">
        <ele>1347.43</ele>
        <time>2019-04-04T14:26:00Z</time>
      </trkpt>
      <trkpt lat="60.19334" lon="7.48702">
        <ele>1345.98</ele>
        <time>2019-04-04T14:26:03Z</time>
      </trkpt>
      <trkpt lat="60.19319" lon="7.4871">
        <ele>1343.1</ele>
        <time>2019-04-04T14:26:09Z</time>
      </trkpt>
      <trkpt lat="60.19306" lon="7.4872">
        <ele>1341.18</ele>
        <time>2019-04-04T14:26:15Z</time>
      </trkpt>
      <trkpt lat="60.19302" lon="7.48722">
        <ele>1341.18</ele>
        <time>2019-04-04T14:26:16Z</time>
      </trkpt>
      <trkpt lat="60.19284" lon="7.48733">
        <ele>1339.73</ele>
        <time>2019-04-04T14:26:21Z</time>
      </trkpt>
      <trkpt lat="60.19281" lon="7.48733">
        <ele>1339.73</ele>
        <time>2019-04-04T14:26:22Z</time>
      </trkpt>
      <trkpt lat="60.1927" lon="7.48742">
        <ele>1338.29</ele>
        <time>2019-04-04T14:26:25Z</time>
      </trkpt>
      <trkpt lat="60.19258" lon="7.4875">
        <ele>1333.01</ele>
        <time>2019-04-04T14:26:28Z</time>
      </trkpt>
      <trkpt lat="60.19248" lon="7.48753">
        <ele>1330.12</ele>
        <time>2019-04-04T14:26:30Z</time>
      </trkpt>
      <trkpt lat="60.19222" lon="7.48774">
        <ele>1321.47</ele>
        <time>2019-04-04T14:26:34Z</time>
      </trkpt>
      <trkpt lat="60.19216" lon="7.48783">
        <ele>1319.07</ele>
        <time>2019-04-04T14:26:35Z</time>
      </trkpt>
      <trkpt lat="60.19195" lon="7.48802">
        <ele>1313.78</ele>
        <time>2019-04-04T14:26:38Z</time>
      </trkpt>
      <trkpt lat="60.19181" lon="7.48816">
        <ele>1310.9</ele>
        <time>2019-04-04T14:26:40Z</time>
      </trkpt>
      <trkpt lat="60.19175" lon="7.48824">
        <ele>1307.53</ele>
        <time>2019-04-04T14:26:41Z</time>
      </trkpt>
      <trkpt lat="60.19163" lon="7.48838">
        <ele>1302.24</ele>
        <time>2019-04-04T14:26:43Z</time>
      </trkpt>
      <trkpt lat="60.19139" lon="7.48828">
        <ele>1303.69</ele>
        <time>2019-04-04T14:26:48Z</time>
      </trkpt>
      <trkpt lat="60.19138" lon="7.48822">
        <ele>1303.2</ele>
        <time>2019-04-04T14:26:49Z</time>
      </trkpt>
      <trkpt lat="60.19132" lon="7.48801">
        <ele>1307.05</ele>
        <time>2019-04-04T14:26:57Z</time>
      </trkpt>
      <trkpt lat="60.19131" lon="7.48791">
        <ele>1307.53</ele>
        <time>2019-04-04T14:26:59Z</time>
      </trkpt>
      <trkpt lat="60.19131" lon="7.48777">
        <ele>1309.45</ele>
        <time>2019-04-04T14:27:02Z</time>
      </trkpt>
      <trkpt lat="60.19131" lon="7.48772">
        <ele>1310.9</ele>
        <time>2019-04-04T14:27:04Z</time>
      </trkpt>
      <trkpt lat="60.19144" lon="7.4874">
        <ele>1314.74</ele>
        <time>2019-04-04T14:27:09Z</time>
      </trkpt>
      <trkpt lat="60.1915" lon="7.48736">
        <ele>1315.7</ele>
        <time>2019-04-04T14:27:10Z</time>
      </trkpt>
      <trkpt lat="60.19186" lon="7.48728">
        <ele>1321.47</ele>
        <time>2019-04-04T14:27:15Z</time>
      </trkpt>
      <trkpt lat="60.1921" lon="7.48733">
        <ele>1325.31</ele>
        <time>2019-04-04T14:27:19Z</time>
      </trkpt>
      <trkpt lat="60.1922" lon="7.48734">
        <ele>1327.72</ele>
        <time>2019-04-04T14:27:21Z</time>
      </trkpt>
      <trkpt lat="60.19236" lon="7.48739">
        <ele>1331.56</ele>
        <time>2019-04-04T14:27:25Z</time>
      </trkpt>
      <trkpt lat="60.1925" lon="7.48744">
        <ele>1333.49</ele>
        <time>2019-04-04T14:27:29Z</time>
      </trkpt>
      <trkpt lat="60.19253" lon="7.48746">
        <ele>1334.45</ele>
        <time>2019-04-04T14:27:41Z</time>
      </trkpt>
      <trkpt lat="60.19252" lon="7.48746">
        <ele>1332.04</ele>
        <time>2019-04-04T14:27:54Z</time>
      </trkpt>
      <trkpt lat="60.19249" lon="7.48747">
        <ele>1330.6</ele>
        <time>2019-04-04T14:27:59Z</time>
      </trkpt>
      <trkpt lat="60.19239" lon="7.48756">
        <ele>1327.72</ele>
        <time>2019-04-04T14:28:03Z</time>
      </trkpt>
      <trkpt lat="60.19229" lon="7.48769">
        <ele>1322.91</ele>
        <time>2019-04-04T14:28:05Z</time>
      </trkpt>
      <trkpt lat="60.19211" lon="7.48803">
        <ele>1314.74</ele>
        <time>2019-04-04T14:28:09Z</time>
      </trkpt>
      <trkpt lat="60.19191" lon="7.48836">
        <ele>1310.9</ele>
        <time>2019-04-04T14:28:12Z</time>
      </trkpt>
      <trkpt lat="60.19178" lon="7.48853">
        <ele>1307.53</ele>
        <time>2019-04-04T14:28:14Z</time>
      </trkpt>
      <trkpt lat="60.19154" lon="7.48889">
        <ele>1299.36</ele>
        <time>2019-04-04T14:28:18Z</time>
      </trkpt>
      <trkpt lat="60.19142" lon="7.4892">
        <ele>1293.59</ele>
        <time>2019-04-04T14:28:21Z</time>
      </trkpt>
      <trkpt lat="60.19137" lon="7.48932">
        <ele>1295.03</ele>
        <time>2019-04-04T14:28:25Z</time>
      </trkpt>
      <trkpt lat="60.19134" lon="7.48926">
        <ele>1295.51</ele>
        <time>2019-04-04T14:28:29Z</time>
      </trkpt>
      <trkpt lat="60.19133" lon="7.48912">
        <ele>1295.99</ele>
        <time>2019-04-04T14:28:32Z</time>
      </trkpt>
      <trkpt lat="60.19143" lon="7.48871">
        <ele>1299.84</ele>
        <time>2019-04-04T14:28:37Z</time>
      </trkpt>
      <trkpt lat="60.19157" lon="7.48856">
        <ele>1303.69</ele>
        <time>2019-04-04T14:28:40Z</time>
      </trkpt>
      <trkpt lat="60.19176" lon="7.48834">
        <ele>1307.05</ele>
        <time>2019-04-04T14:28:44Z</time>
      </trkpt>
      <trkpt lat="60.19182" lon="7.48815">
        <ele>1309.93</ele>
        <time>2019-04-04T14:28:46Z</time>
      </trkpt>
      <trkpt lat="60.19192" lon="7.48802">
        <ele>1313.78</ele>
        <time>2019-04-04T14:28:48Z</time>
      </trkpt>
      <trkpt lat="60.19209" lon="7.48783">
        <ele>1319.55</ele>
        <time>2019-04-04T14:28:52Z</time>
      </trkpt>
      <trkpt lat="60.19221" lon="7.48772">
        <ele>1323.39</ele>
        <time>2019-04-04T14:28:55Z</time>
      </trkpt>
      <trkpt lat="60.19232" lon="7.4876">
        <ele>1327.24</ele>
        <time>2019-04-04T14:28:58Z</time>
      </trkpt>
      <trkpt lat="60.19244" lon="7.4875">
        <ele>1331.08</ele>
        <time>2019-04-04T14:29:01Z</time>
      </trkpt>
      <trkpt lat="60.19247" lon="7.48745">
        <ele>1331.56</ele>
        <time>2019-04-04T14:29:02Z</time>
      </trkpt>
      <trkpt lat="60.19255" lon="7.48732">
        <ele>1336.37</ele>
        <time>2019-04-04T14:29:06Z</time>
      </trkpt>
      <trkpt lat="60.19265" lon="7.48731">
        <ele>1339.73</ele>
        <time>2019-04-04T14:29:09Z</time>
      </trkpt>
      <trkpt lat="60.19279" lon="7.48745">
        <ele>1341.18</ele>
        <time>2019-04-04T14:29:14Z</time>
      </trkpt>
      <trkpt lat="60.19283" lon="7.48746">
        <ele>1339.73</ele>
        <time>2019-04-04T14:29:17Z</time>
      </trkpt>
      <trkpt lat="60.19282" lon="7.48747">
        <ele>1338.29</ele>
        <time>2019-04-04T14:29:19Z</time>
      </trkpt>
      <trkpt lat="60.19281" lon="7.48748">
        <ele>1337.81</ele>
        <time>2019-04-04T14:29:22Z</time>
      </trkpt>
      <trkpt lat="60.19269" lon="7.4876">
        <ele>1333.97</ele>
        <time>2019-04-04T14:29:27Z</time>
      </trkpt>
      <trkpt lat="60.19259" lon="7.48772">
        <ele>1329.64</ele>
        <time>2019-04-04T14:29:30Z</time>
      </trkpt>
      <trkpt lat="60.19246" lon="7.48784">
        <ele>1324.83</ele>
        <time>2019-04-04T14:29:33Z</time>
      </trkpt>
      <trkpt lat="60.19233" lon="7.48797">
        <ele>1320.51</ele>
        <time>2019-04-04T14:29:35Z</time>
      </trkpt>
      <trkpt lat="60.19223" lon="7.48813">
        <ele>1319.07</ele>
        <time>2019-04-04T14:29:37Z</time>
      </trkpt>
      <trkpt lat="60.19199" lon="7.48854">
        <ele>1308.97</ele>
        <time>2019-04-04T14:29:42Z</time>
      </trkpt>
      <trkpt lat="60.19193" lon="7.48863">
        <ele>1308.01</ele>
        <time>2019-04-04T14:29:43Z</time>
      </trkpt>
      <trkpt lat="60.19182" lon="7.489">
        <ele>1297.92</ele>
        <time>2019-04-04T14:29:46Z</time>
      </trkpt>
      <trkpt lat="60.19178" lon="7.48912">
        <ele>1294.55</ele>
        <time>2019-04-04T14:29:47Z</time>
      </trkpt>
      <trkpt lat="60.19173" lon="7.48924">
        <ele>1294.07</ele>
        <time>2019-04-04T14:29:48Z</time>
      </trkpt>
      <trkpt lat="60.19162" lon="7.48969">
        <ele>1293.59</ele>
        <time>2019-04-04T14:29:52Z</time>
      </trkpt>
      <trkpt lat="60.19157" lon="7.48979">
        <ele>1293.11</ele>
        <time>2019-04-04T14:29:56Z</time>
      </trkpt>
      <trkpt lat="60.19156" lon="7.48965">
        <ele>1295.51</ele>
        <time>2019-04-04T14:29:59Z</time>
      </trkpt>
      <trkpt lat="60.19158" lon="7.48956">
        <ele>1295.51</ele>
        <time>2019-04-04T14:30:00Z</time>
      </trkpt>
      <trkpt lat="60.19165" lon="7.48909">
        <ele>1297.44</ele>
        <time>2019-04-04T14:30:05Z</time>
      </trkpt>
      <trkpt lat="60.19173" lon="7.48863">
        <ele>1302.72</ele>
        <time>2019-04-04T14:30:11Z</time>
      </trkpt>
      <trkpt lat="60.19176" lon="7.48842">
        <ele>1306.09</ele>
        <time>2019-04-04T14:30:15Z</time>
      </trkpt>
      <trkpt lat="60.19184" lon="7.48809">
        <ele>1311.38</ele>
        <time>2019-04-04T14:30:20Z</time>
      </trkpt>
      <trkpt lat="60.19191" lon="7.48787">
        <ele>1315.22</ele>
        <time>2019-04-04T14:30:23Z</time>
      </trkpt>
      <trkpt lat="60.19203" lon="7.48765">
        <ele>1320.03</ele>
        <time>2019-04-04T14:30:29Z</time>
      </trkpt>
      <trkpt lat="60.19205" lon="7.48758">
        <ele>1320.99</ele>
        <time>2019-04-04T14:30:30Z</time>
      </trkpt>
      <trkpt lat="60.19217" lon="7.48736">
        <ele>1326.76</ele>
        <time>2019-04-04T14:30:33Z</time>
      </trkpt>
      <trkpt lat="60.19223" lon="7.4873">
        <ele>1328.68</ele>
        <time>2019-04-04T14:30:34Z</time>
      </trkpt>
      <trkpt lat="60.19241" lon="7.4872">
        <ele>1333.97</ele>
        <time>2019-04-04T14:30:37Z</time>
      </trkpt>
      <trkpt lat="60.19253" lon="7.48717">
        <ele>1338.77</ele>
        <time>2019-04-04T14:30:39Z</time>
      </trkpt>
      <trkpt lat="60.19268" lon="7.48716">
        <ele>1343.58</ele>
        <time>2019-04-04T14:30:42Z</time>
      </trkpt>
      <trkpt lat="60.19277" lon="7.48719">
        <ele>1344.06</ele>
        <time>2019-04-04T14:30:44Z</time>
      </trkpt>
      <trkpt lat="60.19283" lon="7.4872">
        <ele>1343.1</ele>
        <time>2019-04-04T14:30:46Z</time>
      </trkpt>
      <trkpt lat="60.19282" lon="7.48723">
        <ele>1342.14</ele>
        <time>2019-04-04T14:30:48Z</time>
      </trkpt>
      <trkpt lat="60.19276" lon="7.48732">
        <ele>1339.73</ele>
        <time>2019-04-04T14:30:51Z</time>
      </trkpt>
      <trkpt lat="60.19272" lon="7.48734">
        <ele>1338.29</ele>
        <time>2019-04-04T14:30:52Z</time>
      </trkpt>
      <trkpt lat="60.19257" lon="7.4875">
        <ele>1335.41</ele>
        <time>2019-04-04T14:30:55Z</time>
      </trkpt>
      <trkpt lat="60.19245" lon="7.48762">
        <ele>1327.24</ele>
        <time>2019-04-04T14:30:57Z</time>
      </trkpt>
      <trkpt lat="60.19228" lon="7.48788">
        <ele>1323.39</ele>
        <time>2019-04-04T14:31:00Z</time>
      </trkpt>
      <trkpt lat="60.19216" lon="7.48792">
        <ele>1320.03</ele>
        <time>2019-04-04T14:31:02Z</time>
      </trkpt>
      <trkpt lat="60.19211" lon="7.48787">
        <ele>1319.55</ele>
        <time>2019-04-04T14:31:04Z</time>
      </trkpt>
      <trkpt lat="60.19205" lon="7.48795">
        <ele>1316.18</ele>
        <time>2019-04-04T14:31:07Z</time>
      </trkpt>
      <trkpt lat="60.19201" lon="7.48811">
        <ele>1310.9</ele>
        <time>2019-04-04T14:31:09Z</time>
      </trkpt>
      <trkpt lat="60.19194" lon="7.48833">
        <ele>1308.01</ele>
        <time>2019-04-04T14:31:11Z</time>
      </trkpt>
      <trkpt lat="60.19168" lon="7.48861">
        <ele>1304.17</ele>
        <time>2019-04-04T14:31:15Z</time>
      </trkpt>
      <trkpt lat="60.19159" lon="7.48865">
        <ele>1300.8</ele>
        <time>2019-04-04T14:31:17Z</time>
      </trkpt>
      <trkpt lat="60.19156" lon="7.48863">
        <ele>1300.8</ele>
        <time>2019-04-04T14:31:18Z</time>
      </trkpt>
      <trkpt lat="60.19147" lon="7.48882">
        <ele>1296.48</ele>
        <time>2019-04-04T14:31:22Z</time>
      </trkpt>
      <trkpt lat="60.19144" lon="7.48892">
        <ele>1295.03</ele>
        <time>2019-04-04T14:31:23Z</time>
      </trkpt>
      <trkpt lat="60.19139" lon="7.48913">
        <ele>1292.63</ele>
        <time>2019-04-04T14:31:25Z</time>
      </trkpt>
      <trkpt lat="60.19124" lon="7.48936">
        <ele>1292.63</ele>
        <time>2019-04-04T14:31:29Z</time>
      </trkpt>
      <trkpt lat="60.19116" lon="7.4895">
        <ele>1292.63</ele>
        <time>2019-04-04T14:31:31Z</time>
      </trkpt>
      <trkpt lat="60.19106" lon="7.48949">
        <ele>1295.51</ele>
        <time>2019-04-04T14:31:34Z</time>
      </trkpt>
      <trkpt lat="60.19122" lon="7.48932">
        <ele>1297.92</ele>
        <time>2019-04-04T14:31:38Z</time>
      </trkpt>
      <trkpt lat="60.19188" lon="7.48895">
        <ele>1301.76</ele>
        <time>2019-04-04T14:31:46Z</time>
      </trkpt>
      <trkpt lat="60.1921" lon="7.48883">
        <ele>1305.13</ele>
        <time>2019-04-04T14:31:49Z</time>
      </trkpt>
      <trkpt lat="60.19238" lon="7.48879">
        <ele>1309.93</ele>
        <time>2019-04-04T14:31:53Z</time>
      </trkpt>
      <trkpt lat="60.19251" lon="7.48878">
        <ele>1311.86</ele>
        <time>2019-04-04T14:31:55Z</time>
      </trkpt>
      <trkpt lat="60.19259" lon="7.48869">
        <ele>1312.82</ele>
        <time>2019-04-04T14:31:57Z</time>
      </trkpt>
      <trkpt lat="60.19259" lon="7.48858">
        <ele>1316.18</ele>
        <time>2019-04-04T14:31:59Z</time>
      </trkpt>
      <trkpt lat="60.19263" lon="7.48848">
        <ele>1320.03</ele>
        <time>2019-04-04T14:32:01Z</time>
      </trkpt>
      <trkpt lat="60.19266" lon="7.48846">
        <ele>1321.95</ele>
        <time>2019-04-04T14:32:02Z</time>
      </trkpt>
      <trkpt lat="60.19277" lon="7.48849">
        <ele>1324.35</ele>
        <time>2019-04-04T14:32:05Z</time>
      </trkpt>
      <trkpt lat="60.19277" lon="7.48859">
        <ele>1322.43</ele>
        <time>2019-04-04T14:32:10Z</time>
      </trkpt>
      <trkpt lat="60.19273" lon="7.48871">
        <ele>1317.14</ele>
        <time>2019-04-04T14:32:12Z</time>
      </trkpt>
      <trkpt lat="60.19264" lon="7.48892">
        <ele>1311.38</ele>
        <time>2019-04-04T14:32:14Z</time>
      </trkpt>
      <trkpt lat="60.19257" lon="7.48901">
        <ele>1311.38</ele>
        <time>2019-04-04T14:32:15Z</time>
      </trkpt>
      <trkpt lat="60.19249" lon="7.48911">
        <ele>1308.49</ele>
        <time>2019-04-04T14:32:16Z</time>
      </trkpt>
      <trkpt lat="60.19239" lon="7.48918">
        <ele>1307.53</ele>
        <time>2019-04-04T14:32:17Z</time>
      </trkpt>
      <trkpt lat="60.19218" lon="7.48927">
        <ele>1303.2</ele>
        <time>2019-04-04T14:32:19Z</time>
      </trkpt>
      <trkpt lat="60.19208" lon="7.48933">
        <ele>1300.8</ele>
        <time>2019-04-04T14:32:20Z</time>
      </trkpt>
      <trkpt lat="60.19191" lon="7.48946">
        <ele>1296.48</ele>
        <time>2019-04-04T14:32:22Z</time>
      </trkpt>
      <trkpt lat="60.19171" lon="7.48959">
        <ele>1294.55</ele>
        <time>2019-04-04T14:32:25Z</time>
      </trkpt>
      <trkpt lat="60.19169" lon="7.48962">
        <ele>1291.67</ele>
        <time>2019-04-04T14:32:26Z</time>
      </trkpt>
      <trkpt lat="60.19168" lon="7.48963">
        <ele>1295.99</ele>
        <time>2019-04-04T14:32:27Z</time>
      </trkpt>
      <trkpt lat="60.19167" lon="7.48962">
        <ele>1288.78</ele>
        <time>2019-04-04T14:32:29Z</time>
      </trkpt>
      <trkpt lat="60.19166" lon="7.48963">
        <ele>1295.51</ele>
        <time>2019-04-04T14:32:30Z</time>
      </trkpt>
      <trkpt lat="60.19159" lon="7.48981">
        <ele>1292.15</ele>
        <time>2019-04-04T14:32:34Z</time>
      </trkpt>
      <trkpt lat="60.19153" lon="7.48993">
        <ele>1291.67</ele>
        <time>2019-04-04T14:32:36Z</time>
      </trkpt>
      <trkpt lat="60.19144" lon="7.49022">
        <ele>1291.19</ele>
        <time>2019-04-04T14:32:42Z</time>
      </trkpt>
      <trkpt lat="60.19144" lon="7.49022">
        <ele>1291.19</ele>
        <time>2019-04-04T14:32:47Z</time>
      </trkpt>
      <trkpt lat="60.19152" lon="7.49016">
        <ele>1293.59</ele>
        <time>2019-04-04T14:32:51Z</time>
      </trkpt>
      <trkpt lat="60.19172" lon="7.49014">
        <ele>1294.55</ele>
        <time>2019-04-04T14:32:56Z</time>
      </trkpt>
      <trkpt lat="60.1918" lon="7.49005">
        <ele>1295.03</ele>
        <time>2019-04-04T14:32:58Z</time>
      </trkpt>
      <trkpt lat="60.19208" lon="7.4899">
        <ele>1296.48</ele>
        <time>2019-04-04T14:33:03Z</time>
      </trkpt>
      <trkpt lat="60.19219" lon="7.48986">
        <ele>1297.92</ele>
        <time>2019-04-04T14:33:05Z</time>
      </trkpt>
      <trkpt lat="60.19229" lon="7.48986">
        <ele>1299.84</ele>
        <time>2019-04-04T14:33:07Z</time>
      </trkpt>
      <trkpt lat="60.19234" lon="7.48973">
        <ele>1300.32</ele>
        <time>2019-04-04T14:33:13Z</time>
      </trkpt>
      <trkpt lat="60.19232" lon="7.48964">
        <ele>1300.8</ele>
        <time>2019-04-04T14:33:15Z</time>
      </trkpt>
      <trkpt lat="60.19216" lon="7.48929">
        <ele>1300.8</ele>
        <time>2019-04-04T14:33:22Z</time>
      </trkpt>
      <trkpt lat="60.19206" lon="7.48927">
        <ele>1299.36</ele>
        <time>2019-04-04T14:33:24Z</time>
      </trkpt>
      <trkpt lat="60.19189" lon="7.48899">
        <ele>1299.36</ele>
        <time>2019-04-04T14:33:28Z</time>
      </trkpt>
      <trkpt lat="60.19159" lon="7.48906">
        <ele>1295.51</ele>
        <time>2019-04-04T14:33:32Z</time>
      </trkpt>
      <trkpt lat="60.19144" lon="7.48906">
        <ele>1292.63</ele>
        <time>2019-04-04T14:33:34Z</time>
      </trkpt>
      <trkpt lat="60.19137" lon="7.48907">
        <ele>1281.09</ele>
        <time>2019-04-04T14:33:36Z</time>
      </trkpt>
      <trkpt lat="60.19136" lon="7.48907">
        <ele>1299.84</ele>
        <time>2019-04-04T14:33:37Z</time>
      </trkpt>
      <trkpt lat="60.19135" lon="7.48908">
        <ele>1305.13</ele>
        <time>2019-04-04T14:33:38Z</time>
      </trkpt>
      <trkpt lat="60.19137" lon="7.48907">
        <ele>1296.48</ele>
        <time>2019-04-04T14:33:39Z</time>
      </trkpt>
      <trkpt lat="60.19137" lon="7.48907">
        <ele>1289.75</ele>
        <time>2019-04-04T14:33:40Z</time>
      </trkpt>
      <trkpt lat="60.19137" lon="7.48907">
        <ele>1297.92</ele>
        <time>2019-04-04T14:33:41Z</time>
      </trkpt>
      <trkpt lat="60.19137" lon="7.48908">
        <ele>1297.44</ele>
        <time>2019-04-04T14:33:42Z</time>
      </trkpt>
      <trkpt lat="60.19138" lon="7.48912">
        <ele>1299.36</ele>
        <time>2019-04-04T14:33:44Z</time>
      </trkpt>
      <trkpt lat="60.19138" lon="7.48915">
        <ele>1295.99</ele>
        <time>2019-04-04T14:33:45Z</time>
      </trkpt>
      <trkpt lat="60.19138" lon="7.48932">
        <ele>1295.51</ele>
        <time>2019-04-04T14:33:49Z</time>
      </trkpt>
      <trkpt lat="60.19141" lon="7.48953">
        <ele>1295.99</ele>
        <time>2019-04-04T14:33:56Z</time>
      </trkpt>
      <trkpt lat="60.19141" lon="7.48951">
        <ele>1295.51</ele>
        <time>2019-04-04T14:34:09Z</time>
      </trkpt>
      <trkpt lat="60.19142" lon="7.48945">
        <ele>1295.99</ele>
        <time>2019-04-04T14:34:19Z</time>
      </trkpt>
      <trkpt lat="60.19145" lon="7.48948">
        <ele>1295.99</ele>
        <time>2019-04-04T14:34:33Z</time>
      </trkpt>
      <trkpt lat="60.19147" lon="7.48951">
        <ele>1293.11</ele>
        <time>2019-04-04T14:34:36Z</time>
      </trkpt>
      <trkpt lat="60.19148" lon="7.48953">
        <ele>1295.99</ele>
        <time>2019-04-04T14:34:37Z</time>
      </trkpt>
      <trkpt lat="60.19149" lon="7.48956">
        <ele>1296.48</ele>
        <time>2019-04-04T14:34:39Z</time>
      </trkpt>
      <trkpt lat="60.19149" lon="7.48959">
        <ele>1295.03</ele>
        <time>2019-04-04T14:34:41Z</time>
      </trkpt>
      <trkpt lat="60.1915" lon="7.48961">
        <ele>1296.96</ele>
        <time>2019-04-04T14:34:43Z</time>
      </trkpt>
      <trkpt lat="60.19153" lon="7.48973">
        <ele>1294.07</ele>
        <time>2019-04-04T14:34:55Z</time>
      </trkpt>
      <trkpt lat="60.19152" lon="7.48979">
        <ele>1294.07</ele>
        <time>2019-04-04T14:35:04Z</time>
      </trkpt>
      <trkpt lat="60.19146" lon="7.48995">
        <ele>1292.63</ele>
        <time>2019-04-04T14:35:16Z</time>
      </trkpt>
      <trkpt lat="60.19145" lon="7.48999">
        <ele>1293.11</ele>
        <time>2019-04-04T14:35:18Z</time>
      </trkpt>
      <trkpt lat="60.19144" lon="7.49003">
        <ele>1293.59</ele>
        <time>2019-04-04T14:35:30Z</time>
      </trkpt>
      <trkpt lat="60.19144" lon="7.49002">
        <ele>1290.23</ele>
        <time>2019-04-04T14:35:36Z</time>
      </trkpt>
      <trkpt lat="60.19144" lon="7.49002">
        <ele>1294.55</ele>
        <time>2019-04-04T14:35:37Z</time>
      </trkpt>
      <trkpt lat="60.19144" lon="7.49001">
        <ele>1292.63</ele>
        <time>2019-04-04T14:35:42Z</time>
      </trkpt>
      <trkpt lat="60.19144" lon="7.49001">
        <ele>1289.27</ele>
        <time>2019-04-04T14:35:47Z</time>
      </trkpt>
      <trkpt lat="60.19144" lon="7.49001">
        <ele>1294.07</ele>
        <time>2019-04-04T14:35:48Z</time>
      </trkpt>
      <trkpt lat="60.19144" lon="7.49001">
        <ele>1291.67</ele>
        <time>2019-04-04T14:35:51Z</time>
      </trkpt>
      <trkpt lat="60.19144" lon="7.49001">
        <ele>1293.59</ele>
        <time>2019-04-04T14:35:53Z</time>
      </trkpt>
      <trkpt lat="60.19144" lon="7.49">
        <ele>1296.96</ele>
        <time>2019-04-04T14:35:54Z</time>
      </trkpt>
      <trkpt lat="60.19144" lon="7.49">
        <ele>1294.55</ele>
        <time>2019-04-04T14:35:55Z</time>
      </trkpt>
      <trkpt lat="60.19144" lon="7.49">
        <ele>1292.15</ele>
        <time>2019-04-04T14:35:58Z</time>
      </trkpt>
      <trkpt lat="60.19145" lon="7.49002">
        <ele>1296.48</ele>
        <time>2019-04-04T14:36:11Z</time>
      </trkpt>
      <trkpt lat="60.19145" lon="7.49001">
        <ele>1291.67</ele>
        <time>2019-04-04T14:36:12Z</time>
      </trkpt>
      <trkpt lat="60.19144" lon="7.49001">
        <ele>1295.99</ele>
        <time>2019-04-04T14:36:14Z</time>
      </trkpt>
      <trkpt lat="60.19143" lon="7.49">
        <ele>1288.3</ele>
        <time>2019-04-04T14:36:28Z</time>
      </trkpt>
      <trkpt lat="60.19144" lon="7.49">
        <ele>1293.11</ele>
        <time>2019-04-04T14:36:29Z</time>
      </trkpt>
      <trkpt lat="60.19144" lon="7.49">
        <ele>1288.78</ele>
        <time>2019-04-04T14:36:40Z</time>
      </trkpt>
      <trkpt lat="60.19144" lon="7.49">
        <ele>1297.44</ele>
        <time>2019-04-04T14:36:41Z</time>
      </trkpt>
      <trkpt lat="60.19144" lon="7.49">
        <ele>1293.59</ele>
        <time>2019-04-04T14:36:42Z</time>
      </trkpt>
      <trkpt lat="60.19143" lon="7.49">
        <ele>1291.19</ele>
        <time>2019-04-04T14:36:47Z</time>
      </trkpt>
      <trkpt lat="60.19143" lon="7.49">
        <ele>1294.07</ele>
        <time>2019-04-04T14:36:48Z</time>
      </trkpt>
      <trkpt lat="60.19143" lon="7.48999">
        <ele>1294.07</ele>
        <time>2019-04-04T14:36:49Z</time>
      </trkpt>
      <trkpt lat="60.19143" lon="7.49">
        <ele>1292.63</ele>
        <time>2019-04-04T14:36:51Z</time>
      </trkpt>
      <trkpt lat="60.19143" lon="7.48999">
        <ele>1295.51</ele>
        <time>2019-04-04T14:37:06Z</time>
      </trkpt>
      <trkpt lat="60.19143" lon="7.49">
        <ele>1293.11</ele>
        <time>2019-04-04T14:37:19Z</time>
      </trkpt>
      <trkpt lat="60.19142" lon="7.48995">
        <ele>1292.63</ele>
        <time>2019-04-04T14:37:28Z</time>
      </trkpt>
      <trkpt lat="60.19143" lon="7.48999">
        <ele>1294.55</ele>
        <time>2019-04-04T14:37:35Z</time>
      </trkpt>
      <trkpt lat="60.19144" lon="7.48998">
        <ele>1293.11</ele>
        <time>2019-04-04T14:37:40Z</time>
      </trkpt>
      <trkpt lat="60.1914" lon="7.48987">
        <ele>1294.07</ele>
        <time>2019-04-04T14:37:53Z</time>
      </trkpt>
      <trkpt lat="60.19135" lon="7.48973">
        <ele>1294.55</ele>
        <time>2019-04-04T14:38:04Z</time>
      </trkpt>
      <trkpt lat="60.19134" lon="7.48961">
        <ele>1295.99</ele>
        <time>2019-04-04T14:38:15Z</time>
      </trkpt>
      <trkpt lat="60.19132" lon="7.48965">
        <ele>1294.07</ele>
        <time>2019-04-04T14:38:22Z</time>
      </trkpt>
      <trkpt lat="60.19132" lon="7.48967">
        <ele>1294.07</ele>
        <time>2019-04-04T14:38:25Z</time>
      </trkpt>
      <trkpt lat="60.19132" lon="7.48957">
        <ele>1295.51</ele>
        <time>2019-04-04T14:38:31Z</time>
      </trkpt>
      <trkpt lat="60.19135" lon="7.48956">
        <ele>1295.51</ele>
        <time>2019-04-04T14:38:39Z</time>
      </trkpt>
      <trkpt lat="60.19134" lon="7.48955">
        <ele>1295.51</ele>
        <time>2019-04-04T14:38:41Z</time>
      </trkpt>
      <trkpt lat="60.19132" lon="7.48958">
        <ele>1295.51</ele>
        <time>2019-04-04T14:38:49Z</time>
      </trkpt>
      <trkpt lat="60.19131" lon="7.48964">
        <ele>1295.51</ele>
        <time>2019-04-04T14:39:00Z</time>
      </trkpt>
      <trkpt lat="60.1913" lon="7.48964">
        <ele>1295.03</ele>
        <time>2019-04-04T14:39:19Z</time>
      </trkpt>
      <trkpt lat="60.1913" lon="7.48965">
        <ele>1295.51</ele>
        <time>2019-04-04T14:39:27Z</time>
      </trkpt>
      <trkpt lat="60.19136" lon="7.48974">
        <ele>1295.03</ele>
        <time>2019-04-04T14:39:38Z</time>
      </trkpt>
      <trkpt lat="60.19134" lon="7.48968">
        <ele>1295.99</ele>
        <time>2019-04-04T14:39:52Z</time>
      </trkpt>
      <trkpt lat="60.19134" lon="7.48969">
        <ele>1295.99</ele>
        <time>2019-04-04T14:40:05Z</time>
      </trkpt>
      <trkpt lat="60.1914" lon="7.48984">
        <ele>1293.11</ele>
        <time>2019-04-04T14:40:13Z</time>
      </trkpt>
      <trkpt lat="60.19141" lon="7.48987">
        <ele>1295.51</ele>
        <time>2019-04-04T14:40:15Z</time>
      </trkpt>
      <trkpt lat="60.19142" lon="7.48992">
        <ele>1294.07</ele>
        <time>2019-04-04T14:40:17Z</time>
      </trkpt>
      <trkpt lat="60.19143" lon="7.48994">
        <ele>1294.07</ele>
        <time>2019-04-04T14:40:18Z</time>
      </trkpt>
      <trkpt lat="60.19143" lon="7.48998">
        <ele>1293.11</ele>
        <time>2019-04-04T14:40:28Z</time>
      </trkpt>
      <trkpt lat="60.19142" lon="7.48995">
        <ele>1293.11</ele>
        <time>2019-04-04T14:40:35Z</time>
      </trkpt>
      <trkpt lat="60.19136" lon="7.48971">
        <ele>1295.03</ele>
        <time>2019-04-04T14:40:49Z</time>
      </trkpt>
      <trkpt lat="60.19135" lon="7.48969">
        <ele>1295.03</ele>
        <time>2019-04-04T14:40:50Z</time>
      </trkpt>
      <trkpt lat="60.19136" lon="7.48959">
        <ele>1296.48</ele>
        <time>2019-04-04T14:40:57Z</time>
      </trkpt>
      <trkpt lat="60.19132" lon="7.48971">
        <ele>1292.63</ele>
        <time>2019-04-04T14:41:06Z</time>
      </trkpt>
      <trkpt lat="60.19132" lon="7.48971">
        <ele>1292.63</ele>
        <time>2019-04-04T14:41:07Z</time>
      </trkpt>
      <trkpt lat="60.19132" lon="7.48971">
        <ele>1295.03</ele>
        <time>2019-04-04T14:41:09Z</time>
      </trkpt>
      <trkpt lat="60.19132" lon="7.48971">
        <ele>1295.03</ele>
        <time>2019-04-04T14:41:22Z</time>
      </trkpt>
      <trkpt lat="60.19132" lon="7.48971">
        <ele>1294.55</ele>
        <time>2019-04-04T14:41:23Z</time>
      </trkpt>
      <trkpt lat="60.19131" lon="7.48963">
        <ele>1294.55</ele>
        <time>2019-04-04T14:41:31Z</time>
      </trkpt>
      <trkpt lat="60.1913" lon="7.48961">
        <ele>1295.51</ele>
        <time>2019-04-04T14:41:34Z</time>
      </trkpt>
      <trkpt lat="60.19132" lon="7.48958">
        <ele>1295.51</ele>
        <time>2019-04-04T14:41:39Z</time>
      </trkpt>
      <trkpt lat="60.19138" lon="7.48979">
        <ele>1295.99</ele>
        <time>2019-04-04T14:41:49Z</time>
      </trkpt>
      <trkpt lat="60.1914" lon="7.48984">
        <ele>1295.99</ele>
        <time>2019-04-04T14:41:51Z</time>
      </trkpt>
      <trkpt lat="60.19141" lon="7.48991">
        <ele>1294.55</ele>
        <time>2019-04-04T14:41:54Z</time>
      </trkpt>
      <trkpt lat="60.19145" lon="7.49002">
        <ele>1291.19</ele>
        <time>2019-04-04T14:42:01Z</time>
      </trkpt>
      <trkpt lat="60.19145" lon="7.49001">
        <ele>1296.96</ele>
        <time>2019-04-04T14:42:07Z</time>
      </trkpt>
      <trkpt lat="60.19145" lon="7.49">
        <ele>1293.59</ele>
        <time>2019-04-04T14:42:08Z</time>
      </trkpt>
      <trkpt lat="60.19147" lon="7.49">
        <ele>1293.59</ele>
        <time>2019-04-04T14:42:16Z</time>
      </trkpt>
      <trkpt lat="60.19146" lon="7.49001">
        <ele>1292.63</ele>
        <time>2019-04-04T14:42:35Z</time>
      </trkpt>
      <trkpt lat="60.19145" lon="7.48999">
        <ele>1294.55</ele>
        <time>2019-04-04T14:42:37Z</time>
      </trkpt>
      <trkpt lat="60.19145" lon="7.48997">
        <ele>1290.23</ele>
        <time>2019-04-04T14:42:39Z</time>
      </trkpt>
      <trkpt lat="60.19144" lon="7.48996">
        <ele>1296.96</ele>
        <time>2019-04-04T14:42:40Z</time>
      </trkpt>
      <trkpt lat="60.19142" lon="7.4899">
        <ele>1289.27</ele>
        <time>2019-04-04T14:42:44Z</time>
      </trkpt>
      <trkpt lat="60.19142" lon="7.4899">
        <ele>1298.88</ele>
        <time>2019-04-04T14:42:45Z</time>
      </trkpt>
      <trkpt lat="60.19142" lon="7.4899">
        <ele>1294.07</ele>
        <time>2019-04-04T14:42:46Z</time>
      </trkpt>
      <trkpt lat="60.19137" lon="7.48977">
        <ele>1293.59</ele>
        <time>2019-04-04T14:42:58Z</time>
      </trkpt>
      <trkpt lat="60.19136" lon="7.48973">
        <ele>1295.03</ele>
        <time>2019-04-04T14:43:01Z</time>
      </trkpt>
      <trkpt lat="60.19135" lon="7.48972">
        <ele>1295.99</ele>
        <time>2019-04-04T14:43:16Z</time>
      </trkpt>
      <trkpt lat="60.19135" lon="7.48972">
        <ele>1295.99</ele>
        <time>2019-04-04T14:43:17Z</time>
      </trkpt>
      <trkpt lat="60.19134" lon="7.48967">
        <ele>1292.63</ele>
        <time>2019-04-04T14:43:20Z</time>
      </trkpt>
      <trkpt lat="60.19134" lon="7.48967">
        <ele>1296.48</ele>
        <time>2019-04-04T14:43:22Z</time>
      </trkpt>
      <trkpt lat="60.19134" lon="7.48967">
        <ele>1296.48</ele>
        <time>2019-04-04T14:43:23Z</time>
      </trkpt>
      <trkpt lat="60.19136" lon="7.48967">
        <ele>1295.51</ele>
        <time>2019-04-04T14:43:30Z</time>
      </trkpt>
      <trkpt lat="60.19136" lon="7.48967">
        <ele>1295.51</ele>
        <time>2019-04-04T14:43:40Z</time>
      </trkpt>
      <trkpt lat="60.19146" lon="7.48992">
        <ele>1295.03</ele>
        <time>2019-04-04T14:43:53Z</time>
      </trkpt>
      <trkpt lat="60.19146" lon="7.48993">
        <ele>1293.11</ele>
        <time>2019-04-04T14:43:57Z</time>
      </trkpt>
      <trkpt lat="60.19146" lon="7.48993">
        <ele>1294.55</ele>
        <time>2019-04-04T14:43:59Z</time>
      </trkpt>
      <trkpt lat="60.19145" lon="7.48995">
        <ele>1289.27</ele>
        <time>2019-04-04T14:44:06Z</time>
      </trkpt>
      <trkpt lat="60.19145" lon="7.48995">
        <ele>1297.92</ele>
        <time>2019-04-04T14:44:07Z</time>
      </trkpt>
      <trkpt lat="60.19145" lon="7.48995">
        <ele>1294.07</ele>
        <time>2019-04-04T14:44:08Z</time>
      </trkpt>
      <trkpt lat="60.19147" lon="7.48998">
        <ele>1289.27</ele>
        <time>2019-04-04T14:44:13Z</time>
      </trkpt>
      <trkpt lat="60.19146" lon="7.48997">
        <ele>1296.48</ele>
        <time>2019-04-04T14:44:14Z</time>
      </trkpt>
      <trkpt lat="60.19145" lon="7.48994">
        <ele>1293.59</ele>
        <time>2019-04-04T14:44:17Z</time>
      </trkpt>
      <trkpt lat="60.19144" lon="7.48994">
        <ele>1294.55</ele>
        <time>2019-04-04T14:44:23Z</time>
      </trkpt>
      <trkpt lat="60.19145" lon="7.48995">
        <ele>1293.59</ele>
        <time>2019-04-04T14:44:25Z</time>
      </trkpt>
      <trkpt lat="60.19146" lon="7.48996">
        <ele>1293.59</ele>
        <time>2019-04-04T14:44:34Z</time>
      </trkpt>
      <trkpt lat="60.19145" lon="7.48995">
        <ele>1293.59</ele>
        <time>2019-04-04T14:44:43Z</time>
      </trkpt>
      <trkpt lat="60.19145" lon="7.48996">
        <ele>1293.59</ele>
        <time>2019-04-04T14:44:57Z</time>
      </trkpt>
      <trkpt lat="60.19143" lon="7.48993">
        <ele>1295.03</ele>
        <time>2019-04-04T14:45:04Z</time>
      </trkpt>
      <trkpt lat="60.19141" lon="7.48991">
        <ele>1295.03</ele>
        <time>2019-04-04T14:45:12Z</time>
      </trkpt>
      <trkpt lat="60.19135" lon="7.48972">
        <ele>1296.48</ele>
        <time>2019-04-04T14:45:24Z</time>
      </trkpt>
      <trkpt lat="60.19135" lon="7.48972">
        <ele>1296.48</ele>
        <time>2019-04-04T14:45:25Z</time>
      </trkpt>
      <trkpt lat="60.19135" lon="7.48972">
        <ele>1295.03</ele>
        <time>2019-04-04T14:45:27Z</time>
      </trkpt>
      <trkpt lat="60.19135" lon="7.48971">
        <ele>1295.51</ele>
        <time>2019-04-04T14:45:41Z</time>
      </trkpt>
      <trkpt lat="60.19136" lon="7.48972">
        <ele>1295.51</ele>
        <time>2019-04-04T14:45:55Z</time>
      </trkpt>
      <trkpt lat="60.19137" lon="7.48973">
        <ele>1296.96</ele>
        <time>2019-04-04T14:45:57Z</time>
      </trkpt>
      <trkpt lat="60.19142" lon="7.48985">
        <ele>1295.99</ele>
        <time>2019-04-04T14:46:10Z</time>
      </trkpt>
      <trkpt lat="60.19142" lon="7.48986">
        <ele>1294.55</ele>
        <time>2019-04-04T14:46:12Z</time>
      </trkpt>
      <trkpt lat="60.19142" lon="7.48987">
        <ele>1295.99</ele>
        <time>2019-04-04T14:46:22Z</time>
      </trkpt>
      <trkpt lat="60.19141" lon="7.48989">
        <ele>1294.55</ele>
        <time>2019-04-04T14:46:31Z</time>
      </trkpt>
      <trkpt lat="60.19141" lon="7.4899">
        <ele>1295.99</ele>
        <time>2019-04-04T14:46:33Z</time>
      </trkpt>
      <trkpt lat="60.19146" lon="7.48998">
        <ele>1295.99</ele>
        <time>2019-04-04T14:46:41Z</time>
      </trkpt>
      <trkpt lat="60.19146" lon="7.48997">
        <ele>1294.07</ele>
        <time>2019-04-04T14:46:43Z</time>
      </trkpt>
      <trkpt lat="60.19145" lon="7.48996">
        <ele>1294.07</ele>
        <time>2019-04-04T14:47:00Z</time>
      </trkpt>
      <trkpt lat="60.19142" lon="7.4899">
        <ele>1296.96</ele>
        <time>2019-04-04T14:47:05Z</time>
      </trkpt>
      <trkpt lat="60.19145" lon="7.48992">
        <ele>1293.59</ele>
        <time>2019-04-04T14:47:18Z</time>
      </trkpt>
      <trkpt lat="60.19145" lon="7.48993">
        <ele>1296.48</ele>
        <time>2019-04-04T14:47:20Z</time>
      </trkpt>
      <trkpt lat="60.19146" lon="7.48994">
        <ele>1295.51</ele>
        <time>2019-04-04T14:47:34Z</time>
      </trkpt>
      <trkpt lat="60.19147" lon="7.48995">
        <ele>1295.51</ele>
        <time>2019-04-04T14:47:49Z</time>
      </trkpt>
      <trkpt lat="60.19145" lon="7.49">
        <ele>1295.99</ele>
        <time>2019-04-04T14:47:56Z</time>
      </trkpt>
      <trkpt lat="60.19147" lon="7.48997">
        <ele>1295.51</ele>
        <time>2019-04-04T14:48:07Z</time>
      </trkpt>
      <trkpt lat="60.19147" lon="7.48996">
        <ele>1295.51</ele>
        <time>2019-04-04T14:48:23Z</time>
      </trkpt>
      <trkpt lat="60.19147" lon="7.48996">
        <ele>1295.51</ele>
        <time>2019-04-04T14:48:41Z</time>
      </trkpt>
      <trkpt lat="60.19147" lon="7.48997">
        <ele>1294.55</ele>
        <time>2019-04-04T14:48:57Z</time>
      </trkpt>
      <trkpt lat="60.19146" lon="7.48997">
        <ele>1294.55</ele>
        <time>2019-04-04T14:48:58Z</time>
      </trkpt>
      <trkpt lat="60.19146" lon="7.48998">
        <ele>1294.55</ele>
        <time>2019-04-04T14:49:14Z</time>
      </trkpt>
      <trkpt lat="60.19146" lon="7.49">
        <ele>1294.55</ele>
        <time>2019-04-04T14:49:41Z</time>
      </trkpt>
      <trkpt lat="60.19146" lon="7.49002">
        <ele>1294.55</ele>
        <time>2019-04-04T14:49:43Z</time>
      </trkpt>
      <trkpt lat="60.19147" lon="7.49011">
        <ele>1293.59</ele>
        <time>2019-04-04T14:49:54Z</time>
      </trkpt>
      <trkpt lat="60.19147" lon="7.49002">
        <ele>1295.03</ele>
        <time>2019-04-04T14:50:06Z</time>
      </trkpt>
      <trkpt lat="60.19144" lon="7.48997">
        <ele>1295.03</ele>
        <time>2019-04-04T14:50:16Z</time>
      </trkpt>
      <trkpt lat="60.19142" lon="7.48996">
        <ele>1295.03</ele>
        <time>2019-04-04T14:50:28Z</time>
      </trkpt>
      <trkpt lat="60.19141" lon="7.48996">
        <ele>1295.03</ele>
        <time>2019-04-04T14:50:31Z</time>
      </trkpt>
      <trkpt lat="60.19147" lon="7.48976">
        <ele>1296.48</ele>
        <time>2019-04-04T14:50:36Z</time>
      </trkpt>
      <trkpt lat="60.19161" lon="7.48935">
        <ele>1297.44</ele>
        <time>2019-04-04T14:50:40Z</time>
      </trkpt>
      <trkpt lat="60.19171" lon="7.4889">
        <ele>1300.8</ele>
        <time>2019-04-04T14:50:44Z</time>
      </trkpt>
      <trkpt lat="60.19176" lon="7.48872">
        <ele>1302.72</ele>
        <time>2019-04-04T14:50:46Z</time>
      </trkpt>
      <trkpt lat="60.19186" lon="7.48847">
        <ele>1308.01</ele>
        <time>2019-04-04T14:50:50Z</time>
      </trkpt>
      <trkpt lat="60.19188" lon="7.48834">
        <ele>1309.93</ele>
        <time>2019-04-04T14:50:52Z</time>
      </trkpt>
      <trkpt lat="60.19199" lon="7.48813">
        <ele>1315.22</ele>
        <time>2019-04-04T14:50:55Z</time>
      </trkpt>
      <trkpt lat="60.19213" lon="7.488">
        <ele>1320.51</ele>
        <time>2019-04-04T14:50:58Z</time>
      </trkpt>
      <trkpt lat="60.19227" lon="7.48792">
        <ele>1324.83</ele>
        <time>2019-04-04T14:51:01Z</time>
      </trkpt>
      <trkpt lat="60.19245" lon="7.48785">
        <ele>1328.68</ele>
        <time>2019-04-04T14:51:05Z</time>
      </trkpt>
      <trkpt lat="60.19261" lon="7.48784">
        <ele>1332.52</ele>
        <time>2019-04-04T14:51:09Z</time>
      </trkpt>
      <trkpt lat="60.19273" lon="7.48797">
        <ele>1331.56</ele>
        <time>2019-04-04T14:51:16Z</time>
      </trkpt>
      <trkpt lat="60.19273" lon="7.48798">
        <ele>1331.56</ele>
        <time>2019-04-04T14:51:17Z</time>
      </trkpt>
      <trkpt lat="60.19272" lon="7.48799">
        <ele>1330.12</ele>
        <time>2019-04-04T14:51:31Z</time>
      </trkpt>
      <trkpt lat="60.19272" lon="7.48799">
        <ele>1330.12</ele>
        <time>2019-04-04T14:51:32Z</time>
      </trkpt>
      <trkpt lat="60.19263" lon="7.48797">
        <ele>1329.16</ele>
        <time>2019-04-04T14:51:37Z</time>
      </trkpt>
      <trkpt lat="60.19252" lon="7.4881">
        <ele>1324.83</ele>
        <time>2019-04-04T14:51:40Z</time>
      </trkpt>
      <trkpt lat="60.19242" lon="7.48827">
        <ele>1320.51</ele>
        <time>2019-04-04T14:51:42Z</time>
      </trkpt>
      <trkpt lat="60.19224" lon="7.48849">
        <ele>1316.66</ele>
        <time>2019-04-04T14:51:45Z</time>
      </trkpt>
      <trkpt lat="60.19219" lon="7.4887">
        <ele>1312.34</ele>
        <time>2019-04-04T14:51:47Z</time>
      </trkpt>
      <trkpt lat="60.19216" lon="7.4888">
        <ele>1308.49</ele>
        <time>2019-04-04T14:51:48Z</time>
      </trkpt>
      <trkpt lat="60.19211" lon="7.48886">
        <ele>1305.13</ele>
        <time>2019-04-04T14:51:49Z</time>
      </trkpt>
      <trkpt lat="60.19208" lon="7.48886">
        <ele>1305.13</ele>
        <time>2019-04-04T14:51:50Z</time>
      </trkpt>
      <trkpt lat="60.19206" lon="7.48881">
        <ele>1305.61</ele>
        <time>2019-04-04T14:51:56Z</time>
      </trkpt>
      <trkpt lat="60.19206" lon="7.4888">
        <ele>1305.13</ele>
        <time>2019-04-04T14:51:58Z</time>
      </trkpt>
      <trkpt lat="60.19215" lon="7.48864">
        <ele>1309.93</ele>
        <time>2019-04-04T14:52:02Z</time>
      </trkpt>
      <trkpt lat="60.19229" lon="7.48845">
        <ele>1313.78</ele>
        <time>2019-04-04T14:52:06Z</time>
      </trkpt>
      <trkpt lat="60.19237" lon="7.48832">
        <ele>1318.1</ele>
        <time>2019-04-04T14:52:08Z</time>
      </trkpt>
      <trkpt lat="60.19256" lon="7.4882">
        <ele>1324.83</ele>
        <time>2019-04-04T14:52:12Z</time>
      </trkpt>
      <trkpt lat="60.19268" lon="7.48815">
        <ele>1327.72</ele>
        <time>2019-04-04T14:52:15Z</time>
      </trkpt>
      <trkpt lat="60.19262" lon="7.48813">
        <ele>1327.24</ele>
        <time>2019-04-04T14:52:19Z</time>
      </trkpt>
      <trkpt lat="60.19246" lon="7.48828">
        <ele>1321.47</ele>
        <time>2019-04-04T14:52:22Z</time>
      </trkpt>
      <trkpt lat="60.19231" lon="7.48843">
        <ele>1317.62</ele>
        <time>2019-04-04T14:52:24Z</time>
      </trkpt>
      <trkpt lat="60.1921" lon="7.48872">
        <ele>1309.45</ele>
        <time>2019-04-04T14:52:27Z</time>
      </trkpt>
      <trkpt lat="60.19203" lon="7.48882">
        <ele>1308.97</ele>
        <time>2019-04-04T14:52:28Z</time>
      </trkpt>
      <trkpt lat="60.19192" lon="7.48907">
        <ele>1302.24</ele>
        <time>2019-04-04T14:52:30Z</time>
      </trkpt>
      <trkpt lat="60.19185" lon="7.48916">
        <ele>1297.44</ele>
        <time>2019-04-04T14:52:31Z</time>
      </trkpt>
      <trkpt lat="60.19178" lon="7.48924">
        <ele>1297.44</ele>
        <time>2019-04-04T14:52:32Z</time>
      </trkpt>
      <trkpt lat="60.19163" lon="7.48941">
        <ele>1293.59</ele>
        <time>2019-04-04T14:52:34Z</time>
      </trkpt>
      <trkpt lat="60.1915" lon="7.48958">
        <ele>1292.63</ele>
        <time>2019-04-04T14:52:36Z</time>
      </trkpt>
      <trkpt lat="60.19139" lon="7.48961">
        <ele>1295.51</ele>
        <time>2019-04-04T14:52:38Z</time>
      </trkpt>
      <trkpt lat="60.19139" lon="7.48922">
        <ele>1297.44</ele>
        <time>2019-04-04T14:52:43Z</time>
      </trkpt>
      <trkpt lat="60.19135" lon="7.48901">
        <ele>1297.44</ele>
        <time>2019-04-04T14:52:46Z</time>
      </trkpt>
      <trkpt lat="60.19101" lon="7.48862">
        <ele>1297.92</ele>
        <time>2019-04-04T14:52:52Z</time>
      </trkpt>
      <trkpt lat="60.19046" lon="7.48822">
        <ele>1298.88</ele>
        <time>2019-04-04T14:52:58Z</time>
      </trkpt>
      <trkpt lat="60.19021" lon="7.48797">
        <ele>1303.2</ele>
        <time>2019-04-04T14:53:01Z</time>
      </trkpt>
      <trkpt lat="60.18995" lon="7.48771">
        <ele>1309.93</ele>
        <time>2019-04-04T14:53:04Z</time>
      </trkpt>
      <trkpt lat="60.18953" lon="7.48732">
        <ele>1314.74</ele>
        <time>2019-04-04T14:53:09Z</time>
      </trkpt>
      <trkpt lat="60.1893" lon="7.48711">
        <ele>1315.7</ele>
        <time>2019-04-04T14:53:12Z</time>
      </trkpt>
      <trkpt lat="60.18889" lon="7.48678">
        <ele>1312.82</ele>
        <time>2019-04-04T14:53:17Z</time>
      </trkpt>
      <trkpt lat="60.18872" lon="7.48668">
        <ele>1309.93</ele>
        <time>2019-04-04T14:53:19Z</time>
      </trkpt>
      <trkpt lat="60.18862" lon="7.48663">
        <ele>1307.05</ele>
        <time>2019-04-04T14:53:20Z</time>
      </trkpt>
      <trkpt lat="60.18853" lon="7.48658">
        <ele>1307.05</ele>
        <time>2019-04-04T14:53:21Z</time>
      </trkpt>
      <trkpt lat="60.18821" lon="7.48656">
        <ele>1301.28</ele>
        <time>2019-04-04T14:53:25Z</time>
      </trkpt>
      <trkpt lat="60.18814" lon="7.48657">
        <ele>1300.32</ele>
        <time>2019-04-04T14:53:26Z</time>
      </trkpt>
      <trkpt lat="60.18786" lon="7.48642">
        <ele>1301.28</ele>
        <time>2019-04-04T14:53:31Z</time>
      </trkpt>
      <trkpt lat="60.18772" lon="7.4864">
        <ele>1298.4</ele>
        <time>2019-04-04T14:53:34Z</time>
      </trkpt>
      <trkpt lat="60.18766" lon="7.48641">
        <ele>1296.48</ele>
        <time>2019-04-04T14:53:35Z</time>
      </trkpt>
      <trkpt lat="60.18746" lon="7.48644">
        <ele>1291.19</ele>
        <time>2019-04-04T14:53:38Z</time>
      </trkpt>
      <trkpt lat="60.1874" lon="7.48648">
        <ele>1287.34</ele>
        <time>2019-04-04T14:53:39Z</time>
      </trkpt>
      <trkpt lat="60.18726" lon="7.48654">
        <ele>1284.46</ele>
        <time>2019-04-04T14:53:41Z</time>
      </trkpt>
      <trkpt lat="60.18705" lon="7.48655">
        <ele>1275.33</ele>
        <time>2019-04-04T14:53:43Z</time>
      </trkpt>
      <trkpt lat="60.18693" lon="7.48654">
        <ele>1274.85</ele>
        <time>2019-04-04T14:53:44Z</time>
      </trkpt>
      <trkpt lat="60.18681" lon="7.4865">
        <ele>1272.92</ele>
        <time>2019-04-04T14:53:45Z</time>
      </trkpt>
      <trkpt lat="60.18658" lon="7.48645">
        <ele>1272.44</ele>
        <time>2019-04-04T14:53:47Z</time>
      </trkpt>
      <trkpt lat="60.18626" lon="7.48641">
        <ele>1270.04</ele>
        <time>2019-04-04T14:53:50Z</time>
      </trkpt>
      <trkpt lat="60.18606" lon="7.48649">
        <ele>1267.64</ele>
        <time>2019-04-04T14:53:53Z</time>
      </trkpt>
      <trkpt lat="60.18599" lon="7.48654">
        <ele>1264.75</ele>
        <time>2019-04-04T14:53:54Z</time>
      </trkpt>
      <trkpt lat="60.18581" lon="7.4866">
        <ele>1263.31</ele>
        <time>2019-04-04T14:53:56Z</time>
      </trkpt>
      <trkpt lat="60.18554" lon="7.48667">
        <ele>1261.87</ele>
        <time>2019-04-04T14:53:59Z</time>
      </trkpt>
      <trkpt lat="60.18535" lon="7.48677">
        <ele>1257.54</ele>
        <time>2019-04-04T14:54:01Z</time>
      </trkpt>
      <trkpt lat="60.18497" lon="7.48688">
        <ele>1255.62</ele>
        <time>2019-04-04T14:54:05Z</time>
      </trkpt>
      <trkpt lat="60.1848" lon="7.48683">
        <ele>1259.94</ele>
        <time>2019-04-04T14:54:08Z</time>
      </trkpt>
      <trkpt lat="60.18481" lon="7.48661">
        <ele>1260.91</ele>
        <time>2019-04-04T14:54:10Z</time>
      </trkpt>
      <trkpt lat="60.18489" lon="7.48632">
        <ele>1259.46</ele>
        <time>2019-04-04T14:54:12Z</time>
      </trkpt>
      <trkpt lat="60.18503" lon="7.48533">
        <ele>1256.58</ele>
        <time>2019-04-04T14:54:18Z</time>
      </trkpt>
      <trkpt lat="60.18501" lon="7.48484">
        <ele>1256.1</ele>
        <time>2019-04-04T14:54:23Z</time>
      </trkpt>
      <trkpt lat="60.18493" lon="7.48463">
        <ele>1255.62</ele>
        <time>2019-04-04T14:54:25Z</time>
      </trkpt>
      <trkpt lat="60.18461" lon="7.48408">
        <ele>1252.74</ele>
        <time>2019-04-04T14:54:30Z</time>
      </trkpt>
      <trkpt lat="60.18449" lon="7.48382">
        <ele>1253.7</ele>
        <time>2019-04-04T14:54:33Z</time>
      </trkpt>
      <trkpt lat="60.1844" lon="7.4834">
        <ele>1253.7</ele>
        <time>2019-04-04T14:54:37Z</time>
      </trkpt>
      <trkpt lat="60.18441" lon="7.48337">
        <ele>1253.7</ele>
        <time>2019-04-04T14:54:38Z</time>
      </trkpt>
      <trkpt lat="60.18441" lon="7.4833">
        <ele>1253.7</ele>
        <time>2019-04-04T14:54:40Z</time>
      </trkpt>
      <trkpt lat="60.18441" lon="7.48325">
        <ele>1253.7</ele>
        <time>2019-04-04T14:54:41Z</time>
      </trkpt>
      <trkpt lat="60.18442" lon="7.48316">
        <ele>1253.7</ele>
        <time>2019-04-04T14:54:44Z</time>
      </trkpt>
      <trkpt lat="60.18444" lon="7.48304">
        <ele>1254.66</ele>
        <time>2019-04-04T14:54:54Z</time>
      </trkpt>
      <trkpt lat="60.18444" lon="7.48301">
        <ele>1254.66</ele>
        <time>2019-04-04T14:54:56Z</time>
      </trkpt>
      <trkpt lat="60.18444" lon="7.48293">
        <ele>1254.66</ele>
        <time>2019-04-04T14:54:58Z</time>
      </trkpt>
      <trkpt lat="60.18445" lon="7.48289">
        <ele>1254.66</ele>
        <time>2019-04-04T14:54:59Z</time>
      </trkpt>
      <trkpt lat="60.18447" lon="7.4827">
        <ele>1254.66</ele>
        <time>2019-04-04T14:55:03Z</time>
      </trkpt>
      <trkpt lat="60.18448" lon="7.4826">
        <ele>1254.66</ele>
        <time>2019-04-04T14:55:04Z</time>
      </trkpt>
      <trkpt lat="60.18453" lon="7.48234">
        <ele>1252.25</ele>
        <time>2019-04-04T14:55:08Z</time>
      </trkpt>
      <trkpt lat="60.18454" lon="7.48231">
        <ele>1252.25</ele>
        <time>2019-04-04T14:55:09Z</time>
      </trkpt>
      <trkpt lat="60.18463" lon="7.48209">
        <ele>1251.29</ele>
        <time>2019-04-04T14:55:14Z</time>
      </trkpt>
      <trkpt lat="60.18491" lon="7.48161">
        <ele>1250.33</ele>
        <time>2019-04-04T14:55:20Z</time>
      </trkpt>
      <trkpt lat="60.18497" lon="7.48126">
        <ele>1249.85</ele>
        <time>2019-04-04T14:55:22Z</time>
      </trkpt>
      <trkpt lat="60.18549" lon="7.47977">
        <ele>1247.93</ele>
        <time>2019-04-04T14:55:31Z</time>
      </trkpt>
      <trkpt lat="60.18556" lon="7.47964">
        <ele>1248.41</ele>
        <time>2019-04-04T14:55:32Z</time>
      </trkpt>
      <trkpt lat="60.18563" lon="7.47955">
        <ele>1248.41</ele>
        <time>2019-04-04T14:55:33Z</time>
      </trkpt>
      <trkpt lat="60.18576" lon="7.47945">
        <ele>1249.85</ele>
        <time>2019-04-04T14:55:35Z</time>
      </trkpt>
      <trkpt lat="60.18577" lon="7.47936">
        <ele>1246.97</ele>
        <time>2019-04-04T14:55:38Z</time>
      </trkpt>
      <trkpt lat="60.18572" lon="7.47933">
        <ele>1246.97</ele>
        <time>2019-04-04T14:55:39Z</time>
      </trkpt>
      <trkpt lat="60.18551" lon="7.47915">
        <ele>1243.6</ele>
        <time>2019-04-04T14:55:42Z</time>
      </trkpt>
      <trkpt lat="60.18542" lon="7.47913">
        <ele>1243.6</ele>
        <time>2019-04-04T14:55:43Z</time>
      </trkpt>
      <trkpt lat="60.18533" lon="7.47914">
        <ele>1243.6</ele>
        <time>2019-04-04T14:55:44Z</time>
      </trkpt>
      <trkpt lat="60.18502" lon="7.47904">
        <ele>1242.64</ele>
        <time>2019-04-04T14:55:48Z</time>
      </trkpt>
      <trkpt lat="60.18491" lon="7.47904">
        <ele>1241.2</ele>
        <time>2019-04-04T14:55:50Z</time>
      </trkpt>
      <trkpt lat="60.18473" lon="7.47919">
        <ele>1241.2</ele>
        <time>2019-04-04T14:55:55Z</time>
      </trkpt>
      <trkpt lat="60.18486" lon="7.47921">
        <ele>1244.56</ele>
        <time>2019-04-04T14:55:59Z</time>
      </trkpt>
      <trkpt lat="60.18495" lon="7.47928">
        <ele>1245.04</ele>
        <time>2019-04-04T14:56:01Z</time>
      </trkpt>
      <trkpt lat="60.18517" lon="7.47938">
        <ele>1246.01</ele>
        <time>2019-04-04T14:56:05Z</time>
      </trkpt>
      <trkpt lat="60.18569" lon="7.47965">
        <ele>1249.85</ele>
        <time>2019-04-04T14:56:13Z</time>
      </trkpt>
      <trkpt lat="60.18608" lon="7.47965">
        <ele>1253.7</ele>
        <time>2019-04-04T14:56:18Z</time>
      </trkpt>
      <trkpt lat="60.18626" lon="7.4796">
        <ele>1255.14</ele>
        <time>2019-04-04T14:56:20Z</time>
      </trkpt>
      <trkpt lat="60.18667" lon="7.47938">
        <ele>1256.58</ele>
        <time>2019-04-04T14:56:25Z</time>
      </trkpt>
      <trkpt lat="60.18713" lon="7.47945">
        <ele>1258.02</ele>
        <time>2019-04-04T14:56:31Z</time>
      </trkpt>
      <trkpt lat="60.18733" lon="7.47952">
        <ele>1260.91</ele>
        <time>2019-04-04T14:56:34Z</time>
      </trkpt>
      <trkpt lat="60.18751" lon="7.47961">
        <ele>1264.27</ele>
        <time>2019-04-04T14:56:38Z</time>
      </trkpt>
      <trkpt lat="60.18748" lon="7.4796">
        <ele>1263.31</ele>
        <time>2019-04-04T14:56:42Z</time>
      </trkpt>
      <trkpt lat="60.18744" lon="7.47965">
        <ele>1263.31</ele>
        <time>2019-04-04T14:56:43Z</time>
      </trkpt>
      <trkpt lat="60.18722" lon="7.47992">
        <ele>1258.98</ele>
        <time>2019-04-04T14:56:47Z</time>
      </trkpt>
      <trkpt lat="60.18692" lon="7.48019">
        <ele>1256.58</ele>
        <time>2019-04-04T14:56:51Z</time>
      </trkpt>
      <trkpt lat="60.18643" lon="7.48056">
        <ele>1254.66</ele>
        <time>2019-04-04T14:56:58Z</time>
      </trkpt>
      <trkpt lat="60.18618" lon="7.48059">
        <ele>1256.58</ele>
        <time>2019-04-04T14:57:02Z</time>
      </trkpt>
      <trkpt lat="60.18603" lon="7.48066">
        <ele>1254.66</ele>
        <time>2019-04-04T14:57:05Z</time>
      </trkpt>
      <trkpt lat="60.18597" lon="7.48068">
        <ele>1254.66</ele>
        <time>2019-04-04T14:57:06Z</time>
      </trkpt>
      <trkpt lat="60.18585" lon="7.48074">
        <ele>1254.18</ele>
        <time>2019-04-04T14:57:08Z</time>
      </trkpt>
      <trkpt lat="60.18579" lon="7.48061">
        <ele>1253.7</ele>
        <time>2019-04-04T14:57:12Z</time>
      </trkpt>
      <trkpt lat="60.18587" lon="7.48049">
        <ele>1253.7</ele>
        <time>2019-04-04T14:57:14Z</time>
      </trkpt>
      <trkpt lat="60.18592" lon="7.48037">
        <ele>1252.74</ele>
        <time>2019-04-04T14:57:19Z</time>
      </trkpt>
      <trkpt lat="60.18566" lon="7.48059">
        <ele>1249.85</ele>
        <time>2019-04-04T14:57:25Z</time>
      </trkpt>
      <trkpt lat="60.18561" lon="7.48065">
        <ele>1251.29</ele>
        <time>2019-04-04T14:57:26Z</time>
      </trkpt>
      <trkpt lat="60.18549" lon="7.48079">
        <ele>1252.74</ele>
        <time>2019-04-04T14:57:28Z</time>
      </trkpt>
      <trkpt lat="60.18533" lon="7.48099">
        <ele>1250.33</ele>
        <time>2019-04-04T14:57:31Z</time>
      </trkpt>
      <trkpt lat="60.18504" lon="7.48132">
        <ele>1249.85</ele>
        <time>2019-04-04T14:57:36Z</time>
      </trkpt>
      <trkpt lat="60.18488" lon="7.48134">
        <ele>1247.45</ele>
        <time>2019-04-04T14:57:39Z</time>
      </trkpt>
      <trkpt lat="60.18476" lon="7.48159">
        <ele>1247.93</ele>
        <time>2019-04-04T14:57:46Z</time>
      </trkpt>
      <trkpt lat="60.18475" lon="7.48158">
        <ele>1246.97</ele>
        <time>2019-04-04T14:57:58Z</time>
      </trkpt>
      <trkpt lat="60.18474" lon="7.48158">
        <ele>1247.93</ele>
        <time>2019-04-04T14:58:11Z</time>
      </trkpt>
      <trkpt lat="60.1848" lon="7.48136">
        <ele>1248.89</ele>
        <time>2019-04-04T14:58:17Z</time>
      </trkpt>
      <trkpt lat="60.185" lon="7.4808">
        <ele>1248.89</ele>
        <time>2019-04-04T14:58:24Z</time>
      </trkpt>
      <trkpt lat="60.18514" lon="7.48036">
        <ele>1247.93</ele>
        <time>2019-04-04T14:58:29Z</time>
      </trkpt>
      <trkpt lat="60.18516" lon="7.48026">
        <ele>1247.93</ele>
        <time>2019-04-04T14:58:30Z</time>
      </trkpt>
      <trkpt lat="60.18517" lon="7.48017">
        <ele>1247.45</ele>
        <time>2019-04-04T14:58:31Z</time>
      </trkpt>
      <trkpt lat="60.18518" lon="7.48008">
        <ele>1246.97</ele>
        <time>2019-04-04T14:58:32Z</time>
      </trkpt>
      <trkpt lat="60.18519" lon="7.47999">
        <ele>1246.97</ele>
        <time>2019-04-04T14:58:33Z</time>
      </trkpt>
      <trkpt lat="60.1852" lon="7.47991">
        <ele>1246.97</ele>
        <time>2019-04-04T14:58:34Z</time>
      </trkpt>
      <trkpt lat="60.18528" lon="7.47962">
        <ele>1246.49</ele>
        <time>2019-04-04T14:58:39Z</time>
      </trkpt>
      <trkpt lat="60.18528" lon="7.4796">
        <ele>1246.01</ele>
        <time>2019-04-04T14:58:40Z</time>
      </trkpt>
      <trkpt lat="60.18523" lon="7.47959">
        <ele>1244.56</ele>
        <time>2019-04-04T14:58:46Z</time>
      </trkpt>
      <trkpt lat="60.1852" lon="7.47961">
        <ele>1244.56</ele>
        <time>2019-04-04T14:58:48Z</time>
      </trkpt>
      <trkpt lat="60.18517" lon="7.47964">
        <ele>1244.56</ele>
        <time>2019-04-04T14:58:49Z</time>
      </trkpt>
      <trkpt lat="60.18516" lon="7.47967">
        <ele>1244.08</ele>
        <time>2019-04-04T14:58:50Z</time>
      </trkpt>
      <trkpt lat="60.18514" lon="7.4797">
        <ele>1246.01</ele>
        <time>2019-04-04T14:58:51Z</time>
      </trkpt>
      <trkpt lat="60.18513" lon="7.47973">
        <ele>1246.01</ele>
        <time>2019-04-04T14:58:52Z</time>
      </trkpt>
      <trkpt lat="60.18511" lon="7.47976">
        <ele>1246.01</ele>
        <time>2019-04-04T14:59:03Z</time>
      </trkpt>
      <trkpt lat="60.18511" lon="7.47975">
        <ele>1246.01</ele>
        <time>2019-04-04T14:59:08Z</time>
      </trkpt>
      <trkpt lat="60.18513" lon="7.47967">
        <ele>1246.01</ele>
        <time>2019-04-04T14:59:10Z</time>
      </trkpt>
      <trkpt lat="60.18518" lon="7.47961">
        <ele>1246.49</ele>
        <time>2019-04-04T14:59:11Z</time>
      </trkpt>
      <trkpt lat="60.18524" lon="7.47957">
        <ele>1246.49</ele>
        <time>2019-04-04T14:59:12Z</time>
      </trkpt>
      <trkpt lat="60.18532" lon="7.47954">
        <ele>1247.45</ele>
        <time>2019-04-04T14:59:13Z</time>
      </trkpt>
      <trkpt lat="60.18539" lon="7.4795">
        <ele>1247.45</ele>
        <time>2019-04-04T14:59:14Z</time>
      </trkpt>
      <trkpt lat="60.18548" lon="7.47946">
        <ele>1247.93</ele>
        <time>2019-04-04T14:59:15Z</time>
      </trkpt>
      <trkpt lat="60.18584" lon="7.47927">
        <ele>1251.77</ele>
        <time>2019-04-04T14:59:19Z</time>
      </trkpt>
      <trkpt lat="60.18618" lon="7.47907">
        <ele>1254.18</ele>
        <time>2019-04-04T14:59:23Z</time>
      </trkpt>
      <trkpt lat="60.18633" lon="7.479">
        <ele>1255.14</ele>
        <time>2019-04-04T14:59:25Z</time>
      </trkpt>
      <trkpt lat="60.18664" lon="7.47878">
        <ele>1254.18</ele>
        <time>2019-04-04T14:59:29Z</time>
      </trkpt>
      <trkpt lat="60.18727" lon="7.4786">
        <ele>1256.1</ele>
        <time>2019-04-04T14:59:36Z</time>
      </trkpt>
      <trkpt lat="60.18768" lon="7.47849">
        <ele>1259.46</ele>
        <time>2019-04-04T14:59:41Z</time>
      </trkpt>
      <trkpt lat="60.18775" lon="7.47848">
        <ele>1260.43</ele>
        <time>2019-04-04T14:59:42Z</time>
      </trkpt>
      <trkpt lat="60.18801" lon="7.47844">
        <ele>1262.83</ele>
        <time>2019-04-04T14:59:46Z</time>
      </trkpt>
      <trkpt lat="60.18829" lon="7.47848">
        <ele>1264.75</ele>
        <time>2019-04-04T14:59:51Z</time>
      </trkpt>
      <trkpt lat="60.18833" lon="7.47843">
        <ele>1264.75</ele>
        <time>2019-04-04T14:59:59Z</time>
      </trkpt>
      <trkpt lat="60.18831" lon="7.47844">
        <ele>1264.75</ele>
        <time>2019-04-04T15:00:24Z</time>
      </trkpt>
      <trkpt lat="60.18831" lon="7.47844">
        <ele>1264.75</ele>
        <time>2019-04-04T15:00:48Z</time>
      </trkpt>
      <trkpt lat="60.18831" lon="7.47844">
        <ele>1263.31</ele>
        <time>2019-04-04T15:00:51Z</time>
      </trkpt>
      <trkpt lat="60.18831" lon="7.47843">
        <ele>1263.31</ele>
        <time>2019-04-04T15:01:13Z</time>
      </trkpt>
      <trkpt lat="60.18831" lon="7.47842">
        <ele>1262.83</ele>
        <time>2019-04-04T15:01:30Z</time>
      </trkpt>
      <trkpt lat="60.1883" lon="7.47842">
        <ele>1262.83</ele>
        <time>2019-04-04T15:01:33Z</time>
      </trkpt>
      <trkpt lat="60.18822" lon="7.47845">
        <ele>1261.87</ele>
        <time>2019-04-04T15:01:37Z</time>
      </trkpt>
      <trkpt lat="60.18806" lon="7.47858">
        <ele>1263.79</ele>
        <time>2019-04-04T15:01:40Z</time>
      </trkpt>
      <trkpt lat="60.18762" lon="7.47903">
        <ele>1264.75</ele>
        <time>2019-04-04T15:01:47Z</time>
      </trkpt>
      <trkpt lat="60.18726" lon="7.47919">
        <ele>1261.87</ele>
        <time>2019-04-04T15:01:51Z</time>
      </trkpt>
      <trkpt lat="60.18697" lon="7.47924">
        <ele>1258.02</ele>
        <time>2019-04-04T15:01:54Z</time>
      </trkpt>
      <trkpt lat="60.18632" lon="7.47956">
        <ele>1255.62</ele>
        <time>2019-04-04T15:02:02Z</time>
      </trkpt>
      <trkpt lat="60.18619" lon="7.47969">
        <ele>1254.66</ele>
        <time>2019-04-04T15:02:04Z</time>
      </trkpt>
      <trkpt lat="60.18567" lon="7.48033">
        <ele>1250.81</ele>
        <time>2019-04-04T15:02:12Z</time>
      </trkpt>
      <trkpt lat="60.18562" lon="7.4804">
        <ele>1250.81</ele>
        <time>2019-04-04T15:02:13Z</time>
      </trkpt>
      <trkpt lat="60.18557" lon="7.48046">
        <ele>1250.81</ele>
        <time>2019-04-04T15:02:14Z</time>
      </trkpt>
      <trkpt lat="60.18547" lon="7.48052">
        <ele>1250.81</ele>
        <time>2019-04-04T15:02:16Z</time>
      </trkpt>
      <trkpt lat="60.1853" lon="7.48066">
        <ele>1249.37</ele>
        <time>2019-04-04T15:02:19Z</time>
      </trkpt>
      <trkpt lat="60.18515" lon="7.48095">
        <ele>1249.37</ele>
        <time>2019-04-04T15:02:23Z</time>
      </trkpt>
      <trkpt lat="60.18509" lon="7.48115">
        <ele>1250.81</ele>
        <time>2019-04-04T15:02:28Z</time>
      </trkpt>
      <trkpt lat="60.18508" lon="7.48115">
        <ele>1249.37</ele>
        <time>2019-04-04T15:02:31Z</time>
      </trkpt>
      <trkpt lat="60.18505" lon="7.48118">
        <ele>1248.89</ele>
        <time>2019-04-04T15:02:36Z</time>
      </trkpt>
      <trkpt lat="60.18498" lon="7.48131">
        <ele>1248.41</ele>
        <time>2019-04-04T15:02:42Z</time>
      </trkpt>
      <trkpt lat="60.18494" lon="7.48134">
        <ele>1247.93</ele>
        <time>2019-04-04T15:02:54Z</time>
      </trkpt>
      <trkpt lat="60.18494" lon="7.48135">
        <ele>1247.93</ele>
        <time>2019-04-04T15:03:09Z</time>
      </trkpt>
      <trkpt lat="60.18487" lon="7.48135">
        <ele>1247.45</ele>
        <time>2019-04-04T15:03:13Z</time>
      </trkpt>
      <trkpt lat="60.18479" lon="7.48119">
        <ele>1247.45</ele>
        <time>2019-04-04T15:03:15Z</time>
      </trkpt>
      <trkpt lat="60.18458" lon="7.48098">
        <ele>1246.01</ele>
        <time>2019-04-04T15:03:18Z</time>
      </trkpt>
      <trkpt lat="60.1845" lon="7.48096">
        <ele>1246.01</ele>
        <time>2019-04-04T15:03:19Z</time>
      </trkpt>
      <trkpt lat="60.18442" lon="7.48095">
        <ele>1243.6</ele>
        <time>2019-04-04T15:03:20Z</time>
      </trkpt>
      <trkpt lat="60.18427" lon="7.48094">
        <ele>1247.45</ele>
        <time>2019-04-04T15:03:22Z</time>
      </trkpt>
      <trkpt lat="60.18419" lon="7.48095">
        <ele>1247.45</ele>
        <time>2019-04-04T15:03:23Z</time>
      </trkpt>
      <trkpt lat="60.18413" lon="7.48098">
        <ele>1245.04</ele>
        <time>2019-04-04T15:03:24Z</time>
      </trkpt>
      <trkpt lat="60.18407" lon="7.48102">
        <ele>1243.6</ele>
        <time>2019-04-04T15:03:25Z</time>
      </trkpt>
      <trkpt lat="60.18391" lon="7.48116">
        <ele>1246.01</ele>
        <time>2019-04-04T15:03:28Z</time>
      </trkpt>
      <trkpt lat="60.1838" lon="7.48129">
        <ele>1246.49</ele>
        <time>2019-04-04T15:03:30Z</time>
      </trkpt>
      <trkpt lat="60.18375" lon="7.48136">
        <ele>1245.53</ele>
        <time>2019-04-04T15:03:31Z</time>
      </trkpt>
      <trkpt lat="60.18355" lon="7.48151">
        <ele>1242.16</ele>
        <time>2019-04-04T15:03:34Z</time>
      </trkpt>
      <trkpt lat="60.18338" lon="7.48161">
        <ele>1240.72</ele>
        <time>2019-04-04T15:03:36Z</time>
      </trkpt>
      <trkpt lat="60.18299" lon="7.48174">
        <ele>1244.08</ele>
        <time>2019-04-04T15:03:40Z</time>
      </trkpt>
      <trkpt lat="60.18289" lon="7.48177">
        <ele>1244.08</ele>
        <time>2019-04-04T15:03:41Z</time>
      </trkpt>
      <trkpt lat="60.182" lon="7.48206">
        <ele>1244.08</ele>
        <time>2019-04-04T15:03:50Z</time>
      </trkpt>
      <trkpt lat="60.1818" lon="7.48215">
        <ele>1246.49</ele>
        <time>2019-04-04T15:03:52Z</time>
      </trkpt>
      <trkpt lat="60.18116" lon="7.48244">
        <ele>1242.16</ele>
        <time>2019-04-04T15:03:59Z</time>
      </trkpt>
      <trkpt lat="60.18107" lon="7.48248">
        <ele>1242.16</ele>
        <time>2019-04-04T15:04:00Z</time>
      </trkpt>
      <trkpt lat="60.18088" lon="7.48255">
        <ele>1244.08</ele>
        <time>2019-04-04T15:04:02Z</time>
      </trkpt>
      <trkpt lat="60.18068" lon="7.4826">
        <ele>1242.64</ele>
        <time>2019-04-04T15:04:04Z</time>
      </trkpt>
      <trkpt lat="60.17978" lon="7.48286">
        <ele>1239.28</ele>
        <time>2019-04-04T15:04:13Z</time>
      </trkpt>
      <trkpt lat="60.17967" lon="7.48289">
        <ele>1239.28</ele>
        <time>2019-04-04T15:04:14Z</time>
      </trkpt>
      <trkpt lat="60.17918" lon="7.48302">
        <ele>1235.91</ele>
        <time>2019-04-04T15:04:19Z</time>
      </trkpt>
      <trkpt lat="60.17907" lon="7.48302">
        <ele>1235.91</ele>
        <time>2019-04-04T15:04:20Z</time>
      </trkpt>
      <trkpt lat="60.17887" lon="7.48302">
        <ele>1239.28</ele>
        <time>2019-04-04T15:04:22Z</time>
      </trkpt>
      <trkpt lat="60.17867" lon="7.48303">
        <ele>1240.24</ele>
        <time>2019-04-04T15:04:24Z</time>
      </trkpt>
      <trkpt lat="60.1781" lon="7.4831">
        <ele>1242.64</ele>
        <time>2019-04-04T15:04:30Z</time>
      </trkpt>
      <trkpt lat="60.17796" lon="7.48316">
        <ele>1241.2</ele>
        <time>2019-04-04T15:04:32Z</time>
      </trkpt>
      <trkpt lat="60.17791" lon="7.48309">
        <ele>1239.28</ele>
        <time>2019-04-04T15:04:34Z</time>
      </trkpt>
      <trkpt lat="60.17798" lon="7.48304">
        <ele>1240.72</ele>
        <time>2019-04-04T15:04:36Z</time>
      </trkpt>
      <trkpt lat="60.17811" lon="7.48303">
        <ele>1241.68</ele>
        <time>2019-04-04T15:04:38Z</time>
      </trkpt>
      <trkpt lat="60.17828" lon="7.48297">
        <ele>1241.68</ele>
        <time>2019-04-04T15:04:40Z</time>
      </trkpt>
      <trkpt lat="60.1791" lon="7.48297">
        <ele>1242.64</ele>
        <time>2019-04-04T15:04:49Z</time>
      </trkpt>
      <trkpt lat="60.17938" lon="7.48296">
        <ele>1242.64</ele>
        <time>2019-04-04T15:04:52Z</time>
      </trkpt>
      <trkpt lat="60.18032" lon="7.48286">
        <ele>1243.12</ele>
        <time>2019-04-04T15:05:02Z</time>
      </trkpt>
      <trkpt lat="60.18052" lon="7.4828">
        <ele>1243.6</ele>
        <time>2019-04-04T15:05:04Z</time>
      </trkpt>
      <trkpt lat="60.18155" lon="7.48231">
        <ele>1244.56</ele>
        <time>2019-04-04T15:05:14Z</time>
      </trkpt>
      <trkpt lat="60.18242" lon="7.48201">
        <ele>1245.53</ele>
        <time>2019-04-04T15:05:23Z</time>
      </trkpt>
      <trkpt lat="60.1833" lon="7.48173">
        <ele>1246.01</ele>
        <time>2019-04-04T15:05:32Z</time>
      </trkpt>
      <trkpt lat="60.18408" lon="7.48123">
        <ele>1246.97</ele>
        <time>2019-04-04T15:05:41Z</time>
      </trkpt>
      <trkpt lat="60.18422" lon="7.48116">
        <ele>1248.41</ele>
        <time>2019-04-04T15:05:43Z</time>
      </trkpt>
      <trkpt lat="60.18428" lon="7.4811">
        <ele>1248.41</ele>
        <time>2019-04-04T15:05:44Z</time>
      </trkpt>
      <trkpt lat="60.18435" lon="7.48105">
        <ele>1246.97</ele>
        <time>2019-04-04T15:05:45Z</time>
      </trkpt>
      <trkpt lat="60.18443" lon="7.48103">
        <ele>1246.97</ele>
        <time>2019-04-04T15:05:46Z</time>
      </trkpt>
      <trkpt lat="60.1845" lon="7.48103">
        <ele>1246.97</ele>
        <time>2019-04-04T15:05:47Z</time>
      </trkpt>
      <trkpt lat="60.18457" lon="7.48105">
        <ele>1247.93</ele>
        <time>2019-04-04T15:05:48Z</time>
      </trkpt>
      <trkpt lat="60.18463" lon="7.48109">
        <ele>1247.93</ele>
        <time>2019-04-04T15:05:49Z</time>
      </trkpt>
      <trkpt lat="60.18477" lon="7.4812">
        <ele>1247.93</ele>
        <time>2019-04-04T15:05:52Z</time>
      </trkpt>
      <trkpt lat="60.18507" lon="7.48136">
        <ele>1251.77</ele>
        <time>2019-04-04T15:05:58Z</time>
      </trkpt>
      <trkpt lat="60.18514" lon="7.48135">
        <ele>1252.25</ele>
        <time>2019-04-04T15:06:00Z</time>
      </trkpt>
      <trkpt lat="60.185" lon="7.48135">
        <ele>1250.33</ele>
        <time>2019-04-04T15:06:04Z</time>
      </trkpt>
      <trkpt lat="60.18478" lon="7.48129">
        <ele>1245.53</ele>
        <time>2019-04-04T15:06:07Z</time>
      </trkpt>
      <trkpt lat="60.1847" lon="7.48119">
        <ele>1245.53</ele>
        <time>2019-04-04T15:06:08Z</time>
      </trkpt>
      <trkpt lat="60.18454" lon="7.48102">
        <ele>1247.93</ele>
        <time>2019-04-04T15:06:10Z</time>
      </trkpt>
      <trkpt lat="60.18446" lon="7.48099">
        <ele>1247.93</ele>
        <time>2019-04-04T15:06:11Z</time>
      </trkpt>
      <trkpt lat="60.18439" lon="7.48099">
        <ele>1246.49</ele>
        <time>2019-04-04T15:06:12Z</time>
      </trkpt>
      <trkpt lat="60.18432" lon="7.48101">
        <ele>1246.01</ele>
        <time>2019-04-04T15:06:13Z</time>
      </trkpt>
      <trkpt lat="60.18424" lon="7.48103">
        <ele>1246.01</ele>
        <time>2019-04-04T15:06:14Z</time>
      </trkpt>
      <trkpt lat="60.18416" lon="7.48106">
        <ele>1247.45</ele>
        <time>2019-04-04T15:06:15Z</time>
      </trkpt>
      <trkpt lat="60.18408" lon="7.4811">
        <ele>1247.45</ele>
        <time>2019-04-04T15:06:16Z</time>
      </trkpt>
      <trkpt lat="60.18392" lon="7.48117">
        <ele>1249.85</ele>
        <time>2019-04-04T15:06:18Z</time>
      </trkpt>
      <trkpt lat="60.18368" lon="7.48132">
        <ele>1245.04</ele>
        <time>2019-04-04T15:06:21Z</time>
      </trkpt>
      <trkpt lat="60.1836" lon="7.48138">
        <ele>1245.04</ele>
        <time>2019-04-04T15:06:22Z</time>
      </trkpt>
      <trkpt lat="60.18351" lon="7.48144">
        <ele>1245.04</ele>
        <time>2019-04-04T15:06:23Z</time>
      </trkpt>
      <trkpt lat="60.18335" lon="7.48158">
        <ele>1246.49</ele>
        <time>2019-04-04T15:06:25Z</time>
      </trkpt>
      <trkpt lat="60.18302" lon="7.48188">
        <ele>1244.08</ele>
        <time>2019-04-04T15:06:29Z</time>
      </trkpt>
      <trkpt lat="60.18243" lon="7.4825">
        <ele>1246.01</ele>
        <time>2019-04-04T15:06:37Z</time>
      </trkpt>
      <trkpt lat="60.18213" lon="7.4828">
        <ele>1245.53</ele>
        <time>2019-04-04T15:06:41Z</time>
      </trkpt>
      <trkpt lat="60.18174" lon="7.48315">
        <ele>1243.6</ele>
        <time>2019-04-04T15:06:46Z</time>
      </trkpt>
      <trkpt lat="60.18086" lon="7.4836">
        <ele>1244.56</ele>
        <time>2019-04-04T15:06:56Z</time>
      </trkpt>
      <trkpt lat="60.18057" lon="7.48372">
        <ele>1240.24</ele>
        <time>2019-04-04T15:06:59Z</time>
      </trkpt>
      <trkpt lat="60.17993" lon="7.48386">
        <ele>1241.2</ele>
        <time>2019-04-04T15:07:05Z</time>
      </trkpt>
      <trkpt lat="60.1795" lon="7.48394">
        <ele>1241.2</ele>
        <time>2019-04-04T15:07:09Z</time>
      </trkpt>
      <trkpt lat="60.17918" lon="7.48399">
        <ele>1239.76</ele>
        <time>2019-04-04T15:07:12Z</time>
      </trkpt>
      <trkpt lat="60.17888" lon="7.48404">
        <ele>1241.68</ele>
        <time>2019-04-04T15:07:15Z</time>
      </trkpt>
      <trkpt lat="60.17773" lon="7.48415">
        <ele>1239.28</ele>
        <time>2019-04-04T15:07:26Z</time>
      </trkpt>
      <trkpt lat="60.17732" lon="7.48419">
        <ele>1239.28</ele>
        <time>2019-04-04T15:07:30Z</time>
      </trkpt>
      <trkpt lat="60.17701" lon="7.4842">
        <ele>1235.91</ele>
        <time>2019-04-04T15:07:33Z</time>
      </trkpt>
      <trkpt lat="60.17691" lon="7.48421">
        <ele>1235.91</ele>
        <time>2019-04-04T15:07:34Z</time>
      </trkpt>
      <trkpt lat="60.17681" lon="7.48421">
        <ele>1239.76</ele>
        <time>2019-04-04T15:07:35Z</time>
      </trkpt>
      <trkpt lat="60.17635" lon="7.4843">
        <ele>1239.28</ele>
        <time>2019-04-04T15:07:40Z</time>
      </trkpt>
      <trkpt lat="60.17591" lon="7.4844">
        <ele>1240.24</ele>
        <time>2019-04-04T15:07:45Z</time>
      </trkpt>
      <trkpt lat="60.17495" lon="7.4846">
        <ele>1244.56</ele>
        <time>2019-04-04T15:07:55Z</time>
      </trkpt>
      <trkpt lat="60.17391" lon="7.48486">
        <ele>1243.6</ele>
        <time>2019-04-04T15:08:06Z</time>
      </trkpt>
      <trkpt lat="60.17352" lon="7.48496">
        <ele>1240.24</ele>
        <time>2019-04-04T15:08:10Z</time>
      </trkpt>
      <trkpt lat="60.17333" lon="7.48499">
        <ele>1238.32</ele>
        <time>2019-04-04T15:08:12Z</time>
      </trkpt>
      <trkpt lat="60.17247" lon="7.48523">
        <ele>1238.32</ele>
        <time>2019-04-04T15:08:22Z</time>
      </trkpt>
      <trkpt lat="60.17241" lon="7.48525">
        <ele>1240.24</ele>
        <time>2019-04-04T15:08:23Z</time>
      </trkpt>
      <trkpt lat="60.17231" lon="7.48521">
        <ele>1237.35</ele>
        <time>2019-04-04T15:08:26Z</time>
      </trkpt>
      <trkpt lat="60.17232" lon="7.48524">
        <ele>1237.83</ele>
        <time>2019-04-04T15:08:39Z</time>
      </trkpt>
      <trkpt lat="60.17233" lon="7.48523">
        <ele>1237.83</ele>
        <time>2019-04-04T15:08:53Z</time>
      </trkpt>
      <trkpt lat="60.17232" lon="7.48523">
        <ele>1237.35</ele>
        <time>2019-04-04T15:09:11Z</time>
      </trkpt>
      <trkpt lat="60.17231" lon="7.48524">
        <ele>1237.35</ele>
        <time>2019-04-04T15:09:37Z</time>
      </trkpt>
      <trkpt lat="60.17231" lon="7.48523">
        <ele>1237.35</ele>
        <time>2019-04-04T15:09:59Z</time>
      </trkpt>
      <trkpt lat="60.17231" lon="7.48522">
        <ele>1237.35</ele>
        <time>2019-04-04T15:10:17Z</time>
      </trkpt>
      <trkpt lat="60.17231" lon="7.48522">
        <ele>1237.35</ele>
        <time>2019-04-04T15:10:33Z</time>
      </trkpt>
      <trkpt lat="60.17232" lon="7.48523">
        <ele>1237.35</ele>
        <time>2019-04-04T15:11:03Z</time>
      </trkpt>
      <trkpt lat="60.17232" lon="7.48523">
        <ele>1237.35</ele>
        <time>2019-04-04T15:11:28Z</time>
      </trkpt>
      <trkpt lat="60.17231" lon="7.48524">
        <ele>1237.35</ele>
        <time>2019-04-04T15:11:46Z</time>
      </trkpt>
      <trkpt lat="60.17232" lon="7.48522">
        <ele>1237.35</ele>
        <time>2019-04-04T15:11:53Z</time>
      </trkpt>
      <trkpt lat="60.17239" lon="7.48507">
        <ele>1237.35</ele>
        <time>2019-04-04T15:11:57Z</time>
      </trkpt>
      <trkpt lat="60.17247" lon="7.485">
        <ele>1237.35</ele>
        <time>2019-04-04T15:11:59Z</time>
      </trkpt>
      <trkpt lat="60.17274" lon="7.48498">
        <ele>1238.8</ele>
        <time>2019-04-04T15:12:04Z</time>
      </trkpt>
      <trkpt lat="60.17299" lon="7.48504">
        <ele>1238.8</ele>
        <time>2019-04-04T15:12:08Z</time>
      </trkpt>
      <trkpt lat="60.17336" lon="7.48499">
        <ele>1239.28</ele>
        <time>2019-04-04T15:12:15Z</time>
      </trkpt>
      <trkpt lat="60.17356" lon="7.48488">
        <ele>1240.72</ele>
        <time>2019-04-04T15:12:19Z</time>
      </trkpt>
      <trkpt lat="60.17397" lon="7.48485">
        <ele>1242.64</ele>
        <time>2019-04-04T15:12:25Z</time>
      </trkpt>
      <trkpt lat="60.17459" lon="7.4846">
        <ele>1244.08</ele>
        <time>2019-04-04T15:12:33Z</time>
      </trkpt>
      <trkpt lat="60.17536" lon="7.48443">
        <ele>1245.53</ele>
        <time>2019-04-04T15:12:41Z</time>
      </trkpt>
      <trkpt lat="60.17635" lon="7.48426">
        <ele>1246.49</ele>
        <time>2019-04-04T15:12:51Z</time>
      </trkpt>
      <trkpt lat="60.17664" lon="7.48415">
        <ele>1243.12</ele>
        <time>2019-04-04T15:12:54Z</time>
      </trkpt>
      <trkpt lat="60.1771" lon="7.48418">
        <ele>1242.16</ele>
        <time>2019-04-04T15:12:59Z</time>
      </trkpt>
      <trkpt lat="60.17796" lon="7.48404">
        <ele>1241.68</ele>
        <time>2019-04-04T15:13:08Z</time>
      </trkpt>
      <trkpt lat="60.17886" lon="7.48371">
        <ele>1241.68</ele>
        <time>2019-04-04T15:13:17Z</time>
      </trkpt>
      <trkpt lat="60.17905" lon="7.4836">
        <ele>1241.68</ele>
        <time>2019-04-04T15:13:19Z</time>
      </trkpt>
      <trkpt lat="60.18003" lon="7.48324">
        <ele>1241.68</ele>
        <time>2019-04-04T15:13:29Z</time>
      </trkpt>
      <trkpt lat="60.18052" lon="7.48314">
        <ele>1243.12</ele>
        <time>2019-04-04T15:13:34Z</time>
      </trkpt>
      <trkpt lat="60.1808" lon="7.48306">
        <ele>1244.56</ele>
        <time>2019-04-04T15:13:37Z</time>
      </trkpt>
      <trkpt lat="60.18104" lon="7.48284">
        <ele>1243.6</ele>
        <time>2019-04-04T15:13:40Z</time>
      </trkpt>
      <trkpt lat="60.18121" lon="7.48273">
        <ele>1243.6</ele>
        <time>2019-04-04T15:13:42Z</time>
      </trkpt>
      <trkpt lat="60.18217" lon="7.48231">
        <ele>1244.56</ele>
        <time>2019-04-04T15:13:52Z</time>
      </trkpt>
      <trkpt lat="60.18316" lon="7.48185">
        <ele>1245.04</ele>
        <time>2019-04-04T15:14:02Z</time>
      </trkpt>
      <trkpt lat="60.18343" lon="7.48172">
        <ele>1245.53</ele>
        <time>2019-04-04T15:14:05Z</time>
      </trkpt>
      <trkpt lat="60.18398" lon="7.4813">
        <ele>1247.45</ele>
        <time>2019-04-04T15:14:12Z</time>
      </trkpt>
      <trkpt lat="60.18404" lon="7.48122">
        <ele>1247.45</ele>
        <time>2019-04-04T15:14:13Z</time>
      </trkpt>
      <trkpt lat="60.18411" lon="7.48119">
        <ele>1247.93</ele>
        <time>2019-04-04T15:14:14Z</time>
      </trkpt>
      <trkpt lat="60.18417" lon="7.48115">
        <ele>1246.49</ele>
        <time>2019-04-04T15:14:15Z</time>
      </trkpt>
      <trkpt lat="60.18423" lon="7.48111">
        <ele>1246.49</ele>
        <time>2019-04-04T15:14:16Z</time>
      </trkpt>
      <trkpt lat="60.1843" lon="7.48108">
        <ele>1246.01</ele>
        <time>2019-04-04T15:14:17Z</time>
      </trkpt>
      <trkpt lat="60.18446" lon="7.48109">
        <ele>1246.01</ele>
        <time>2019-04-04T15:14:20Z</time>
      </trkpt>
      <trkpt lat="60.18451" lon="7.48113">
        <ele>1246.01</ele>
        <time>2019-04-04T15:14:21Z</time>
      </trkpt>
      <trkpt lat="60.18473" lon="7.48136">
        <ele>1247.45</ele>
        <time>2019-04-04T15:14:27Z</time>
      </trkpt>
      <trkpt lat="60.18482" lon="7.48146">
        <ele>1248.41</ele>
        <time>2019-04-04T15:14:30Z</time>
      </trkpt>
      <trkpt lat="60.18485" lon="7.4814">
        <ele>1248.41</ele>
        <time>2019-04-04T15:14:35Z</time>
      </trkpt>
      <trkpt lat="60.18484" lon="7.48141">
        <ele>1246.97</ele>
        <time>2019-04-04T15:14:44Z</time>
      </trkpt>
      <trkpt lat="60.18483" lon="7.48141">
        <ele>1246.49</ele>
        <time>2019-04-04T15:14:57Z</time>
      </trkpt>
      <trkpt lat="60.18482" lon="7.48142">
        <ele>1245.04</ele>
        <time>2019-04-04T15:15:17Z</time>
      </trkpt>
      <trkpt lat="60.18482" lon="7.48141">
        <ele>1248.41</ele>
        <time>2019-04-04T15:15:20Z</time>
      </trkpt>
      <trkpt lat="60.18482" lon="7.48141">
        <ele>1248.41</ele>
        <time>2019-04-04T15:15:21Z</time>
      </trkpt>
      <trkpt lat="60.18483" lon="7.4814">
        <ele>1247.45</ele>
        <time>2019-04-04T15:15:23Z</time>
      </trkpt>
      <trkpt lat="60.18483" lon="7.48141">
        <ele>1247.93</ele>
        <time>2019-04-04T15:15:34Z</time>
      </trkpt>
      <trkpt lat="60.18483" lon="7.48141">
        <ele>1246.49</ele>
        <time>2019-04-04T15:15:36Z</time>
      </trkpt>
      <trkpt lat="60.18483" lon="7.4814">
        <ele>1247.45</ele>
        <time>2019-04-04T15:15:51Z</time>
      </trkpt>
      <trkpt lat="60.18483" lon="7.48139">
        <ele>1247.45</ele>
        <time>2019-04-04T15:16:07Z</time>
      </trkpt>
      <trkpt lat="60.18483" lon="7.48139">
        <ele>1247.93</ele>
        <time>2019-04-04T15:16:24Z</time>
      </trkpt>
      <trkpt lat="60.18482" lon="7.48138">
        <ele>1247.93</ele>
        <time>2019-04-04T15:16:34Z</time>
      </trkpt>
      <trkpt lat="60.18476" lon="7.48125">
        <ele>1247.93</ele>
        <time>2019-04-04T15:16:41Z</time>
      </trkpt>
      <trkpt lat="60.18472" lon="7.48103">
        <ele>1246.01</ele>
        <time>2019-04-04T15:16:52Z</time>
      </trkpt>
      <trkpt lat="60.18471" lon="7.48102">
        <ele>1244.56</ele>
        <time>2019-04-04T15:16:57Z</time>
      </trkpt>
      <trkpt lat="60.18471" lon="7.48102">
        <ele>1246.49</ele>
        <time>2019-04-04T15:16:59Z</time>
      </trkpt>
      <trkpt lat="60.18472" lon="7.48102">
        <ele>1246.49</ele>
        <time>2019-04-04T15:17:18Z</time>
      </trkpt>
      <trkpt lat="60.18472" lon="7.48101">
        <ele>1246.49</ele>
        <time>2019-04-04T15:17:40Z</time>
      </trkpt>
      <trkpt lat="60.18473" lon="7.48101">
        <ele>1246.97</ele>
        <time>2019-04-04T15:18:02Z</time>
      </trkpt>
    </trkseg>
  </trk>
</gpx>